<?xml version="1.0" encoding="UTF-8" standalone="no" ?>
<gpx xmlns="http://www.topografix.com/GPX/1/1" xmlns:xsi="http://www.w3.org/2001/XMLSchema-instance" xsi:schemaLocation="http://www.topografix.com/GPX/1/1 http://www.topografix.com/GPX/1/1/gpx.xsd" version="1.1" creator="VisuGPX - https://www.visugpx.com">
  <metadata>
    <name>monts de nuit sous l'eclipse de lune</name>
  </metadata>
  <trk>
    <name><![CDATA[monts de nuit sous l'eclipse de lune]]></name>
    <trkseg>
      <trkpt lat="50.64226" lon="2.98664">
        <ele>37.200000762939</ele>
        <time>2019-07-16T19:28:29.000Z</time>
      </trkpt>
      <trkpt lat="50.64225" lon="2.98664">
        <ele>37.200000762939</ele>
        <time>2019-07-16T19:28:30.000Z</time>
      </trkpt>
      <trkpt lat="50.64222" lon="2.98659">
        <ele>37.200000762939</ele>
        <time>2019-07-16T19:28:45.000Z</time>
      </trkpt>
      <trkpt lat="50.64225" lon="2.98656">
        <ele>37.200000762939</ele>
        <time>2019-07-16T19:29:15.000Z</time>
      </trkpt>
      <trkpt lat="50.64225" lon="2.98661">
        <ele>37.200000762939</ele>
        <time>2019-07-16T19:29:46.000Z</time>
      </trkpt>
      <trkpt lat="50.64226" lon="2.98661">
        <ele>37.200000762939</ele>
        <time>2019-07-16T19:30:21.000Z</time>
      </trkpt>
      <trkpt lat="50.64226" lon="2.98658">
        <ele>37.200000762939</ele>
        <time>2019-07-16T19:31:05.000Z</time>
      </trkpt>
      <trkpt lat="50.64224" lon="2.98659">
        <ele>37.200000762939</ele>
        <time>2019-07-16T19:31:48.000Z</time>
      </trkpt>
      <trkpt lat="50.64223" lon="2.98663">
        <ele>37.200000762939</ele>
        <time>2019-07-16T19:32:31.000Z</time>
      </trkpt>
      <trkpt lat="50.6422" lon="2.98663">
        <ele>37</ele>
        <time>2019-07-16T19:33:24.000Z</time>
      </trkpt>
      <trkpt lat="50.64218" lon="2.98656">
        <ele>37</ele>
        <time>2019-07-16T19:33:39.000Z</time>
      </trkpt>
      <trkpt lat="50.64217" lon="2.98651">
        <ele>37</ele>
        <time>2019-07-16T19:33:45.000Z</time>
      </trkpt>
      <trkpt lat="50.64217" lon="2.98644">
        <ele>37</ele>
        <time>2019-07-16T19:33:57.000Z</time>
      </trkpt>
      <trkpt lat="50.64216" lon="2.98643">
        <ele>37</ele>
        <time>2019-07-16T19:34:15.000Z</time>
      </trkpt>
      <trkpt lat="50.64243" lon="2.98624">
        <ele>37.799999237061</ele>
        <time>2019-07-16T19:34:27.000Z</time>
      </trkpt>
      <trkpt lat="50.6425" lon="2.98625">
        <ele>38.200000762939</ele>
        <time>2019-07-16T19:34:29.000Z</time>
      </trkpt>
      <trkpt lat="50.64253" lon="2.98629">
        <ele>38.200000762939</ele>
        <time>2019-07-16T19:34:30.000Z</time>
      </trkpt>
      <trkpt lat="50.64255" lon="2.98633">
        <ele>38.200000762939</ele>
        <time>2019-07-16T19:34:31.000Z</time>
      </trkpt>
      <trkpt lat="50.64262" lon="2.98659">
        <ele>38.599998474121</ele>
        <time>2019-07-16T19:34:35.000Z</time>
      </trkpt>
      <trkpt lat="50.64267" lon="2.98673">
        <ele>38.799999237061</ele>
        <time>2019-07-16T19:34:37.000Z</time>
      </trkpt>
      <trkpt lat="50.64269" lon="2.98683">
        <ele>38.599998474121</ele>
        <time>2019-07-16T19:34:38.000Z</time>
      </trkpt>
      <trkpt lat="50.64285" lon="2.9876">
        <ele>38.400001525879</ele>
        <time>2019-07-16T19:34:47.000Z</time>
      </trkpt>
      <trkpt lat="50.64288" lon="2.98769">
        <ele>38.400001525879</ele>
        <time>2019-07-16T19:34:48.000Z</time>
      </trkpt>
      <trkpt lat="50.64305" lon="2.98818">
        <ele>38.400001525879</ele>
        <time>2019-07-16T19:34:54.000Z</time>
      </trkpt>
      <trkpt lat="50.6431" lon="2.98829">
        <ele>38.400001525879</ele>
        <time>2019-07-16T19:34:56.000Z</time>
      </trkpt>
      <trkpt lat="50.64315" lon="2.98837">
        <ele>38.599998474121</ele>
        <time>2019-07-16T19:34:57.000Z</time>
      </trkpt>
      <trkpt lat="50.64331" lon="2.98857">
        <ele>38.799999237061</ele>
        <time>2019-07-16T19:35:01.000Z</time>
      </trkpt>
      <trkpt lat="50.64336" lon="2.98861">
        <ele>39</ele>
        <time>2019-07-16T19:35:02.000Z</time>
      </trkpt>
      <trkpt lat="50.64341" lon="2.98863">
        <ele>39.200000762939</ele>
        <time>2019-07-16T19:35:03.000Z</time>
      </trkpt>
      <trkpt lat="50.64347" lon="2.98865">
        <ele>39.400001525879</ele>
        <time>2019-07-16T19:35:04.000Z</time>
      </trkpt>
      <trkpt lat="50.64352" lon="2.98866">
        <ele>39.400001525879</ele>
        <time>2019-07-16T19:35:05.000Z</time>
      </trkpt>
      <trkpt lat="50.64379" lon="2.98896">
        <ele>40</ele>
        <time>2019-07-16T19:35:14.000Z</time>
      </trkpt>
      <trkpt lat="50.64425" lon="2.98999">
        <ele>40</ele>
        <time>2019-07-16T19:35:29.000Z</time>
      </trkpt>
      <trkpt lat="50.64448" lon="2.99072">
        <ele>40.400001525879</ele>
        <time>2019-07-16T19:35:38.000Z</time>
      </trkpt>
      <trkpt lat="50.64452" lon="2.99078">
        <ele>40.599998474121</ele>
        <time>2019-07-16T19:35:39.000Z</time>
      </trkpt>
      <trkpt lat="50.64458" lon="2.9908">
        <ele>40.799999237061</ele>
        <time>2019-07-16T19:35:40.000Z</time>
      </trkpt>
      <trkpt lat="50.64464" lon="2.99079">
        <ele>40.799999237061</ele>
        <time>2019-07-16T19:35:41.000Z</time>
      </trkpt>
      <trkpt lat="50.6447" lon="2.99075">
        <ele>41</ele>
        <time>2019-07-16T19:35:42.000Z</time>
      </trkpt>
      <trkpt lat="50.64476" lon="2.99071">
        <ele>41</ele>
        <time>2019-07-16T19:35:43.000Z</time>
      </trkpt>
      <trkpt lat="50.64497" lon="2.99057">
        <ele>41.400001525879</ele>
        <time>2019-07-16T19:35:47.000Z</time>
      </trkpt>
      <trkpt lat="50.6458" lon="2.99009">
        <ele>43</ele>
        <time>2019-07-16T19:36:04.000Z</time>
      </trkpt>
      <trkpt lat="50.64588" lon="2.99029">
        <ele>43</ele>
        <time>2019-07-16T19:36:08.000Z</time>
      </trkpt>
      <trkpt lat="50.64603" lon="2.99191">
        <ele>42.200000762939</ele>
        <time>2019-07-16T19:36:24.000Z</time>
      </trkpt>
      <trkpt lat="50.64614" lon="2.9934">
        <ele>42.200000762939</ele>
        <time>2019-07-16T19:36:37.000Z</time>
      </trkpt>
      <trkpt lat="50.64625" lon="2.99475">
        <ele>42</ele>
        <time>2019-07-16T19:36:50.000Z</time>
      </trkpt>
      <trkpt lat="50.64633" lon="2.99552">
        <ele>40.799999237061</ele>
        <time>2019-07-16T19:36:57.000Z</time>
      </trkpt>
      <trkpt lat="50.64635" lon="2.99563">
        <ele>40.599998474121</ele>
        <time>2019-07-16T19:36:58.000Z</time>
      </trkpt>
      <trkpt lat="50.6465" lon="2.99732">
        <ele>37.200000762939</ele>
        <time>2019-07-16T19:37:13.000Z</time>
      </trkpt>
      <trkpt lat="50.64673" lon="2.99969">
        <ele>34</ele>
        <time>2019-07-16T19:37:34.000Z</time>
      </trkpt>
      <trkpt lat="50.64694" lon="3.00168">
        <ele>32.599998474121</ele>
        <time>2019-07-16T19:37:52.000Z</time>
      </trkpt>
      <trkpt lat="50.64714" lon="3.00355">
        <ele>32.799999237061</ele>
        <time>2019-07-16T19:38:09.000Z</time>
      </trkpt>
      <trkpt lat="50.64699" lon="3.00538">
        <ele>30.39999961853</ele>
        <time>2019-07-16T19:38:25.000Z</time>
      </trkpt>
      <trkpt lat="50.6467" lon="3.00776">
        <ele>30.39999961853</ele>
        <time>2019-07-16T19:38:46.000Z</time>
      </trkpt>
      <trkpt lat="50.64658" lon="3.00839">
        <ele>29.799999237061</ele>
        <time>2019-07-16T19:38:52.000Z</time>
      </trkpt>
      <trkpt lat="50.64615" lon="3.00969">
        <ele>29</ele>
        <time>2019-07-16T19:39:05.000Z</time>
      </trkpt>
      <trkpt lat="50.64608" lon="3.00983">
        <ele>28.60000038147</ele>
        <time>2019-07-16T19:39:12.000Z</time>
      </trkpt>
      <trkpt lat="50.64608" lon="3.00982">
        <ele>28.60000038147</ele>
        <time>2019-07-16T19:39:30.000Z</time>
      </trkpt>
      <trkpt lat="50.64607" lon="3.00984">
        <ele>28.60000038147</ele>
        <time>2019-07-16T19:39:31.000Z</time>
      </trkpt>
      <trkpt lat="50.64606" lon="3.00987">
        <ele>28.60000038147</ele>
        <time>2019-07-16T19:39:32.000Z</time>
      </trkpt>
      <trkpt lat="50.64604" lon="3.00989">
        <ele>28.39999961853</ele>
        <time>2019-07-16T19:39:33.000Z</time>
      </trkpt>
      <trkpt lat="50.64603" lon="3.00993">
        <ele>28.39999961853</ele>
        <time>2019-07-16T19:39:34.000Z</time>
      </trkpt>
      <trkpt lat="50.64601" lon="3.00997">
        <ele>28.200000762939</ele>
        <time>2019-07-16T19:39:35.000Z</time>
      </trkpt>
      <trkpt lat="50.64579" lon="3.01054">
        <ele>27.60000038147</ele>
        <time>2019-07-16T19:39:43.000Z</time>
      </trkpt>
      <trkpt lat="50.64514" lon="3.01216">
        <ele>28</ele>
        <time>2019-07-16T19:40:00.000Z</time>
      </trkpt>
      <trkpt lat="50.64472" lon="3.01325">
        <ele>26.200000762939</ele>
        <time>2019-07-16T19:40:11.000Z</time>
      </trkpt>
      <trkpt lat="50.64471" lon="3.01335">
        <ele>26.200000762939</ele>
        <time>2019-07-16T19:40:12.000Z</time>
      </trkpt>
      <trkpt lat="50.64473" lon="3.01347">
        <ele>26</ele>
        <time>2019-07-16T19:40:13.000Z</time>
      </trkpt>
      <trkpt lat="50.64475" lon="3.01356">
        <ele>26</ele>
        <time>2019-07-16T19:40:14.000Z</time>
      </trkpt>
      <trkpt lat="50.64479" lon="3.01366">
        <ele>26</ele>
        <time>2019-07-16T19:40:15.000Z</time>
      </trkpt>
      <trkpt lat="50.64483" lon="3.01375">
        <ele>26</ele>
        <time>2019-07-16T19:40:16.000Z</time>
      </trkpt>
      <trkpt lat="50.64488" lon="3.01384">
        <ele>26</ele>
        <time>2019-07-16T19:40:17.000Z</time>
      </trkpt>
      <trkpt lat="50.64492" lon="3.01393">
        <ele>26</ele>
        <time>2019-07-16T19:40:18.000Z</time>
      </trkpt>
      <trkpt lat="50.64561" lon="3.01536">
        <ele>25.200000762939</ele>
        <time>2019-07-16T19:40:34.000Z</time>
      </trkpt>
      <trkpt lat="50.64602" lon="3.01617">
        <ele>26.39999961853</ele>
        <time>2019-07-16T19:40:43.000Z</time>
      </trkpt>
      <trkpt lat="50.64605" lon="3.01627">
        <ele>26.799999237061</ele>
        <time>2019-07-16T19:40:44.000Z</time>
      </trkpt>
      <trkpt lat="50.64608" lon="3.01637">
        <ele>27.39999961853</ele>
        <time>2019-07-16T19:40:45.000Z</time>
      </trkpt>
      <trkpt lat="50.6461" lon="3.01649">
        <ele>27.799999237061</ele>
        <time>2019-07-16T19:40:46.000Z</time>
      </trkpt>
      <trkpt lat="50.64611" lon="3.0166">
        <ele>28</ele>
        <time>2019-07-16T19:40:47.000Z</time>
      </trkpt>
      <trkpt lat="50.64611" lon="3.01672">
        <ele>28</ele>
        <time>2019-07-16T19:40:48.000Z</time>
      </trkpt>
      <trkpt lat="50.64611" lon="3.01683">
        <ele>28.200000762939</ele>
        <time>2019-07-16T19:40:49.000Z</time>
      </trkpt>
      <trkpt lat="50.64609" lon="3.01694">
        <ele>28.200000762939</ele>
        <time>2019-07-16T19:40:50.000Z</time>
      </trkpt>
      <trkpt lat="50.64606" lon="3.01705">
        <ele>28.39999961853</ele>
        <time>2019-07-16T19:40:51.000Z</time>
      </trkpt>
      <trkpt lat="50.64576" lon="3.01822">
        <ele>28</ele>
        <time>2019-07-16T19:41:02.000Z</time>
      </trkpt>
      <trkpt lat="50.64554" lon="3.01951">
        <ele>27.39999961853</ele>
        <time>2019-07-16T19:41:14.000Z</time>
      </trkpt>
      <trkpt lat="50.64549" lon="3.01983">
        <ele>27.60000038147</ele>
        <time>2019-07-16T19:41:17.000Z</time>
      </trkpt>
      <trkpt lat="50.64547" lon="3.01994">
        <ele>27.799999237061</ele>
        <time>2019-07-16T19:41:18.000Z</time>
      </trkpt>
      <trkpt lat="50.64527" lon="3.02134">
        <ele>25.799999237061</ele>
        <time>2019-07-16T19:41:31.000Z</time>
      </trkpt>
      <trkpt lat="50.64523" lon="3.02154">
        <ele>25.60000038147</ele>
        <time>2019-07-16T19:41:33.000Z</time>
      </trkpt>
      <trkpt lat="50.64519" lon="3.02182">
        <ele>25.200000762939</ele>
        <time>2019-07-16T19:41:36.000Z</time>
      </trkpt>
      <trkpt lat="50.64517" lon="3.02189">
        <ele>25</ele>
        <time>2019-07-16T19:41:37.000Z</time>
      </trkpt>
      <trkpt lat="50.64516" lon="3.02196">
        <ele>24.799999237061</ele>
        <time>2019-07-16T19:41:38.000Z</time>
      </trkpt>
      <trkpt lat="50.64515" lon="3.02201">
        <ele>24.799999237061</ele>
        <time>2019-07-16T19:41:39.000Z</time>
      </trkpt>
      <trkpt lat="50.64514" lon="3.02205">
        <ele>24.799999237061</ele>
        <time>2019-07-16T19:41:40.000Z</time>
      </trkpt>
      <trkpt lat="50.64512" lon="3.0221">
        <ele>24.60000038147</ele>
        <time>2019-07-16T19:41:41.000Z</time>
      </trkpt>
      <trkpt lat="50.6451" lon="3.02216">
        <ele>24.60000038147</ele>
        <time>2019-07-16T19:41:42.000Z</time>
      </trkpt>
      <trkpt lat="50.64509" lon="3.02222">
        <ele>24.39999961853</ele>
        <time>2019-07-16T19:41:43.000Z</time>
      </trkpt>
      <trkpt lat="50.64508" lon="3.02229">
        <ele>24.39999961853</ele>
        <time>2019-07-16T19:41:44.000Z</time>
      </trkpt>
      <trkpt lat="50.64507" lon="3.02236">
        <ele>24.39999961853</ele>
        <time>2019-07-16T19:41:45.000Z</time>
      </trkpt>
      <trkpt lat="50.64506" lon="3.02245">
        <ele>24.39999961853</ele>
        <time>2019-07-16T19:41:46.000Z</time>
      </trkpt>
      <trkpt lat="50.64505" lon="3.02254">
        <ele>24.39999961853</ele>
        <time>2019-07-16T19:41:47.000Z</time>
      </trkpt>
      <trkpt lat="50.6448" lon="3.0239">
        <ele>24.799999237061</ele>
        <time>2019-07-16T19:42:01.000Z</time>
      </trkpt>
      <trkpt lat="50.64448" lon="3.0256">
        <ele>23.799999237061</ele>
        <time>2019-07-16T19:42:17.000Z</time>
      </trkpt>
      <trkpt lat="50.64444" lon="3.02677">
        <ele>23</ele>
        <time>2019-07-16T19:42:28.000Z</time>
      </trkpt>
      <trkpt lat="50.64448" lon="3.02781">
        <ele>22.799999237061</ele>
        <time>2019-07-16T19:42:38.000Z</time>
      </trkpt>
      <trkpt lat="50.64448" lon="3.02789">
        <ele>22.60000038147</ele>
        <time>2019-07-16T19:42:39.000Z</time>
      </trkpt>
      <trkpt lat="50.64449" lon="3.02796">
        <ele>22.60000038147</ele>
        <time>2019-07-16T19:42:40.000Z</time>
      </trkpt>
      <trkpt lat="50.6445" lon="3.02801">
        <ele>22.39999961853</ele>
        <time>2019-07-16T19:42:41.000Z</time>
      </trkpt>
      <trkpt lat="50.64451" lon="3.02805">
        <ele>22.39999961853</ele>
        <time>2019-07-16T19:42:42.000Z</time>
      </trkpt>
      <trkpt lat="50.64452" lon="3.02808">
        <ele>22.39999961853</ele>
        <time>2019-07-16T19:42:43.000Z</time>
      </trkpt>
      <trkpt lat="50.64463" lon="3.02839">
        <ele>22</ele>
        <time>2019-07-16T19:42:53.000Z</time>
      </trkpt>
      <trkpt lat="50.64465" lon="3.02842">
        <ele>22</ele>
        <time>2019-07-16T19:42:54.000Z</time>
      </trkpt>
      <trkpt lat="50.64466" lon="3.02843">
        <ele>22</ele>
        <time>2019-07-16T19:42:55.000Z</time>
      </trkpt>
      <trkpt lat="50.64467" lon="3.02845">
        <ele>22</ele>
        <time>2019-07-16T19:43:05.000Z</time>
      </trkpt>
      <trkpt lat="50.64462" lon="3.02851">
        <ele>21.799999237061</ele>
        <time>2019-07-16T19:43:34.000Z</time>
      </trkpt>
      <trkpt lat="50.64461" lon="3.02849">
        <ele>22</ele>
        <time>2019-07-16T19:44:07.000Z</time>
      </trkpt>
      <trkpt lat="50.64463" lon="3.02854">
        <ele>21.799999237061</ele>
        <time>2019-07-16T19:44:33.000Z</time>
      </trkpt>
      <trkpt lat="50.64463" lon="3.02851">
        <ele>21.799999237061</ele>
        <time>2019-07-16T19:44:52.000Z</time>
      </trkpt>
      <trkpt lat="50.64457" lon="3.02854">
        <ele>21.799999237061</ele>
        <time>2019-07-16T19:45:19.000Z</time>
      </trkpt>
      <trkpt lat="50.64458" lon="3.02853">
        <ele>21.799999237061</ele>
        <time>2019-07-16T19:45:45.000Z</time>
      </trkpt>
      <trkpt lat="50.64457" lon="3.02852">
        <ele>21.799999237061</ele>
        <time>2019-07-16T19:46:08.000Z</time>
      </trkpt>
      <trkpt lat="50.64456" lon="3.02856">
        <ele>21.799999237061</ele>
        <time>2019-07-16T19:46:36.000Z</time>
      </trkpt>
      <trkpt lat="50.64456" lon="3.02857">
        <ele>21.799999237061</ele>
        <time>2019-07-16T19:47:13.000Z</time>
      </trkpt>
      <trkpt lat="50.64457" lon="3.02854">
        <ele>21.799999237061</ele>
        <time>2019-07-16T19:47:41.000Z</time>
      </trkpt>
      <trkpt lat="50.64458" lon="3.02852">
        <ele>21.799999237061</ele>
        <time>2019-07-16T19:48:02.000Z</time>
      </trkpt>
      <trkpt lat="50.64464" lon="3.02846">
        <ele>22</ele>
        <time>2019-07-16T19:48:24.000Z</time>
      </trkpt>
      <trkpt lat="50.64465" lon="3.02848">
        <ele>22</ele>
        <time>2019-07-16T19:48:30.000Z</time>
      </trkpt>
      <trkpt lat="50.64466" lon="3.02851">
        <ele>21.799999237061</ele>
        <time>2019-07-16T19:48:31.000Z</time>
      </trkpt>
      <trkpt lat="50.64467" lon="3.02853">
        <ele>21.799999237061</ele>
        <time>2019-07-16T19:48:32.000Z</time>
      </trkpt>
      <trkpt lat="50.64469" lon="3.02854">
        <ele>21.799999237061</ele>
        <time>2019-07-16T19:48:33.000Z</time>
      </trkpt>
      <trkpt lat="50.64472" lon="3.02853">
        <ele>22</ele>
        <time>2019-07-16T19:48:34.000Z</time>
      </trkpt>
      <trkpt lat="50.64473" lon="3.02852">
        <ele>22</ele>
        <time>2019-07-16T19:48:35.000Z</time>
      </trkpt>
      <trkpt lat="50.64475" lon="3.0285">
        <ele>22</ele>
        <time>2019-07-16T19:48:36.000Z</time>
      </trkpt>
      <trkpt lat="50.64478" lon="3.02847">
        <ele>22</ele>
        <time>2019-07-16T19:48:37.000Z</time>
      </trkpt>
      <trkpt lat="50.6448" lon="3.02845">
        <ele>22</ele>
        <time>2019-07-16T19:48:38.000Z</time>
      </trkpt>
      <trkpt lat="50.64484" lon="3.02843">
        <ele>22.200000762939</ele>
        <time>2019-07-16T19:48:39.000Z</time>
      </trkpt>
      <trkpt lat="50.64488" lon="3.02841">
        <ele>22.200000762939</ele>
        <time>2019-07-16T19:48:40.000Z</time>
      </trkpt>
      <trkpt lat="50.64492" lon="3.02838">
        <ele>22.39999961853</ele>
        <time>2019-07-16T19:48:41.000Z</time>
      </trkpt>
      <trkpt lat="50.64497" lon="3.02835">
        <ele>22.39999961853</ele>
        <time>2019-07-16T19:48:42.000Z</time>
      </trkpt>
      <trkpt lat="50.64503" lon="3.0283">
        <ele>22.60000038147</ele>
        <time>2019-07-16T19:48:43.000Z</time>
      </trkpt>
      <trkpt lat="50.64514" lon="3.02821">
        <ele>22.799999237061</ele>
        <time>2019-07-16T19:48:45.000Z</time>
      </trkpt>
      <trkpt lat="50.6459" lon="3.02755">
        <ele>23.60000038147</ele>
        <time>2019-07-16T19:48:58.000Z</time>
      </trkpt>
      <trkpt lat="50.64664" lon="3.02691">
        <ele>24</ele>
        <time>2019-07-16T19:49:11.000Z</time>
      </trkpt>
      <trkpt lat="50.64744" lon="3.02623">
        <ele>23.60000038147</ele>
        <time>2019-07-16T19:49:25.000Z</time>
      </trkpt>
      <trkpt lat="50.64807" lon="3.02571">
        <ele>27.200000762939</ele>
        <time>2019-07-16T19:49:36.000Z</time>
      </trkpt>
      <trkpt lat="50.64882" lon="3.02506">
        <ele>27</ele>
        <time>2019-07-16T19:49:49.000Z</time>
      </trkpt>
      <trkpt lat="50.64928" lon="3.02467">
        <ele>25.39999961853</ele>
        <time>2019-07-16T19:49:57.000Z</time>
      </trkpt>
      <trkpt lat="50.64998" lon="3.0241">
        <ele>26</ele>
        <time>2019-07-16T19:50:09.000Z</time>
      </trkpt>
      <trkpt lat="50.65076" lon="3.02343">
        <ele>26.200000762939</ele>
        <time>2019-07-16T19:50:23.000Z</time>
      </trkpt>
      <trkpt lat="50.65094" lon="3.02326">
        <ele>26.39999961853</ele>
        <time>2019-07-16T19:50:27.000Z</time>
      </trkpt>
      <trkpt lat="50.65103" lon="3.02319">
        <ele>26.39999961853</ele>
        <time>2019-07-16T19:50:29.000Z</time>
      </trkpt>
      <trkpt lat="50.65126" lon="3.02302">
        <ele>26.39999961853</ele>
        <time>2019-07-16T19:50:33.000Z</time>
      </trkpt>
      <trkpt lat="50.65132" lon="3.02298">
        <ele>26.39999961853</ele>
        <time>2019-07-16T19:50:34.000Z</time>
      </trkpt>
      <trkpt lat="50.6517" lon="3.02273">
        <ele>25.60000038147</ele>
        <time>2019-07-16T19:50:40.000Z</time>
      </trkpt>
      <trkpt lat="50.65187" lon="3.02259">
        <ele>25.39999961853</ele>
        <time>2019-07-16T19:50:43.000Z</time>
      </trkpt>
      <trkpt lat="50.6524" lon="3.02208">
        <ele>25.200000762939</ele>
        <time>2019-07-16T19:50:53.000Z</time>
      </trkpt>
      <trkpt lat="50.6531" lon="3.02124">
        <ele>26.60000038147</ele>
        <time>2019-07-16T19:51:08.000Z</time>
      </trkpt>
      <trkpt lat="50.65377" lon="3.02011">
        <ele>24.39999961853</ele>
        <time>2019-07-16T19:51:23.000Z</time>
      </trkpt>
      <trkpt lat="50.65411" lon="3.01943">
        <ele>24.39999961853</ele>
        <time>2019-07-16T19:51:30.000Z</time>
      </trkpt>
      <trkpt lat="50.65416" lon="3.01934">
        <ele>24.60000038147</ele>
        <time>2019-07-16T19:51:31.000Z</time>
      </trkpt>
      <trkpt lat="50.65452" lon="3.01869">
        <ele>24.39999961853</ele>
        <time>2019-07-16T19:51:42.000Z</time>
      </trkpt>
      <trkpt lat="50.65456" lon="3.01863">
        <ele>24.39999961853</ele>
        <time>2019-07-16T19:51:56.000Z</time>
      </trkpt>
      <trkpt lat="50.65457" lon="3.01863">
        <ele>24.39999961853</ele>
        <time>2019-07-16T19:52:17.000Z</time>
      </trkpt>
      <trkpt lat="50.6546" lon="3.01843">
        <ele>24.200000762939</ele>
        <time>2019-07-16T19:52:31.000Z</time>
      </trkpt>
      <trkpt lat="50.65458" lon="3.01835">
        <ele>24.39999961853</ele>
        <time>2019-07-16T19:52:32.000Z</time>
      </trkpt>
      <trkpt lat="50.65456" lon="3.01832">
        <ele>24.39999961853</ele>
        <time>2019-07-16T19:52:33.000Z</time>
      </trkpt>
      <trkpt lat="50.65453" lon="3.01827">
        <ele>24.60000038147</ele>
        <time>2019-07-16T19:52:34.000Z</time>
      </trkpt>
      <trkpt lat="50.65449" lon="3.01822">
        <ele>24.799999237061</ele>
        <time>2019-07-16T19:52:35.000Z</time>
      </trkpt>
      <trkpt lat="50.65444" lon="3.01816">
        <ele>25</ele>
        <time>2019-07-16T19:52:36.000Z</time>
      </trkpt>
      <trkpt lat="50.65404" lon="3.01772">
        <ele>26.39999961853</ele>
        <time>2019-07-16T19:52:44.000Z</time>
      </trkpt>
      <trkpt lat="50.65312" lon="3.01681">
        <ele>27</ele>
        <time>2019-07-16T19:53:00.000Z</time>
      </trkpt>
      <trkpt lat="50.65299" lon="3.01672">
        <ele>27</ele>
        <time>2019-07-16T19:53:02.000Z</time>
      </trkpt>
      <trkpt lat="50.65294" lon="3.01665">
        <ele>27</ele>
        <time>2019-07-16T19:53:03.000Z</time>
      </trkpt>
      <trkpt lat="50.6529" lon="3.01656">
        <ele>27</ele>
        <time>2019-07-16T19:53:04.000Z</time>
      </trkpt>
      <trkpt lat="50.65288" lon="3.01645">
        <ele>27</ele>
        <time>2019-07-16T19:53:05.000Z</time>
      </trkpt>
      <trkpt lat="50.65288" lon="3.01636">
        <ele>27.200000762939</ele>
        <time>2019-07-16T19:53:06.000Z</time>
      </trkpt>
      <trkpt lat="50.65289" lon="3.01626">
        <ele>27.200000762939</ele>
        <time>2019-07-16T19:53:07.000Z</time>
      </trkpt>
      <trkpt lat="50.6529" lon="3.01615">
        <ele>27.39999961853</ele>
        <time>2019-07-16T19:53:08.000Z</time>
      </trkpt>
      <trkpt lat="50.65314" lon="3.01458">
        <ele>28</ele>
        <time>2019-07-16T19:53:23.000Z</time>
      </trkpt>
      <trkpt lat="50.65349" lon="3.01256">
        <ele>28.39999961853</ele>
        <time>2019-07-16T19:53:43.000Z</time>
      </trkpt>
      <trkpt lat="50.65376" lon="3.01114">
        <ele>28.200000762939</ele>
        <time>2019-07-16T19:53:57.000Z</time>
      </trkpt>
      <trkpt lat="50.65379" lon="3.01104">
        <ele>28</ele>
        <time>2019-07-16T19:53:58.000Z</time>
      </trkpt>
      <trkpt lat="50.65383" lon="3.01095">
        <ele>28</ele>
        <time>2019-07-16T19:53:59.000Z</time>
      </trkpt>
      <trkpt lat="50.65387" lon="3.01087">
        <ele>28</ele>
        <time>2019-07-16T19:54:00.000Z</time>
      </trkpt>
      <trkpt lat="50.65393" lon="3.0108">
        <ele>28.200000762939</ele>
        <time>2019-07-16T19:54:01.000Z</time>
      </trkpt>
      <trkpt lat="50.65399" lon="3.01074">
        <ele>28.39999961853</ele>
        <time>2019-07-16T19:54:02.000Z</time>
      </trkpt>
      <trkpt lat="50.65405" lon="3.01069">
        <ele>28.39999961853</ele>
        <time>2019-07-16T19:54:03.000Z</time>
      </trkpt>
      <trkpt lat="50.65411" lon="3.01066">
        <ele>28.60000038147</ele>
        <time>2019-07-16T19:54:04.000Z</time>
      </trkpt>
      <trkpt lat="50.65417" lon="3.01062">
        <ele>28.799999237061</ele>
        <time>2019-07-16T19:54:05.000Z</time>
      </trkpt>
      <trkpt lat="50.65514" lon="3.0101">
        <ele>30.60000038147</ele>
        <time>2019-07-16T19:54:20.000Z</time>
      </trkpt>
      <trkpt lat="50.65648" lon="3.00941">
        <ele>27.799999237061</ele>
        <time>2019-07-16T19:54:40.000Z</time>
      </trkpt>
      <trkpt lat="50.6576" lon="3.00881">
        <ele>28</ele>
        <time>2019-07-16T19:54:57.000Z</time>
      </trkpt>
      <trkpt lat="50.65888" lon="3.00803">
        <ele>26.39999961853</ele>
        <time>2019-07-16T19:55:16.000Z</time>
      </trkpt>
      <trkpt lat="50.66015" lon="3.00711">
        <ele>28</ele>
        <time>2019-07-16T19:55:36.000Z</time>
      </trkpt>
      <trkpt lat="50.66121" lon="3.00634">
        <ele>28.39999961853</ele>
        <time>2019-07-16T19:55:53.000Z</time>
      </trkpt>
      <trkpt lat="50.66243" lon="3.00536">
        <ele>27.799999237061</ele>
        <time>2019-07-16T19:56:13.000Z</time>
      </trkpt>
      <trkpt lat="50.66248" lon="3.00529">
        <ele>27.60000038147</ele>
        <time>2019-07-16T19:56:14.000Z</time>
      </trkpt>
      <trkpt lat="50.66253" lon="3.00522">
        <ele>27.60000038147</ele>
        <time>2019-07-16T19:56:15.000Z</time>
      </trkpt>
      <trkpt lat="50.66257" lon="3.00514">
        <ele>27.60000038147</ele>
        <time>2019-07-16T19:56:16.000Z</time>
      </trkpt>
      <trkpt lat="50.66344" lon="3.0034">
        <ele>29</ele>
        <time>2019-07-16T19:56:36.000Z</time>
      </trkpt>
      <trkpt lat="50.66355" lon="3.00312">
        <ele>28</ele>
        <time>2019-07-16T19:56:39.000Z</time>
      </trkpt>
      <trkpt lat="50.66358" lon="3.00302">
        <ele>27.799999237061</ele>
        <time>2019-07-16T19:56:40.000Z</time>
      </trkpt>
      <trkpt lat="50.66361" lon="3.00292">
        <ele>27.799999237061</ele>
        <time>2019-07-16T19:56:41.000Z</time>
      </trkpt>
      <trkpt lat="50.66379" lon="3.00166">
        <ele>27</ele>
        <time>2019-07-16T19:56:53.000Z</time>
      </trkpt>
      <trkpt lat="50.6638" lon="3.00156">
        <ele>27</ele>
        <time>2019-07-16T19:56:54.000Z</time>
      </trkpt>
      <trkpt lat="50.664" lon="2.99983">
        <ele>26.39999961853</ele>
        <time>2019-07-16T19:57:10.000Z</time>
      </trkpt>
      <trkpt lat="50.66411" lon="2.99841">
        <ele>27</ele>
        <time>2019-07-16T19:57:23.000Z</time>
      </trkpt>
      <trkpt lat="50.66411" lon="2.9983">
        <ele>27.200000762939</ele>
        <time>2019-07-16T19:57:24.000Z</time>
      </trkpt>
      <trkpt lat="50.66413" lon="2.9982">
        <ele>27.200000762939</ele>
        <time>2019-07-16T19:57:25.000Z</time>
      </trkpt>
      <trkpt lat="50.66418" lon="2.99812">
        <ele>27.39999961853</ele>
        <time>2019-07-16T19:57:26.000Z</time>
      </trkpt>
      <trkpt lat="50.66423" lon="2.99807">
        <ele>27.39999961853</ele>
        <time>2019-07-16T19:57:27.000Z</time>
      </trkpt>
      <trkpt lat="50.66429" lon="2.99804">
        <ele>27.39999961853</ele>
        <time>2019-07-16T19:57:28.000Z</time>
      </trkpt>
      <trkpt lat="50.66435" lon="2.99801">
        <ele>27.39999961853</ele>
        <time>2019-07-16T19:57:29.000Z</time>
      </trkpt>
      <trkpt lat="50.66441" lon="2.99798">
        <ele>27.200000762939</ele>
        <time>2019-07-16T19:57:30.000Z</time>
      </trkpt>
      <trkpt lat="50.66446" lon="2.99795">
        <ele>27</ele>
        <time>2019-07-16T19:57:31.000Z</time>
      </trkpt>
      <trkpt lat="50.66451" lon="2.99789">
        <ele>26.799999237061</ele>
        <time>2019-07-16T19:57:32.000Z</time>
      </trkpt>
      <trkpt lat="50.66455" lon="2.99779">
        <ele>26.60000038147</ele>
        <time>2019-07-16T19:57:33.000Z</time>
      </trkpt>
      <trkpt lat="50.66457" lon="2.99769">
        <ele>26.39999961853</ele>
        <time>2019-07-16T19:57:34.000Z</time>
      </trkpt>
      <trkpt lat="50.66458" lon="2.99758">
        <ele>26.200000762939</ele>
        <time>2019-07-16T19:57:35.000Z</time>
      </trkpt>
      <trkpt lat="50.66484" lon="2.99573">
        <ele>26.60000038147</ele>
        <time>2019-07-16T19:57:52.000Z</time>
      </trkpt>
      <trkpt lat="50.6649" lon="2.99539">
        <ele>26.39999961853</ele>
        <time>2019-07-16T19:57:55.000Z</time>
      </trkpt>
      <trkpt lat="50.66494" lon="2.99529">
        <ele>26.39999961853</ele>
        <time>2019-07-16T19:57:56.000Z</time>
      </trkpt>
      <trkpt lat="50.66499" lon="2.9952">
        <ele>26.60000038147</ele>
        <time>2019-07-16T19:57:57.000Z</time>
      </trkpt>
      <trkpt lat="50.66504" lon="2.99512">
        <ele>26.60000038147</ele>
        <time>2019-07-16T19:57:58.000Z</time>
      </trkpt>
      <trkpt lat="50.6651" lon="2.99504">
        <ele>26.39999961853</ele>
        <time>2019-07-16T19:57:59.000Z</time>
      </trkpt>
      <trkpt lat="50.66516" lon="2.99498">
        <ele>26.39999961853</ele>
        <time>2019-07-16T19:58:00.000Z</time>
      </trkpt>
      <trkpt lat="50.66625" lon="2.9939">
        <ele>25.200000762939</ele>
        <time>2019-07-16T19:58:17.000Z</time>
      </trkpt>
      <trkpt lat="50.66674" lon="2.99335">
        <ele>24.60000038147</ele>
        <time>2019-07-16T19:58:25.000Z</time>
      </trkpt>
      <trkpt lat="50.66681" lon="2.99331">
        <ele>24.60000038147</ele>
        <time>2019-07-16T19:58:26.000Z</time>
      </trkpt>
      <trkpt lat="50.66688" lon="2.99327">
        <ele>24.60000038147</ele>
        <time>2019-07-16T19:58:27.000Z</time>
      </trkpt>
      <trkpt lat="50.66723" lon="2.9931">
        <ele>24.39999961853</ele>
        <time>2019-07-16T19:58:32.000Z</time>
      </trkpt>
      <trkpt lat="50.6673" lon="2.99305">
        <ele>24.39999961853</ele>
        <time>2019-07-16T19:58:33.000Z</time>
      </trkpt>
      <trkpt lat="50.66736" lon="2.99299">
        <ele>24.60000038147</ele>
        <time>2019-07-16T19:58:34.000Z</time>
      </trkpt>
      <trkpt lat="50.66805" lon="2.99201">
        <ele>25.799999237061</ele>
        <time>2019-07-16T19:58:47.000Z</time>
      </trkpt>
      <trkpt lat="50.66885" lon="2.99104">
        <ele>25.200000762939</ele>
        <time>2019-07-16T19:59:01.000Z</time>
      </trkpt>
      <trkpt lat="50.66891" lon="2.99099">
        <ele>25</ele>
        <time>2019-07-16T19:59:02.000Z</time>
      </trkpt>
      <trkpt lat="50.66979" lon="2.99043">
        <ele>27.200000762939</ele>
        <time>2019-07-16T19:59:16.000Z</time>
      </trkpt>
      <trkpt lat="50.67078" lon="2.98946">
        <ele>28.60000038147</ele>
        <time>2019-07-16T19:59:34.000Z</time>
      </trkpt>
      <trkpt lat="50.67175" lon="2.98829">
        <ele>29.799999237061</ele>
        <time>2019-07-16T19:59:53.000Z</time>
      </trkpt>
      <trkpt lat="50.67244" lon="2.98742">
        <ele>31</ele>
        <time>2019-07-16T20:00:07.000Z</time>
      </trkpt>
      <trkpt lat="50.67332" lon="2.9864">
        <ele>31.799999237061</ele>
        <time>2019-07-16T20:00:25.000Z</time>
      </trkpt>
      <trkpt lat="50.67392" lon="2.98568">
        <ele>30.799999237061</ele>
        <time>2019-07-16T20:00:38.000Z</time>
      </trkpt>
      <trkpt lat="50.67396" lon="2.98565">
        <ele>30.60000038147</ele>
        <time>2019-07-16T20:00:39.000Z</time>
      </trkpt>
      <trkpt lat="50.67405" lon="2.98561">
        <ele>30.39999961853</ele>
        <time>2019-07-16T20:00:41.000Z</time>
      </trkpt>
      <trkpt lat="50.67408" lon="2.98557">
        <ele>30.200000762939</ele>
        <time>2019-07-16T20:00:42.000Z</time>
      </trkpt>
      <trkpt lat="50.67409" lon="2.98552">
        <ele>30.200000762939</ele>
        <time>2019-07-16T20:00:43.000Z</time>
      </trkpt>
      <trkpt lat="50.67407" lon="2.98544">
        <ele>30.200000762939</ele>
        <time>2019-07-16T20:00:44.000Z</time>
      </trkpt>
      <trkpt lat="50.67403" lon="2.98536">
        <ele>30.39999961853</ele>
        <time>2019-07-16T20:00:45.000Z</time>
      </trkpt>
      <trkpt lat="50.67401" lon="2.98532">
        <ele>30.39999961853</ele>
        <time>2019-07-16T20:00:46.000Z</time>
      </trkpt>
      <trkpt lat="50.67366" lon="2.98442">
        <ele>30.799999237061</ele>
        <time>2019-07-16T20:00:57.000Z</time>
      </trkpt>
      <trkpt lat="50.67366" lon="2.98433">
        <ele>30.60000038147</ele>
        <time>2019-07-16T20:00:58.000Z</time>
      </trkpt>
      <trkpt lat="50.67369" lon="2.98425">
        <ele>30.39999961853</ele>
        <time>2019-07-16T20:00:59.000Z</time>
      </trkpt>
      <trkpt lat="50.67373" lon="2.98419">
        <ele>30.39999961853</ele>
        <time>2019-07-16T20:01:00.000Z</time>
      </trkpt>
      <trkpt lat="50.67378" lon="2.98414">
        <ele>30.200000762939</ele>
        <time>2019-07-16T20:01:01.000Z</time>
      </trkpt>
      <trkpt lat="50.67434" lon="2.98343">
        <ele>29.39999961853</ele>
        <time>2019-07-16T20:01:12.000Z</time>
      </trkpt>
      <trkpt lat="50.67465" lon="2.98297">
        <ele>29.60000038147</ele>
        <time>2019-07-16T20:01:18.000Z</time>
      </trkpt>
      <trkpt lat="50.67476" lon="2.98282">
        <ele>29.60000038147</ele>
        <time>2019-07-16T20:01:20.000Z</time>
      </trkpt>
      <trkpt lat="50.67482" lon="2.98275">
        <ele>29.39999961853</ele>
        <time>2019-07-16T20:01:21.000Z</time>
      </trkpt>
      <trkpt lat="50.67489" lon="2.9827">
        <ele>29.200000762939</ele>
        <time>2019-07-16T20:01:22.000Z</time>
      </trkpt>
      <trkpt lat="50.67497" lon="2.98267">
        <ele>28.799999237061</ele>
        <time>2019-07-16T20:01:23.000Z</time>
      </trkpt>
      <trkpt lat="50.67504" lon="2.98265">
        <ele>28.39999961853</ele>
        <time>2019-07-16T20:01:24.000Z</time>
      </trkpt>
      <trkpt lat="50.67512" lon="2.98264">
        <ele>28</ele>
        <time>2019-07-16T20:01:25.000Z</time>
      </trkpt>
      <trkpt lat="50.67519" lon="2.98263">
        <ele>27.60000038147</ele>
        <time>2019-07-16T20:01:26.000Z</time>
      </trkpt>
      <trkpt lat="50.67527" lon="2.98261">
        <ele>27.39999961853</ele>
        <time>2019-07-16T20:01:27.000Z</time>
      </trkpt>
      <trkpt lat="50.67533" lon="2.98257">
        <ele>27</ele>
        <time>2019-07-16T20:01:28.000Z</time>
      </trkpt>
      <trkpt lat="50.6754" lon="2.98252">
        <ele>26.60000038147</ele>
        <time>2019-07-16T20:01:29.000Z</time>
      </trkpt>
      <trkpt lat="50.67546" lon="2.98245">
        <ele>26.39999961853</ele>
        <time>2019-07-16T20:01:30.000Z</time>
      </trkpt>
      <trkpt lat="50.67606" lon="2.9819">
        <ele>22.60000038147</ele>
        <time>2019-07-16T20:01:38.000Z</time>
      </trkpt>
      <trkpt lat="50.67716" lon="2.98092">
        <ele>20</ele>
        <time>2019-07-16T20:01:52.000Z</time>
      </trkpt>
      <trkpt lat="50.67816" lon="2.97995">
        <ele>19.60000038147</ele>
        <time>2019-07-16T20:02:07.000Z</time>
      </trkpt>
      <trkpt lat="50.6787" lon="2.97933">
        <ele>19</ele>
        <time>2019-07-16T20:02:16.000Z</time>
      </trkpt>
      <trkpt lat="50.67875" lon="2.97924">
        <ele>19</ele>
        <time>2019-07-16T20:02:17.000Z</time>
      </trkpt>
      <trkpt lat="50.67879" lon="2.97914">
        <ele>19</ele>
        <time>2019-07-16T20:02:18.000Z</time>
      </trkpt>
      <trkpt lat="50.67883" lon="2.97904">
        <ele>19</ele>
        <time>2019-07-16T20:02:19.000Z</time>
      </trkpt>
      <trkpt lat="50.67886" lon="2.97894">
        <ele>19</ele>
        <time>2019-07-16T20:02:20.000Z</time>
      </trkpt>
      <trkpt lat="50.67902" lon="2.97841">
        <ele>19.200000762939</ele>
        <time>2019-07-16T20:02:25.000Z</time>
      </trkpt>
      <trkpt lat="50.67904" lon="2.9783">
        <ele>19.200000762939</ele>
        <time>2019-07-16T20:02:26.000Z</time>
      </trkpt>
      <trkpt lat="50.67905" lon="2.97819">
        <ele>19.200000762939</ele>
        <time>2019-07-16T20:02:27.000Z</time>
      </trkpt>
      <trkpt lat="50.67904" lon="2.97807">
        <ele>19.200000762939</ele>
        <time>2019-07-16T20:02:28.000Z</time>
      </trkpt>
      <trkpt lat="50.67902" lon="2.97795">
        <ele>19.200000762939</ele>
        <time>2019-07-16T20:02:29.000Z</time>
      </trkpt>
      <trkpt lat="50.679" lon="2.97783">
        <ele>19.200000762939</ele>
        <time>2019-07-16T20:02:30.000Z</time>
      </trkpt>
      <trkpt lat="50.67888" lon="2.97679">
        <ele>19</ele>
        <time>2019-07-16T20:02:39.000Z</time>
      </trkpt>
      <trkpt lat="50.6789" lon="2.97668">
        <ele>19</ele>
        <time>2019-07-16T20:02:40.000Z</time>
      </trkpt>
      <trkpt lat="50.67894" lon="2.97659">
        <ele>19</ele>
        <time>2019-07-16T20:02:41.000Z</time>
      </trkpt>
      <trkpt lat="50.679" lon="2.97652">
        <ele>19</ele>
        <time>2019-07-16T20:02:42.000Z</time>
      </trkpt>
      <trkpt lat="50.67907" lon="2.97647">
        <ele>19</ele>
        <time>2019-07-16T20:02:43.000Z</time>
      </trkpt>
      <trkpt lat="50.67913" lon="2.97642">
        <ele>19</ele>
        <time>2019-07-16T20:02:44.000Z</time>
      </trkpt>
      <trkpt lat="50.68026" lon="2.97551">
        <ele>18</ele>
        <time>2019-07-16T20:03:01.000Z</time>
      </trkpt>
      <trkpt lat="50.68149" lon="2.97449">
        <ele>18.200000762939</ele>
        <time>2019-07-16T20:03:20.000Z</time>
      </trkpt>
      <trkpt lat="50.6828" lon="2.97341">
        <ele>19</ele>
        <time>2019-07-16T20:03:40.000Z</time>
      </trkpt>
      <trkpt lat="50.6835" lon="2.97256">
        <ele>18.799999237061</ele>
        <time>2019-07-16T20:03:52.000Z</time>
      </trkpt>
      <trkpt lat="50.68422" lon="2.9716">
        <ele>17</ele>
        <time>2019-07-16T20:04:05.000Z</time>
      </trkpt>
      <trkpt lat="50.68509" lon="2.97036">
        <ele>18.799999237061</ele>
        <time>2019-07-16T20:04:21.000Z</time>
      </trkpt>
      <trkpt lat="50.68541" lon="2.96992">
        <ele>19.799999237061</ele>
        <time>2019-07-16T20:04:27.000Z</time>
      </trkpt>
      <trkpt lat="50.68619" lon="2.96883">
        <ele>19.39999961853</ele>
        <time>2019-07-16T20:04:42.000Z</time>
      </trkpt>
      <trkpt lat="50.687" lon="2.96769">
        <ele>18.60000038147</ele>
        <time>2019-07-16T20:04:57.000Z</time>
      </trkpt>
      <trkpt lat="50.68729" lon="2.96727">
        <ele>17.799999237061</ele>
        <time>2019-07-16T20:05:06.000Z</time>
      </trkpt>
      <trkpt lat="50.68777" lon="2.96657">
        <ele>17.200000762939</ele>
        <time>2019-07-16T20:05:17.000Z</time>
      </trkpt>
      <trkpt lat="50.68866" lon="2.96526">
        <ele>18</ele>
        <time>2019-07-16T20:05:34.000Z</time>
      </trkpt>
      <trkpt lat="50.6896" lon="2.96385">
        <ele>18.200000762939</ele>
        <time>2019-07-16T20:05:52.000Z</time>
      </trkpt>
      <trkpt lat="50.69047" lon="2.96262">
        <ele>17.799999237061</ele>
        <time>2019-07-16T20:06:08.000Z</time>
      </trkpt>
      <trkpt lat="50.69134" lon="2.96155">
        <ele>18</ele>
        <time>2019-07-16T20:06:23.000Z</time>
      </trkpt>
      <trkpt lat="50.69141" lon="2.96151">
        <ele>18</ele>
        <time>2019-07-16T20:06:24.000Z</time>
      </trkpt>
      <trkpt lat="50.69148" lon="2.96151">
        <ele>18</ele>
        <time>2019-07-16T20:06:25.000Z</time>
      </trkpt>
      <trkpt lat="50.69156" lon="2.96153">
        <ele>18</ele>
        <time>2019-07-16T20:06:26.000Z</time>
      </trkpt>
      <trkpt lat="50.69162" lon="2.96157">
        <ele>18</ele>
        <time>2019-07-16T20:06:27.000Z</time>
      </trkpt>
      <trkpt lat="50.69169" lon="2.96163">
        <ele>18</ele>
        <time>2019-07-16T20:06:28.000Z</time>
      </trkpt>
      <trkpt lat="50.69175" lon="2.96169">
        <ele>18</ele>
        <time>2019-07-16T20:06:29.000Z</time>
      </trkpt>
      <trkpt lat="50.69213" lon="2.96199">
        <ele>18</ele>
        <time>2019-07-16T20:06:35.000Z</time>
      </trkpt>
      <trkpt lat="50.6922" lon="2.962">
        <ele>18</ele>
        <time>2019-07-16T20:06:36.000Z</time>
      </trkpt>
      <trkpt lat="50.69227" lon="2.96199">
        <ele>18</ele>
        <time>2019-07-16T20:06:37.000Z</time>
      </trkpt>
      <trkpt lat="50.69234" lon="2.96196">
        <ele>18</ele>
        <time>2019-07-16T20:06:38.000Z</time>
      </trkpt>
      <trkpt lat="50.69241" lon="2.96191">
        <ele>18</ele>
        <time>2019-07-16T20:06:39.000Z</time>
      </trkpt>
      <trkpt lat="50.69247" lon="2.96186">
        <ele>18</ele>
        <time>2019-07-16T20:06:40.000Z</time>
      </trkpt>
      <trkpt lat="50.69253" lon="2.96181">
        <ele>18</ele>
        <time>2019-07-16T20:06:41.000Z</time>
      </trkpt>
      <trkpt lat="50.6926" lon="2.96178">
        <ele>18</ele>
        <time>2019-07-16T20:06:42.000Z</time>
      </trkpt>
      <trkpt lat="50.69268" lon="2.96178">
        <ele>18</ele>
        <time>2019-07-16T20:06:43.000Z</time>
      </trkpt>
      <trkpt lat="50.69275" lon="2.9618">
        <ele>18</ele>
        <time>2019-07-16T20:06:44.000Z</time>
      </trkpt>
      <trkpt lat="50.69281" lon="2.96185">
        <ele>18</ele>
        <time>2019-07-16T20:06:45.000Z</time>
      </trkpt>
      <trkpt lat="50.69287" lon="2.96191">
        <ele>18</ele>
        <time>2019-07-16T20:06:46.000Z</time>
      </trkpt>
      <trkpt lat="50.69293" lon="2.96198">
        <ele>18</ele>
        <time>2019-07-16T20:06:47.000Z</time>
      </trkpt>
      <trkpt lat="50.69318" lon="2.96224">
        <ele>18</ele>
        <time>2019-07-16T20:06:51.000Z</time>
      </trkpt>
      <trkpt lat="50.69325" lon="2.96227">
        <ele>18</ele>
        <time>2019-07-16T20:06:52.000Z</time>
      </trkpt>
      <trkpt lat="50.69332" lon="2.96227">
        <ele>18</ele>
        <time>2019-07-16T20:06:53.000Z</time>
      </trkpt>
      <trkpt lat="50.69339" lon="2.96226">
        <ele>18</ele>
        <time>2019-07-16T20:06:54.000Z</time>
      </trkpt>
      <trkpt lat="50.69346" lon="2.96222">
        <ele>18</ele>
        <time>2019-07-16T20:06:55.000Z</time>
      </trkpt>
      <trkpt lat="50.69353" lon="2.96218">
        <ele>18</ele>
        <time>2019-07-16T20:06:56.000Z</time>
      </trkpt>
      <trkpt lat="50.6936" lon="2.96213">
        <ele>18.200000762939</ele>
        <time>2019-07-16T20:06:57.000Z</time>
      </trkpt>
      <trkpt lat="50.69474" lon="2.96116">
        <ele>18.799999237061</ele>
        <time>2019-07-16T20:07:15.000Z</time>
      </trkpt>
      <trkpt lat="50.69586" lon="2.95997">
        <ele>16.799999237061</ele>
        <time>2019-07-16T20:07:34.000Z</time>
      </trkpt>
      <trkpt lat="50.69671" lon="2.95901">
        <ele>17.200000762939</ele>
        <time>2019-07-16T20:07:49.000Z</time>
      </trkpt>
      <trkpt lat="50.69676" lon="2.95892">
        <ele>17.39999961853</ele>
        <time>2019-07-16T20:07:50.000Z</time>
      </trkpt>
      <trkpt lat="50.69679" lon="2.95883">
        <ele>17.39999961853</ele>
        <time>2019-07-16T20:07:51.000Z</time>
      </trkpt>
      <trkpt lat="50.69682" lon="2.95873">
        <ele>17.39999961853</ele>
        <time>2019-07-16T20:07:52.000Z</time>
      </trkpt>
      <trkpt lat="50.69685" lon="2.95862">
        <ele>17.39999961853</ele>
        <time>2019-07-16T20:07:53.000Z</time>
      </trkpt>
      <trkpt lat="50.69692" lon="2.95842">
        <ele>17.39999961853</ele>
        <time>2019-07-16T20:07:55.000Z</time>
      </trkpt>
      <trkpt lat="50.69696" lon="2.95833">
        <ele>17.200000762939</ele>
        <time>2019-07-16T20:07:56.000Z</time>
      </trkpt>
      <trkpt lat="50.697" lon="2.95824">
        <ele>17.200000762939</ele>
        <time>2019-07-16T20:07:57.000Z</time>
      </trkpt>
      <trkpt lat="50.69776" lon="2.95723">
        <ele>18</ele>
        <time>2019-07-16T20:08:11.000Z</time>
      </trkpt>
      <trkpt lat="50.69854" lon="2.95627">
        <ele>18.60000038147</ele>
        <time>2019-07-16T20:08:25.000Z</time>
      </trkpt>
      <trkpt lat="50.6995" lon="2.95526">
        <ele>19.60000038147</ele>
        <time>2019-07-16T20:08:42.000Z</time>
      </trkpt>
      <trkpt lat="50.70047" lon="2.95431">
        <ele>19</ele>
        <time>2019-07-16T20:08:58.000Z</time>
      </trkpt>
      <trkpt lat="50.7011" lon="2.95351">
        <ele>19.60000038147</ele>
        <time>2019-07-16T20:09:09.000Z</time>
      </trkpt>
      <trkpt lat="50.70117" lon="2.95347">
        <ele>19.799999237061</ele>
        <time>2019-07-16T20:09:10.000Z</time>
      </trkpt>
      <trkpt lat="50.70192" lon="2.95283">
        <ele>18.39999961853</ele>
        <time>2019-07-16T20:09:22.000Z</time>
      </trkpt>
      <trkpt lat="50.70285" lon="2.9515">
        <ele>17</ele>
        <time>2019-07-16T20:09:39.000Z</time>
      </trkpt>
      <trkpt lat="50.70376" lon="2.95027">
        <ele>17.60000038147</ele>
        <time>2019-07-16T20:09:56.000Z</time>
      </trkpt>
      <trkpt lat="50.705" lon="2.94874">
        <ele>17.60000038147</ele>
        <time>2019-07-16T20:10:18.000Z</time>
      </trkpt>
      <trkpt lat="50.70612" lon="2.94735">
        <ele>16.200000762939</ele>
        <time>2019-07-16T20:10:38.000Z</time>
      </trkpt>
      <trkpt lat="50.70724" lon="2.94597">
        <ele>16</ele>
        <time>2019-07-16T20:10:58.000Z</time>
      </trkpt>
      <trkpt lat="50.70822" lon="2.94445">
        <ele>16.799999237061</ele>
        <time>2019-07-16T20:11:17.000Z</time>
      </trkpt>
      <trkpt lat="50.70886" lon="2.94309">
        <ele>16.60000038147</ele>
        <time>2019-07-16T20:11:32.000Z</time>
      </trkpt>
      <trkpt lat="50.70981" lon="2.94123">
        <ele>15.800000190735</ele>
        <time>2019-07-16T20:11:53.000Z</time>
      </trkpt>
      <trkpt lat="50.71029" lon="2.94028">
        <ele>15.199999809265</ele>
        <time>2019-07-16T20:12:04.000Z</time>
      </trkpt>
      <trkpt lat="50.71035" lon="2.94022">
        <ele>15.199999809265</ele>
        <time>2019-07-16T20:12:05.000Z</time>
      </trkpt>
      <trkpt lat="50.71041" lon="2.94018">
        <ele>15.199999809265</ele>
        <time>2019-07-16T20:12:06.000Z</time>
      </trkpt>
      <trkpt lat="50.71047" lon="2.94015">
        <ele>15</ele>
        <time>2019-07-16T20:12:07.000Z</time>
      </trkpt>
      <trkpt lat="50.71053" lon="2.94013">
        <ele>15</ele>
        <time>2019-07-16T20:12:08.000Z</time>
      </trkpt>
      <trkpt lat="50.7106" lon="2.94012">
        <ele>15</ele>
        <time>2019-07-16T20:12:09.000Z</time>
      </trkpt>
      <trkpt lat="50.71067" lon="2.94012">
        <ele>15.199999809265</ele>
        <time>2019-07-16T20:12:10.000Z</time>
      </trkpt>
      <trkpt lat="50.71074" lon="2.94014">
        <ele>15.199999809265</ele>
        <time>2019-07-16T20:12:11.000Z</time>
      </trkpt>
      <trkpt lat="50.7108" lon="2.94016">
        <ele>15.39999961853</ele>
        <time>2019-07-16T20:12:12.000Z</time>
      </trkpt>
      <trkpt lat="50.71086" lon="2.94019">
        <ele>15.39999961853</ele>
        <time>2019-07-16T20:12:13.000Z</time>
      </trkpt>
      <trkpt lat="50.71107" lon="2.94025">
        <ele>15.60000038147</ele>
        <time>2019-07-16T20:12:20.000Z</time>
      </trkpt>
      <trkpt lat="50.7111" lon="2.94025">
        <ele>15.60000038147</ele>
        <time>2019-07-16T20:12:23.000Z</time>
      </trkpt>
      <trkpt lat="50.71112" lon="2.94024">
        <ele>15.800000190735</ele>
        <time>2019-07-16T20:12:24.000Z</time>
      </trkpt>
      <trkpt lat="50.71114" lon="2.94022">
        <ele>15.800000190735</ele>
        <time>2019-07-16T20:12:25.000Z</time>
      </trkpt>
      <trkpt lat="50.71115" lon="2.94019">
        <ele>15.800000190735</ele>
        <time>2019-07-16T20:12:26.000Z</time>
      </trkpt>
      <trkpt lat="50.71117" lon="2.94016">
        <ele>15.800000190735</ele>
        <time>2019-07-16T20:12:27.000Z</time>
      </trkpt>
      <trkpt lat="50.71118" lon="2.9401">
        <ele>15.800000190735</ele>
        <time>2019-07-16T20:12:28.000Z</time>
      </trkpt>
      <trkpt lat="50.7112" lon="2.94004">
        <ele>15.800000190735</ele>
        <time>2019-07-16T20:12:29.000Z</time>
      </trkpt>
      <trkpt lat="50.71137" lon="2.93949">
        <ele>16</ele>
        <time>2019-07-16T20:12:36.000Z</time>
      </trkpt>
      <trkpt lat="50.71145" lon="2.93933">
        <ele>16</ele>
        <time>2019-07-16T20:12:38.000Z</time>
      </trkpt>
      <trkpt lat="50.71148" lon="2.93924">
        <ele>15.800000190735</ele>
        <time>2019-07-16T20:12:39.000Z</time>
      </trkpt>
      <trkpt lat="50.71149" lon="2.93915">
        <ele>15.800000190735</ele>
        <time>2019-07-16T20:12:40.000Z</time>
      </trkpt>
      <trkpt lat="50.71149" lon="2.93905">
        <ele>15.800000190735</ele>
        <time>2019-07-16T20:12:41.000Z</time>
      </trkpt>
      <trkpt lat="50.71148" lon="2.93893">
        <ele>15.800000190735</ele>
        <time>2019-07-16T20:12:42.000Z</time>
      </trkpt>
      <trkpt lat="50.71164" lon="2.93761">
        <ele>16.60000038147</ele>
        <time>2019-07-16T20:12:54.000Z</time>
      </trkpt>
      <trkpt lat="50.712" lon="2.93577">
        <ele>18.200000762939</ele>
        <time>2019-07-16T20:13:11.000Z</time>
      </trkpt>
      <trkpt lat="50.71233" lon="2.93396">
        <ele>19</ele>
        <time>2019-07-16T20:13:27.000Z</time>
      </trkpt>
      <trkpt lat="50.71258" lon="2.93248">
        <ele>17.60000038147</ele>
        <time>2019-07-16T20:13:42.000Z</time>
      </trkpt>
      <trkpt lat="50.71275" lon="2.93126">
        <ele>15.199999809265</ele>
        <time>2019-07-16T20:13:54.000Z</time>
      </trkpt>
      <trkpt lat="50.71296" lon="2.92983">
        <ele>12.60000038147</ele>
        <time>2019-07-16T20:14:07.000Z</time>
      </trkpt>
      <trkpt lat="50.71298" lon="2.92973">
        <ele>12.199999809265</ele>
        <time>2019-07-16T20:14:08.000Z</time>
      </trkpt>
      <trkpt lat="50.71344" lon="2.9285">
        <ele>9.8000001907349</ele>
        <time>2019-07-16T20:14:20.000Z</time>
      </trkpt>
      <trkpt lat="50.71415" lon="2.92667">
        <ele>10</ele>
        <time>2019-07-16T20:14:38.000Z</time>
      </trkpt>
      <trkpt lat="50.71478" lon="2.9248">
        <ele>14</ele>
        <time>2019-07-16T20:14:57.000Z</time>
      </trkpt>
      <trkpt lat="50.71482" lon="2.92473">
        <ele>14.199999809265</ele>
        <time>2019-07-16T20:14:58.000Z</time>
      </trkpt>
      <trkpt lat="50.71487" lon="2.92464">
        <ele>14.199999809265</ele>
        <time>2019-07-16T20:14:59.000Z</time>
      </trkpt>
      <trkpt lat="50.71492" lon="2.9246">
        <ele>14.199999809265</ele>
        <time>2019-07-16T20:15:00.000Z</time>
      </trkpt>
      <trkpt lat="50.71498" lon="2.92455">
        <ele>14.39999961853</ele>
        <time>2019-07-16T20:15:01.000Z</time>
      </trkpt>
      <trkpt lat="50.71541" lon="2.92422">
        <ele>14</ele>
        <time>2019-07-16T20:15:08.000Z</time>
      </trkpt>
      <trkpt lat="50.71643" lon="2.92337">
        <ele>15.199999809265</ele>
        <time>2019-07-16T20:15:25.000Z</time>
      </trkpt>
      <trkpt lat="50.71684" lon="2.92301">
        <ele>16.200000762939</ele>
        <time>2019-07-16T20:15:32.000Z</time>
      </trkpt>
      <trkpt lat="50.71784" lon="2.92209">
        <ele>14</ele>
        <time>2019-07-16T20:15:49.000Z</time>
      </trkpt>
      <trkpt lat="50.71882" lon="2.9212">
        <ele>15</ele>
        <time>2019-07-16T20:16:05.000Z</time>
      </trkpt>
      <trkpt lat="50.71998" lon="2.92018">
        <ele>16</ele>
        <time>2019-07-16T20:16:24.000Z</time>
      </trkpt>
      <trkpt lat="50.72099" lon="2.91935">
        <ele>16.39999961853</ele>
        <time>2019-07-16T20:16:40.000Z</time>
      </trkpt>
      <trkpt lat="50.72214" lon="2.9182">
        <ele>16</ele>
        <time>2019-07-16T20:16:59.000Z</time>
      </trkpt>
      <trkpt lat="50.72334" lon="2.91715">
        <ele>17.60000038147</ele>
        <time>2019-07-16T20:17:18.000Z</time>
      </trkpt>
      <trkpt lat="50.72395" lon="2.91663">
        <ele>17</ele>
        <time>2019-07-16T20:17:28.000Z</time>
      </trkpt>
      <trkpt lat="50.724" lon="2.91657">
        <ele>17</ele>
        <time>2019-07-16T20:17:29.000Z</time>
      </trkpt>
      <trkpt lat="50.72417" lon="2.91644">
        <ele>17</ele>
        <time>2019-07-16T20:17:32.000Z</time>
      </trkpt>
      <trkpt lat="50.72423" lon="2.91644">
        <ele>17</ele>
        <time>2019-07-16T20:17:33.000Z</time>
      </trkpt>
      <trkpt lat="50.72432" lon="2.91651">
        <ele>17</ele>
        <time>2019-07-16T20:17:35.000Z</time>
      </trkpt>
      <trkpt lat="50.72438" lon="2.91662">
        <ele>17</ele>
        <time>2019-07-16T20:17:36.000Z</time>
      </trkpt>
      <trkpt lat="50.72443" lon="2.9167">
        <ele>17</ele>
        <time>2019-07-16T20:17:37.000Z</time>
      </trkpt>
      <trkpt lat="50.72513" lon="2.91837">
        <ele>16.39999961853</ele>
        <time>2019-07-16T20:17:55.000Z</time>
      </trkpt>
      <trkpt lat="50.72588" lon="2.92028">
        <ele>15.199999809265</ele>
        <time>2019-07-16T20:18:15.000Z</time>
      </trkpt>
      <trkpt lat="50.72652" lon="2.92195">
        <ele>14.199999809265</ele>
        <time>2019-07-16T20:18:32.000Z</time>
      </trkpt>
      <trkpt lat="50.7271" lon="2.92335">
        <ele>15.60000038147</ele>
        <time>2019-07-16T20:18:47.000Z</time>
      </trkpt>
      <trkpt lat="50.72716" lon="2.92342">
        <ele>15.800000190735</ele>
        <time>2019-07-16T20:18:48.000Z</time>
      </trkpt>
      <trkpt lat="50.72722" lon="2.92349">
        <ele>16</ele>
        <time>2019-07-16T20:18:49.000Z</time>
      </trkpt>
      <trkpt lat="50.72728" lon="2.92354">
        <ele>16</ele>
        <time>2019-07-16T20:18:50.000Z</time>
      </trkpt>
      <trkpt lat="50.72735" lon="2.92358">
        <ele>15.800000190735</ele>
        <time>2019-07-16T20:18:51.000Z</time>
      </trkpt>
      <trkpt lat="50.72742" lon="2.92361">
        <ele>15.800000190735</ele>
        <time>2019-07-16T20:18:52.000Z</time>
      </trkpt>
      <trkpt lat="50.72749" lon="2.92364">
        <ele>15.60000038147</ele>
        <time>2019-07-16T20:18:53.000Z</time>
      </trkpt>
      <trkpt lat="50.7286" lon="2.92407">
        <ele>13.60000038147</ele>
        <time>2019-07-16T20:19:09.000Z</time>
      </trkpt>
      <trkpt lat="50.73001" lon="2.92463">
        <ele>14.60000038147</ele>
        <time>2019-07-16T20:19:29.000Z</time>
      </trkpt>
      <trkpt lat="50.73118" lon="2.92519">
        <ele>14.60000038147</ele>
        <time>2019-07-16T20:19:45.000Z</time>
      </trkpt>
      <trkpt lat="50.73123" lon="2.92526">
        <ele>14.60000038147</ele>
        <time>2019-07-16T20:19:46.000Z</time>
      </trkpt>
      <trkpt lat="50.73128" lon="2.92534">
        <ele>14.60000038147</ele>
        <time>2019-07-16T20:19:47.000Z</time>
      </trkpt>
      <trkpt lat="50.73133" lon="2.92542">
        <ele>14.60000038147</ele>
        <time>2019-07-16T20:19:48.000Z</time>
      </trkpt>
      <trkpt lat="50.73137" lon="2.92551">
        <ele>14.39999961853</ele>
        <time>2019-07-16T20:19:49.000Z</time>
      </trkpt>
      <trkpt lat="50.73141" lon="2.9256">
        <ele>14.39999961853</ele>
        <time>2019-07-16T20:19:50.000Z</time>
      </trkpt>
      <trkpt lat="50.73145" lon="2.9257">
        <ele>14.39999961853</ele>
        <time>2019-07-16T20:19:51.000Z</time>
      </trkpt>
      <trkpt lat="50.73187" lon="2.92727">
        <ele>14.199999809265</ele>
        <time>2019-07-16T20:20:07.000Z</time>
      </trkpt>
      <trkpt lat="50.73196" lon="2.92757">
        <ele>14.39999961853</ele>
        <time>2019-07-16T20:20:10.000Z</time>
      </trkpt>
      <trkpt lat="50.73201" lon="2.92766">
        <ele>14.60000038147</ele>
        <time>2019-07-16T20:20:11.000Z</time>
      </trkpt>
      <trkpt lat="50.73206" lon="2.92775">
        <ele>14.60000038147</ele>
        <time>2019-07-16T20:20:12.000Z</time>
      </trkpt>
      <trkpt lat="50.73297" lon="2.92896">
        <ele>15</ele>
        <time>2019-07-16T20:20:29.000Z</time>
      </trkpt>
      <trkpt lat="50.73378" lon="2.93006">
        <ele>15</ele>
        <time>2019-07-16T20:20:44.000Z</time>
      </trkpt>
      <trkpt lat="50.73465" lon="2.93119">
        <ele>16.60000038147</ele>
        <time>2019-07-16T20:21:00.000Z</time>
      </trkpt>
      <trkpt lat="50.7353" lon="2.93205">
        <ele>15.199999809265</ele>
        <time>2019-07-16T20:21:14.000Z</time>
      </trkpt>
      <trkpt lat="50.73552" lon="2.93222">
        <ele>15</ele>
        <time>2019-07-16T20:21:21.000Z</time>
      </trkpt>
      <trkpt lat="50.73557" lon="2.93222">
        <ele>15</ele>
        <time>2019-07-16T20:21:22.000Z</time>
      </trkpt>
      <trkpt lat="50.73563" lon="2.93221">
        <ele>15.199999809265</ele>
        <time>2019-07-16T20:21:23.000Z</time>
      </trkpt>
      <trkpt lat="50.73576" lon="2.9322">
        <ele>15.199999809265</ele>
        <time>2019-07-16T20:21:25.000Z</time>
      </trkpt>
      <trkpt lat="50.73672" lon="2.93238">
        <ele>16.200000762939</ele>
        <time>2019-07-16T20:21:39.000Z</time>
      </trkpt>
      <trkpt lat="50.73802" lon="2.93236">
        <ele>16</ele>
        <time>2019-07-16T20:21:57.000Z</time>
      </trkpt>
      <trkpt lat="50.73832" lon="2.93235">
        <ele>16</ele>
        <time>2019-07-16T20:22:01.000Z</time>
      </trkpt>
      <trkpt lat="50.73839" lon="2.93235">
        <ele>16</ele>
        <time>2019-07-16T20:22:02.000Z</time>
      </trkpt>
      <trkpt lat="50.73846" lon="2.93234">
        <ele>16</ele>
        <time>2019-07-16T20:22:03.000Z</time>
      </trkpt>
      <trkpt lat="50.73853" lon="2.93234">
        <ele>16</ele>
        <time>2019-07-16T20:22:04.000Z</time>
      </trkpt>
      <trkpt lat="50.7386" lon="2.93235">
        <ele>16</ele>
        <time>2019-07-16T20:22:05.000Z</time>
      </trkpt>
      <trkpt lat="50.73924" lon="2.93232">
        <ele>16.799999237061</ele>
        <time>2019-07-16T20:22:15.000Z</time>
      </trkpt>
      <trkpt lat="50.73929" lon="2.93229">
        <ele>17</ele>
        <time>2019-07-16T20:22:16.000Z</time>
      </trkpt>
      <trkpt lat="50.73933" lon="2.93224">
        <ele>17</ele>
        <time>2019-07-16T20:22:17.000Z</time>
      </trkpt>
      <trkpt lat="50.73935" lon="2.93197">
        <ele>17.39999961853</ele>
        <time>2019-07-16T20:22:20.000Z</time>
      </trkpt>
      <trkpt lat="50.73935" lon="2.9305">
        <ele>17.60000038147</ele>
        <time>2019-07-16T20:22:34.000Z</time>
      </trkpt>
      <trkpt lat="50.73954" lon="2.92988">
        <ele>17.799999237061</ele>
        <time>2019-07-16T20:22:41.000Z</time>
      </trkpt>
      <trkpt lat="50.73961" lon="2.92978">
        <ele>17.60000038147</ele>
        <time>2019-07-16T20:22:42.000Z</time>
      </trkpt>
      <trkpt lat="50.73993" lon="2.92942">
        <ele>17.200000762939</ele>
        <time>2019-07-16T20:22:48.000Z</time>
      </trkpt>
      <trkpt lat="50.74007" lon="2.92903">
        <ele>17.39999961853</ele>
        <time>2019-07-16T20:22:53.000Z</time>
      </trkpt>
      <trkpt lat="50.7401" lon="2.92896">
        <ele>17.39999961853</ele>
        <time>2019-07-16T20:22:54.000Z</time>
      </trkpt>
      <trkpt lat="50.74013" lon="2.92891">
        <ele>17.60000038147</ele>
        <time>2019-07-16T20:22:55.000Z</time>
      </trkpt>
      <trkpt lat="50.74015" lon="2.92887">
        <ele>17.60000038147</ele>
        <time>2019-07-16T20:22:56.000Z</time>
      </trkpt>
      <trkpt lat="50.74022" lon="2.92881">
        <ele>17.60000038147</ele>
        <time>2019-07-16T20:23:02.000Z</time>
      </trkpt>
      <trkpt lat="50.74024" lon="2.92877">
        <ele>17.60000038147</ele>
        <time>2019-07-16T20:23:04.000Z</time>
      </trkpt>
      <trkpt lat="50.74026" lon="2.92874">
        <ele>17.60000038147</ele>
        <time>2019-07-16T20:23:05.000Z</time>
      </trkpt>
      <trkpt lat="50.74027" lon="2.92871">
        <ele>17.60000038147</ele>
        <time>2019-07-16T20:23:06.000Z</time>
      </trkpt>
      <trkpt lat="50.74027" lon="2.92866">
        <ele>17.60000038147</ele>
        <time>2019-07-16T20:23:07.000Z</time>
      </trkpt>
      <trkpt lat="50.74027" lon="2.9286">
        <ele>17.60000038147</ele>
        <time>2019-07-16T20:23:08.000Z</time>
      </trkpt>
      <trkpt lat="50.74025" lon="2.92853">
        <ele>17.60000038147</ele>
        <time>2019-07-16T20:23:09.000Z</time>
      </trkpt>
      <trkpt lat="50.74024" lon="2.92846">
        <ele>17.60000038147</ele>
        <time>2019-07-16T20:23:10.000Z</time>
      </trkpt>
      <trkpt lat="50.74019" lon="2.9282">
        <ele>17.60000038147</ele>
        <time>2019-07-16T20:23:13.000Z</time>
      </trkpt>
      <trkpt lat="50.74015" lon="2.92764">
        <ele>17.60000038147</ele>
        <time>2019-07-16T20:23:18.000Z</time>
      </trkpt>
      <trkpt lat="50.74006" lon="2.92622">
        <ele>17.39999961853</ele>
        <time>2019-07-16T20:23:32.000Z</time>
      </trkpt>
      <trkpt lat="50.74006" lon="2.92614">
        <ele>17.39999961853</ele>
        <time>2019-07-16T20:23:33.000Z</time>
      </trkpt>
      <trkpt lat="50.74006" lon="2.92608">
        <ele>17.39999961853</ele>
        <time>2019-07-16T20:23:34.000Z</time>
      </trkpt>
      <trkpt lat="50.7401" lon="2.92602">
        <ele>17.39999961853</ele>
        <time>2019-07-16T20:23:35.000Z</time>
      </trkpt>
      <trkpt lat="50.74013" lon="2.92603">
        <ele>17.60000038147</ele>
        <time>2019-07-16T20:23:36.000Z</time>
      </trkpt>
      <trkpt lat="50.74017" lon="2.92606">
        <ele>17.60000038147</ele>
        <time>2019-07-16T20:23:37.000Z</time>
      </trkpt>
      <trkpt lat="50.7402" lon="2.92613">
        <ele>17.60000038147</ele>
        <time>2019-07-16T20:23:38.000Z</time>
      </trkpt>
      <trkpt lat="50.74022" lon="2.92622">
        <ele>17.60000038147</ele>
        <time>2019-07-16T20:23:39.000Z</time>
      </trkpt>
      <trkpt lat="50.74022" lon="2.92631">
        <ele>17.60000038147</ele>
        <time>2019-07-16T20:23:40.000Z</time>
      </trkpt>
      <trkpt lat="50.74022" lon="2.92641">
        <ele>17.60000038147</ele>
        <time>2019-07-16T20:23:41.000Z</time>
      </trkpt>
      <trkpt lat="50.74022" lon="2.92661">
        <ele>17.60000038147</ele>
        <time>2019-07-16T20:23:43.000Z</time>
      </trkpt>
      <trkpt lat="50.74024" lon="2.92671">
        <ele>17.60000038147</ele>
        <time>2019-07-16T20:23:44.000Z</time>
      </trkpt>
      <trkpt lat="50.74026" lon="2.9268">
        <ele>17.60000038147</ele>
        <time>2019-07-16T20:23:45.000Z</time>
      </trkpt>
      <trkpt lat="50.74029" lon="2.9269">
        <ele>17.799999237061</ele>
        <time>2019-07-16T20:23:46.000Z</time>
      </trkpt>
      <trkpt lat="50.74033" lon="2.92699">
        <ele>17.799999237061</ele>
        <time>2019-07-16T20:23:47.000Z</time>
      </trkpt>
      <trkpt lat="50.74037" lon="2.92707">
        <ele>17.799999237061</ele>
        <time>2019-07-16T20:23:48.000Z</time>
      </trkpt>
      <trkpt lat="50.74042" lon="2.92714">
        <ele>17.799999237061</ele>
        <time>2019-07-16T20:23:49.000Z</time>
      </trkpt>
      <trkpt lat="50.74047" lon="2.92722">
        <ele>18</ele>
        <time>2019-07-16T20:23:50.000Z</time>
      </trkpt>
      <trkpt lat="50.74146" lon="2.92858">
        <ele>19</ele>
        <time>2019-07-16T20:24:09.000Z</time>
      </trkpt>
      <trkpt lat="50.74258" lon="2.9297">
        <ele>18.60000038147</ele>
        <time>2019-07-16T20:24:28.000Z</time>
      </trkpt>
      <trkpt lat="50.74377" lon="2.93074">
        <ele>19</ele>
        <time>2019-07-16T20:24:47.000Z</time>
      </trkpt>
      <trkpt lat="50.7445" lon="2.9313">
        <ele>19</ele>
        <time>2019-07-16T20:25:00.000Z</time>
      </trkpt>
      <trkpt lat="50.74455" lon="2.9313">
        <ele>19</ele>
        <time>2019-07-16T20:25:01.000Z</time>
      </trkpt>
      <trkpt lat="50.74459" lon="2.93128">
        <ele>19</ele>
        <time>2019-07-16T20:25:02.000Z</time>
      </trkpt>
      <trkpt lat="50.74462" lon="2.93123">
        <ele>19</ele>
        <time>2019-07-16T20:25:03.000Z</time>
      </trkpt>
      <trkpt lat="50.74464" lon="2.93117">
        <ele>19</ele>
        <time>2019-07-16T20:25:04.000Z</time>
      </trkpt>
      <trkpt lat="50.74466" lon="2.9311">
        <ele>19</ele>
        <time>2019-07-16T20:25:05.000Z</time>
      </trkpt>
      <trkpt lat="50.74495" lon="2.93004">
        <ele>19.200000762939</ele>
        <time>2019-07-16T20:25:16.000Z</time>
      </trkpt>
      <trkpt lat="50.74531" lon="2.92924">
        <ele>18.799999237061</ele>
        <time>2019-07-16T20:25:25.000Z</time>
      </trkpt>
      <trkpt lat="50.74626" lon="2.92802">
        <ele>21.200000762939</ele>
        <time>2019-07-16T20:25:43.000Z</time>
      </trkpt>
      <trkpt lat="50.74694" lon="2.92712">
        <ele>24.200000762939</ele>
        <time>2019-07-16T20:25:56.000Z</time>
      </trkpt>
      <trkpt lat="50.7477" lon="2.92613">
        <ele>25</ele>
        <time>2019-07-16T20:26:11.000Z</time>
      </trkpt>
      <trkpt lat="50.74853" lon="2.92504">
        <ele>23</ele>
        <time>2019-07-16T20:26:27.000Z</time>
      </trkpt>
      <trkpt lat="50.74975" lon="2.9234">
        <ele>23</ele>
        <time>2019-07-16T20:26:50.000Z</time>
      </trkpt>
      <trkpt lat="50.75014" lon="2.92218">
        <ele>23</ele>
        <time>2019-07-16T20:27:02.000Z</time>
      </trkpt>
      <trkpt lat="50.75065" lon="2.92021">
        <ele>22.200000762939</ele>
        <time>2019-07-16T20:27:22.000Z</time>
      </trkpt>
      <trkpt lat="50.75093" lon="2.91887">
        <ele>22.60000038147</ele>
        <time>2019-07-16T20:27:35.000Z</time>
      </trkpt>
      <trkpt lat="50.75091" lon="2.91842">
        <ele>22.60000038147</ele>
        <time>2019-07-16T20:27:39.000Z</time>
      </trkpt>
      <trkpt lat="50.7509" lon="2.91832">
        <ele>22.60000038147</ele>
        <time>2019-07-16T20:27:40.000Z</time>
      </trkpt>
      <trkpt lat="50.75057" lon="2.91684">
        <ele>24</ele>
        <time>2019-07-16T20:27:55.000Z</time>
      </trkpt>
      <trkpt lat="50.75057" lon="2.91675">
        <ele>24</ele>
        <time>2019-07-16T20:27:56.000Z</time>
      </trkpt>
      <trkpt lat="50.75059" lon="2.91666">
        <ele>24</ele>
        <time>2019-07-16T20:27:57.000Z</time>
      </trkpt>
      <trkpt lat="50.75061" lon="2.91661">
        <ele>24</ele>
        <time>2019-07-16T20:27:58.000Z</time>
      </trkpt>
      <trkpt lat="50.75065" lon="2.91657">
        <ele>24</ele>
        <time>2019-07-16T20:27:59.000Z</time>
      </trkpt>
      <trkpt lat="50.7507" lon="2.91654">
        <ele>24</ele>
        <time>2019-07-16T20:28:00.000Z</time>
      </trkpt>
      <trkpt lat="50.75075" lon="2.91651">
        <ele>24</ele>
        <time>2019-07-16T20:28:01.000Z</time>
      </trkpt>
      <trkpt lat="50.75114" lon="2.91626">
        <ele>23.799999237061</ele>
        <time>2019-07-16T20:28:08.000Z</time>
      </trkpt>
      <trkpt lat="50.75202" lon="2.91566">
        <ele>23.39999961853</ele>
        <time>2019-07-16T20:28:22.000Z</time>
      </trkpt>
      <trkpt lat="50.75272" lon="2.91513">
        <ele>23</ele>
        <time>2019-07-16T20:28:33.000Z</time>
      </trkpt>
      <trkpt lat="50.75388" lon="2.91427">
        <ele>20</ele>
        <time>2019-07-16T20:28:51.000Z</time>
      </trkpt>
      <trkpt lat="50.75524" lon="2.91343">
        <ele>19.39999961853</ele>
        <time>2019-07-16T20:29:11.000Z</time>
      </trkpt>
      <trkpt lat="50.7561" lon="2.91264">
        <ele>21.200000762939</ele>
        <time>2019-07-16T20:29:25.000Z</time>
      </trkpt>
      <trkpt lat="50.75691" lon="2.91184">
        <ele>23.60000038147</ele>
        <time>2019-07-16T20:29:40.000Z</time>
      </trkpt>
      <trkpt lat="50.75778" lon="2.91099">
        <ele>25.39999961853</ele>
        <time>2019-07-16T20:29:57.000Z</time>
      </trkpt>
      <trkpt lat="50.75886" lon="2.90992">
        <ele>27</ele>
        <time>2019-07-16T20:30:18.000Z</time>
      </trkpt>
      <trkpt lat="50.75922" lon="2.90957">
        <ele>27.799999237061</ele>
        <time>2019-07-16T20:30:25.000Z</time>
      </trkpt>
      <trkpt lat="50.75927" lon="2.90951">
        <ele>28</ele>
        <time>2019-07-16T20:30:26.000Z</time>
      </trkpt>
      <trkpt lat="50.76009" lon="2.90867">
        <ele>30.39999961853</ele>
        <time>2019-07-16T20:30:42.000Z</time>
      </trkpt>
      <trkpt lat="50.76113" lon="2.90762">
        <ele>34.200000762939</ele>
        <time>2019-07-16T20:31:03.000Z</time>
      </trkpt>
      <trkpt lat="50.76177" lon="2.90648">
        <ele>38</ele>
        <time>2019-07-16T20:31:20.000Z</time>
      </trkpt>
      <trkpt lat="50.76239" lon="2.90526">
        <ele>40.799999237061</ele>
        <time>2019-07-16T20:31:38.000Z</time>
      </trkpt>
      <trkpt lat="50.76291" lon="2.90426">
        <ele>44.400001525879</ele>
        <time>2019-07-16T20:31:54.000Z</time>
      </trkpt>
      <trkpt lat="50.7632" lon="2.90345">
        <ele>46.599998474121</ele>
        <time>2019-07-16T20:32:06.000Z</time>
      </trkpt>
      <trkpt lat="50.76333" lon="2.90257">
        <ele>49.599998474121</ele>
        <time>2019-07-16T20:32:18.000Z</time>
      </trkpt>
      <trkpt lat="50.76344" lon="2.90178">
        <ele>52</ele>
        <time>2019-07-16T20:32:29.000Z</time>
      </trkpt>
      <trkpt lat="50.76346" lon="2.90171">
        <ele>52</ele>
        <time>2019-07-16T20:32:30.000Z</time>
      </trkpt>
      <trkpt lat="50.76354" lon="2.90146">
        <ele>52.599998474121</ele>
        <time>2019-07-16T20:32:34.000Z</time>
      </trkpt>
      <trkpt lat="50.76366" lon="2.90123">
        <ele>53.599998474121</ele>
        <time>2019-07-16T20:32:38.000Z</time>
      </trkpt>
      <trkpt lat="50.76423" lon="2.90066">
        <ele>57.200000762939</ele>
        <time>2019-07-16T20:32:53.000Z</time>
      </trkpt>
      <trkpt lat="50.76471" lon="2.90025">
        <ele>59.599998474121</ele>
        <time>2019-07-16T20:33:05.000Z</time>
      </trkpt>
      <trkpt lat="50.76475" lon="2.90022">
        <ele>59.599998474121</ele>
        <time>2019-07-16T20:33:06.000Z</time>
      </trkpt>
      <trkpt lat="50.76487" lon="2.90011">
        <ele>60</ele>
        <time>2019-07-16T20:33:09.000Z</time>
      </trkpt>
      <trkpt lat="50.7649" lon="2.90007">
        <ele>60.200000762939</ele>
        <time>2019-07-16T20:33:10.000Z</time>
      </trkpt>
      <trkpt lat="50.76494" lon="2.90004">
        <ele>60.400001525879</ele>
        <time>2019-07-16T20:33:11.000Z</time>
      </trkpt>
      <trkpt lat="50.76503" lon="2.89997">
        <ele>60.400001525879</ele>
        <time>2019-07-16T20:33:13.000Z</time>
      </trkpt>
      <trkpt lat="50.76507" lon="2.89993">
        <ele>60.599998474121</ele>
        <time>2019-07-16T20:33:14.000Z</time>
      </trkpt>
      <trkpt lat="50.7651" lon="2.89988">
        <ele>60.599998474121</ele>
        <time>2019-07-16T20:33:15.000Z</time>
      </trkpt>
      <trkpt lat="50.76513" lon="2.89981">
        <ele>60.799999237061</ele>
        <time>2019-07-16T20:33:16.000Z</time>
      </trkpt>
      <trkpt lat="50.76516" lon="2.89975">
        <ele>61</ele>
        <time>2019-07-16T20:33:17.000Z</time>
      </trkpt>
      <trkpt lat="50.76518" lon="2.89968">
        <ele>61</ele>
        <time>2019-07-16T20:33:18.000Z</time>
      </trkpt>
      <trkpt lat="50.76531" lon="2.89935">
        <ele>61.599998474121</ele>
        <time>2019-07-16T20:33:23.000Z</time>
      </trkpt>
      <trkpt lat="50.76535" lon="2.89929">
        <ele>61.599998474121</ele>
        <time>2019-07-16T20:33:24.000Z</time>
      </trkpt>
      <trkpt lat="50.76539" lon="2.89925">
        <ele>61.799999237061</ele>
        <time>2019-07-16T20:33:25.000Z</time>
      </trkpt>
      <trkpt lat="50.76543" lon="2.89922">
        <ele>61.799999237061</ele>
        <time>2019-07-16T20:33:26.000Z</time>
      </trkpt>
      <trkpt lat="50.76548" lon="2.89919">
        <ele>62</ele>
        <time>2019-07-16T20:33:27.000Z</time>
      </trkpt>
      <trkpt lat="50.76552" lon="2.89916">
        <ele>62</ele>
        <time>2019-07-16T20:33:28.000Z</time>
      </trkpt>
      <trkpt lat="50.76556" lon="2.89913">
        <ele>62.200000762939</ele>
        <time>2019-07-16T20:33:29.000Z</time>
      </trkpt>
      <trkpt lat="50.7656" lon="2.89907">
        <ele>62.200000762939</ele>
        <time>2019-07-16T20:33:30.000Z</time>
      </trkpt>
      <trkpt lat="50.76562" lon="2.89899">
        <ele>62.400001525879</ele>
        <time>2019-07-16T20:33:31.000Z</time>
      </trkpt>
      <trkpt lat="50.76562" lon="2.89892">
        <ele>62.400001525879</ele>
        <time>2019-07-16T20:33:32.000Z</time>
      </trkpt>
      <trkpt lat="50.76562" lon="2.89883">
        <ele>62.599998474121</ele>
        <time>2019-07-16T20:33:33.000Z</time>
      </trkpt>
      <trkpt lat="50.7656" lon="2.89875">
        <ele>62.599998474121</ele>
        <time>2019-07-16T20:33:34.000Z</time>
      </trkpt>
      <trkpt lat="50.76559" lon="2.89867">
        <ele>62.799999237061</ele>
        <time>2019-07-16T20:33:35.000Z</time>
      </trkpt>
      <trkpt lat="50.76558" lon="2.89858">
        <ele>62.799999237061</ele>
        <time>2019-07-16T20:33:36.000Z</time>
      </trkpt>
      <trkpt lat="50.76557" lon="2.89848">
        <ele>63</ele>
        <time>2019-07-16T20:33:37.000Z</time>
      </trkpt>
      <trkpt lat="50.76556" lon="2.89839">
        <ele>63</ele>
        <time>2019-07-16T20:33:38.000Z</time>
      </trkpt>
      <trkpt lat="50.76531" lon="2.89733">
        <ele>63.400001525879</ele>
        <time>2019-07-16T20:33:52.000Z</time>
      </trkpt>
      <trkpt lat="50.76528" lon="2.89697">
        <ele>63.400001525879</ele>
        <time>2019-07-16T20:33:59.000Z</time>
      </trkpt>
      <trkpt lat="50.7653" lon="2.89693">
        <ele>63.400001525879</ele>
        <time>2019-07-16T20:34:00.000Z</time>
      </trkpt>
      <trkpt lat="50.76534" lon="2.8969">
        <ele>63.599998474121</ele>
        <time>2019-07-16T20:34:01.000Z</time>
      </trkpt>
      <trkpt lat="50.76537" lon="2.89688">
        <ele>63.599998474121</ele>
        <time>2019-07-16T20:34:02.000Z</time>
      </trkpt>
      <trkpt lat="50.76542" lon="2.89686">
        <ele>63.599998474121</ele>
        <time>2019-07-16T20:34:03.000Z</time>
      </trkpt>
      <trkpt lat="50.76609" lon="2.8966">
        <ele>63.799999237061</ele>
        <time>2019-07-16T20:34:15.000Z</time>
      </trkpt>
      <trkpt lat="50.76634" lon="2.89651">
        <ele>63.799999237061</ele>
        <time>2019-07-16T20:34:20.000Z</time>
      </trkpt>
      <trkpt lat="50.76638" lon="2.89647">
        <ele>63.599998474121</ele>
        <time>2019-07-16T20:34:21.000Z</time>
      </trkpt>
      <trkpt lat="50.7664" lon="2.8964">
        <ele>63.599998474121</ele>
        <time>2019-07-16T20:34:22.000Z</time>
      </trkpt>
      <trkpt lat="50.76641" lon="2.89633">
        <ele>63.400001525879</ele>
        <time>2019-07-16T20:34:23.000Z</time>
      </trkpt>
      <trkpt lat="50.7664" lon="2.89625">
        <ele>63.400001525879</ele>
        <time>2019-07-16T20:34:24.000Z</time>
      </trkpt>
      <trkpt lat="50.76638" lon="2.89617">
        <ele>63.400001525879</ele>
        <time>2019-07-16T20:34:25.000Z</time>
      </trkpt>
      <trkpt lat="50.76629" lon="2.89574">
        <ele>62.799999237061</ele>
        <time>2019-07-16T20:34:30.000Z</time>
      </trkpt>
      <trkpt lat="50.76601" lon="2.89424">
        <ele>62</ele>
        <time>2019-07-16T20:34:45.000Z</time>
      </trkpt>
      <trkpt lat="50.7657" lon="2.89264">
        <ele>61</ele>
        <time>2019-07-16T20:35:02.000Z</time>
      </trkpt>
      <trkpt lat="50.76544" lon="2.89101">
        <ele>58.200000762939</ele>
        <time>2019-07-16T20:35:18.000Z</time>
      </trkpt>
      <trkpt lat="50.76542" lon="2.89081">
        <ele>57.799999237061</ele>
        <time>2019-07-16T20:35:20.000Z</time>
      </trkpt>
      <trkpt lat="50.76544" lon="2.89072">
        <ele>57.599998474121</ele>
        <time>2019-07-16T20:35:21.000Z</time>
      </trkpt>
      <trkpt lat="50.76587" lon="2.88944">
        <ele>53.799999237061</ele>
        <time>2019-07-16T20:35:35.000Z</time>
      </trkpt>
      <trkpt lat="50.7662" lon="2.8885">
        <ele>51</ele>
        <time>2019-07-16T20:35:44.000Z</time>
      </trkpt>
      <trkpt lat="50.7665" lon="2.88767">
        <ele>47</ele>
        <time>2019-07-16T20:35:52.000Z</time>
      </trkpt>
      <trkpt lat="50.76656" lon="2.88757">
        <ele>46.400001525879</ele>
        <time>2019-07-16T20:35:53.000Z</time>
      </trkpt>
      <trkpt lat="50.76662" lon="2.88748">
        <ele>45.799999237061</ele>
        <time>2019-07-16T20:35:54.000Z</time>
      </trkpt>
      <trkpt lat="50.76668" lon="2.88741">
        <ele>45.400001525879</ele>
        <time>2019-07-16T20:35:55.000Z</time>
      </trkpt>
      <trkpt lat="50.76721" lon="2.88687">
        <ele>41.599998474121</ele>
        <time>2019-07-16T20:36:02.000Z</time>
      </trkpt>
      <trkpt lat="50.76753" lon="2.88655">
        <ele>41</ele>
        <time>2019-07-16T20:36:06.000Z</time>
      </trkpt>
      <trkpt lat="50.76786" lon="2.88622">
        <ele>41</ele>
        <time>2019-07-16T20:36:10.000Z</time>
      </trkpt>
      <trkpt lat="50.76792" lon="2.88613">
        <ele>41</ele>
        <time>2019-07-16T20:36:11.000Z</time>
      </trkpt>
      <trkpt lat="50.76798" lon="2.88601">
        <ele>41</ele>
        <time>2019-07-16T20:36:12.000Z</time>
      </trkpt>
      <trkpt lat="50.76801" lon="2.88588">
        <ele>40.799999237061</ele>
        <time>2019-07-16T20:36:13.000Z</time>
      </trkpt>
      <trkpt lat="50.76803" lon="2.88573">
        <ele>40.799999237061</ele>
        <time>2019-07-16T20:36:14.000Z</time>
      </trkpt>
      <trkpt lat="50.76805" lon="2.88559">
        <ele>40.599998474121</ele>
        <time>2019-07-16T20:36:15.000Z</time>
      </trkpt>
      <trkpt lat="50.76831" lon="2.8838">
        <ele>38</ele>
        <time>2019-07-16T20:36:29.000Z</time>
      </trkpt>
      <trkpt lat="50.7689" lon="2.88212">
        <ele>36</ele>
        <time>2019-07-16T20:36:44.000Z</time>
      </trkpt>
      <trkpt lat="50.76935" lon="2.88115">
        <ele>36.200000762939</ele>
        <time>2019-07-16T20:36:54.000Z</time>
      </trkpt>
      <trkpt lat="50.76937" lon="2.88104">
        <ele>36.200000762939</ele>
        <time>2019-07-16T20:36:55.000Z</time>
      </trkpt>
      <trkpt lat="50.76969" lon="2.87939">
        <ele>34.200000762939</ele>
        <time>2019-07-16T20:37:10.000Z</time>
      </trkpt>
      <trkpt lat="50.76972" lon="2.87821">
        <ele>34.599998474121</ele>
        <time>2019-07-16T20:37:21.000Z</time>
      </trkpt>
      <trkpt lat="50.76969" lon="2.87724">
        <ele>37.799999237061</ele>
        <time>2019-07-16T20:37:31.000Z</time>
      </trkpt>
      <trkpt lat="50.76971" lon="2.87715">
        <ele>38</ele>
        <time>2019-07-16T20:37:32.000Z</time>
      </trkpt>
      <trkpt lat="50.77" lon="2.87604">
        <ele>40.599998474121</ele>
        <time>2019-07-16T20:37:45.000Z</time>
      </trkpt>
      <trkpt lat="50.77046" lon="2.87458">
        <ele>43</ele>
        <time>2019-07-16T20:38:04.000Z</time>
      </trkpt>
      <trkpt lat="50.77079" lon="2.87299">
        <ele>44.599998474121</ele>
        <time>2019-07-16T20:38:24.000Z</time>
      </trkpt>
      <trkpt lat="50.77082" lon="2.87284">
        <ele>44.599998474121</ele>
        <time>2019-07-16T20:38:26.000Z</time>
      </trkpt>
      <trkpt lat="50.77084" lon="2.87276">
        <ele>44.799999237061</ele>
        <time>2019-07-16T20:38:27.000Z</time>
      </trkpt>
      <trkpt lat="50.77125" lon="2.87157">
        <ele>44.799999237061</ele>
        <time>2019-07-16T20:38:43.000Z</time>
      </trkpt>
      <trkpt lat="50.77163" lon="2.87009">
        <ele>49</ele>
        <time>2019-07-16T20:39:01.000Z</time>
      </trkpt>
      <trkpt lat="50.7717" lon="2.86994">
        <ele>49.400001525879</ele>
        <time>2019-07-16T20:39:03.000Z</time>
      </trkpt>
      <trkpt lat="50.77229" lon="2.86886">
        <ele>53</ele>
        <time>2019-07-16T20:39:19.000Z</time>
      </trkpt>
      <trkpt lat="50.77242" lon="2.86852">
        <ele>54</ele>
        <time>2019-07-16T20:39:24.000Z</time>
      </trkpt>
      <trkpt lat="50.77242" lon="2.86844">
        <ele>54</ele>
        <time>2019-07-16T20:39:25.000Z</time>
      </trkpt>
      <trkpt lat="50.7724" lon="2.86837">
        <ele>54</ele>
        <time>2019-07-16T20:39:26.000Z</time>
      </trkpt>
      <trkpt lat="50.77237" lon="2.86831">
        <ele>54.200000762939</ele>
        <time>2019-07-16T20:39:27.000Z</time>
      </trkpt>
      <trkpt lat="50.77234" lon="2.86825">
        <ele>54.599998474121</ele>
        <time>2019-07-16T20:39:28.000Z</time>
      </trkpt>
      <trkpt lat="50.7723" lon="2.8682">
        <ele>54.599998474121</ele>
        <time>2019-07-16T20:39:29.000Z</time>
      </trkpt>
      <trkpt lat="50.77181" lon="2.86741">
        <ele>56.799999237061</ele>
        <time>2019-07-16T20:39:42.000Z</time>
      </trkpt>
      <trkpt lat="50.77152" lon="2.86653">
        <ele>57.599998474121</ele>
        <time>2019-07-16T20:39:54.000Z</time>
      </trkpt>
      <trkpt lat="50.77149" lon="2.86647">
        <ele>57.599998474121</ele>
        <time>2019-07-16T20:39:55.000Z</time>
      </trkpt>
      <trkpt lat="50.77145" lon="2.86642">
        <ele>57.599998474121</ele>
        <time>2019-07-16T20:39:56.000Z</time>
      </trkpt>
      <trkpt lat="50.7714" lon="2.86636">
        <ele>57.400001525879</ele>
        <time>2019-07-16T20:39:57.000Z</time>
      </trkpt>
      <trkpt lat="50.77136" lon="2.86631">
        <ele>57.400001525879</ele>
        <time>2019-07-16T20:39:58.000Z</time>
      </trkpt>
      <trkpt lat="50.77131" lon="2.86627">
        <ele>57.400001525879</ele>
        <time>2019-07-16T20:39:59.000Z</time>
      </trkpt>
      <trkpt lat="50.77029" lon="2.86519">
        <ele>57.799999237061</ele>
        <time>2019-07-16T20:40:19.000Z</time>
      </trkpt>
      <trkpt lat="50.7695" lon="2.86421">
        <ele>56.400001525879</ele>
        <time>2019-07-16T20:40:35.000Z</time>
      </trkpt>
      <trkpt lat="50.76898" lon="2.86373">
        <ele>55.200000762939</ele>
        <time>2019-07-16T20:40:44.000Z</time>
      </trkpt>
      <trkpt lat="50.76859" lon="2.86313">
        <ele>54</ele>
        <time>2019-07-16T20:40:51.000Z</time>
      </trkpt>
      <trkpt lat="50.76823" lon="2.86251">
        <ele>52.400001525879</ele>
        <time>2019-07-16T20:40:57.000Z</time>
      </trkpt>
      <trkpt lat="50.76791" lon="2.86182">
        <ele>50.400001525879</ele>
        <time>2019-07-16T20:41:03.000Z</time>
      </trkpt>
      <trkpt lat="50.76785" lon="2.86172">
        <ele>49.799999237061</ele>
        <time>2019-07-16T20:41:04.000Z</time>
      </trkpt>
      <trkpt lat="50.76779" lon="2.86162">
        <ele>49.200000762939</ele>
        <time>2019-07-16T20:41:05.000Z</time>
      </trkpt>
      <trkpt lat="50.7673" lon="2.86111">
        <ele>45</ele>
        <time>2019-07-16T20:41:11.000Z</time>
      </trkpt>
      <trkpt lat="50.7666" lon="2.86052">
        <ele>41.400001525879</ele>
        <time>2019-07-16T20:41:19.000Z</time>
      </trkpt>
      <trkpt lat="50.76601" lon="2.85996">
        <ele>38</ele>
        <time>2019-07-16T20:41:26.000Z</time>
      </trkpt>
      <trkpt lat="50.76537" lon="2.85937">
        <ele>33.599998474121</ele>
        <time>2019-07-16T20:41:33.000Z</time>
      </trkpt>
      <trkpt lat="50.76424" lon="2.8587">
        <ele>29.39999961853</ele>
        <time>2019-07-16T20:41:45.000Z</time>
      </trkpt>
      <trkpt lat="50.76321" lon="2.85821">
        <ele>29.200000762939</ele>
        <time>2019-07-16T20:41:58.000Z</time>
      </trkpt>
      <trkpt lat="50.763" lon="2.85807">
        <ele>29.39999961853</ele>
        <time>2019-07-16T20:42:01.000Z</time>
      </trkpt>
      <trkpt lat="50.7625" lon="2.85724">
        <ele>30</ele>
        <time>2019-07-16T20:42:12.000Z</time>
      </trkpt>
      <trkpt lat="50.76212" lon="2.85581">
        <ele>30.799999237061</ele>
        <time>2019-07-16T20:42:27.000Z</time>
      </trkpt>
      <trkpt lat="50.76195" lon="2.85514">
        <ele>30.60000038147</ele>
        <time>2019-07-16T20:42:34.000Z</time>
      </trkpt>
      <trkpt lat="50.76191" lon="2.85505">
        <ele>30.60000038147</ele>
        <time>2019-07-16T20:42:35.000Z</time>
      </trkpt>
      <trkpt lat="50.76187" lon="2.85498">
        <ele>30.60000038147</ele>
        <time>2019-07-16T20:42:36.000Z</time>
      </trkpt>
      <trkpt lat="50.76181" lon="2.85492">
        <ele>30.60000038147</ele>
        <time>2019-07-16T20:42:37.000Z</time>
      </trkpt>
      <trkpt lat="50.76174" lon="2.8549">
        <ele>30.39999961853</ele>
        <time>2019-07-16T20:42:38.000Z</time>
      </trkpt>
      <trkpt lat="50.76167" lon="2.8549">
        <ele>30.39999961853</ele>
        <time>2019-07-16T20:42:39.000Z</time>
      </trkpt>
      <trkpt lat="50.7616" lon="2.85492">
        <ele>30.200000762939</ele>
        <time>2019-07-16T20:42:40.000Z</time>
      </trkpt>
      <trkpt lat="50.76153" lon="2.85494">
        <ele>30.200000762939</ele>
        <time>2019-07-16T20:42:41.000Z</time>
      </trkpt>
      <trkpt lat="50.76146" lon="2.85497">
        <ele>30</ele>
        <time>2019-07-16T20:42:42.000Z</time>
      </trkpt>
      <trkpt lat="50.76139" lon="2.855">
        <ele>30</ele>
        <time>2019-07-16T20:42:43.000Z</time>
      </trkpt>
      <trkpt lat="50.76033" lon="2.85532">
        <ele>29.60000038147</ele>
        <time>2019-07-16T20:42:59.000Z</time>
      </trkpt>
      <trkpt lat="50.76021" lon="2.8553">
        <ele>29.799999237061</ele>
        <time>2019-07-16T20:43:01.000Z</time>
      </trkpt>
      <trkpt lat="50.75989" lon="2.85526">
        <ele>30.60000038147</ele>
        <time>2019-07-16T20:43:07.000Z</time>
      </trkpt>
      <trkpt lat="50.75984" lon="2.85523">
        <ele>30.60000038147</ele>
        <time>2019-07-16T20:43:08.000Z</time>
      </trkpt>
      <trkpt lat="50.75979" lon="2.8552">
        <ele>30.799999237061</ele>
        <time>2019-07-16T20:43:09.000Z</time>
      </trkpt>
      <trkpt lat="50.75975" lon="2.85516">
        <ele>30.799999237061</ele>
        <time>2019-07-16T20:43:10.000Z</time>
      </trkpt>
      <trkpt lat="50.7597" lon="2.85512">
        <ele>30.799999237061</ele>
        <time>2019-07-16T20:43:11.000Z</time>
      </trkpt>
      <trkpt lat="50.75965" lon="2.85507">
        <ele>30.799999237061</ele>
        <time>2019-07-16T20:43:12.000Z</time>
      </trkpt>
      <trkpt lat="50.75947" lon="2.85481">
        <ele>29.799999237061</ele>
        <time>2019-07-16T20:43:18.000Z</time>
      </trkpt>
      <trkpt lat="50.75948" lon="2.85474">
        <ele>29.799999237061</ele>
        <time>2019-07-16T20:43:19.000Z</time>
      </trkpt>
      <trkpt lat="50.75949" lon="2.85467">
        <ele>29.799999237061</ele>
        <time>2019-07-16T20:43:20.000Z</time>
      </trkpt>
      <trkpt lat="50.75958" lon="2.8543">
        <ele>29.60000038147</ele>
        <time>2019-07-16T20:43:24.000Z</time>
      </trkpt>
      <trkpt lat="50.75976" lon="2.85344">
        <ele>30</ele>
        <time>2019-07-16T20:43:33.000Z</time>
      </trkpt>
      <trkpt lat="50.76006" lon="2.85258">
        <ele>31</ele>
        <time>2019-07-16T20:43:42.000Z</time>
      </trkpt>
      <trkpt lat="50.76007" lon="2.85248">
        <ele>31</ele>
        <time>2019-07-16T20:43:43.000Z</time>
      </trkpt>
      <trkpt lat="50.76007" lon="2.85236">
        <ele>31</ele>
        <time>2019-07-16T20:43:44.000Z</time>
      </trkpt>
      <trkpt lat="50.76006" lon="2.85224">
        <ele>31</ele>
        <time>2019-07-16T20:43:45.000Z</time>
      </trkpt>
      <trkpt lat="50.76006" lon="2.85214">
        <ele>31</ele>
        <time>2019-07-16T20:43:46.000Z</time>
      </trkpt>
      <trkpt lat="50.76006" lon="2.85205">
        <ele>31</ele>
        <time>2019-07-16T20:43:47.000Z</time>
      </trkpt>
      <trkpt lat="50.76005" lon="2.85195">
        <ele>31.200000762939</ele>
        <time>2019-07-16T20:43:48.000Z</time>
      </trkpt>
      <trkpt lat="50.76002" lon="2.85176">
        <ele>31.39999961853</ele>
        <time>2019-07-16T20:43:50.000Z</time>
      </trkpt>
      <trkpt lat="50.76" lon="2.85167">
        <ele>31.200000762939</ele>
        <time>2019-07-16T20:43:51.000Z</time>
      </trkpt>
      <trkpt lat="50.75973" lon="2.85025">
        <ele>28.39999961853</ele>
        <time>2019-07-16T20:44:05.000Z</time>
      </trkpt>
      <trkpt lat="50.75972" lon="2.85001">
        <ele>28</ele>
        <time>2019-07-16T20:44:07.000Z</time>
      </trkpt>
      <trkpt lat="50.7596" lon="2.8481">
        <ele>27.799999237061</ele>
        <time>2019-07-16T20:44:23.000Z</time>
      </trkpt>
      <trkpt lat="50.75941" lon="2.84613">
        <ele>28</ele>
        <time>2019-07-16T20:44:41.000Z</time>
      </trkpt>
      <trkpt lat="50.75948" lon="2.84458">
        <ele>29.39999961853</ele>
        <time>2019-07-16T20:44:55.000Z</time>
      </trkpt>
      <trkpt lat="50.75953" lon="2.84312">
        <ele>28.200000762939</ele>
        <time>2019-07-16T20:45:08.000Z</time>
      </trkpt>
      <trkpt lat="50.75952" lon="2.8429">
        <ele>28</ele>
        <time>2019-07-16T20:45:10.000Z</time>
      </trkpt>
      <trkpt lat="50.75951" lon="2.8428">
        <ele>27.799999237061</ele>
        <time>2019-07-16T20:45:11.000Z</time>
      </trkpt>
      <trkpt lat="50.75949" lon="2.84258">
        <ele>27.39999961853</ele>
        <time>2019-07-16T20:45:13.000Z</time>
      </trkpt>
      <trkpt lat="50.75948" lon="2.84247">
        <ele>27.39999961853</ele>
        <time>2019-07-16T20:45:14.000Z</time>
      </trkpt>
      <trkpt lat="50.75948" lon="2.84236">
        <ele>27.39999961853</ele>
        <time>2019-07-16T20:45:15.000Z</time>
      </trkpt>
      <trkpt lat="50.75949" lon="2.84225">
        <ele>27.39999961853</ele>
        <time>2019-07-16T20:45:16.000Z</time>
      </trkpt>
      <trkpt lat="50.75951" lon="2.84214">
        <ele>27.60000038147</ele>
        <time>2019-07-16T20:45:17.000Z</time>
      </trkpt>
      <trkpt lat="50.75952" lon="2.84202">
        <ele>27.60000038147</ele>
        <time>2019-07-16T20:45:18.000Z</time>
      </trkpt>
      <trkpt lat="50.75975" lon="2.84075">
        <ele>27.200000762939</ele>
        <time>2019-07-16T20:45:30.000Z</time>
      </trkpt>
      <trkpt lat="50.75979" lon="2.84067">
        <ele>27.39999961853</ele>
        <time>2019-07-16T20:45:31.000Z</time>
      </trkpt>
      <trkpt lat="50.75984" lon="2.8406">
        <ele>27.60000038147</ele>
        <time>2019-07-16T20:45:32.000Z</time>
      </trkpt>
      <trkpt lat="50.7601" lon="2.84028">
        <ele>28.60000038147</ele>
        <time>2019-07-16T20:45:37.000Z</time>
      </trkpt>
      <trkpt lat="50.76013" lon="2.84019">
        <ele>28.60000038147</ele>
        <time>2019-07-16T20:45:38.000Z</time>
      </trkpt>
      <trkpt lat="50.76015" lon="2.84009">
        <ele>28.60000038147</ele>
        <time>2019-07-16T20:45:39.000Z</time>
      </trkpt>
      <trkpt lat="50.76016" lon="2.83998">
        <ele>28.60000038147</ele>
        <time>2019-07-16T20:45:40.000Z</time>
      </trkpt>
      <trkpt lat="50.76016" lon="2.83987">
        <ele>28.39999961853</ele>
        <time>2019-07-16T20:45:41.000Z</time>
      </trkpt>
      <trkpt lat="50.76033" lon="2.83812">
        <ele>28.200000762939</ele>
        <time>2019-07-16T20:45:57.000Z</time>
      </trkpt>
      <trkpt lat="50.76066" lon="2.83647">
        <ele>28.200000762939</ele>
        <time>2019-07-16T20:46:13.000Z</time>
      </trkpt>
      <trkpt lat="50.76115" lon="2.83535">
        <ele>28.799999237061</ele>
        <time>2019-07-16T20:46:26.000Z</time>
      </trkpt>
      <trkpt lat="50.76157" lon="2.83414">
        <ele>29</ele>
        <time>2019-07-16T20:46:39.000Z</time>
      </trkpt>
      <trkpt lat="50.76169" lon="2.83275">
        <ele>29.200000762939</ele>
        <time>2019-07-16T20:46:52.000Z</time>
      </trkpt>
      <trkpt lat="50.76186" lon="2.83137">
        <ele>28.60000038147</ele>
        <time>2019-07-16T20:47:06.000Z</time>
      </trkpt>
      <trkpt lat="50.7619" lon="2.83095">
        <ele>28</ele>
        <time>2019-07-16T20:47:13.000Z</time>
      </trkpt>
      <trkpt lat="50.76193" lon="2.83092">
        <ele>28</ele>
        <time>2019-07-16T20:47:14.000Z</time>
      </trkpt>
      <trkpt lat="50.76196" lon="2.83089">
        <ele>28</ele>
        <time>2019-07-16T20:47:15.000Z</time>
      </trkpt>
      <trkpt lat="50.7621" lon="2.83082">
        <ele>28</ele>
        <time>2019-07-16T20:47:19.000Z</time>
      </trkpt>
      <trkpt lat="50.76214" lon="2.83081">
        <ele>28</ele>
        <time>2019-07-16T20:47:20.000Z</time>
      </trkpt>
      <trkpt lat="50.76219" lon="2.83078">
        <ele>28</ele>
        <time>2019-07-16T20:47:21.000Z</time>
      </trkpt>
      <trkpt lat="50.76224" lon="2.83075">
        <ele>28.200000762939</ele>
        <time>2019-07-16T20:47:22.000Z</time>
      </trkpt>
      <trkpt lat="50.7623" lon="2.83073">
        <ele>28.60000038147</ele>
        <time>2019-07-16T20:47:23.000Z</time>
      </trkpt>
      <trkpt lat="50.76236" lon="2.83073">
        <ele>29</ele>
        <time>2019-07-16T20:47:24.000Z</time>
      </trkpt>
      <trkpt lat="50.76243" lon="2.83073">
        <ele>29.60000038147</ele>
        <time>2019-07-16T20:47:25.000Z</time>
      </trkpt>
      <trkpt lat="50.76322" lon="2.83073">
        <ele>34.599998474121</ele>
        <time>2019-07-16T20:47:39.000Z</time>
      </trkpt>
      <trkpt lat="50.76327" lon="2.83073">
        <ele>34.799999237061</ele>
        <time>2019-07-16T20:47:40.000Z</time>
      </trkpt>
      <trkpt lat="50.76331" lon="2.83074">
        <ele>35.200000762939</ele>
        <time>2019-07-16T20:47:41.000Z</time>
      </trkpt>
      <trkpt lat="50.76336" lon="2.83076">
        <ele>35.400001525879</ele>
        <time>2019-07-16T20:47:42.000Z</time>
      </trkpt>
      <trkpt lat="50.76345" lon="2.83079">
        <ele>35.799999237061</ele>
        <time>2019-07-16T20:47:44.000Z</time>
      </trkpt>
      <trkpt lat="50.7635" lon="2.83079">
        <ele>36</ele>
        <time>2019-07-16T20:47:45.000Z</time>
      </trkpt>
      <trkpt lat="50.76355" lon="2.83079">
        <ele>36.400001525879</ele>
        <time>2019-07-16T20:47:46.000Z</time>
      </trkpt>
      <trkpt lat="50.76403" lon="2.83075">
        <ele>38.400001525879</ele>
        <time>2019-07-16T20:47:56.000Z</time>
      </trkpt>
      <trkpt lat="50.76468" lon="2.83045">
        <ele>40.400001525879</ele>
        <time>2019-07-16T20:48:10.000Z</time>
      </trkpt>
      <trkpt lat="50.7655" lon="2.83001">
        <ele>40.799999237061</ele>
        <time>2019-07-16T20:48:26.000Z</time>
      </trkpt>
      <trkpt lat="50.76572" lon="2.82981">
        <ele>42.200000762939</ele>
        <time>2019-07-16T20:48:30.000Z</time>
      </trkpt>
      <trkpt lat="50.76617" lon="2.82928">
        <ele>45.400001525879</ele>
        <time>2019-07-16T20:48:40.000Z</time>
      </trkpt>
      <trkpt lat="50.76638" lon="2.82912">
        <ele>47</ele>
        <time>2019-07-16T20:48:45.000Z</time>
      </trkpt>
      <trkpt lat="50.76642" lon="2.82908">
        <ele>47.400001525879</ele>
        <time>2019-07-16T20:48:46.000Z</time>
      </trkpt>
      <trkpt lat="50.76668" lon="2.82877">
        <ele>49.599998474121</ele>
        <time>2019-07-16T20:48:53.000Z</time>
      </trkpt>
      <trkpt lat="50.76671" lon="2.82873">
        <ele>49.799999237061</ele>
        <time>2019-07-16T20:48:54.000Z</time>
      </trkpt>
      <trkpt lat="50.76721" lon="2.82809">
        <ele>51</ele>
        <time>2019-07-16T20:49:08.000Z</time>
      </trkpt>
      <trkpt lat="50.76754" lon="2.82776">
        <ele>51.200000762939</ele>
        <time>2019-07-16T20:49:17.000Z</time>
      </trkpt>
      <trkpt lat="50.76758" lon="2.82771">
        <ele>51</ele>
        <time>2019-07-16T20:49:18.000Z</time>
      </trkpt>
      <trkpt lat="50.7676" lon="2.82764">
        <ele>50.799999237061</ele>
        <time>2019-07-16T20:49:19.000Z</time>
      </trkpt>
      <trkpt lat="50.76761" lon="2.82756">
        <ele>50.400001525879</ele>
        <time>2019-07-16T20:49:20.000Z</time>
      </trkpt>
      <trkpt lat="50.76761" lon="2.82749">
        <ele>50.200000762939</ele>
        <time>2019-07-16T20:49:21.000Z</time>
      </trkpt>
      <trkpt lat="50.76761" lon="2.82739">
        <ele>49.799999237061</ele>
        <time>2019-07-16T20:49:22.000Z</time>
      </trkpt>
      <trkpt lat="50.76761" lon="2.82731">
        <ele>49.599998474121</ele>
        <time>2019-07-16T20:49:23.000Z</time>
      </trkpt>
      <trkpt lat="50.76763" lon="2.82721">
        <ele>49.200000762939</ele>
        <time>2019-07-16T20:49:24.000Z</time>
      </trkpt>
      <trkpt lat="50.76765" lon="2.82712">
        <ele>49</ele>
        <time>2019-07-16T20:49:25.000Z</time>
      </trkpt>
      <trkpt lat="50.76768" lon="2.82703">
        <ele>48.799999237061</ele>
        <time>2019-07-16T20:49:26.000Z</time>
      </trkpt>
      <trkpt lat="50.76772" lon="2.82694">
        <ele>48.599998474121</ele>
        <time>2019-07-16T20:49:27.000Z</time>
      </trkpt>
      <trkpt lat="50.76776" lon="2.82686">
        <ele>48.400001525879</ele>
        <time>2019-07-16T20:49:28.000Z</time>
      </trkpt>
      <trkpt lat="50.7678" lon="2.82679">
        <ele>48.400001525879</ele>
        <time>2019-07-16T20:49:29.000Z</time>
      </trkpt>
      <trkpt lat="50.76853" lon="2.8259">
        <ele>50</ele>
        <time>2019-07-16T20:49:44.000Z</time>
      </trkpt>
      <trkpt lat="50.76939" lon="2.82525">
        <ele>51.799999237061</ele>
        <time>2019-07-16T20:50:00.000Z</time>
      </trkpt>
      <trkpt lat="50.77031" lon="2.82447">
        <ele>51</ele>
        <time>2019-07-16T20:50:16.000Z</time>
      </trkpt>
      <trkpt lat="50.77041" lon="2.82431">
        <ele>50.799999237061</ele>
        <time>2019-07-16T20:50:18.000Z</time>
      </trkpt>
      <trkpt lat="50.77045" lon="2.82423">
        <ele>50.599998474121</ele>
        <time>2019-07-16T20:50:19.000Z</time>
      </trkpt>
      <trkpt lat="50.7706" lon="2.82383">
        <ele>49.599998474121</ele>
        <time>2019-07-16T20:50:23.000Z</time>
      </trkpt>
      <trkpt lat="50.77073" lon="2.82256">
        <ele>48.599998474121</ele>
        <time>2019-07-16T20:50:34.000Z</time>
      </trkpt>
      <trkpt lat="50.77056" lon="2.82076">
        <ele>49.200000762939</ele>
        <time>2019-07-16T20:50:50.000Z</time>
      </trkpt>
      <trkpt lat="50.77048" lon="2.82049">
        <ele>49.400001525879</ele>
        <time>2019-07-16T20:50:53.000Z</time>
      </trkpt>
      <trkpt lat="50.77045" lon="2.82041">
        <ele>49.400001525879</ele>
        <time>2019-07-16T20:50:54.000Z</time>
      </trkpt>
      <trkpt lat="50.77044" lon="2.82034">
        <ele>49.599998474121</ele>
        <time>2019-07-16T20:50:55.000Z</time>
      </trkpt>
      <trkpt lat="50.77045" lon="2.82026">
        <ele>49.599998474121</ele>
        <time>2019-07-16T20:50:56.000Z</time>
      </trkpt>
      <trkpt lat="50.77048" lon="2.82019">
        <ele>49.799999237061</ele>
        <time>2019-07-16T20:50:57.000Z</time>
      </trkpt>
      <trkpt lat="50.77051" lon="2.82016">
        <ele>49.799999237061</ele>
        <time>2019-07-16T20:50:58.000Z</time>
      </trkpt>
      <trkpt lat="50.77056" lon="2.82012">
        <ele>50</ele>
        <time>2019-07-16T20:50:59.000Z</time>
      </trkpt>
      <trkpt lat="50.7706" lon="2.82009">
        <ele>50.200000762939</ele>
        <time>2019-07-16T20:51:00.000Z</time>
      </trkpt>
      <trkpt lat="50.77081" lon="2.81989">
        <ele>51.200000762939</ele>
        <time>2019-07-16T20:51:05.000Z</time>
      </trkpt>
      <trkpt lat="50.77111" lon="2.81925">
        <ele>54.200000762939</ele>
        <time>2019-07-16T20:51:16.000Z</time>
      </trkpt>
      <trkpt lat="50.77129" lon="2.81863">
        <ele>56.799999237061</ele>
        <time>2019-07-16T20:51:26.000Z</time>
      </trkpt>
      <trkpt lat="50.77163" lon="2.81791">
        <ele>60.400001525879</ele>
        <time>2019-07-16T20:51:40.000Z</time>
      </trkpt>
      <trkpt lat="50.77198" lon="2.81743">
        <ele>63.599998474121</ele>
        <time>2019-07-16T20:51:52.000Z</time>
      </trkpt>
      <trkpt lat="50.77219" lon="2.8171">
        <ele>65.599998474121</ele>
        <time>2019-07-16T20:52:00.000Z</time>
      </trkpt>
      <trkpt lat="50.7722" lon="2.81703">
        <ele>65.800003051758</ele>
        <time>2019-07-16T20:52:01.000Z</time>
      </trkpt>
      <trkpt lat="50.77219" lon="2.81697">
        <ele>66</ele>
        <time>2019-07-16T20:52:02.000Z</time>
      </trkpt>
      <trkpt lat="50.77218" lon="2.81691">
        <ele>66.199996948242</ele>
        <time>2019-07-16T20:52:03.000Z</time>
      </trkpt>
      <trkpt lat="50.77216" lon="2.81685">
        <ele>66.400001525879</ele>
        <time>2019-07-16T20:52:04.000Z</time>
      </trkpt>
      <trkpt lat="50.77215" lon="2.8168">
        <ele>66.400001525879</ele>
        <time>2019-07-16T20:52:05.000Z</time>
      </trkpt>
      <trkpt lat="50.77212" lon="2.81676">
        <ele>66.599998474121</ele>
        <time>2019-07-16T20:52:06.000Z</time>
      </trkpt>
      <trkpt lat="50.7721" lon="2.81671">
        <ele>66.599998474121</ele>
        <time>2019-07-16T20:52:07.000Z</time>
      </trkpt>
      <trkpt lat="50.77208" lon="2.81666">
        <ele>66.599998474121</ele>
        <time>2019-07-16T20:52:08.000Z</time>
      </trkpt>
      <trkpt lat="50.77211" lon="2.8161">
        <ele>68.800003051758</ele>
        <time>2019-07-16T20:52:18.000Z</time>
      </trkpt>
      <trkpt lat="50.77218" lon="2.81528">
        <ele>71.800003051758</ele>
        <time>2019-07-16T20:52:32.000Z</time>
      </trkpt>
      <trkpt lat="50.77229" lon="2.81465">
        <ele>75</ele>
        <time>2019-07-16T20:52:44.000Z</time>
      </trkpt>
      <trkpt lat="50.77273" lon="2.8143">
        <ele>79.800003051758</ele>
        <time>2019-07-16T20:52:58.000Z</time>
      </trkpt>
      <trkpt lat="50.77303" lon="2.81411">
        <ele>83.400001525879</ele>
        <time>2019-07-16T20:53:09.000Z</time>
      </trkpt>
      <trkpt lat="50.77329" lon="2.81393">
        <ele>85.599998474121</ele>
        <time>2019-07-16T20:53:19.000Z</time>
      </trkpt>
      <trkpt lat="50.77354" lon="2.81375">
        <ele>88</ele>
        <time>2019-07-16T20:53:29.000Z</time>
      </trkpt>
      <trkpt lat="50.77381" lon="2.81353">
        <ele>91.400001525879</ele>
        <time>2019-07-16T20:53:40.000Z</time>
      </trkpt>
      <trkpt lat="50.7741" lon="2.81329">
        <ele>95.199996948242</ele>
        <time>2019-07-16T20:53:52.000Z</time>
      </trkpt>
      <trkpt lat="50.77442" lon="2.81302">
        <ele>99.599998474121</ele>
        <time>2019-07-16T20:54:05.000Z</time>
      </trkpt>
      <trkpt lat="50.77464" lon="2.81288">
        <ele>102.59999847412</ele>
        <time>2019-07-16T20:54:18.000Z</time>
      </trkpt>
      <trkpt lat="50.77468" lon="2.81285">
        <ele>103.19999694824</ele>
        <time>2019-07-16T20:54:31.000Z</time>
      </trkpt>
      <trkpt lat="50.7747" lon="2.81278">
        <ele>104</ele>
        <time>2019-07-16T20:54:39.000Z</time>
      </trkpt>
      <trkpt lat="50.77469" lon="2.8128">
        <ele>103.80000305176</ele>
        <time>2019-07-16T20:54:40.000Z</time>
      </trkpt>
      <trkpt lat="50.77467" lon="2.81281">
        <ele>103.40000152588</ele>
        <time>2019-07-16T20:54:41.000Z</time>
      </trkpt>
      <trkpt lat="50.77465" lon="2.81281">
        <ele>103.19999694824</ele>
        <time>2019-07-16T20:54:42.000Z</time>
      </trkpt>
      <trkpt lat="50.77463" lon="2.81281">
        <ele>103</ele>
        <time>2019-07-16T20:54:43.000Z</time>
      </trkpt>
      <trkpt lat="50.77461" lon="2.81281">
        <ele>103</ele>
        <time>2019-07-16T20:54:44.000Z</time>
      </trkpt>
      <trkpt lat="50.77459" lon="2.81282">
        <ele>102.80000305176</ele>
        <time>2019-07-16T20:54:45.000Z</time>
      </trkpt>
      <trkpt lat="50.77458" lon="2.81283">
        <ele>102.59999847412</ele>
        <time>2019-07-16T20:54:46.000Z</time>
      </trkpt>
      <trkpt lat="50.77458" lon="2.81286">
        <ele>102.40000152588</ele>
        <time>2019-07-16T20:54:47.000Z</time>
      </trkpt>
      <trkpt lat="50.7746" lon="2.81287">
        <ele>102.40000152588</ele>
        <time>2019-07-16T20:54:48.000Z</time>
      </trkpt>
      <trkpt lat="50.77462" lon="2.81287">
        <ele>102.59999847412</ele>
        <time>2019-07-16T20:54:49.000Z</time>
      </trkpt>
      <trkpt lat="50.77464" lon="2.81285">
        <ele>103</ele>
        <time>2019-07-16T20:54:50.000Z</time>
      </trkpt>
      <trkpt lat="50.77465" lon="2.81284">
        <ele>103.19999694824</ele>
        <time>2019-07-16T20:54:51.000Z</time>
      </trkpt>
      <trkpt lat="50.77467" lon="2.81282">
        <ele>103.40000152588</ele>
        <time>2019-07-16T20:54:52.000Z</time>
      </trkpt>
      <trkpt lat="50.7747" lon="2.8128">
        <ele>103.80000305176</ele>
        <time>2019-07-16T20:54:53.000Z</time>
      </trkpt>
      <trkpt lat="50.77472" lon="2.81277">
        <ele>104.19999694824</ele>
        <time>2019-07-16T20:54:54.000Z</time>
      </trkpt>
      <trkpt lat="50.77474" lon="2.81275">
        <ele>104.40000152588</ele>
        <time>2019-07-16T20:54:55.000Z</time>
      </trkpt>
      <trkpt lat="50.7749" lon="2.81256">
        <ele>105.80000305176</ele>
        <time>2019-07-16T20:55:03.000Z</time>
      </trkpt>
      <trkpt lat="50.7751" lon="2.81225">
        <ele>108.59999847412</ele>
        <time>2019-07-16T20:55:14.000Z</time>
      </trkpt>
      <trkpt lat="50.77539" lon="2.81184">
        <ele>112</ele>
        <time>2019-07-16T20:55:27.000Z</time>
      </trkpt>
      <trkpt lat="50.77563" lon="2.81157">
        <ele>114.59999847412</ele>
        <time>2019-07-16T20:55:38.000Z</time>
      </trkpt>
      <trkpt lat="50.77567" lon="2.81154">
        <ele>115.19999694824</ele>
        <time>2019-07-16T20:55:40.000Z</time>
      </trkpt>
      <trkpt lat="50.77569" lon="2.81153">
        <ele>115.40000152588</ele>
        <time>2019-07-16T20:55:41.000Z</time>
      </trkpt>
      <trkpt lat="50.7757" lon="2.81152">
        <ele>115.59999847412</ele>
        <time>2019-07-16T20:55:42.000Z</time>
      </trkpt>
      <trkpt lat="50.77572" lon="2.8115">
        <ele>115.80000305176</ele>
        <time>2019-07-16T20:55:43.000Z</time>
      </trkpt>
      <trkpt lat="50.77574" lon="2.8115">
        <ele>116</ele>
        <time>2019-07-16T20:55:44.000Z</time>
      </trkpt>
      <trkpt lat="50.77575" lon="2.81148">
        <ele>116.19999694824</ele>
        <time>2019-07-16T20:55:45.000Z</time>
      </trkpt>
      <trkpt lat="50.77577" lon="2.81147">
        <ele>116.40000152588</ele>
        <time>2019-07-16T20:55:46.000Z</time>
      </trkpt>
      <trkpt lat="50.77579" lon="2.81145">
        <ele>116.59999847412</ele>
        <time>2019-07-16T20:55:47.000Z</time>
      </trkpt>
      <trkpt lat="50.77602" lon="2.81121">
        <ele>120.40000152588</ele>
        <time>2019-07-16T20:55:58.000Z</time>
      </trkpt>
      <trkpt lat="50.7762" lon="2.81101">
        <ele>124</ele>
        <time>2019-07-16T20:56:06.000Z</time>
      </trkpt>
      <trkpt lat="50.77636" lon="2.81083">
        <ele>127.19999694824</ele>
        <time>2019-07-16T20:56:13.000Z</time>
      </trkpt>
      <trkpt lat="50.77653" lon="2.81062">
        <ele>131.60000610352</ele>
        <time>2019-07-16T20:56:20.000Z</time>
      </trkpt>
      <trkpt lat="50.77662" lon="2.81049">
        <ele>134.19999694824</ele>
        <time>2019-07-16T20:56:25.000Z</time>
      </trkpt>
      <trkpt lat="50.77664" lon="2.81048">
        <ele>134.60000610352</ele>
        <time>2019-07-16T20:56:26.000Z</time>
      </trkpt>
      <trkpt lat="50.77666" lon="2.81046">
        <ele>135</ele>
        <time>2019-07-16T20:56:27.000Z</time>
      </trkpt>
      <trkpt lat="50.77667" lon="2.81044">
        <ele>135.39999389648</ele>
        <time>2019-07-16T20:56:28.000Z</time>
      </trkpt>
      <trkpt lat="50.77669" lon="2.81042">
        <ele>135.80000305176</ele>
        <time>2019-07-16T20:56:29.000Z</time>
      </trkpt>
      <trkpt lat="50.77686" lon="2.8102">
        <ele>140.60000610352</ele>
        <time>2019-07-16T20:56:40.000Z</time>
      </trkpt>
      <trkpt lat="50.77702" lon="2.81029">
        <ele>142.80000305176</ele>
        <time>2019-07-16T20:56:51.000Z</time>
      </trkpt>
      <trkpt lat="50.77729" lon="2.81045">
        <ele>146.19999694824</ele>
        <time>2019-07-16T20:57:01.000Z</time>
      </trkpt>
      <trkpt lat="50.7774" lon="2.81062">
        <ele>146.60000610352</ele>
        <time>2019-07-16T20:57:07.000Z</time>
      </trkpt>
      <trkpt lat="50.77743" lon="2.81064">
        <ele>146.80000305176</ele>
        <time>2019-07-16T20:57:08.000Z</time>
      </trkpt>
      <trkpt lat="50.77745" lon="2.81066">
        <ele>147</ele>
        <time>2019-07-16T20:57:09.000Z</time>
      </trkpt>
      <trkpt lat="50.77777" lon="2.8108">
        <ele>150.60000610352</ele>
        <time>2019-07-16T20:57:22.000Z</time>
      </trkpt>
      <trkpt lat="50.77795" lon="2.81088">
        <ele>152.60000610352</ele>
        <time>2019-07-16T20:57:30.000Z</time>
      </trkpt>
      <trkpt lat="50.7782" lon="2.81105">
        <ele>154.19999694824</ele>
        <time>2019-07-16T20:57:43.000Z</time>
      </trkpt>
      <trkpt lat="50.77838" lon="2.8112">
        <ele>154.19999694824</ele>
        <time>2019-07-16T20:57:51.000Z</time>
      </trkpt>
      <trkpt lat="50.7784" lon="2.81115">
        <ele>153.60000610352</ele>
        <time>2019-07-16T20:58:05.000Z</time>
      </trkpt>
      <trkpt lat="50.77841" lon="2.81116">
        <ele>153.80000305176</ele>
        <time>2019-07-16T20:58:21.000Z</time>
      </trkpt>
      <trkpt lat="50.77838" lon="2.81117">
        <ele>154</ele>
        <time>2019-07-16T20:58:24.000Z</time>
      </trkpt>
      <trkpt lat="50.77837" lon="2.81116">
        <ele>154</ele>
        <time>2019-07-16T20:58:33.000Z</time>
      </trkpt>
      <trkpt lat="50.77835" lon="2.81114">
        <ele>154</ele>
        <time>2019-07-16T20:58:34.000Z</time>
      </trkpt>
      <trkpt lat="50.77833" lon="2.81113">
        <ele>154</ele>
        <time>2019-07-16T20:58:35.000Z</time>
      </trkpt>
      <trkpt lat="50.77831" lon="2.81109">
        <ele>153.80000305176</ele>
        <time>2019-07-16T20:58:36.000Z</time>
      </trkpt>
      <trkpt lat="50.77828" lon="2.81106">
        <ele>153.80000305176</ele>
        <time>2019-07-16T20:58:37.000Z</time>
      </trkpt>
      <trkpt lat="50.77825" lon="2.81104">
        <ele>153.80000305176</ele>
        <time>2019-07-16T20:58:38.000Z</time>
      </trkpt>
      <trkpt lat="50.77821" lon="2.811">
        <ele>153.80000305176</ele>
        <time>2019-07-16T20:58:39.000Z</time>
      </trkpt>
      <trkpt lat="50.77816" lon="2.81098">
        <ele>154</ele>
        <time>2019-07-16T20:58:40.000Z</time>
      </trkpt>
      <trkpt lat="50.77812" lon="2.81096">
        <ele>154</ele>
        <time>2019-07-16T20:58:41.000Z</time>
      </trkpt>
      <trkpt lat="50.77808" lon="2.81094">
        <ele>154</ele>
        <time>2019-07-16T20:58:42.000Z</time>
      </trkpt>
      <trkpt lat="50.77803" lon="2.81093">
        <ele>153.80000305176</ele>
        <time>2019-07-16T20:58:43.000Z</time>
      </trkpt>
      <trkpt lat="50.7778" lon="2.81088">
        <ele>150.60000610352</ele>
        <time>2019-07-16T20:58:47.000Z</time>
      </trkpt>
      <trkpt lat="50.77774" lon="2.81087">
        <ele>149.80000305176</ele>
        <time>2019-07-16T20:58:48.000Z</time>
      </trkpt>
      <trkpt lat="50.77768" lon="2.81084">
        <ele>149</ele>
        <time>2019-07-16T20:58:49.000Z</time>
      </trkpt>
      <trkpt lat="50.77758" lon="2.81078">
        <ele>148</ele>
        <time>2019-07-16T20:58:51.000Z</time>
      </trkpt>
      <trkpt lat="50.77753" lon="2.81073">
        <ele>147.60000610352</ele>
        <time>2019-07-16T20:58:52.000Z</time>
      </trkpt>
      <trkpt lat="50.77749" lon="2.81068">
        <ele>147.39999389648</ele>
        <time>2019-07-16T20:58:53.000Z</time>
      </trkpt>
      <trkpt lat="50.77739" lon="2.81052">
        <ele>147.19999694824</ele>
        <time>2019-07-16T20:58:56.000Z</time>
      </trkpt>
      <trkpt lat="50.77736" lon="2.81046">
        <ele>147</ele>
        <time>2019-07-16T20:58:57.000Z</time>
      </trkpt>
      <trkpt lat="50.77727" lon="2.81034">
        <ele>146.60000610352</ele>
        <time>2019-07-16T20:58:59.000Z</time>
      </trkpt>
      <trkpt lat="50.77722" lon="2.8103">
        <ele>146.19999694824</ele>
        <time>2019-07-16T20:59:00.000Z</time>
      </trkpt>
      <trkpt lat="50.77716" lon="2.81026">
        <ele>145.60000610352</ele>
        <time>2019-07-16T20:59:01.000Z</time>
      </trkpt>
      <trkpt lat="50.77706" lon="2.81021">
        <ele>144.19999694824</ele>
        <time>2019-07-16T20:59:03.000Z</time>
      </trkpt>
      <trkpt lat="50.77702" lon="2.8102">
        <ele>143.60000610352</ele>
        <time>2019-07-16T20:59:04.000Z</time>
      </trkpt>
      <trkpt lat="50.77699" lon="2.81019">
        <ele>143</ele>
        <time>2019-07-16T20:59:05.000Z</time>
      </trkpt>
      <trkpt lat="50.77697" lon="2.81017">
        <ele>142.80000305176</ele>
        <time>2019-07-16T20:59:06.000Z</time>
      </trkpt>
      <trkpt lat="50.77696" lon="2.81014">
        <ele>142.80000305176</ele>
        <time>2019-07-16T20:59:07.000Z</time>
      </trkpt>
      <trkpt lat="50.77696" lon="2.81009">
        <ele>143</ele>
        <time>2019-07-16T20:59:08.000Z</time>
      </trkpt>
      <trkpt lat="50.77697" lon="2.81006">
        <ele>143.60000610352</ele>
        <time>2019-07-16T20:59:09.000Z</time>
      </trkpt>
      <trkpt lat="50.77699" lon="2.81002">
        <ele>143.80000305176</ele>
        <time>2019-07-16T20:59:10.000Z</time>
      </trkpt>
      <trkpt lat="50.77701" lon="2.80997">
        <ele>144</ele>
        <time>2019-07-16T20:59:11.000Z</time>
      </trkpt>
      <trkpt lat="50.77704" lon="2.80991">
        <ele>144</ele>
        <time>2019-07-16T20:59:12.000Z</time>
      </trkpt>
      <trkpt lat="50.77705" lon="2.80984">
        <ele>143.39999389648</ele>
        <time>2019-07-16T20:59:13.000Z</time>
      </trkpt>
      <trkpt lat="50.77706" lon="2.80977">
        <ele>142.60000610352</ele>
        <time>2019-07-16T20:59:14.000Z</time>
      </trkpt>
      <trkpt lat="50.77707" lon="2.80969">
        <ele>141.60000610352</ele>
        <time>2019-07-16T20:59:15.000Z</time>
      </trkpt>
      <trkpt lat="50.77708" lon="2.80959">
        <ele>140.60000610352</ele>
        <time>2019-07-16T20:59:16.000Z</time>
      </trkpt>
      <trkpt lat="50.7771" lon="2.80949">
        <ele>139.39999389648</ele>
        <time>2019-07-16T20:59:17.000Z</time>
      </trkpt>
      <trkpt lat="50.77712" lon="2.8094">
        <ele>138.39999389648</ele>
        <time>2019-07-16T20:59:18.000Z</time>
      </trkpt>
      <trkpt lat="50.77715" lon="2.8093">
        <ele>137.39999389648</ele>
        <time>2019-07-16T20:59:19.000Z</time>
      </trkpt>
      <trkpt lat="50.77719" lon="2.80922">
        <ele>136.80000305176</ele>
        <time>2019-07-16T20:59:20.000Z</time>
      </trkpt>
      <trkpt lat="50.77723" lon="2.80915">
        <ele>136.19999694824</ele>
        <time>2019-07-16T20:59:21.000Z</time>
      </trkpt>
      <trkpt lat="50.77727" lon="2.80907">
        <ele>135.60000610352</ele>
        <time>2019-07-16T20:59:22.000Z</time>
      </trkpt>
      <trkpt lat="50.77747" lon="2.80864">
        <ele>131.60000610352</ele>
        <time>2019-07-16T20:59:27.000Z</time>
      </trkpt>
      <trkpt lat="50.77752" lon="2.80856">
        <ele>130.60000610352</ele>
        <time>2019-07-16T20:59:28.000Z</time>
      </trkpt>
      <trkpt lat="50.77758" lon="2.8085">
        <ele>130</ele>
        <time>2019-07-16T20:59:29.000Z</time>
      </trkpt>
      <trkpt lat="50.77763" lon="2.80845">
        <ele>129.39999389648</ele>
        <time>2019-07-16T20:59:30.000Z</time>
      </trkpt>
      <trkpt lat="50.7777" lon="2.80842">
        <ele>129.19999694824</ele>
        <time>2019-07-16T20:59:31.000Z</time>
      </trkpt>
      <trkpt lat="50.77776" lon="2.8084">
        <ele>129.19999694824</ele>
        <time>2019-07-16T20:59:32.000Z</time>
      </trkpt>
      <trkpt lat="50.77797" lon="2.80831">
        <ele>128.39999389648</ele>
        <time>2019-07-16T20:59:35.000Z</time>
      </trkpt>
      <trkpt lat="50.77849" lon="2.80824">
        <ele>123</ele>
        <time>2019-07-16T20:59:43.000Z</time>
      </trkpt>
      <trkpt lat="50.77875" lon="2.80825">
        <ele>120.40000152588</ele>
        <time>2019-07-16T20:59:48.000Z</time>
      </trkpt>
      <trkpt lat="50.7788" lon="2.80823">
        <ele>120</ele>
        <time>2019-07-16T20:59:49.000Z</time>
      </trkpt>
      <trkpt lat="50.77885" lon="2.8082">
        <ele>119.59999847412</ele>
        <time>2019-07-16T20:59:50.000Z</time>
      </trkpt>
      <trkpt lat="50.77905" lon="2.80805">
        <ele>115.80000305176</ele>
        <time>2019-07-16T20:59:53.000Z</time>
      </trkpt>
      <trkpt lat="50.77933" lon="2.80777">
        <ele>110.19999694824</ele>
        <time>2019-07-16T20:59:57.000Z</time>
      </trkpt>
      <trkpt lat="50.77939" lon="2.80769">
        <ele>109.19999694824</ele>
        <time>2019-07-16T20:59:58.000Z</time>
      </trkpt>
      <trkpt lat="50.77945" lon="2.8076">
        <ele>108</ele>
        <time>2019-07-16T20:59:59.000Z</time>
      </trkpt>
      <trkpt lat="50.77951" lon="2.8075">
        <ele>106.80000305176</ele>
        <time>2019-07-16T21:00:00.000Z</time>
      </trkpt>
      <trkpt lat="50.77956" lon="2.8074">
        <ele>105.59999847412</ele>
        <time>2019-07-16T21:00:01.000Z</time>
      </trkpt>
      <trkpt lat="50.7796" lon="2.80728">
        <ele>104.59999847412</ele>
        <time>2019-07-16T21:00:02.000Z</time>
      </trkpt>
      <trkpt lat="50.77963" lon="2.80715">
        <ele>103.80000305176</ele>
        <time>2019-07-16T21:00:03.000Z</time>
      </trkpt>
      <trkpt lat="50.77966" lon="2.80701">
        <ele>102.80000305176</ele>
        <time>2019-07-16T21:00:04.000Z</time>
      </trkpt>
      <trkpt lat="50.77967" lon="2.80686">
        <ele>102</ele>
        <time>2019-07-16T21:00:05.000Z</time>
      </trkpt>
      <trkpt lat="50.77972" lon="2.80622">
        <ele>98</ele>
        <time>2019-07-16T21:00:09.000Z</time>
      </trkpt>
      <trkpt lat="50.77975" lon="2.80556">
        <ele>94.199996948242</ele>
        <time>2019-07-16T21:00:13.000Z</time>
      </trkpt>
      <trkpt lat="50.7798" lon="2.80486">
        <ele>90.800003051758</ele>
        <time>2019-07-16T21:00:17.000Z</time>
      </trkpt>
      <trkpt lat="50.77991" lon="2.80396">
        <ele>87.400001525879</ele>
        <time>2019-07-16T21:00:22.000Z</time>
      </trkpt>
      <trkpt lat="50.78005" lon="2.80309">
        <ele>84.400001525879</ele>
        <time>2019-07-16T21:00:27.000Z</time>
      </trkpt>
      <trkpt lat="50.78031" lon="2.80212">
        <ele>82</ele>
        <time>2019-07-16T21:00:33.000Z</time>
      </trkpt>
      <trkpt lat="50.78057" lon="2.8012">
        <ele>80</ele>
        <time>2019-07-16T21:00:42.000Z</time>
      </trkpt>
      <trkpt lat="50.78058" lon="2.80113">
        <ele>79.800003051758</ele>
        <time>2019-07-16T21:00:43.000Z</time>
      </trkpt>
      <trkpt lat="50.78059" lon="2.80106">
        <ele>79.400001525879</ele>
        <time>2019-07-16T21:00:44.000Z</time>
      </trkpt>
      <trkpt lat="50.78059" lon="2.80101">
        <ele>79.400001525879</ele>
        <time>2019-07-16T21:00:45.000Z</time>
      </trkpt>
      <trkpt lat="50.78057" lon="2.80095">
        <ele>79.199996948242</ele>
        <time>2019-07-16T21:00:47.000Z</time>
      </trkpt>
      <trkpt lat="50.78057" lon="2.80092">
        <ele>79</ele>
        <time>2019-07-16T21:00:48.000Z</time>
      </trkpt>
      <trkpt lat="50.78058" lon="2.8009">
        <ele>79</ele>
        <time>2019-07-16T21:00:49.000Z</time>
      </trkpt>
      <trkpt lat="50.78059" lon="2.80088">
        <ele>78.800003051758</ele>
        <time>2019-07-16T21:00:50.000Z</time>
      </trkpt>
      <trkpt lat="50.7806" lon="2.80085">
        <ele>78.800003051758</ele>
        <time>2019-07-16T21:00:51.000Z</time>
      </trkpt>
      <trkpt lat="50.78061" lon="2.80083">
        <ele>78.599998474121</ele>
        <time>2019-07-16T21:00:52.000Z</time>
      </trkpt>
      <trkpt lat="50.78061" lon="2.80081">
        <ele>78.599998474121</ele>
        <time>2019-07-16T21:00:53.000Z</time>
      </trkpt>
      <trkpt lat="50.78062" lon="2.80079">
        <ele>78.599998474121</ele>
        <time>2019-07-16T21:00:54.000Z</time>
      </trkpt>
      <trkpt lat="50.78063" lon="2.80074">
        <ele>78.400001525879</ele>
        <time>2019-07-16T21:00:57.000Z</time>
      </trkpt>
      <trkpt lat="50.78064" lon="2.80071">
        <ele>78.199996948242</ele>
        <time>2019-07-16T21:00:58.000Z</time>
      </trkpt>
      <trkpt lat="50.78065" lon="2.80068">
        <ele>78.199996948242</ele>
        <time>2019-07-16T21:00:59.000Z</time>
      </trkpt>
      <trkpt lat="50.78066" lon="2.80064">
        <ele>78</ele>
        <time>2019-07-16T21:01:00.000Z</time>
      </trkpt>
      <trkpt lat="50.78068" lon="2.80059">
        <ele>77.800003051758</ele>
        <time>2019-07-16T21:01:01.000Z</time>
      </trkpt>
      <trkpt lat="50.7807" lon="2.80054">
        <ele>77.599998474121</ele>
        <time>2019-07-16T21:01:02.000Z</time>
      </trkpt>
      <trkpt lat="50.78072" lon="2.80047">
        <ele>77.400001525879</ele>
        <time>2019-07-16T21:01:03.000Z</time>
      </trkpt>
      <trkpt lat="50.78109" lon="2.7993">
        <ele>74.400001525879</ele>
        <time>2019-07-16T21:01:17.000Z</time>
      </trkpt>
      <trkpt lat="50.78168" lon="2.79744">
        <ele>73.599998474121</ele>
        <time>2019-07-16T21:01:36.000Z</time>
      </trkpt>
      <trkpt lat="50.7822" lon="2.79573">
        <ele>74.199996948242</ele>
        <time>2019-07-16T21:01:54.000Z</time>
      </trkpt>
      <trkpt lat="50.78275" lon="2.79404">
        <ele>73</ele>
        <time>2019-07-16T21:02:12.000Z</time>
      </trkpt>
      <trkpt lat="50.78346" lon="2.79231">
        <ele>71</ele>
        <time>2019-07-16T21:02:30.000Z</time>
      </trkpt>
      <trkpt lat="50.78418" lon="2.79073">
        <ele>70.400001525879</ele>
        <time>2019-07-16T21:02:48.000Z</time>
      </trkpt>
      <trkpt lat="50.78497" lon="2.78953">
        <ele>68.199996948242</ele>
        <time>2019-07-16T21:03:04.000Z</time>
      </trkpt>
      <trkpt lat="50.78564" lon="2.78804">
        <ele>68</ele>
        <time>2019-07-16T21:03:20.000Z</time>
      </trkpt>
      <trkpt lat="50.78577" lon="2.7877">
        <ele>69</ele>
        <time>2019-07-16T21:03:24.000Z</time>
      </trkpt>
      <trkpt lat="50.78581" lon="2.78764">
        <ele>69.199996948242</ele>
        <time>2019-07-16T21:03:25.000Z</time>
      </trkpt>
      <trkpt lat="50.78637" lon="2.78681">
        <ele>70.800003051758</ele>
        <time>2019-07-16T21:03:38.000Z</time>
      </trkpt>
      <trkpt lat="50.78685" lon="2.78559">
        <ele>70.400001525879</ele>
        <time>2019-07-16T21:03:53.000Z</time>
      </trkpt>
      <trkpt lat="50.78741" lon="2.78421">
        <ele>72.800003051758</ele>
        <time>2019-07-16T21:04:11.000Z</time>
      </trkpt>
      <trkpt lat="50.78766" lon="2.7837">
        <ele>73.400001525879</ele>
        <time>2019-07-16T21:04:20.000Z</time>
      </trkpt>
      <trkpt lat="50.78834" lon="2.78325">
        <ele>76</ele>
        <time>2019-07-16T21:04:35.000Z</time>
      </trkpt>
      <trkpt lat="50.78923" lon="2.78279">
        <ele>79</ele>
        <time>2019-07-16T21:04:54.000Z</time>
      </trkpt>
      <trkpt lat="50.79014" lon="2.78266">
        <ele>82.800003051758</ele>
        <time>2019-07-16T21:05:13.000Z</time>
      </trkpt>
      <trkpt lat="50.79073" lon="2.78269">
        <ele>86.599998474121</ele>
        <time>2019-07-16T21:05:27.000Z</time>
      </trkpt>
      <trkpt lat="50.79076" lon="2.78274">
        <ele>86.800003051758</ele>
        <time>2019-07-16T21:05:28.000Z</time>
      </trkpt>
      <trkpt lat="50.79078" lon="2.78279">
        <ele>86.800003051758</ele>
        <time>2019-07-16T21:05:29.000Z</time>
      </trkpt>
      <trkpt lat="50.79079" lon="2.78285">
        <ele>87</ele>
        <time>2019-07-16T21:05:30.000Z</time>
      </trkpt>
      <trkpt lat="50.79081" lon="2.78291">
        <ele>86.800003051758</ele>
        <time>2019-07-16T21:05:31.000Z</time>
      </trkpt>
      <trkpt lat="50.79082" lon="2.78297">
        <ele>86.800003051758</ele>
        <time>2019-07-16T21:05:32.000Z</time>
      </trkpt>
      <trkpt lat="50.79102" lon="2.78378">
        <ele>86.599998474121</ele>
        <time>2019-07-16T21:05:46.000Z</time>
      </trkpt>
      <trkpt lat="50.79102" lon="2.78381">
        <ele>86.599998474121</ele>
        <time>2019-07-16T21:05:56.000Z</time>
      </trkpt>
      <trkpt lat="50.79102" lon="2.78382">
        <ele>86.599998474121</ele>
        <time>2019-07-16T21:06:40.000Z</time>
      </trkpt>
      <trkpt lat="50.79104" lon="2.78384">
        <ele>86.599998474121</ele>
        <time>2019-07-16T21:06:52.000Z</time>
      </trkpt>
      <trkpt lat="50.79105" lon="2.78386">
        <ele>86.800003051758</ele>
        <time>2019-07-16T21:06:53.000Z</time>
      </trkpt>
      <trkpt lat="50.79106" lon="2.78386">
        <ele>86.800003051758</ele>
        <time>2019-07-16T21:07:08.000Z</time>
      </trkpt>
      <trkpt lat="50.79107" lon="2.78391">
        <ele>86.800003051758</ele>
        <time>2019-07-16T21:07:14.000Z</time>
      </trkpt>
      <trkpt lat="50.79108" lon="2.78393">
        <ele>86.800003051758</ele>
        <time>2019-07-16T21:07:15.000Z</time>
      </trkpt>
      <trkpt lat="50.79109" lon="2.78396">
        <ele>86.800003051758</ele>
        <time>2019-07-16T21:07:16.000Z</time>
      </trkpt>
      <trkpt lat="50.7911" lon="2.78399">
        <ele>86.800003051758</ele>
        <time>2019-07-16T21:07:17.000Z</time>
      </trkpt>
      <trkpt lat="50.79111" lon="2.78403">
        <ele>86.800003051758</ele>
        <time>2019-07-16T21:07:18.000Z</time>
      </trkpt>
      <trkpt lat="50.79113" lon="2.78407">
        <ele>87</ele>
        <time>2019-07-16T21:07:19.000Z</time>
      </trkpt>
      <trkpt lat="50.79115" lon="2.78412">
        <ele>87</ele>
        <time>2019-07-16T21:07:20.000Z</time>
      </trkpt>
      <trkpt lat="50.79118" lon="2.78417">
        <ele>87.199996948242</ele>
        <time>2019-07-16T21:07:21.000Z</time>
      </trkpt>
      <trkpt lat="50.7912" lon="2.78422">
        <ele>87.199996948242</ele>
        <time>2019-07-16T21:07:22.000Z</time>
      </trkpt>
      <trkpt lat="50.79163" lon="2.7852">
        <ele>82.599998474121</ele>
        <time>2019-07-16T21:07:38.000Z</time>
      </trkpt>
      <trkpt lat="50.79175" lon="2.78562">
        <ele>80.599998474121</ele>
        <time>2019-07-16T21:07:45.000Z</time>
      </trkpt>
      <trkpt lat="50.79179" lon="2.78562">
        <ele>80.199996948242</ele>
        <time>2019-07-16T21:07:46.000Z</time>
      </trkpt>
      <trkpt lat="50.79182" lon="2.78558">
        <ele>80</ele>
        <time>2019-07-16T21:07:47.000Z</time>
      </trkpt>
      <trkpt lat="50.79184" lon="2.78554">
        <ele>80</ele>
        <time>2019-07-16T21:07:48.000Z</time>
      </trkpt>
      <trkpt lat="50.79185" lon="2.78547">
        <ele>80</ele>
        <time>2019-07-16T21:07:49.000Z</time>
      </trkpt>
      <trkpt lat="50.79186" lon="2.78539">
        <ele>80.400001525879</ele>
        <time>2019-07-16T21:07:50.000Z</time>
      </trkpt>
      <trkpt lat="50.79187" lon="2.78532">
        <ele>80.599998474121</ele>
        <time>2019-07-16T21:07:51.000Z</time>
      </trkpt>
      <trkpt lat="50.79187" lon="2.78523">
        <ele>80.800003051758</ele>
        <time>2019-07-16T21:07:52.000Z</time>
      </trkpt>
      <trkpt lat="50.79188" lon="2.78515">
        <ele>81</ele>
        <time>2019-07-16T21:07:53.000Z</time>
      </trkpt>
      <trkpt lat="50.79189" lon="2.78507">
        <ele>81.199996948242</ele>
        <time>2019-07-16T21:07:54.000Z</time>
      </trkpt>
      <trkpt lat="50.7919" lon="2.78498">
        <ele>81.599998474121</ele>
        <time>2019-07-16T21:07:55.000Z</time>
      </trkpt>
      <trkpt lat="50.792" lon="2.78417">
        <ele>87.599998474121</ele>
        <time>2019-07-16T21:08:05.000Z</time>
      </trkpt>
      <trkpt lat="50.79219" lon="2.78337">
        <ele>94</ele>
        <time>2019-07-16T21:08:16.000Z</time>
      </trkpt>
      <trkpt lat="50.79242" lon="2.78279">
        <ele>99.800003051758</ele>
        <time>2019-07-16T21:08:26.000Z</time>
      </trkpt>
      <trkpt lat="50.79277" lon="2.78243">
        <ele>107.80000305176</ele>
        <time>2019-07-16T21:08:38.000Z</time>
      </trkpt>
      <trkpt lat="50.79301" lon="2.78271">
        <ele>110.19999694824</ele>
        <time>2019-07-16T21:08:48.000Z</time>
      </trkpt>
      <trkpt lat="50.79343" lon="2.78334">
        <ele>109</ele>
        <time>2019-07-16T21:09:02.000Z</time>
      </trkpt>
      <trkpt lat="50.7935" lon="2.78342">
        <ele>108.59999847412</ele>
        <time>2019-07-16T21:09:04.000Z</time>
      </trkpt>
      <trkpt lat="50.79354" lon="2.78345">
        <ele>108.40000152588</ele>
        <time>2019-07-16T21:09:05.000Z</time>
      </trkpt>
      <trkpt lat="50.7939" lon="2.78355">
        <ele>109.19999694824</ele>
        <time>2019-07-16T21:09:15.000Z</time>
      </trkpt>
      <trkpt lat="50.79394" lon="2.78353">
        <ele>109.19999694824</ele>
        <time>2019-07-16T21:09:16.000Z</time>
      </trkpt>
      <trkpt lat="50.794" lon="2.7835">
        <ele>109.59999847412</ele>
        <time>2019-07-16T21:09:17.000Z</time>
      </trkpt>
      <trkpt lat="50.79434" lon="2.78329">
        <ele>107.19999694824</ele>
        <time>2019-07-16T21:09:23.000Z</time>
      </trkpt>
      <trkpt lat="50.79438" lon="2.78328">
        <ele>106.80000305176</ele>
        <time>2019-07-16T21:09:24.000Z</time>
      </trkpt>
      <trkpt lat="50.79442" lon="2.78328">
        <ele>106.40000152588</ele>
        <time>2019-07-16T21:09:25.000Z</time>
      </trkpt>
      <trkpt lat="50.79446" lon="2.78328">
        <ele>105.80000305176</ele>
        <time>2019-07-16T21:09:26.000Z</time>
      </trkpt>
      <trkpt lat="50.7945" lon="2.7833">
        <ele>105.40000152588</ele>
        <time>2019-07-16T21:09:27.000Z</time>
      </trkpt>
      <trkpt lat="50.79452" lon="2.78331">
        <ele>104.80000305176</ele>
        <time>2019-07-16T21:09:28.000Z</time>
      </trkpt>
      <trkpt lat="50.79455" lon="2.78332">
        <ele>104.59999847412</ele>
        <time>2019-07-16T21:09:29.000Z</time>
      </trkpt>
      <trkpt lat="50.79458" lon="2.78333">
        <ele>104</ele>
        <time>2019-07-16T21:09:30.000Z</time>
      </trkpt>
      <trkpt lat="50.7946" lon="2.78334">
        <ele>103.80000305176</ele>
        <time>2019-07-16T21:09:31.000Z</time>
      </trkpt>
      <trkpt lat="50.79463" lon="2.78334">
        <ele>103.40000152588</ele>
        <time>2019-07-16T21:09:32.000Z</time>
      </trkpt>
      <trkpt lat="50.79465" lon="2.78334">
        <ele>103.19999694824</ele>
        <time>2019-07-16T21:09:33.000Z</time>
      </trkpt>
      <trkpt lat="50.79468" lon="2.78334">
        <ele>102.80000305176</ele>
        <time>2019-07-16T21:09:34.000Z</time>
      </trkpt>
      <trkpt lat="50.79471" lon="2.78333">
        <ele>102.40000152588</ele>
        <time>2019-07-16T21:09:35.000Z</time>
      </trkpt>
      <trkpt lat="50.79475" lon="2.78332">
        <ele>102</ele>
        <time>2019-07-16T21:09:36.000Z</time>
      </trkpt>
      <trkpt lat="50.7948" lon="2.78331">
        <ele>101.40000152588</ele>
        <time>2019-07-16T21:09:37.000Z</time>
      </trkpt>
      <trkpt lat="50.79485" lon="2.78331">
        <ele>101</ele>
        <time>2019-07-16T21:09:38.000Z</time>
      </trkpt>
      <trkpt lat="50.79491" lon="2.78331">
        <ele>100.19999694824</ele>
        <time>2019-07-16T21:09:39.000Z</time>
      </trkpt>
      <trkpt lat="50.79497" lon="2.78331">
        <ele>99.599998474121</ele>
        <time>2019-07-16T21:09:40.000Z</time>
      </trkpt>
      <trkpt lat="50.79503" lon="2.78332">
        <ele>98.800003051758</ele>
        <time>2019-07-16T21:09:41.000Z</time>
      </trkpt>
      <trkpt lat="50.79508" lon="2.78333">
        <ele>98.400001525879</ele>
        <time>2019-07-16T21:09:42.000Z</time>
      </trkpt>
      <trkpt lat="50.79514" lon="2.78331">
        <ele>97.800003051758</ele>
        <time>2019-07-16T21:09:43.000Z</time>
      </trkpt>
      <trkpt lat="50.7952" lon="2.78328">
        <ele>97.199996948242</ele>
        <time>2019-07-16T21:09:44.000Z</time>
      </trkpt>
      <trkpt lat="50.79527" lon="2.78323">
        <ele>96.800003051758</ele>
        <time>2019-07-16T21:09:45.000Z</time>
      </trkpt>
      <trkpt lat="50.79535" lon="2.78317">
        <ele>96.199996948242</ele>
        <time>2019-07-16T21:09:46.000Z</time>
      </trkpt>
      <trkpt lat="50.79542" lon="2.78309">
        <ele>94.800003051758</ele>
        <time>2019-07-16T21:09:47.000Z</time>
      </trkpt>
      <trkpt lat="50.79548" lon="2.78302">
        <ele>93.800003051758</ele>
        <time>2019-07-16T21:09:48.000Z</time>
      </trkpt>
      <trkpt lat="50.79554" lon="2.78294">
        <ele>92.599998474121</ele>
        <time>2019-07-16T21:09:49.000Z</time>
      </trkpt>
      <trkpt lat="50.79571" lon="2.78271">
        <ele>90.800003051758</ele>
        <time>2019-07-16T21:09:52.000Z</time>
      </trkpt>
      <trkpt lat="50.79579" lon="2.78262">
        <ele>90.199996948242</ele>
        <time>2019-07-16T21:09:53.000Z</time>
      </trkpt>
      <trkpt lat="50.79585" lon="2.78252">
        <ele>89.400001525879</ele>
        <time>2019-07-16T21:09:54.000Z</time>
      </trkpt>
      <trkpt lat="50.79604" lon="2.78212">
        <ele>87.400001525879</ele>
        <time>2019-07-16T21:10:02.000Z</time>
      </trkpt>
      <trkpt lat="50.79604" lon="2.7821">
        <ele>87.400001525879</ele>
        <time>2019-07-16T21:10:05.000Z</time>
      </trkpt>
      <trkpt lat="50.79605" lon="2.78208">
        <ele>87.400001525879</ele>
        <time>2019-07-16T21:10:06.000Z</time>
      </trkpt>
      <trkpt lat="50.79607" lon="2.78204">
        <ele>87.199996948242</ele>
        <time>2019-07-16T21:10:07.000Z</time>
      </trkpt>
      <trkpt lat="50.79607" lon="2.782">
        <ele>87.199996948242</ele>
        <time>2019-07-16T21:10:08.000Z</time>
      </trkpt>
      <trkpt lat="50.79607" lon="2.78196">
        <ele>87.199996948242</ele>
        <time>2019-07-16T21:10:09.000Z</time>
      </trkpt>
      <trkpt lat="50.79607" lon="2.78193">
        <ele>87.199996948242</ele>
        <time>2019-07-16T21:10:10.000Z</time>
      </trkpt>
      <trkpt lat="50.79606" lon="2.7819">
        <ele>87.400001525879</ele>
        <time>2019-07-16T21:10:11.000Z</time>
      </trkpt>
      <trkpt lat="50.79605" lon="2.78187">
        <ele>87.400001525879</ele>
        <time>2019-07-16T21:10:12.000Z</time>
      </trkpt>
      <trkpt lat="50.79604" lon="2.78183">
        <ele>87.400001525879</ele>
        <time>2019-07-16T21:10:13.000Z</time>
      </trkpt>
      <trkpt lat="50.79581" lon="2.78134">
        <ele>87.800003051758</ele>
        <time>2019-07-16T21:10:22.000Z</time>
      </trkpt>
      <trkpt lat="50.79505" lon="2.78021">
        <ele>88.800003051758</ele>
        <time>2019-07-16T21:10:38.000Z</time>
      </trkpt>
      <trkpt lat="50.79407" lon="2.77882">
        <ele>83.800003051758</ele>
        <time>2019-07-16T21:10:57.000Z</time>
      </trkpt>
      <trkpt lat="50.79323" lon="2.77759">
        <ele>84.800003051758</ele>
        <time>2019-07-16T21:11:13.000Z</time>
      </trkpt>
      <trkpt lat="50.79308" lon="2.77738">
        <ele>85.800003051758</ele>
        <time>2019-07-16T21:11:16.000Z</time>
      </trkpt>
      <trkpt lat="50.79225" lon="2.77617">
        <ele>87.599998474121</ele>
        <time>2019-07-16T21:11:34.000Z</time>
      </trkpt>
      <trkpt lat="50.79143" lon="2.77499">
        <ele>87.800003051758</ele>
        <time>2019-07-16T21:11:52.000Z</time>
      </trkpt>
      <trkpt lat="50.79048" lon="2.7736">
        <ele>87.599998474121</ele>
        <time>2019-07-16T21:12:13.000Z</time>
      </trkpt>
      <trkpt lat="50.78968" lon="2.77247">
        <ele>91.199996948242</ele>
        <time>2019-07-16T21:12:32.000Z</time>
      </trkpt>
      <trkpt lat="50.78948" lon="2.77225">
        <ele>91.800003051758</ele>
        <time>2019-07-16T21:12:37.000Z</time>
      </trkpt>
      <trkpt lat="50.78935" lon="2.77216">
        <ele>92.400001525879</ele>
        <time>2019-07-16T21:12:40.000Z</time>
      </trkpt>
      <trkpt lat="50.78864" lon="2.77175">
        <ele>93.400001525879</ele>
        <time>2019-07-16T21:12:53.000Z</time>
      </trkpt>
      <trkpt lat="50.78783" lon="2.77138">
        <ele>91.800003051758</ele>
        <time>2019-07-16T21:13:06.000Z</time>
      </trkpt>
      <trkpt lat="50.78704" lon="2.77106">
        <ele>89.199996948242</ele>
        <time>2019-07-16T21:13:19.000Z</time>
      </trkpt>
      <trkpt lat="50.78677" lon="2.77102">
        <ele>88.599998474121</ele>
        <time>2019-07-16T21:13:24.000Z</time>
      </trkpt>
      <trkpt lat="50.78673" lon="2.771">
        <ele>88.599998474121</ele>
        <time>2019-07-16T21:13:25.000Z</time>
      </trkpt>
      <trkpt lat="50.78671" lon="2.77096">
        <ele>88.599998474121</ele>
        <time>2019-07-16T21:13:26.000Z</time>
      </trkpt>
      <trkpt lat="50.78669" lon="2.77091">
        <ele>88.599998474121</ele>
        <time>2019-07-16T21:13:27.000Z</time>
      </trkpt>
      <trkpt lat="50.78667" lon="2.77086">
        <ele>88.800003051758</ele>
        <time>2019-07-16T21:13:28.000Z</time>
      </trkpt>
      <trkpt lat="50.78664" lon="2.77083">
        <ele>88.599998474121</ele>
        <time>2019-07-16T21:13:29.000Z</time>
      </trkpt>
      <trkpt lat="50.7866" lon="2.77079">
        <ele>88.599998474121</ele>
        <time>2019-07-16T21:13:30.000Z</time>
      </trkpt>
      <trkpt lat="50.78592" lon="2.7702">
        <ele>88.800003051758</ele>
        <time>2019-07-16T21:13:43.000Z</time>
      </trkpt>
      <trkpt lat="50.78526" lon="2.76939">
        <ele>91.800003051758</ele>
        <time>2019-07-16T21:13:58.000Z</time>
      </trkpt>
      <trkpt lat="50.78465" lon="2.76861">
        <ele>93.199996948242</ele>
        <time>2019-07-16T21:14:13.000Z</time>
      </trkpt>
      <trkpt lat="50.78448" lon="2.76831">
        <ele>93.599998474121</ele>
        <time>2019-07-16T21:14:18.000Z</time>
      </trkpt>
      <trkpt lat="50.78403" lon="2.76743">
        <ele>96.400001525879</ele>
        <time>2019-07-16T21:14:32.000Z</time>
      </trkpt>
      <trkpt lat="50.784" lon="2.76737">
        <ele>96.400001525879</ele>
        <time>2019-07-16T21:14:33.000Z</time>
      </trkpt>
      <trkpt lat="50.78397" lon="2.76731">
        <ele>96.400001525879</ele>
        <time>2019-07-16T21:14:34.000Z</time>
      </trkpt>
      <trkpt lat="50.78383" lon="2.76703">
        <ele>96.599998474121</ele>
        <time>2019-07-16T21:14:38.000Z</time>
      </trkpt>
      <trkpt lat="50.78381" lon="2.76696">
        <ele>96.599998474121</ele>
        <time>2019-07-16T21:14:39.000Z</time>
      </trkpt>
      <trkpt lat="50.78379" lon="2.76687">
        <ele>96.599998474121</ele>
        <time>2019-07-16T21:14:40.000Z</time>
      </trkpt>
      <trkpt lat="50.78346" lon="2.76567">
        <ele>100</ele>
        <time>2019-07-16T21:14:56.000Z</time>
      </trkpt>
      <trkpt lat="50.78302" lon="2.76452">
        <ele>103.19999694824</ele>
        <time>2019-07-16T21:15:13.000Z</time>
      </trkpt>
      <trkpt lat="50.78254" lon="2.76354">
        <ele>102.59999847412</ele>
        <time>2019-07-16T21:15:27.000Z</time>
      </trkpt>
      <trkpt lat="50.78238" lon="2.7632">
        <ele>102</ele>
        <time>2019-07-16T21:15:31.000Z</time>
      </trkpt>
      <trkpt lat="50.78163" lon="2.76232">
        <ele>97</ele>
        <time>2019-07-16T21:15:44.000Z</time>
      </trkpt>
      <trkpt lat="50.78086" lon="2.76203">
        <ele>92.199996948242</ele>
        <time>2019-07-16T21:15:55.000Z</time>
      </trkpt>
      <trkpt lat="50.78071" lon="2.76197">
        <ele>91.400001525879</ele>
        <time>2019-07-16T21:15:59.000Z</time>
      </trkpt>
      <trkpt lat="50.78071" lon="2.76193">
        <ele>91.599998474121</ele>
        <time>2019-07-16T21:16:00.000Z</time>
      </trkpt>
      <trkpt lat="50.78072" lon="2.76188">
        <ele>91.599998474121</ele>
        <time>2019-07-16T21:16:01.000Z</time>
      </trkpt>
      <trkpt lat="50.78074" lon="2.76182">
        <ele>91.800003051758</ele>
        <time>2019-07-16T21:16:02.000Z</time>
      </trkpt>
      <trkpt lat="50.78077" lon="2.76177">
        <ele>92.199996948242</ele>
        <time>2019-07-16T21:16:03.000Z</time>
      </trkpt>
      <trkpt lat="50.78079" lon="2.76172">
        <ele>92.400001525879</ele>
        <time>2019-07-16T21:16:04.000Z</time>
      </trkpt>
      <trkpt lat="50.78083" lon="2.76167">
        <ele>92.800003051758</ele>
        <time>2019-07-16T21:16:05.000Z</time>
      </trkpt>
      <trkpt lat="50.78089" lon="2.76156">
        <ele>93.800003051758</ele>
        <time>2019-07-16T21:16:07.000Z</time>
      </trkpt>
      <trkpt lat="50.78091" lon="2.76149">
        <ele>94.199996948242</ele>
        <time>2019-07-16T21:16:08.000Z</time>
      </trkpt>
      <trkpt lat="50.78093" lon="2.76143">
        <ele>94.599998474121</ele>
        <time>2019-07-16T21:16:09.000Z</time>
      </trkpt>
      <trkpt lat="50.78095" lon="2.76136">
        <ele>95.199996948242</ele>
        <time>2019-07-16T21:16:10.000Z</time>
      </trkpt>
      <trkpt lat="50.78096" lon="2.76128">
        <ele>95.599998474121</ele>
        <time>2019-07-16T21:16:11.000Z</time>
      </trkpt>
      <trkpt lat="50.78096" lon="2.76121">
        <ele>95.800003051758</ele>
        <time>2019-07-16T21:16:12.000Z</time>
      </trkpt>
      <trkpt lat="50.78096" lon="2.76114">
        <ele>96.199996948242</ele>
        <time>2019-07-16T21:16:13.000Z</time>
      </trkpt>
      <trkpt lat="50.78096" lon="2.76107">
        <ele>96.599998474121</ele>
        <time>2019-07-16T21:16:14.000Z</time>
      </trkpt>
      <trkpt lat="50.78094" lon="2.76032">
        <ele>99.400001525879</ele>
        <time>2019-07-16T21:16:26.000Z</time>
      </trkpt>
      <trkpt lat="50.78095" lon="2.75985">
        <ele>101.40000152588</ele>
        <time>2019-07-16T21:16:34.000Z</time>
      </trkpt>
      <trkpt lat="50.78096" lon="2.75974">
        <ele>101.80000305176</ele>
        <time>2019-07-16T21:16:36.000Z</time>
      </trkpt>
      <trkpt lat="50.78097" lon="2.75957">
        <ele>103</ele>
        <time>2019-07-16T21:16:39.000Z</time>
      </trkpt>
      <trkpt lat="50.781" lon="2.75931">
        <ele>106</ele>
        <time>2019-07-16T21:16:44.000Z</time>
      </trkpt>
      <trkpt lat="50.78103" lon="2.75897">
        <ele>108.40000152588</ele>
        <time>2019-07-16T21:16:51.000Z</time>
      </trkpt>
      <trkpt lat="50.78109" lon="2.75843">
        <ele>113.40000152588</ele>
        <time>2019-07-16T21:17:03.000Z</time>
      </trkpt>
      <trkpt lat="50.78122" lon="2.75792">
        <ele>117</ele>
        <time>2019-07-16T21:17:11.000Z</time>
      </trkpt>
      <trkpt lat="50.78123" lon="2.75783">
        <ele>117.40000152588</ele>
        <time>2019-07-16T21:17:12.000Z</time>
      </trkpt>
      <trkpt lat="50.78122" lon="2.75753">
        <ele>118.40000152588</ele>
        <time>2019-07-16T21:17:16.000Z</time>
      </trkpt>
      <trkpt lat="50.78122" lon="2.75746">
        <ele>118.40000152588</ele>
        <time>2019-07-16T21:17:17.000Z</time>
      </trkpt>
      <trkpt lat="50.78113" lon="2.75644">
        <ele>117.40000152588</ele>
        <time>2019-07-16T21:17:30.000Z</time>
      </trkpt>
      <trkpt lat="50.78109" lon="2.75623">
        <ele>115.19999694824</ele>
        <time>2019-07-16T21:17:33.000Z</time>
      </trkpt>
      <trkpt lat="50.78107" lon="2.75614">
        <ele>114.19999694824</ele>
        <time>2019-07-16T21:17:34.000Z</time>
      </trkpt>
      <trkpt lat="50.78105" lon="2.75604">
        <ele>113</ele>
        <time>2019-07-16T21:17:35.000Z</time>
      </trkpt>
      <trkpt lat="50.78102" lon="2.75596">
        <ele>112</ele>
        <time>2019-07-16T21:17:36.000Z</time>
      </trkpt>
      <trkpt lat="50.78101" lon="2.75588">
        <ele>111.19999694824</ele>
        <time>2019-07-16T21:17:37.000Z</time>
      </trkpt>
      <trkpt lat="50.78101" lon="2.75581">
        <ele>111</ele>
        <time>2019-07-16T21:17:38.000Z</time>
      </trkpt>
      <trkpt lat="50.78103" lon="2.75575">
        <ele>111.19999694824</ele>
        <time>2019-07-16T21:17:39.000Z</time>
      </trkpt>
      <trkpt lat="50.78106" lon="2.75571">
        <ele>111.40000152588</ele>
        <time>2019-07-16T21:17:40.000Z</time>
      </trkpt>
      <trkpt lat="50.7811" lon="2.75568">
        <ele>111.80000305176</ele>
        <time>2019-07-16T21:17:41.000Z</time>
      </trkpt>
      <trkpt lat="50.78121" lon="2.7556">
        <ele>112.59999847412</ele>
        <time>2019-07-16T21:17:44.000Z</time>
      </trkpt>
      <trkpt lat="50.78145" lon="2.75544">
        <ele>113.40000152588</ele>
        <time>2019-07-16T21:17:50.000Z</time>
      </trkpt>
      <trkpt lat="50.7817" lon="2.75532">
        <ele>115</ele>
        <time>2019-07-16T21:17:57.000Z</time>
      </trkpt>
      <trkpt lat="50.78194" lon="2.75519">
        <ele>116</ele>
        <time>2019-07-16T21:18:04.000Z</time>
      </trkpt>
      <trkpt lat="50.78251" lon="2.75502">
        <ele>117.19999694824</ele>
        <time>2019-07-16T21:18:18.000Z</time>
      </trkpt>
      <trkpt lat="50.78267" lon="2.75496">
        <ele>117</ele>
        <time>2019-07-16T21:18:21.000Z</time>
      </trkpt>
      <trkpt lat="50.78273" lon="2.75493">
        <ele>116.80000305176</ele>
        <time>2019-07-16T21:18:22.000Z</time>
      </trkpt>
      <trkpt lat="50.78278" lon="2.75489">
        <ele>116.59999847412</ele>
        <time>2019-07-16T21:18:23.000Z</time>
      </trkpt>
      <trkpt lat="50.78284" lon="2.75483">
        <ele>116.19999694824</ele>
        <time>2019-07-16T21:18:24.000Z</time>
      </trkpt>
      <trkpt lat="50.78289" lon="2.75476">
        <ele>116</ele>
        <time>2019-07-16T21:18:25.000Z</time>
      </trkpt>
      <trkpt lat="50.78293" lon="2.75469">
        <ele>115.59999847412</ele>
        <time>2019-07-16T21:18:26.000Z</time>
      </trkpt>
      <trkpt lat="50.78298" lon="2.75463">
        <ele>115.40000152588</ele>
        <time>2019-07-16T21:18:27.000Z</time>
      </trkpt>
      <trkpt lat="50.78315" lon="2.75433">
        <ele>114.59999847412</ele>
        <time>2019-07-16T21:18:31.000Z</time>
      </trkpt>
      <trkpt lat="50.78338" lon="2.75398">
        <ele>114.19999694824</ele>
        <time>2019-07-16T21:18:36.000Z</time>
      </trkpt>
      <trkpt lat="50.78361" lon="2.75376">
        <ele>114.40000152588</ele>
        <time>2019-07-16T21:18:41.000Z</time>
      </trkpt>
      <trkpt lat="50.78426" lon="2.75341">
        <ele>111.19999694824</ele>
        <time>2019-07-16T21:18:56.000Z</time>
      </trkpt>
      <trkpt lat="50.78436" lon="2.75344">
        <ele>110.80000305176</ele>
        <time>2019-07-16T21:19:01.000Z</time>
      </trkpt>
      <trkpt lat="50.78439" lon="2.75384">
        <ele>111.59999847412</ele>
        <time>2019-07-16T21:19:10.000Z</time>
      </trkpt>
      <trkpt lat="50.7844" lon="2.75399">
        <ele>112.40000152588</ele>
        <time>2019-07-16T21:19:12.000Z</time>
      </trkpt>
      <trkpt lat="50.78452" lon="2.75501">
        <ele>115.59999847412</ele>
        <time>2019-07-16T21:19:27.000Z</time>
      </trkpt>
      <trkpt lat="50.78458" lon="2.75534">
        <ele>117.40000152588</ele>
        <time>2019-07-16T21:19:33.000Z</time>
      </trkpt>
      <trkpt lat="50.78457" lon="2.75537">
        <ele>117.80000305176</ele>
        <time>2019-07-16T21:19:34.000Z</time>
      </trkpt>
      <trkpt lat="50.78455" lon="2.75539">
        <ele>118.19999694824</ele>
        <time>2019-07-16T21:19:35.000Z</time>
      </trkpt>
      <trkpt lat="50.78453" lon="2.75538">
        <ele>118.59999847412</ele>
        <time>2019-07-16T21:19:36.000Z</time>
      </trkpt>
      <trkpt lat="50.7845" lon="2.75536">
        <ele>118.80000305176</ele>
        <time>2019-07-16T21:19:37.000Z</time>
      </trkpt>
      <trkpt lat="50.78448" lon="2.75534">
        <ele>119</ele>
        <time>2019-07-16T21:19:38.000Z</time>
      </trkpt>
      <trkpt lat="50.78411" lon="2.75507">
        <ele>122</ele>
        <time>2019-07-16T21:19:49.000Z</time>
      </trkpt>
      <trkpt lat="50.78407" lon="2.75506">
        <ele>122.40000152588</ele>
        <time>2019-07-16T21:19:50.000Z</time>
      </trkpt>
      <trkpt lat="50.78377" lon="2.75523">
        <ele>125.40000152588</ele>
        <time>2019-07-16T21:20:00.000Z</time>
      </trkpt>
      <trkpt lat="50.78372" lon="2.75539">
        <ele>126.19999694824</ele>
        <time>2019-07-16T21:20:04.000Z</time>
      </trkpt>
      <trkpt lat="50.78373" lon="2.75543">
        <ele>126.59999847412</ele>
        <time>2019-07-16T21:20:05.000Z</time>
      </trkpt>
      <trkpt lat="50.78373" lon="2.75547">
        <ele>126.80000305176</ele>
        <time>2019-07-16T21:20:06.000Z</time>
      </trkpt>
      <trkpt lat="50.78382" lon="2.75557">
        <ele>128.19999694824</ele>
        <time>2019-07-16T21:20:11.000Z</time>
      </trkpt>
      <trkpt lat="50.78411" lon="2.75574">
        <ele>127</ele>
        <time>2019-07-16T21:20:21.000Z</time>
      </trkpt>
      <trkpt lat="50.7842" lon="2.75615">
        <ele>129</ele>
        <time>2019-07-16T21:20:32.000Z</time>
      </trkpt>
      <trkpt lat="50.78399" lon="2.75643">
        <ele>134.19999694824</ele>
        <time>2019-07-16T21:20:42.000Z</time>
      </trkpt>
      <trkpt lat="50.78382" lon="2.75653">
        <ele>136.39999389648</ele>
        <time>2019-07-16T21:20:49.000Z</time>
      </trkpt>
      <trkpt lat="50.78378" lon="2.75659">
        <ele>136.80000305176</ele>
        <time>2019-07-16T21:20:51.000Z</time>
      </trkpt>
      <trkpt lat="50.78377" lon="2.75663">
        <ele>137.19999694824</ele>
        <time>2019-07-16T21:20:52.000Z</time>
      </trkpt>
      <trkpt lat="50.78377" lon="2.75668">
        <ele>137.80000305176</ele>
        <time>2019-07-16T21:20:53.000Z</time>
      </trkpt>
      <trkpt lat="50.78377" lon="2.75673">
        <ele>138.19999694824</ele>
        <time>2019-07-16T21:20:54.000Z</time>
      </trkpt>
      <trkpt lat="50.78378" lon="2.75679">
        <ele>138</ele>
        <time>2019-07-16T21:20:55.000Z</time>
      </trkpt>
      <trkpt lat="50.7838" lon="2.75684">
        <ele>137.80000305176</ele>
        <time>2019-07-16T21:20:56.000Z</time>
      </trkpt>
      <trkpt lat="50.78394" lon="2.75731">
        <ele>136.19999694824</ele>
        <time>2019-07-16T21:21:03.000Z</time>
      </trkpt>
      <trkpt lat="50.78416" lon="2.75793">
        <ele>134.60000610352</ele>
        <time>2019-07-16T21:21:10.000Z</time>
      </trkpt>
      <trkpt lat="50.7842" lon="2.75801">
        <ele>134.39999389648</ele>
        <time>2019-07-16T21:21:11.000Z</time>
      </trkpt>
      <trkpt lat="50.78445" lon="2.75847">
        <ele>133.39999389648</ele>
        <time>2019-07-16T21:21:18.000Z</time>
      </trkpt>
      <trkpt lat="50.78449" lon="2.75851">
        <ele>133.39999389648</ele>
        <time>2019-07-16T21:21:19.000Z</time>
      </trkpt>
      <trkpt lat="50.78452" lon="2.75853">
        <ele>133.60000610352</ele>
        <time>2019-07-16T21:21:20.000Z</time>
      </trkpt>
      <trkpt lat="50.78456" lon="2.75855">
        <ele>133.60000610352</ele>
        <time>2019-07-16T21:21:21.000Z</time>
      </trkpt>
      <trkpt lat="50.7846" lon="2.75855">
        <ele>133.60000610352</ele>
        <time>2019-07-16T21:21:22.000Z</time>
      </trkpt>
      <trkpt lat="50.78464" lon="2.75855">
        <ele>133.60000610352</ele>
        <time>2019-07-16T21:21:23.000Z</time>
      </trkpt>
      <trkpt lat="50.78477" lon="2.75861">
        <ele>133.39999389648</ele>
        <time>2019-07-16T21:21:27.000Z</time>
      </trkpt>
      <trkpt lat="50.7848" lon="2.75867">
        <ele>133.60000610352</ele>
        <time>2019-07-16T21:21:28.000Z</time>
      </trkpt>
      <trkpt lat="50.78482" lon="2.75872">
        <ele>133.60000610352</ele>
        <time>2019-07-16T21:21:29.000Z</time>
      </trkpt>
      <trkpt lat="50.78483" lon="2.75879">
        <ele>133.80000305176</ele>
        <time>2019-07-16T21:21:30.000Z</time>
      </trkpt>
      <trkpt lat="50.78484" lon="2.75887">
        <ele>134</ele>
        <time>2019-07-16T21:21:31.000Z</time>
      </trkpt>
      <trkpt lat="50.78502" lon="2.75985">
        <ele>138.60000610352</ele>
        <time>2019-07-16T21:21:43.000Z</time>
      </trkpt>
      <trkpt lat="50.78533" lon="2.76083">
        <ele>136.39999389648</ele>
        <time>2019-07-16T21:21:55.000Z</time>
      </trkpt>
      <trkpt lat="50.78588" lon="2.76242">
        <ele>133.39999389648</ele>
        <time>2019-07-16T21:22:12.000Z</time>
      </trkpt>
      <trkpt lat="50.78619" lon="2.76381">
        <ele>131.39999389648</ele>
        <time>2019-07-16T21:22:25.000Z</time>
      </trkpt>
      <trkpt lat="50.78634" lon="2.76473">
        <ele>130.39999389648</ele>
        <time>2019-07-16T21:22:33.000Z</time>
      </trkpt>
      <trkpt lat="50.78643" lon="2.76528">
        <ele>128</ele>
        <time>2019-07-16T21:22:37.000Z</time>
      </trkpt>
      <trkpt lat="50.7865" lon="2.76575">
        <ele>124.40000152588</ele>
        <time>2019-07-16T21:22:40.000Z</time>
      </trkpt>
      <trkpt lat="50.78656" lon="2.76622">
        <ele>119.80000305176</ele>
        <time>2019-07-16T21:22:43.000Z</time>
      </trkpt>
      <trkpt lat="50.78661" lon="2.76669">
        <ele>116</ele>
        <time>2019-07-16T21:22:46.000Z</time>
      </trkpt>
      <trkpt lat="50.78671" lon="2.7672">
        <ele>110.59999847412</ele>
        <time>2019-07-16T21:22:49.000Z</time>
      </trkpt>
      <trkpt lat="50.78676" lon="2.76736">
        <ele>108.40000152588</ele>
        <time>2019-07-16T21:22:50.000Z</time>
      </trkpt>
      <trkpt lat="50.78696" lon="2.76783">
        <ele>103.19999694824</ele>
        <time>2019-07-16T21:22:53.000Z</time>
      </trkpt>
      <trkpt lat="50.78723" lon="2.7685">
        <ele>97.599998474121</ele>
        <time>2019-07-16T21:22:57.000Z</time>
      </trkpt>
      <trkpt lat="50.78755" lon="2.76926">
        <ele>94.400001525879</ele>
        <time>2019-07-16T21:23:02.000Z</time>
      </trkpt>
      <trkpt lat="50.78761" lon="2.76939">
        <ele>94.400001525879</ele>
        <time>2019-07-16T21:23:03.000Z</time>
      </trkpt>
      <trkpt lat="50.78822" lon="2.77034">
        <ele>94.400001525879</ele>
        <time>2019-07-16T21:23:13.000Z</time>
      </trkpt>
      <trkpt lat="50.78898" lon="2.77128">
        <ele>93.199996948242</ele>
        <time>2019-07-16T21:23:27.000Z</time>
      </trkpt>
      <trkpt lat="50.78914" lon="2.77149">
        <ele>92.800003051758</ele>
        <time>2019-07-16T21:23:30.000Z</time>
      </trkpt>
      <trkpt lat="50.78918" lon="2.77157">
        <ele>92.800003051758</ele>
        <time>2019-07-16T21:23:31.000Z</time>
      </trkpt>
      <trkpt lat="50.78921" lon="2.77165">
        <ele>92.800003051758</ele>
        <time>2019-07-16T21:23:32.000Z</time>
      </trkpt>
      <trkpt lat="50.78922" lon="2.77173">
        <ele>92.800003051758</ele>
        <time>2019-07-16T21:23:33.000Z</time>
      </trkpt>
      <trkpt lat="50.78922" lon="2.7718">
        <ele>92.800003051758</ele>
        <time>2019-07-16T21:23:34.000Z</time>
      </trkpt>
      <trkpt lat="50.78925" lon="2.77191">
        <ele>92.599998474121</ele>
        <time>2019-07-16T21:23:36.000Z</time>
      </trkpt>
      <trkpt lat="50.78928" lon="2.77194">
        <ele>92.599998474121</ele>
        <time>2019-07-16T21:23:37.000Z</time>
      </trkpt>
      <trkpt lat="50.78932" lon="2.77197">
        <ele>92.400001525879</ele>
        <time>2019-07-16T21:23:38.000Z</time>
      </trkpt>
      <trkpt lat="50.78936" lon="2.772">
        <ele>92.199996948242</ele>
        <time>2019-07-16T21:23:39.000Z</time>
      </trkpt>
      <trkpt lat="50.7894" lon="2.77203">
        <ele>92.199996948242</ele>
        <time>2019-07-16T21:23:40.000Z</time>
      </trkpt>
      <trkpt lat="50.78944" lon="2.77207">
        <ele>92</ele>
        <time>2019-07-16T21:23:41.000Z</time>
      </trkpt>
      <trkpt lat="50.78947" lon="2.77211">
        <ele>91.800003051758</ele>
        <time>2019-07-16T21:23:42.000Z</time>
      </trkpt>
      <trkpt lat="50.78971" lon="2.77246">
        <ele>91</ele>
        <time>2019-07-16T21:23:50.000Z</time>
      </trkpt>
      <trkpt lat="50.78977" lon="2.77256">
        <ele>90.800003051758</ele>
        <time>2019-07-16T21:23:52.000Z</time>
      </trkpt>
      <trkpt lat="50.79013" lon="2.77307">
        <ele>89.199996948242</ele>
        <time>2019-07-16T21:24:02.000Z</time>
      </trkpt>
      <trkpt lat="50.79017" lon="2.77309">
        <ele>89</ele>
        <time>2019-07-16T21:24:03.000Z</time>
      </trkpt>
      <trkpt lat="50.79022" lon="2.77309">
        <ele>88.599998474121</ele>
        <time>2019-07-16T21:24:04.000Z</time>
      </trkpt>
      <trkpt lat="50.79025" lon="2.77307">
        <ele>88.400001525879</ele>
        <time>2019-07-16T21:24:05.000Z</time>
      </trkpt>
      <trkpt lat="50.79029" lon="2.77302">
        <ele>88.199996948242</ele>
        <time>2019-07-16T21:24:06.000Z</time>
      </trkpt>
      <trkpt lat="50.79032" lon="2.77296">
        <ele>88.199996948242</ele>
        <time>2019-07-16T21:24:07.000Z</time>
      </trkpt>
      <trkpt lat="50.79091" lon="2.77202">
        <ele>86.199996948242</ele>
        <time>2019-07-16T21:24:20.000Z</time>
      </trkpt>
      <trkpt lat="50.79155" lon="2.771">
        <ele>82</ele>
        <time>2019-07-16T21:24:33.000Z</time>
      </trkpt>
      <trkpt lat="50.79203" lon="2.77026">
        <ele>79.800003051758</ele>
        <time>2019-07-16T21:24:41.000Z</time>
      </trkpt>
      <trkpt lat="50.79251" lon="2.7695">
        <ele>76.800003051758</ele>
        <time>2019-07-16T21:24:48.000Z</time>
      </trkpt>
      <trkpt lat="50.79292" lon="2.76882">
        <ele>75.400001525879</ele>
        <time>2019-07-16T21:24:54.000Z</time>
      </trkpt>
      <trkpt lat="50.79329" lon="2.76803">
        <ele>73.599998474121</ele>
        <time>2019-07-16T21:25:00.000Z</time>
      </trkpt>
      <trkpt lat="50.7937" lon="2.76695">
        <ele>71.599998474121</ele>
        <time>2019-07-16T21:25:08.000Z</time>
      </trkpt>
      <trkpt lat="50.79389" lon="2.76597">
        <ele>68.400001525879</ele>
        <time>2019-07-16T21:25:14.000Z</time>
      </trkpt>
      <trkpt lat="50.79394" lon="2.76509">
        <ele>64.800003051758</ele>
        <time>2019-07-16T21:25:19.000Z</time>
      </trkpt>
      <trkpt lat="50.79393" lon="2.76491">
        <ele>64.199996948242</ele>
        <time>2019-07-16T21:25:20.000Z</time>
      </trkpt>
      <trkpt lat="50.79388" lon="2.76393">
        <ele>60</ele>
        <time>2019-07-16T21:25:26.000Z</time>
      </trkpt>
      <trkpt lat="50.79389" lon="2.76376">
        <ele>59.400001525879</ele>
        <time>2019-07-16T21:25:27.000Z</time>
      </trkpt>
      <trkpt lat="50.79391" lon="2.7636">
        <ele>59</ele>
        <time>2019-07-16T21:25:28.000Z</time>
      </trkpt>
      <trkpt lat="50.79393" lon="2.76346">
        <ele>58.599998474121</ele>
        <time>2019-07-16T21:25:29.000Z</time>
      </trkpt>
      <trkpt lat="50.79396" lon="2.76332">
        <ele>58</ele>
        <time>2019-07-16T21:25:30.000Z</time>
      </trkpt>
      <trkpt lat="50.794" lon="2.76318">
        <ele>58</ele>
        <time>2019-07-16T21:25:31.000Z</time>
      </trkpt>
      <trkpt lat="50.7944" lon="2.7616">
        <ele>56</ele>
        <time>2019-07-16T21:25:44.000Z</time>
      </trkpt>
      <trkpt lat="50.79452" lon="2.76114">
        <ele>55.799999237061</ele>
        <time>2019-07-16T21:25:48.000Z</time>
      </trkpt>
      <trkpt lat="50.79501" lon="2.75957">
        <ele>53</ele>
        <time>2019-07-16T21:26:02.000Z</time>
      </trkpt>
      <trkpt lat="50.7956" lon="2.75781">
        <ele>51.599998474121</ele>
        <time>2019-07-16T21:26:18.000Z</time>
      </trkpt>
      <trkpt lat="50.79612" lon="2.75623">
        <ele>48.400001525879</ele>
        <time>2019-07-16T21:26:32.000Z</time>
      </trkpt>
      <trkpt lat="50.79653" lon="2.75468">
        <ele>45.599998474121</ele>
        <time>2019-07-16T21:26:45.000Z</time>
      </trkpt>
      <trkpt lat="50.79692" lon="2.75283">
        <ele>44</ele>
        <time>2019-07-16T21:27:01.000Z</time>
      </trkpt>
      <trkpt lat="50.79719" lon="2.75106">
        <ele>43.599998474121</ele>
        <time>2019-07-16T21:27:17.000Z</time>
      </trkpt>
      <trkpt lat="50.79739" lon="2.74986">
        <ele>45.799999237061</ele>
        <time>2019-07-16T21:27:30.000Z</time>
      </trkpt>
      <trkpt lat="50.79739" lon="2.74977">
        <ele>46</ele>
        <time>2019-07-16T21:27:31.000Z</time>
      </trkpt>
      <trkpt lat="50.79738" lon="2.74923">
        <ele>46.200000762939</ele>
        <time>2019-07-16T21:27:37.000Z</time>
      </trkpt>
      <trkpt lat="50.79738" lon="2.74915">
        <ele>46.200000762939</ele>
        <time>2019-07-16T21:27:38.000Z</time>
      </trkpt>
      <trkpt lat="50.79744" lon="2.74834">
        <ele>46.400001525879</ele>
        <time>2019-07-16T21:27:47.000Z</time>
      </trkpt>
      <trkpt lat="50.79759" lon="2.74766">
        <ele>44.400001525879</ele>
        <time>2019-07-16T21:27:55.000Z</time>
      </trkpt>
      <trkpt lat="50.79758" lon="2.74756">
        <ele>44.400001525879</ele>
        <time>2019-07-16T21:27:56.000Z</time>
      </trkpt>
      <trkpt lat="50.79757" lon="2.74749">
        <ele>44.400001525879</ele>
        <time>2019-07-16T21:27:57.000Z</time>
      </trkpt>
      <trkpt lat="50.79754" lon="2.74741">
        <ele>44.599998474121</ele>
        <time>2019-07-16T21:27:58.000Z</time>
      </trkpt>
      <trkpt lat="50.7975" lon="2.74734">
        <ele>45</ele>
        <time>2019-07-16T21:27:59.000Z</time>
      </trkpt>
      <trkpt lat="50.79747" lon="2.74726">
        <ele>45.200000762939</ele>
        <time>2019-07-16T21:28:00.000Z</time>
      </trkpt>
      <trkpt lat="50.79744" lon="2.74719">
        <ele>45.400001525879</ele>
        <time>2019-07-16T21:28:01.000Z</time>
      </trkpt>
      <trkpt lat="50.79713" lon="2.74651">
        <ele>46.799999237061</ele>
        <time>2019-07-16T21:28:11.000Z</time>
      </trkpt>
      <trkpt lat="50.7971" lon="2.74647">
        <ele>46.599998474121</ele>
        <time>2019-07-16T21:28:12.000Z</time>
      </trkpt>
      <trkpt lat="50.79707" lon="2.74644">
        <ele>46.799999237061</ele>
        <time>2019-07-16T21:28:13.000Z</time>
      </trkpt>
      <trkpt lat="50.79703" lon="2.74644">
        <ele>46.799999237061</ele>
        <time>2019-07-16T21:28:14.000Z</time>
      </trkpt>
      <trkpt lat="50.797" lon="2.74646">
        <ele>47</ele>
        <time>2019-07-16T21:28:15.000Z</time>
      </trkpt>
      <trkpt lat="50.79695" lon="2.74647">
        <ele>47</ele>
        <time>2019-07-16T21:28:16.000Z</time>
      </trkpt>
      <trkpt lat="50.79692" lon="2.74646">
        <ele>47.200000762939</ele>
        <time>2019-07-16T21:28:17.000Z</time>
      </trkpt>
      <trkpt lat="50.7969" lon="2.74641">
        <ele>47</ele>
        <time>2019-07-16T21:28:18.000Z</time>
      </trkpt>
      <trkpt lat="50.79688" lon="2.74636">
        <ele>47</ele>
        <time>2019-07-16T21:28:19.000Z</time>
      </trkpt>
      <trkpt lat="50.79687" lon="2.74631">
        <ele>46.799999237061</ele>
        <time>2019-07-16T21:28:20.000Z</time>
      </trkpt>
      <trkpt lat="50.79682" lon="2.7462">
        <ele>46.799999237061</ele>
        <time>2019-07-16T21:28:22.000Z</time>
      </trkpt>
      <trkpt lat="50.7968" lon="2.74614">
        <ele>46.599998474121</ele>
        <time>2019-07-16T21:28:23.000Z</time>
      </trkpt>
      <trkpt lat="50.79619" lon="2.74518">
        <ele>46.200000762939</ele>
        <time>2019-07-16T21:28:40.000Z</time>
      </trkpt>
      <trkpt lat="50.79551" lon="2.74413">
        <ele>46</ele>
        <time>2019-07-16T21:28:57.000Z</time>
      </trkpt>
      <trkpt lat="50.79476" lon="2.74297">
        <ele>46.799999237061</ele>
        <time>2019-07-16T21:29:16.000Z</time>
      </trkpt>
      <trkpt lat="50.79399" lon="2.7418">
        <ele>49.400001525879</ele>
        <time>2019-07-16T21:29:35.000Z</time>
      </trkpt>
      <trkpt lat="50.79328" lon="2.74077">
        <ele>50</ele>
        <time>2019-07-16T21:29:52.000Z</time>
      </trkpt>
      <trkpt lat="50.79308" lon="2.74055">
        <ele>50.200000762939</ele>
        <time>2019-07-16T21:29:56.000Z</time>
      </trkpt>
      <trkpt lat="50.79304" lon="2.74048">
        <ele>50.200000762939</ele>
        <time>2019-07-16T21:29:57.000Z</time>
      </trkpt>
      <trkpt lat="50.793" lon="2.74041">
        <ele>50.200000762939</ele>
        <time>2019-07-16T21:29:58.000Z</time>
      </trkpt>
      <trkpt lat="50.79287" lon="2.7401">
        <ele>50.200000762939</ele>
        <time>2019-07-16T21:30:02.000Z</time>
      </trkpt>
      <trkpt lat="50.79284" lon="2.74004">
        <ele>50.200000762939</ele>
        <time>2019-07-16T21:30:03.000Z</time>
      </trkpt>
      <trkpt lat="50.79279" lon="2.74">
        <ele>50.400001525879</ele>
        <time>2019-07-16T21:30:04.000Z</time>
      </trkpt>
      <trkpt lat="50.79273" lon="2.73998">
        <ele>50.799999237061</ele>
        <time>2019-07-16T21:30:05.000Z</time>
      </trkpt>
      <trkpt lat="50.79268" lon="2.73999">
        <ele>51</ele>
        <time>2019-07-16T21:30:06.000Z</time>
      </trkpt>
      <trkpt lat="50.79263" lon="2.74">
        <ele>51.400001525879</ele>
        <time>2019-07-16T21:30:07.000Z</time>
      </trkpt>
      <trkpt lat="50.79258" lon="2.74">
        <ele>51.799999237061</ele>
        <time>2019-07-16T21:30:08.000Z</time>
      </trkpt>
      <trkpt lat="50.79253" lon="2.73998">
        <ele>52</ele>
        <time>2019-07-16T21:30:09.000Z</time>
      </trkpt>
      <trkpt lat="50.79248" lon="2.73993">
        <ele>52.200000762939</ele>
        <time>2019-07-16T21:30:10.000Z</time>
      </trkpt>
      <trkpt lat="50.79244" lon="2.73987">
        <ele>52.200000762939</ele>
        <time>2019-07-16T21:30:11.000Z</time>
      </trkpt>
      <trkpt lat="50.7924" lon="2.7398">
        <ele>52.200000762939</ele>
        <time>2019-07-16T21:30:12.000Z</time>
      </trkpt>
      <trkpt lat="50.79173" lon="2.73877">
        <ele>52.200000762939</ele>
        <time>2019-07-16T21:30:27.000Z</time>
      </trkpt>
      <trkpt lat="50.79127" lon="2.73802">
        <ele>53.200000762939</ele>
        <time>2019-07-16T21:30:37.000Z</time>
      </trkpt>
      <trkpt lat="50.79124" lon="2.73793">
        <ele>53.599998474121</ele>
        <time>2019-07-16T21:30:38.000Z</time>
      </trkpt>
      <trkpt lat="50.79122" lon="2.73784">
        <ele>53.799999237061</ele>
        <time>2019-07-16T21:30:39.000Z</time>
      </trkpt>
      <trkpt lat="50.79121" lon="2.73775">
        <ele>54.200000762939</ele>
        <time>2019-07-16T21:30:40.000Z</time>
      </trkpt>
      <trkpt lat="50.7912" lon="2.73766">
        <ele>54.400001525879</ele>
        <time>2019-07-16T21:30:41.000Z</time>
      </trkpt>
      <trkpt lat="50.79119" lon="2.73757">
        <ele>54.599998474121</ele>
        <time>2019-07-16T21:30:42.000Z</time>
      </trkpt>
      <trkpt lat="50.79115" lon="2.73702">
        <ele>56</ele>
        <time>2019-07-16T21:30:49.000Z</time>
      </trkpt>
      <trkpt lat="50.79084" lon="2.73609">
        <ele>58.599998474121</ele>
        <time>2019-07-16T21:31:03.000Z</time>
      </trkpt>
      <trkpt lat="50.79044" lon="2.73555">
        <ele>60.799999237061</ele>
        <time>2019-07-16T21:31:15.000Z</time>
      </trkpt>
      <trkpt lat="50.79013" lon="2.73532">
        <ele>62.200000762939</ele>
        <time>2019-07-16T21:31:23.000Z</time>
      </trkpt>
      <trkpt lat="50.79009" lon="2.73531">
        <ele>62.400001525879</ele>
        <time>2019-07-16T21:31:24.000Z</time>
      </trkpt>
      <trkpt lat="50.79005" lon="2.73531">
        <ele>62.400001525879</ele>
        <time>2019-07-16T21:31:25.000Z</time>
      </trkpt>
      <trkpt lat="50.78996" lon="2.73531">
        <ele>62.799999237061</ele>
        <time>2019-07-16T21:31:27.000Z</time>
      </trkpt>
      <trkpt lat="50.78984" lon="2.73535">
        <ele>63</ele>
        <time>2019-07-16T21:31:30.000Z</time>
      </trkpt>
      <trkpt lat="50.78927" lon="2.73552">
        <ele>65</ele>
        <time>2019-07-16T21:31:43.000Z</time>
      </trkpt>
      <trkpt lat="50.78923" lon="2.73555">
        <ele>65.199996948242</ele>
        <time>2019-07-16T21:31:44.000Z</time>
      </trkpt>
      <trkpt lat="50.78905" lon="2.73574">
        <ele>66.199996948242</ele>
        <time>2019-07-16T21:31:49.000Z</time>
      </trkpt>
      <trkpt lat="50.78893" lon="2.73585">
        <ele>66.800003051758</ele>
        <time>2019-07-16T21:31:52.000Z</time>
      </trkpt>
      <trkpt lat="50.78886" lon="2.73593">
        <ele>67</ele>
        <time>2019-07-16T21:31:54.000Z</time>
      </trkpt>
      <trkpt lat="50.7884" lon="2.73624">
        <ele>67.199996948242</ele>
        <time>2019-07-16T21:32:05.000Z</time>
      </trkpt>
      <trkpt lat="50.7875" lon="2.73683">
        <ele>67.199996948242</ele>
        <time>2019-07-16T21:32:23.000Z</time>
      </trkpt>
      <trkpt lat="50.78703" lon="2.73733">
        <ele>68.400001525879</ele>
        <time>2019-07-16T21:32:32.000Z</time>
      </trkpt>
      <trkpt lat="50.78698" lon="2.73738">
        <ele>68.599998474121</ele>
        <time>2019-07-16T21:32:33.000Z</time>
      </trkpt>
      <trkpt lat="50.78692" lon="2.7374">
        <ele>68.800003051758</ele>
        <time>2019-07-16T21:32:34.000Z</time>
      </trkpt>
      <trkpt lat="50.78686" lon="2.73739">
        <ele>68.800003051758</ele>
        <time>2019-07-16T21:32:35.000Z</time>
      </trkpt>
      <trkpt lat="50.78681" lon="2.73738">
        <ele>69</ele>
        <time>2019-07-16T21:32:36.000Z</time>
      </trkpt>
      <trkpt lat="50.78661" lon="2.73733">
        <ele>69.400001525879</ele>
        <time>2019-07-16T21:32:40.000Z</time>
      </trkpt>
      <trkpt lat="50.78631" lon="2.73725">
        <ele>70.400001525879</ele>
        <time>2019-07-16T21:32:47.000Z</time>
      </trkpt>
      <trkpt lat="50.78587" lon="2.73708">
        <ele>72.599998474121</ele>
        <time>2019-07-16T21:32:58.000Z</time>
      </trkpt>
      <trkpt lat="50.78556" lon="2.73695">
        <ele>74.400001525879</ele>
        <time>2019-07-16T21:33:07.000Z</time>
      </trkpt>
      <trkpt lat="50.78523" lon="2.73684">
        <ele>77.800003051758</ele>
        <time>2019-07-16T21:33:17.000Z</time>
      </trkpt>
      <trkpt lat="50.78472" lon="2.73695">
        <ele>83.199996948242</ele>
        <time>2019-07-16T21:33:31.000Z</time>
      </trkpt>
      <trkpt lat="50.78426" lon="2.73704">
        <ele>85.599998474121</ele>
        <time>2019-07-16T21:33:44.000Z</time>
      </trkpt>
      <trkpt lat="50.78382" lon="2.73707">
        <ele>88.800003051758</ele>
        <time>2019-07-16T21:33:57.000Z</time>
      </trkpt>
      <trkpt lat="50.78341" lon="2.737">
        <ele>92</ele>
        <time>2019-07-16T21:34:09.000Z</time>
      </trkpt>
      <trkpt lat="50.78306" lon="2.73703">
        <ele>94.400001525879</ele>
        <time>2019-07-16T21:34:20.000Z</time>
      </trkpt>
      <trkpt lat="50.78271" lon="2.73775">
        <ele>98.800003051758</ele>
        <time>2019-07-16T21:34:36.000Z</time>
      </trkpt>
      <trkpt lat="50.7826" lon="2.73831">
        <ele>99.800003051758</ele>
        <time>2019-07-16T21:34:47.000Z</time>
      </trkpt>
      <trkpt lat="50.78256" lon="2.73902">
        <ele>101.40000152588</ele>
        <time>2019-07-16T21:35:00.000Z</time>
      </trkpt>
      <trkpt lat="50.78253" lon="2.73994">
        <ele>104.59999847412</ele>
        <time>2019-07-16T21:35:15.000Z</time>
      </trkpt>
      <trkpt lat="50.78252" lon="2.74079">
        <ele>107.80000305176</ele>
        <time>2019-07-16T21:35:28.000Z</time>
      </trkpt>
      <trkpt lat="50.78251" lon="2.74092">
        <ele>108.19999694824</ele>
        <time>2019-07-16T21:35:30.000Z</time>
      </trkpt>
      <trkpt lat="50.78251" lon="2.74098">
        <ele>108.59999847412</ele>
        <time>2019-07-16T21:35:31.000Z</time>
      </trkpt>
      <trkpt lat="50.7825" lon="2.74105">
        <ele>108.80000305176</ele>
        <time>2019-07-16T21:35:32.000Z</time>
      </trkpt>
      <trkpt lat="50.7825" lon="2.74118">
        <ele>109.40000152588</ele>
        <time>2019-07-16T21:35:34.000Z</time>
      </trkpt>
      <trkpt lat="50.78246" lon="2.74206">
        <ele>113.80000305176</ele>
        <time>2019-07-16T21:35:48.000Z</time>
      </trkpt>
      <trkpt lat="50.78247" lon="2.74265">
        <ele>116.40000152588</ele>
        <time>2019-07-16T21:35:59.000Z</time>
      </trkpt>
      <trkpt lat="50.78265" lon="2.74316">
        <ele>119</ele>
        <time>2019-07-16T21:36:10.000Z</time>
      </trkpt>
      <trkpt lat="50.78298" lon="2.74375">
        <ele>120.59999847412</ele>
        <time>2019-07-16T21:36:25.000Z</time>
      </trkpt>
      <trkpt lat="50.783" lon="2.74392">
        <ele>121</ele>
        <time>2019-07-16T21:36:29.000Z</time>
      </trkpt>
      <trkpt lat="50.78298" lon="2.74394">
        <ele>121.19999694824</ele>
        <time>2019-07-16T21:36:30.000Z</time>
      </trkpt>
      <trkpt lat="50.78296" lon="2.74396">
        <ele>121.40000152588</ele>
        <time>2019-07-16T21:36:31.000Z</time>
      </trkpt>
      <trkpt lat="50.78293" lon="2.74397">
        <ele>121.40000152588</ele>
        <time>2019-07-16T21:36:32.000Z</time>
      </trkpt>
      <trkpt lat="50.78291" lon="2.74397">
        <ele>121.59999847412</ele>
        <time>2019-07-16T21:36:33.000Z</time>
      </trkpt>
      <trkpt lat="50.78287" lon="2.74397">
        <ele>121.59999847412</ele>
        <time>2019-07-16T21:36:34.000Z</time>
      </trkpt>
      <trkpt lat="50.78285" lon="2.74394">
        <ele>121.59999847412</ele>
        <time>2019-07-16T21:36:35.000Z</time>
      </trkpt>
      <trkpt lat="50.78283" lon="2.7439">
        <ele>121.40000152588</ele>
        <time>2019-07-16T21:36:36.000Z</time>
      </trkpt>
      <trkpt lat="50.78281" lon="2.74385">
        <ele>121.40000152588</ele>
        <time>2019-07-16T21:36:37.000Z</time>
      </trkpt>
      <trkpt lat="50.78276" lon="2.74375">
        <ele>121</ele>
        <time>2019-07-16T21:36:39.000Z</time>
      </trkpt>
      <trkpt lat="50.78259" lon="2.74335">
        <ele>120</ele>
        <time>2019-07-16T21:36:45.000Z</time>
      </trkpt>
      <trkpt lat="50.78211" lon="2.7421">
        <ele>116</ele>
        <time>2019-07-16T21:37:01.000Z</time>
      </trkpt>
      <trkpt lat="50.78156" lon="2.74065">
        <ele>117.40000152588</ele>
        <time>2019-07-16T21:37:19.000Z</time>
      </trkpt>
      <trkpt lat="50.78106" lon="2.73938">
        <ele>120</ele>
        <time>2019-07-16T21:37:37.000Z</time>
      </trkpt>
      <trkpt lat="50.78069" lon="2.73873">
        <ele>123</ele>
        <time>2019-07-16T21:37:49.000Z</time>
      </trkpt>
      <trkpt lat="50.78016" lon="2.73795">
        <ele>128.60000610352</ele>
        <time>2019-07-16T21:38:05.000Z</time>
      </trkpt>
      <trkpt lat="50.77978" lon="2.73742">
        <ele>133.39999389648</ele>
        <time>2019-07-16T21:38:18.000Z</time>
      </trkpt>
      <trkpt lat="50.77948" lon="2.7371">
        <ele>136.80000305176</ele>
        <time>2019-07-16T21:38:29.000Z</time>
      </trkpt>
      <trkpt lat="50.77917" lon="2.73675">
        <ele>139.80000305176</ele>
        <time>2019-07-16T21:38:40.000Z</time>
      </trkpt>
      <trkpt lat="50.77888" lon="2.73644">
        <ele>143</ele>
        <time>2019-07-16T21:38:50.000Z</time>
      </trkpt>
      <trkpt lat="50.77885" lon="2.73602">
        <ele>144.39999389648</ele>
        <time>2019-07-16T21:38:58.000Z</time>
      </trkpt>
      <trkpt lat="50.77901" lon="2.73542">
        <ele>145.80000305176</ele>
        <time>2019-07-16T21:39:10.000Z</time>
      </trkpt>
      <trkpt lat="50.77926" lon="2.73471">
        <ele>146.19999694824</ele>
        <time>2019-07-16T21:39:26.000Z</time>
      </trkpt>
      <trkpt lat="50.77938" lon="2.73433">
        <ele>146.39999389648</ele>
        <time>2019-07-16T21:39:32.000Z</time>
      </trkpt>
      <trkpt lat="50.77945" lon="2.73408">
        <ele>146.39999389648</ele>
        <time>2019-07-16T21:39:35.000Z</time>
      </trkpt>
      <trkpt lat="50.7796" lon="2.73349">
        <ele>147.19999694824</ele>
        <time>2019-07-16T21:39:41.000Z</time>
      </trkpt>
      <trkpt lat="50.77961" lon="2.73339">
        <ele>147.39999389648</ele>
        <time>2019-07-16T21:39:42.000Z</time>
      </trkpt>
      <trkpt lat="50.77961" lon="2.73328">
        <ele>146.60000610352</ele>
        <time>2019-07-16T21:39:43.000Z</time>
      </trkpt>
      <trkpt lat="50.77963" lon="2.73318">
        <ele>146.39999389648</ele>
        <time>2019-07-16T21:39:44.000Z</time>
      </trkpt>
      <trkpt lat="50.77963" lon="2.73308">
        <ele>146.19999694824</ele>
        <time>2019-07-16T21:39:45.000Z</time>
      </trkpt>
      <trkpt lat="50.77966" lon="2.73236">
        <ele>144.19999694824</ele>
        <time>2019-07-16T21:39:52.000Z</time>
      </trkpt>
      <trkpt lat="50.77968" lon="2.73225">
        <ele>144.19999694824</ele>
        <time>2019-07-16T21:39:53.000Z</time>
      </trkpt>
      <trkpt lat="50.77971" lon="2.73216">
        <ele>144</ele>
        <time>2019-07-16T21:39:54.000Z</time>
      </trkpt>
      <trkpt lat="50.77974" lon="2.73206">
        <ele>143.60000610352</ele>
        <time>2019-07-16T21:39:55.000Z</time>
      </trkpt>
      <trkpt lat="50.77978" lon="2.73197">
        <ele>143.19999694824</ele>
        <time>2019-07-16T21:39:56.000Z</time>
      </trkpt>
      <trkpt lat="50.77998" lon="2.7315">
        <ele>142.39999389648</ele>
        <time>2019-07-16T21:40:01.000Z</time>
      </trkpt>
      <trkpt lat="50.78002" lon="2.73139">
        <ele>141.80000305176</ele>
        <time>2019-07-16T21:40:02.000Z</time>
      </trkpt>
      <trkpt lat="50.78018" lon="2.73074">
        <ele>138.19999694824</ele>
        <time>2019-07-16T21:40:07.000Z</time>
      </trkpt>
      <trkpt lat="50.78023" lon="2.72994">
        <ele>134.80000305176</ele>
        <time>2019-07-16T21:40:12.000Z</time>
      </trkpt>
      <trkpt lat="50.78015" lon="2.72865">
        <ele>133</ele>
        <time>2019-07-16T21:40:20.000Z</time>
      </trkpt>
      <trkpt lat="50.78016" lon="2.72849">
        <ele>132.80000305176</ele>
        <time>2019-07-16T21:40:21.000Z</time>
      </trkpt>
      <trkpt lat="50.78025" lon="2.72729">
        <ele>129.39999389648</ele>
        <time>2019-07-16T21:40:31.000Z</time>
      </trkpt>
      <trkpt lat="50.78035" lon="2.72618">
        <ele>124.80000305176</ele>
        <time>2019-07-16T21:40:40.000Z</time>
      </trkpt>
      <trkpt lat="50.78033" lon="2.72558">
        <ele>122.59999847412</ele>
        <time>2019-07-16T21:40:44.000Z</time>
      </trkpt>
      <trkpt lat="50.7803" lon="2.7249">
        <ele>120.19999694824</ele>
        <time>2019-07-16T21:40:48.000Z</time>
      </trkpt>
      <trkpt lat="50.7803" lon="2.72458">
        <ele>118.80000305176</ele>
        <time>2019-07-16T21:40:50.000Z</time>
      </trkpt>
      <trkpt lat="50.78032" lon="2.72441">
        <ele>118.40000152588</ele>
        <time>2019-07-16T21:40:51.000Z</time>
      </trkpt>
      <trkpt lat="50.7804" lon="2.72373">
        <ele>116.19999694824</ele>
        <time>2019-07-16T21:40:55.000Z</time>
      </trkpt>
      <trkpt lat="50.78041" lon="2.72337">
        <ele>115</ele>
        <time>2019-07-16T21:40:57.000Z</time>
      </trkpt>
      <trkpt lat="50.7804" lon="2.72318">
        <ele>114</ele>
        <time>2019-07-16T21:40:58.000Z</time>
      </trkpt>
      <trkpt lat="50.78038" lon="2.723">
        <ele>113</ele>
        <time>2019-07-16T21:40:59.000Z</time>
      </trkpt>
      <trkpt lat="50.78035" lon="2.72282">
        <ele>112.19999694824</ele>
        <time>2019-07-16T21:41:00.000Z</time>
      </trkpt>
      <trkpt lat="50.78031" lon="2.72263">
        <ele>111</ele>
        <time>2019-07-16T21:41:01.000Z</time>
      </trkpt>
      <trkpt lat="50.78026" lon="2.72247">
        <ele>109.80000305176</ele>
        <time>2019-07-16T21:41:02.000Z</time>
      </trkpt>
      <trkpt lat="50.78021" lon="2.72232">
        <ele>108.40000152588</ele>
        <time>2019-07-16T21:41:03.000Z</time>
      </trkpt>
      <trkpt lat="50.78008" lon="2.72183">
        <ele>105</ele>
        <time>2019-07-16T21:41:06.000Z</time>
      </trkpt>
      <trkpt lat="50.78002" lon="2.72151">
        <ele>103</ele>
        <time>2019-07-16T21:41:08.000Z</time>
      </trkpt>
      <trkpt lat="50.78" lon="2.72135">
        <ele>102.19999694824</ele>
        <time>2019-07-16T21:41:09.000Z</time>
      </trkpt>
      <trkpt lat="50.78" lon="2.72119">
        <ele>101.19999694824</ele>
        <time>2019-07-16T21:41:10.000Z</time>
      </trkpt>
      <trkpt lat="50.78001" lon="2.72102">
        <ele>100.19999694824</ele>
        <time>2019-07-16T21:41:11.000Z</time>
      </trkpt>
      <trkpt lat="50.78003" lon="2.72086">
        <ele>99</ele>
        <time>2019-07-16T21:41:12.000Z</time>
      </trkpt>
      <trkpt lat="50.78006" lon="2.72038">
        <ele>97</ele>
        <time>2019-07-16T21:41:15.000Z</time>
      </trkpt>
      <trkpt lat="50.78005" lon="2.72021">
        <ele>95.599998474121</ele>
        <time>2019-07-16T21:41:16.000Z</time>
      </trkpt>
      <trkpt lat="50.78002" lon="2.72004">
        <ele>94.199996948242</ele>
        <time>2019-07-16T21:41:17.000Z</time>
      </trkpt>
      <trkpt lat="50.77998" lon="2.71989">
        <ele>93.199996948242</ele>
        <time>2019-07-16T21:41:18.000Z</time>
      </trkpt>
      <trkpt lat="50.77993" lon="2.71974">
        <ele>92.199996948242</ele>
        <time>2019-07-16T21:41:19.000Z</time>
      </trkpt>
      <trkpt lat="50.77987" lon="2.7196">
        <ele>91</ele>
        <time>2019-07-16T21:41:20.000Z</time>
      </trkpt>
      <trkpt lat="50.77979" lon="2.71948">
        <ele>89.800003051758</ele>
        <time>2019-07-16T21:41:21.000Z</time>
      </trkpt>
      <trkpt lat="50.77972" lon="2.71938">
        <ele>88.800003051758</ele>
        <time>2019-07-16T21:41:22.000Z</time>
      </trkpt>
      <trkpt lat="50.77964" lon="2.71929">
        <ele>87.599998474121</ele>
        <time>2019-07-16T21:41:23.000Z</time>
      </trkpt>
      <trkpt lat="50.77932" lon="2.71893">
        <ele>84</ele>
        <time>2019-07-16T21:41:27.000Z</time>
      </trkpt>
      <trkpt lat="50.77895" lon="2.71841">
        <ele>79.599998474121</ele>
        <time>2019-07-16T21:41:32.000Z</time>
      </trkpt>
      <trkpt lat="50.77858" lon="2.71788">
        <ele>75.800003051758</ele>
        <time>2019-07-16T21:41:39.000Z</time>
      </trkpt>
      <trkpt lat="50.77837" lon="2.71757">
        <ele>73.599998474121</ele>
        <time>2019-07-16T21:41:44.000Z</time>
      </trkpt>
      <trkpt lat="50.77835" lon="2.7175">
        <ele>73.400001525879</ele>
        <time>2019-07-16T21:41:45.000Z</time>
      </trkpt>
      <trkpt lat="50.77835" lon="2.71742">
        <ele>73.400001525879</ele>
        <time>2019-07-16T21:41:46.000Z</time>
      </trkpt>
      <trkpt lat="50.77838" lon="2.71734">
        <ele>73.400001525879</ele>
        <time>2019-07-16T21:41:47.000Z</time>
      </trkpt>
      <trkpt lat="50.77842" lon="2.71728">
        <ele>73.400001525879</ele>
        <time>2019-07-16T21:41:48.000Z</time>
      </trkpt>
      <trkpt lat="50.77846" lon="2.71722">
        <ele>73.599998474121</ele>
        <time>2019-07-16T21:41:49.000Z</time>
      </trkpt>
      <trkpt lat="50.7785" lon="2.71715">
        <ele>73.800003051758</ele>
        <time>2019-07-16T21:41:50.000Z</time>
      </trkpt>
      <trkpt lat="50.77869" lon="2.71685">
        <ele>73</ele>
        <time>2019-07-16T21:41:54.000Z</time>
      </trkpt>
      <trkpt lat="50.77876" lon="2.71678">
        <ele>73</ele>
        <time>2019-07-16T21:41:55.000Z</time>
      </trkpt>
      <trkpt lat="50.77882" lon="2.71673">
        <ele>73</ele>
        <time>2019-07-16T21:41:56.000Z</time>
      </trkpt>
      <trkpt lat="50.77888" lon="2.7167">
        <ele>73</ele>
        <time>2019-07-16T21:41:57.000Z</time>
      </trkpt>
      <trkpt lat="50.77895" lon="2.71668">
        <ele>73.199996948242</ele>
        <time>2019-07-16T21:41:58.000Z</time>
      </trkpt>
      <trkpt lat="50.77918" lon="2.71658">
        <ele>74</ele>
        <time>2019-07-16T21:42:02.000Z</time>
      </trkpt>
      <trkpt lat="50.77924" lon="2.71654">
        <ele>74</ele>
        <time>2019-07-16T21:42:03.000Z</time>
      </trkpt>
      <trkpt lat="50.77928" lon="2.71647">
        <ele>74.199996948242</ele>
        <time>2019-07-16T21:42:04.000Z</time>
      </trkpt>
      <trkpt lat="50.77932" lon="2.7164">
        <ele>74.199996948242</ele>
        <time>2019-07-16T21:42:05.000Z</time>
      </trkpt>
      <trkpt lat="50.77936" lon="2.71634">
        <ele>74.199996948242</ele>
        <time>2019-07-16T21:42:06.000Z</time>
      </trkpt>
      <trkpt lat="50.77941" lon="2.71628">
        <ele>73.800003051758</ele>
        <time>2019-07-16T21:42:07.000Z</time>
      </trkpt>
      <trkpt lat="50.77947" lon="2.71625">
        <ele>73.599998474121</ele>
        <time>2019-07-16T21:42:08.000Z</time>
      </trkpt>
      <trkpt lat="50.77954" lon="2.71621">
        <ele>73.199996948242</ele>
        <time>2019-07-16T21:42:09.000Z</time>
      </trkpt>
      <trkpt lat="50.77976" lon="2.7161">
        <ele>72.199996948242</ele>
        <time>2019-07-16T21:42:12.000Z</time>
      </trkpt>
      <trkpt lat="50.78007" lon="2.71591">
        <ele>70</ele>
        <time>2019-07-16T21:42:16.000Z</time>
      </trkpt>
      <trkpt lat="50.78014" lon="2.71585">
        <ele>69.400001525879</ele>
        <time>2019-07-16T21:42:17.000Z</time>
      </trkpt>
      <trkpt lat="50.7802" lon="2.71578">
        <ele>68.800003051758</ele>
        <time>2019-07-16T21:42:18.000Z</time>
      </trkpt>
      <trkpt lat="50.78024" lon="2.71568">
        <ele>68.199996948242</ele>
        <time>2019-07-16T21:42:19.000Z</time>
      </trkpt>
      <trkpt lat="50.78051" lon="2.71477">
        <ele>61</ele>
        <time>2019-07-16T21:42:27.000Z</time>
      </trkpt>
      <trkpt lat="50.78053" lon="2.71464">
        <ele>60.200000762939</ele>
        <time>2019-07-16T21:42:28.000Z</time>
      </trkpt>
      <trkpt lat="50.78053" lon="2.71451">
        <ele>59.599998474121</ele>
        <time>2019-07-16T21:42:29.000Z</time>
      </trkpt>
      <trkpt lat="50.78052" lon="2.71438">
        <ele>59</ele>
        <time>2019-07-16T21:42:30.000Z</time>
      </trkpt>
      <trkpt lat="50.7805" lon="2.71425">
        <ele>58.599998474121</ele>
        <time>2019-07-16T21:42:31.000Z</time>
      </trkpt>
      <trkpt lat="50.78041" lon="2.71389">
        <ele>57.599998474121</ele>
        <time>2019-07-16T21:42:34.000Z</time>
      </trkpt>
      <trkpt lat="50.7804" lon="2.71377">
        <ele>57.400001525879</ele>
        <time>2019-07-16T21:42:35.000Z</time>
      </trkpt>
      <trkpt lat="50.7804" lon="2.71365">
        <ele>56.799999237061</ele>
        <time>2019-07-16T21:42:36.000Z</time>
      </trkpt>
      <trkpt lat="50.78044" lon="2.71307">
        <ele>55</ele>
        <time>2019-07-16T21:42:40.000Z</time>
      </trkpt>
      <trkpt lat="50.78048" lon="2.71256">
        <ele>53.400001525879</ele>
        <time>2019-07-16T21:42:43.000Z</time>
      </trkpt>
      <trkpt lat="50.78047" lon="2.71206">
        <ele>52.400001525879</ele>
        <time>2019-07-16T21:42:46.000Z</time>
      </trkpt>
      <trkpt lat="50.78043" lon="2.71158">
        <ele>51.400001525879</ele>
        <time>2019-07-16T21:42:49.000Z</time>
      </trkpt>
      <trkpt lat="50.78043" lon="2.71143">
        <ele>51.200000762939</ele>
        <time>2019-07-16T21:42:50.000Z</time>
      </trkpt>
      <trkpt lat="50.78045" lon="2.71051">
        <ele>50</ele>
        <time>2019-07-16T21:42:57.000Z</time>
      </trkpt>
      <trkpt lat="50.78043" lon="2.71038">
        <ele>49.799999237061</ele>
        <time>2019-07-16T21:42:58.000Z</time>
      </trkpt>
      <trkpt lat="50.78041" lon="2.71025">
        <ele>49.799999237061</ele>
        <time>2019-07-16T21:42:59.000Z</time>
      </trkpt>
      <trkpt lat="50.78016" lon="2.70856">
        <ele>44</ele>
        <time>2019-07-16T21:43:12.000Z</time>
      </trkpt>
      <trkpt lat="50.78" lon="2.70748">
        <ele>41.599998474121</ele>
        <time>2019-07-16T21:43:20.000Z</time>
      </trkpt>
      <trkpt lat="50.77981" lon="2.70618">
        <ele>40</ele>
        <time>2019-07-16T21:43:29.000Z</time>
      </trkpt>
      <trkpt lat="50.7797" lon="2.7053">
        <ele>40</ele>
        <time>2019-07-16T21:43:36.000Z</time>
      </trkpt>
      <trkpt lat="50.7797" lon="2.70519">
        <ele>40</ele>
        <time>2019-07-16T21:43:37.000Z</time>
      </trkpt>
      <trkpt lat="50.77972" lon="2.70508">
        <ele>40</ele>
        <time>2019-07-16T21:43:38.000Z</time>
      </trkpt>
      <trkpt lat="50.77976" lon="2.70499">
        <ele>40</ele>
        <time>2019-07-16T21:43:39.000Z</time>
      </trkpt>
      <trkpt lat="50.77981" lon="2.70493">
        <ele>40.200000762939</ele>
        <time>2019-07-16T21:43:40.000Z</time>
      </trkpt>
      <trkpt lat="50.77987" lon="2.70488">
        <ele>40.400001525879</ele>
        <time>2019-07-16T21:43:41.000Z</time>
      </trkpt>
      <trkpt lat="50.77992" lon="2.70483">
        <ele>40.400001525879</ele>
        <time>2019-07-16T21:43:42.000Z</time>
      </trkpt>
      <trkpt lat="50.78014" lon="2.70462">
        <ele>41</ele>
        <time>2019-07-16T21:43:46.000Z</time>
      </trkpt>
      <trkpt lat="50.78018" lon="2.70456">
        <ele>41</ele>
        <time>2019-07-16T21:43:47.000Z</time>
      </trkpt>
      <trkpt lat="50.78022" lon="2.70449">
        <ele>41</ele>
        <time>2019-07-16T21:43:48.000Z</time>
      </trkpt>
      <trkpt lat="50.78081" lon="2.70336">
        <ele>41.400001525879</ele>
        <time>2019-07-16T21:44:03.000Z</time>
      </trkpt>
      <trkpt lat="50.78132" lon="2.7024">
        <ele>43</ele>
        <time>2019-07-16T21:44:18.000Z</time>
      </trkpt>
      <trkpt lat="50.78135" lon="2.70237">
        <ele>43</ele>
        <time>2019-07-16T21:44:19.000Z</time>
      </trkpt>
      <trkpt lat="50.78139" lon="2.70236">
        <ele>43</ele>
        <time>2019-07-16T21:44:20.000Z</time>
      </trkpt>
      <trkpt lat="50.78142" lon="2.70239">
        <ele>43.200000762939</ele>
        <time>2019-07-16T21:44:21.000Z</time>
      </trkpt>
      <trkpt lat="50.78145" lon="2.70243">
        <ele>43.200000762939</ele>
        <time>2019-07-16T21:44:22.000Z</time>
      </trkpt>
      <trkpt lat="50.78148" lon="2.70248">
        <ele>43.400001525879</ele>
        <time>2019-07-16T21:44:23.000Z</time>
      </trkpt>
      <trkpt lat="50.78194" lon="2.70328">
        <ele>44.200000762939</ele>
        <time>2019-07-16T21:44:36.000Z</time>
      </trkpt>
      <trkpt lat="50.782" lon="2.7034">
        <ele>44.200000762939</ele>
        <time>2019-07-16T21:44:38.000Z</time>
      </trkpt>
      <trkpt lat="50.78204" lon="2.70345">
        <ele>44.400001525879</ele>
        <time>2019-07-16T21:44:39.000Z</time>
      </trkpt>
      <trkpt lat="50.78208" lon="2.70349">
        <ele>44.599998474121</ele>
        <time>2019-07-16T21:44:40.000Z</time>
      </trkpt>
      <trkpt lat="50.78212" lon="2.70353">
        <ele>44.599998474121</ele>
        <time>2019-07-16T21:44:41.000Z</time>
      </trkpt>
      <trkpt lat="50.78217" lon="2.70356">
        <ele>44.799999237061</ele>
        <time>2019-07-16T21:44:42.000Z</time>
      </trkpt>
      <trkpt lat="50.78222" lon="2.70358">
        <ele>45</ele>
        <time>2019-07-16T21:44:43.000Z</time>
      </trkpt>
      <trkpt lat="50.78227" lon="2.7036">
        <ele>45.400001525879</ele>
        <time>2019-07-16T21:44:44.000Z</time>
      </trkpt>
      <trkpt lat="50.78232" lon="2.7036">
        <ele>45.599998474121</ele>
        <time>2019-07-16T21:44:45.000Z</time>
      </trkpt>
      <trkpt lat="50.78236" lon="2.70359">
        <ele>45.799999237061</ele>
        <time>2019-07-16T21:44:46.000Z</time>
      </trkpt>
      <trkpt lat="50.78241" lon="2.70358">
        <ele>46.200000762939</ele>
        <time>2019-07-16T21:44:47.000Z</time>
      </trkpt>
      <trkpt lat="50.78246" lon="2.70357">
        <ele>46.599998474121</ele>
        <time>2019-07-16T21:44:48.000Z</time>
      </trkpt>
      <trkpt lat="50.7825" lon="2.70355">
        <ele>46.799999237061</ele>
        <time>2019-07-16T21:44:49.000Z</time>
      </trkpt>
      <trkpt lat="50.78254" lon="2.70352">
        <ele>47.200000762939</ele>
        <time>2019-07-16T21:44:50.000Z</time>
      </trkpt>
      <trkpt lat="50.78258" lon="2.70349">
        <ele>47.599998474121</ele>
        <time>2019-07-16T21:44:51.000Z</time>
      </trkpt>
      <trkpt lat="50.7827" lon="2.70338">
        <ele>48.400001525879</ele>
        <time>2019-07-16T21:44:54.000Z</time>
      </trkpt>
      <trkpt lat="50.78315" lon="2.70279">
        <ele>51.799999237061</ele>
        <time>2019-07-16T21:45:09.000Z</time>
      </trkpt>
      <trkpt lat="50.78347" lon="2.70248">
        <ele>54.599998474121</ele>
        <time>2019-07-16T21:45:20.000Z</time>
      </trkpt>
      <trkpt lat="50.78372" lon="2.70228">
        <ele>56.799999237061</ele>
        <time>2019-07-16T21:45:29.000Z</time>
      </trkpt>
      <trkpt lat="50.78405" lon="2.70219">
        <ele>59.599998474121</ele>
        <time>2019-07-16T21:45:40.000Z</time>
      </trkpt>
      <trkpt lat="50.7845" lon="2.70234">
        <ele>62.599998474121</ele>
        <time>2019-07-16T21:45:54.000Z</time>
      </trkpt>
      <trkpt lat="50.78493" lon="2.70243">
        <ele>65.599998474121</ele>
        <time>2019-07-16T21:46:08.000Z</time>
      </trkpt>
      <trkpt lat="50.78539" lon="2.70245">
        <ele>68.400001525879</ele>
        <time>2019-07-16T21:46:23.000Z</time>
      </trkpt>
      <trkpt lat="50.78576" lon="2.70223">
        <ele>71.800003051758</ele>
        <time>2019-07-16T21:46:36.000Z</time>
      </trkpt>
      <trkpt lat="50.78608" lon="2.702">
        <ele>75.599998474121</ele>
        <time>2019-07-16T21:46:48.000Z</time>
      </trkpt>
      <trkpt lat="50.78638" lon="2.70175">
        <ele>79.800003051758</ele>
        <time>2019-07-16T21:47:00.000Z</time>
      </trkpt>
      <trkpt lat="50.78665" lon="2.70152">
        <ele>81.800003051758</ele>
        <time>2019-07-16T21:47:12.000Z</time>
      </trkpt>
      <trkpt lat="50.78691" lon="2.70129">
        <ele>83.800003051758</ele>
        <time>2019-07-16T21:47:24.000Z</time>
      </trkpt>
      <trkpt lat="50.78723" lon="2.70099">
        <ele>86.800003051758</ele>
        <time>2019-07-16T21:47:37.000Z</time>
      </trkpt>
      <trkpt lat="50.78767" lon="2.70059">
        <ele>92.800003051758</ele>
        <time>2019-07-16T21:47:53.000Z</time>
      </trkpt>
      <trkpt lat="50.78804" lon="2.7002">
        <ele>97.800003051758</ele>
        <time>2019-07-16T21:48:08.000Z</time>
      </trkpt>
      <trkpt lat="50.78841" lon="2.69986">
        <ele>102.19999694824</ele>
        <time>2019-07-16T21:48:22.000Z</time>
      </trkpt>
      <trkpt lat="50.78871" lon="2.69995">
        <ele>107.59999847412</ele>
        <time>2019-07-16T21:48:32.000Z</time>
      </trkpt>
      <trkpt lat="50.7889" lon="2.70055">
        <ele>110.19999694824</ele>
        <time>2019-07-16T21:48:45.000Z</time>
      </trkpt>
      <trkpt lat="50.78896" lon="2.70066">
        <ele>109.59999847412</ele>
        <time>2019-07-16T21:48:48.000Z</time>
      </trkpt>
      <trkpt lat="50.78899" lon="2.70068">
        <ele>109.40000152588</ele>
        <time>2019-07-16T21:48:49.000Z</time>
      </trkpt>
      <trkpt lat="50.78901" lon="2.70071">
        <ele>109.19999694824</ele>
        <time>2019-07-16T21:48:50.000Z</time>
      </trkpt>
      <trkpt lat="50.78927" lon="2.70131">
        <ele>108</ele>
        <time>2019-07-16T21:49:04.000Z</time>
      </trkpt>
      <trkpt lat="50.78946" lon="2.70173">
        <ele>106.59999847412</ele>
        <time>2019-07-16T21:49:14.000Z</time>
      </trkpt>
      <trkpt lat="50.78969" lon="2.70198">
        <ele>105.80000305176</ele>
        <time>2019-07-16T21:49:22.000Z</time>
      </trkpt>
      <trkpt lat="50.78977" lon="2.70207">
        <ele>105.80000305176</ele>
        <time>2019-07-16T21:49:24.000Z</time>
      </trkpt>
      <trkpt lat="50.7899" lon="2.70219">
        <ele>106</ele>
        <time>2019-07-16T21:49:27.000Z</time>
      </trkpt>
      <trkpt lat="50.79032" lon="2.70231">
        <ele>107.40000152588</ele>
        <time>2019-07-16T21:49:38.000Z</time>
      </trkpt>
      <trkpt lat="50.79071" lon="2.70139">
        <ele>107.59999847412</ele>
        <time>2019-07-16T21:49:52.000Z</time>
      </trkpt>
      <trkpt lat="50.79098" lon="2.70032">
        <ele>106.19999694824</ele>
        <time>2019-07-16T21:50:06.000Z</time>
      </trkpt>
      <trkpt lat="50.79102" lon="2.70003">
        <ele>105.40000152588</ele>
        <time>2019-07-16T21:50:09.000Z</time>
      </trkpt>
      <trkpt lat="50.79102" lon="2.69993">
        <ele>105</ele>
        <time>2019-07-16T21:50:10.000Z</time>
      </trkpt>
      <trkpt lat="50.791" lon="2.69964">
        <ele>104</ele>
        <time>2019-07-16T21:50:13.000Z</time>
      </trkpt>
      <trkpt lat="50.79086" lon="2.69826">
        <ele>99.199996948242</ele>
        <time>2019-07-16T21:50:26.000Z</time>
      </trkpt>
      <trkpt lat="50.79065" lon="2.69727">
        <ele>97.800003051758</ele>
        <time>2019-07-16T21:50:34.000Z</time>
      </trkpt>
      <trkpt lat="50.7903" lon="2.6953">
        <ele>96.400001525879</ele>
        <time>2019-07-16T21:50:50.000Z</time>
      </trkpt>
      <trkpt lat="50.79006" lon="2.69418">
        <ele>97.400001525879</ele>
        <time>2019-07-16T21:51:02.000Z</time>
      </trkpt>
      <trkpt lat="50.78992" lon="2.69395">
        <ele>97.599998474121</ele>
        <time>2019-07-16T21:51:08.000Z</time>
      </trkpt>
      <trkpt lat="50.78988" lon="2.69395">
        <ele>97.400001525879</ele>
        <time>2019-07-16T21:51:09.000Z</time>
      </trkpt>
      <trkpt lat="50.78983" lon="2.69396">
        <ele>97.400001525879</ele>
        <time>2019-07-16T21:51:10.000Z</time>
      </trkpt>
      <trkpt lat="50.78978" lon="2.69396">
        <ele>97.400001525879</ele>
        <time>2019-07-16T21:51:11.000Z</time>
      </trkpt>
      <trkpt lat="50.78972" lon="2.69397">
        <ele>97.199996948242</ele>
        <time>2019-07-16T21:51:12.000Z</time>
      </trkpt>
      <trkpt lat="50.78927" lon="2.69402">
        <ele>93.599998474121</ele>
        <time>2019-07-16T21:51:18.000Z</time>
      </trkpt>
      <trkpt lat="50.78881" lon="2.69406">
        <ele>89.599998474121</ele>
        <time>2019-07-16T21:51:23.000Z</time>
      </trkpt>
      <trkpt lat="50.7884" lon="2.69409">
        <ele>86.599998474121</ele>
        <time>2019-07-16T21:51:27.000Z</time>
      </trkpt>
      <trkpt lat="50.78788" lon="2.69414">
        <ele>82.199996948242</ele>
        <time>2019-07-16T21:51:32.000Z</time>
      </trkpt>
      <trkpt lat="50.78745" lon="2.69414">
        <ele>77.599998474121</ele>
        <time>2019-07-16T21:51:36.000Z</time>
      </trkpt>
      <trkpt lat="50.78692" lon="2.69398">
        <ele>72</ele>
        <time>2019-07-16T21:51:41.000Z</time>
      </trkpt>
      <trkpt lat="50.7864" lon="2.69375">
        <ele>67</ele>
        <time>2019-07-16T21:51:46.000Z</time>
      </trkpt>
      <trkpt lat="50.7862" lon="2.69368">
        <ele>65.599998474121</ele>
        <time>2019-07-16T21:51:48.000Z</time>
      </trkpt>
      <trkpt lat="50.78579" lon="2.69363">
        <ele>63</ele>
        <time>2019-07-16T21:51:52.000Z</time>
      </trkpt>
      <trkpt lat="50.78569" lon="2.69363">
        <ele>62.599998474121</ele>
        <time>2019-07-16T21:51:53.000Z</time>
      </trkpt>
      <trkpt lat="50.78532" lon="2.6937">
        <ele>60.599998474121</ele>
        <time>2019-07-16T21:51:57.000Z</time>
      </trkpt>
      <trkpt lat="50.78485" lon="2.69382">
        <ele>58.799999237061</ele>
        <time>2019-07-16T21:52:03.000Z</time>
      </trkpt>
      <trkpt lat="50.78439" lon="2.69392">
        <ele>58.799999237061</ele>
        <time>2019-07-16T21:52:10.000Z</time>
      </trkpt>
      <trkpt lat="50.78426" lon="2.6939">
        <ele>58.599998474121</ele>
        <time>2019-07-16T21:52:13.000Z</time>
      </trkpt>
      <trkpt lat="50.78424" lon="2.69385">
        <ele>58.799999237061</ele>
        <time>2019-07-16T21:52:14.000Z</time>
      </trkpt>
      <trkpt lat="50.78424" lon="2.69379">
        <ele>58.799999237061</ele>
        <time>2019-07-16T21:52:15.000Z</time>
      </trkpt>
      <trkpt lat="50.78424" lon="2.69374">
        <ele>59</ele>
        <time>2019-07-16T21:52:16.000Z</time>
      </trkpt>
      <trkpt lat="50.78425" lon="2.69368">
        <ele>58.799999237061</ele>
        <time>2019-07-16T21:52:17.000Z</time>
      </trkpt>
      <trkpt lat="50.78426" lon="2.69361">
        <ele>58.599998474121</ele>
        <time>2019-07-16T21:52:18.000Z</time>
      </trkpt>
      <trkpt lat="50.78436" lon="2.69322">
        <ele>58.200000762939</ele>
        <time>2019-07-16T21:52:23.000Z</time>
      </trkpt>
      <trkpt lat="50.78438" lon="2.69306">
        <ele>58.599998474121</ele>
        <time>2019-07-16T21:52:25.000Z</time>
      </trkpt>
      <trkpt lat="50.7844" lon="2.69299">
        <ele>58.599998474121</ele>
        <time>2019-07-16T21:52:26.000Z</time>
      </trkpt>
      <trkpt lat="50.78444" lon="2.69284">
        <ele>58.599998474121</ele>
        <time>2019-07-16T21:52:28.000Z</time>
      </trkpt>
      <trkpt lat="50.78464" lon="2.69192">
        <ele>59</ele>
        <time>2019-07-16T21:52:39.000Z</time>
      </trkpt>
      <trkpt lat="50.78468" lon="2.69144">
        <ele>60</ele>
        <time>2019-07-16T21:52:45.000Z</time>
      </trkpt>
      <trkpt lat="50.78471" lon="2.69138">
        <ele>60.200000762939</ele>
        <time>2019-07-16T21:52:46.000Z</time>
      </trkpt>
      <trkpt lat="50.78474" lon="2.69133">
        <ele>60.400001525879</ele>
        <time>2019-07-16T21:52:47.000Z</time>
      </trkpt>
      <trkpt lat="50.78478" lon="2.69129">
        <ele>60.400001525879</ele>
        <time>2019-07-16T21:52:48.000Z</time>
      </trkpt>
      <trkpt lat="50.78482" lon="2.69127">
        <ele>60.599998474121</ele>
        <time>2019-07-16T21:52:49.000Z</time>
      </trkpt>
      <trkpt lat="50.78487" lon="2.69124">
        <ele>60.599998474121</ele>
        <time>2019-07-16T21:52:50.000Z</time>
      </trkpt>
      <trkpt lat="50.78551" lon="2.69077">
        <ele>62.400001525879</ele>
        <time>2019-07-16T21:53:05.000Z</time>
      </trkpt>
      <trkpt lat="50.78555" lon="2.69075">
        <ele>62.400001525879</ele>
        <time>2019-07-16T21:53:06.000Z</time>
      </trkpt>
      <trkpt lat="50.7856" lon="2.69074">
        <ele>62.400001525879</ele>
        <time>2019-07-16T21:53:07.000Z</time>
      </trkpt>
      <trkpt lat="50.78564" lon="2.69072">
        <ele>62.599998474121</ele>
        <time>2019-07-16T21:53:08.000Z</time>
      </trkpt>
      <trkpt lat="50.78568" lon="2.69069">
        <ele>62.599998474121</ele>
        <time>2019-07-16T21:53:09.000Z</time>
      </trkpt>
      <trkpt lat="50.78572" lon="2.69067">
        <ele>62.799999237061</ele>
        <time>2019-07-16T21:53:10.000Z</time>
      </trkpt>
      <trkpt lat="50.78637" lon="2.69015">
        <ele>62.799999237061</ele>
        <time>2019-07-16T21:53:27.000Z</time>
      </trkpt>
      <trkpt lat="50.78703" lon="2.6893">
        <ele>66.199996948242</ele>
        <time>2019-07-16T21:53:43.000Z</time>
      </trkpt>
      <trkpt lat="50.78772" lon="2.68861">
        <ele>71.199996948242</ele>
        <time>2019-07-16T21:54:00.000Z</time>
      </trkpt>
      <trkpt lat="50.78794" lon="2.68824">
        <ele>72.800003051758</ele>
        <time>2019-07-16T21:54:09.000Z</time>
      </trkpt>
      <trkpt lat="50.78819" lon="2.68769">
        <ele>76.199996948242</ele>
        <time>2019-07-16T21:54:22.000Z</time>
      </trkpt>
      <trkpt lat="50.78847" lon="2.68707">
        <ele>79.599998474121</ele>
        <time>2019-07-16T21:54:36.000Z</time>
      </trkpt>
      <trkpt lat="50.78875" lon="2.6866">
        <ele>81.800003051758</ele>
        <time>2019-07-16T21:54:49.000Z</time>
      </trkpt>
      <trkpt lat="50.78901" lon="2.68615">
        <ele>86</ele>
        <time>2019-07-16T21:55:02.000Z</time>
      </trkpt>
      <trkpt lat="50.78931" lon="2.68571">
        <ele>90.199996948242</ele>
        <time>2019-07-16T21:55:16.000Z</time>
      </trkpt>
      <trkpt lat="50.78956" lon="2.68541">
        <ele>93.599998474121</ele>
        <time>2019-07-16T21:55:28.000Z</time>
      </trkpt>
      <trkpt lat="50.78982" lon="2.68511">
        <ele>97</ele>
        <time>2019-07-16T21:55:40.000Z</time>
      </trkpt>
      <trkpt lat="50.79" lon="2.68472">
        <ele>99.199996948242</ele>
        <time>2019-07-16T21:55:52.000Z</time>
      </trkpt>
      <trkpt lat="50.79005" lon="2.68419">
        <ele>102.80000305176</ele>
        <time>2019-07-16T21:56:04.000Z</time>
      </trkpt>
      <trkpt lat="50.7901" lon="2.68361">
        <ele>106</ele>
        <time>2019-07-16T21:56:17.000Z</time>
      </trkpt>
      <trkpt lat="50.79011" lon="2.68281">
        <ele>110</ele>
        <time>2019-07-16T21:56:34.000Z</time>
      </trkpt>
      <trkpt lat="50.7902" lon="2.68201">
        <ele>114.59999847412</ele>
        <time>2019-07-16T21:56:50.000Z</time>
      </trkpt>
      <trkpt lat="50.79038" lon="2.6816">
        <ele>119.40000152588</ele>
        <time>2019-07-16T21:57:01.000Z</time>
      </trkpt>
      <trkpt lat="50.79058" lon="2.68127">
        <ele>123</ele>
        <time>2019-07-16T21:57:11.000Z</time>
      </trkpt>
      <trkpt lat="50.79073" lon="2.68101">
        <ele>126.19999694824</ele>
        <time>2019-07-16T21:57:19.000Z</time>
      </trkpt>
      <trkpt lat="50.7909" lon="2.6807">
        <ele>128</ele>
        <time>2019-07-16T21:57:28.000Z</time>
      </trkpt>
      <trkpt lat="50.79108" lon="2.68011">
        <ele>129.60000610352</ele>
        <time>2019-07-16T21:57:43.000Z</time>
      </trkpt>
      <trkpt lat="50.79132" lon="2.67951">
        <ele>131.19999694824</ele>
        <time>2019-07-16T21:57:58.000Z</time>
      </trkpt>
      <trkpt lat="50.79161" lon="2.67899">
        <ele>130.39999389648</ele>
        <time>2019-07-16T21:58:12.000Z</time>
      </trkpt>
      <trkpt lat="50.79186" lon="2.67837">
        <ele>128.19999694824</ele>
        <time>2019-07-16T21:58:24.000Z</time>
      </trkpt>
      <trkpt lat="50.79189" lon="2.67832">
        <ele>128</ele>
        <time>2019-07-16T21:58:25.000Z</time>
      </trkpt>
      <trkpt lat="50.79191" lon="2.67826">
        <ele>127.80000305176</ele>
        <time>2019-07-16T21:58:26.000Z</time>
      </trkpt>
      <trkpt lat="50.79192" lon="2.67819">
        <ele>127.59999847412</ele>
        <time>2019-07-16T21:58:27.000Z</time>
      </trkpt>
      <trkpt lat="50.7919" lon="2.67811">
        <ele>127.59999847412</ele>
        <time>2019-07-16T21:58:28.000Z</time>
      </trkpt>
      <trkpt lat="50.79187" lon="2.67805">
        <ele>127.40000152588</ele>
        <time>2019-07-16T21:58:29.000Z</time>
      </trkpt>
      <trkpt lat="50.79183" lon="2.678">
        <ele>127.59999847412</ele>
        <time>2019-07-16T21:58:30.000Z</time>
      </trkpt>
      <trkpt lat="50.79178" lon="2.67795">
        <ele>127.59999847412</ele>
        <time>2019-07-16T21:58:31.000Z</time>
      </trkpt>
      <trkpt lat="50.79111" lon="2.67747">
        <ele>128.19999694824</ele>
        <time>2019-07-16T21:58:46.000Z</time>
      </trkpt>
      <trkpt lat="50.79066" lon="2.67725">
        <ele>128.60000610352</ele>
        <time>2019-07-16T21:58:54.000Z</time>
      </trkpt>
      <trkpt lat="50.79051" lon="2.67718">
        <ele>128.60000610352</ele>
        <time>2019-07-16T21:58:56.000Z</time>
      </trkpt>
      <trkpt lat="50.79042" lon="2.67716">
        <ele>128.39999389648</ele>
        <time>2019-07-16T21:58:57.000Z</time>
      </trkpt>
      <trkpt lat="50.79033" lon="2.67714">
        <ele>128.19999694824</ele>
        <time>2019-07-16T21:58:58.000Z</time>
      </trkpt>
      <trkpt lat="50.79023" lon="2.67715">
        <ele>127.80000305176</ele>
        <time>2019-07-16T21:58:59.000Z</time>
      </trkpt>
      <trkpt lat="50.79015" lon="2.67716">
        <ele>127.19999694824</ele>
        <time>2019-07-16T21:59:00.000Z</time>
      </trkpt>
      <trkpt lat="50.79006" lon="2.67717">
        <ele>126.19999694824</ele>
        <time>2019-07-16T21:59:01.000Z</time>
      </trkpt>
      <trkpt lat="50.78972" lon="2.6772">
        <ele>122.80000305176</ele>
        <time>2019-07-16T21:59:05.000Z</time>
      </trkpt>
      <trkpt lat="50.78964" lon="2.67717">
        <ele>122.19999694824</ele>
        <time>2019-07-16T21:59:06.000Z</time>
      </trkpt>
      <trkpt lat="50.78933" lon="2.67699">
        <ele>120.80000305176</ele>
        <time>2019-07-16T21:59:10.000Z</time>
      </trkpt>
      <trkpt lat="50.78858" lon="2.67604">
        <ele>114.59999847412</ele>
        <time>2019-07-16T21:59:22.000Z</time>
      </trkpt>
      <trkpt lat="50.78853" lon="2.67593">
        <ele>114</ele>
        <time>2019-07-16T21:59:23.000Z</time>
      </trkpt>
      <trkpt lat="50.78849" lon="2.67583">
        <ele>113.40000152588</ele>
        <time>2019-07-16T21:59:24.000Z</time>
      </trkpt>
      <trkpt lat="50.78846" lon="2.67573">
        <ele>113.19999694824</ele>
        <time>2019-07-16T21:59:25.000Z</time>
      </trkpt>
      <trkpt lat="50.78808" lon="2.67435">
        <ele>106.80000305176</ele>
        <time>2019-07-16T21:59:37.000Z</time>
      </trkpt>
      <trkpt lat="50.78795" lon="2.67397">
        <ele>105.59999847412</ele>
        <time>2019-07-16T21:59:41.000Z</time>
      </trkpt>
      <trkpt lat="50.78792" lon="2.67386">
        <ele>105.40000152588</ele>
        <time>2019-07-16T21:59:42.000Z</time>
      </trkpt>
      <trkpt lat="50.78772" lon="2.67308">
        <ele>105.40000152588</ele>
        <time>2019-07-16T21:59:51.000Z</time>
      </trkpt>
      <trkpt lat="50.78746" lon="2.67207">
        <ele>110.80000305176</ele>
        <time>2019-07-16T22:00:06.000Z</time>
      </trkpt>
      <trkpt lat="50.78729" lon="2.67119">
        <ele>114.59999847412</ele>
        <time>2019-07-16T22:00:20.000Z</time>
      </trkpt>
      <trkpt lat="50.78708" lon="2.67033">
        <ele>117.40000152588</ele>
        <time>2019-07-16T22:00:35.000Z</time>
      </trkpt>
      <trkpt lat="50.78696" lon="2.66976">
        <ele>121.19999694824</ele>
        <time>2019-07-16T22:00:46.000Z</time>
      </trkpt>
      <trkpt lat="50.78684" lon="2.66928">
        <ele>126</ele>
        <time>2019-07-16T22:00:56.000Z</time>
      </trkpt>
      <trkpt lat="50.78677" lon="2.66891">
        <ele>130.19999694824</ele>
        <time>2019-07-16T22:01:05.000Z</time>
      </trkpt>
      <trkpt lat="50.78667" lon="2.66852">
        <ele>134.39999389648</ele>
        <time>2019-07-16T22:01:15.000Z</time>
      </trkpt>
      <trkpt lat="50.78654" lon="2.66806">
        <ele>138.19999694824</ele>
        <time>2019-07-16T22:01:27.000Z</time>
      </trkpt>
      <trkpt lat="50.78646" lon="2.66766">
        <ele>141</ele>
        <time>2019-07-16T22:01:38.000Z</time>
      </trkpt>
      <trkpt lat="50.78639" lon="2.66719">
        <ele>143.60000610352</ele>
        <time>2019-07-16T22:01:50.000Z</time>
      </trkpt>
      <trkpt lat="50.78628" lon="2.66685">
        <ele>146.19999694824</ele>
        <time>2019-07-16T22:02:00.000Z</time>
      </trkpt>
      <trkpt lat="50.78612" lon="2.66658">
        <ele>148.80000305176</ele>
        <time>2019-07-16T22:02:09.000Z</time>
      </trkpt>
      <trkpt lat="50.78592" lon="2.66631">
        <ele>151.39999389648</ele>
        <time>2019-07-16T22:02:20.000Z</time>
      </trkpt>
      <trkpt lat="50.78553" lon="2.6661">
        <ele>155.60000610352</ele>
        <time>2019-07-16T22:02:35.000Z</time>
      </trkpt>
      <trkpt lat="50.78507" lon="2.6661">
        <ele>158.80000305176</ele>
        <time>2019-07-16T22:02:50.000Z</time>
      </trkpt>
      <trkpt lat="50.78463" lon="2.66625">
        <ele>161</ele>
        <time>2019-07-16T22:03:04.000Z</time>
      </trkpt>
      <trkpt lat="50.78449" lon="2.66643">
        <ele>160.80000305176</ele>
        <time>2019-07-16T22:03:09.000Z</time>
      </trkpt>
      <trkpt lat="50.78447" lon="2.66648">
        <ele>160.80000305176</ele>
        <time>2019-07-16T22:03:10.000Z</time>
      </trkpt>
      <trkpt lat="50.78445" lon="2.66654">
        <ele>161</ele>
        <time>2019-07-16T22:03:11.000Z</time>
      </trkpt>
      <trkpt lat="50.78443" lon="2.6666">
        <ele>161.19999694824</ele>
        <time>2019-07-16T22:03:12.000Z</time>
      </trkpt>
      <trkpt lat="50.78441" lon="2.66666">
        <ele>161.60000610352</ele>
        <time>2019-07-16T22:03:13.000Z</time>
      </trkpt>
      <trkpt lat="50.78439" lon="2.66673">
        <ele>161.39999389648</ele>
        <time>2019-07-16T22:03:14.000Z</time>
      </trkpt>
      <trkpt lat="50.78438" lon="2.66679">
        <ele>161</ele>
        <time>2019-07-16T22:03:15.000Z</time>
      </trkpt>
      <trkpt lat="50.78414" lon="2.66745">
        <ele>161</ele>
        <time>2019-07-16T22:03:26.000Z</time>
      </trkpt>
      <trkpt lat="50.78411" lon="2.66749">
        <ele>161.60000610352</ele>
        <time>2019-07-16T22:03:27.000Z</time>
      </trkpt>
      <trkpt lat="50.78407" lon="2.66754">
        <ele>162</ele>
        <time>2019-07-16T22:03:28.000Z</time>
      </trkpt>
      <trkpt lat="50.78402" lon="2.66757">
        <ele>162.39999389648</ele>
        <time>2019-07-16T22:03:29.000Z</time>
      </trkpt>
      <trkpt lat="50.78398" lon="2.6676">
        <ele>162.80000305176</ele>
        <time>2019-07-16T22:03:30.000Z</time>
      </trkpt>
      <trkpt lat="50.78393" lon="2.66761">
        <ele>163.80000305176</ele>
        <time>2019-07-16T22:03:31.000Z</time>
      </trkpt>
      <trkpt lat="50.78388" lon="2.66761">
        <ele>164.80000305176</ele>
        <time>2019-07-16T22:03:32.000Z</time>
      </trkpt>
      <trkpt lat="50.78384" lon="2.66761">
        <ele>164.80000305176</ele>
        <time>2019-07-16T22:03:33.000Z</time>
      </trkpt>
      <trkpt lat="50.7837" lon="2.66758">
        <ele>164.39999389648</ele>
        <time>2019-07-16T22:03:36.000Z</time>
      </trkpt>
      <trkpt lat="50.78319" lon="2.66738">
        <ele>162.80000305176</ele>
        <time>2019-07-16T22:03:50.000Z</time>
      </trkpt>
      <trkpt lat="50.78302" lon="2.66732">
        <ele>161.80000305176</ele>
        <time>2019-07-16T22:03:54.000Z</time>
      </trkpt>
      <trkpt lat="50.78283" lon="2.66726">
        <ele>159.19999694824</ele>
        <time>2019-07-16T22:03:58.000Z</time>
      </trkpt>
      <trkpt lat="50.78272" lon="2.66723">
        <ele>157.80000305176</ele>
        <time>2019-07-16T22:04:00.000Z</time>
      </trkpt>
      <trkpt lat="50.78267" lon="2.66724">
        <ele>157</ele>
        <time>2019-07-16T22:04:01.000Z</time>
      </trkpt>
      <trkpt lat="50.78261" lon="2.66727">
        <ele>156.39999389648</ele>
        <time>2019-07-16T22:04:02.000Z</time>
      </trkpt>
      <trkpt lat="50.78238" lon="2.66744">
        <ele>154</ele>
        <time>2019-07-16T22:04:06.000Z</time>
      </trkpt>
      <trkpt lat="50.78233" lon="2.66749">
        <ele>153.39999389648</ele>
        <time>2019-07-16T22:04:07.000Z</time>
      </trkpt>
      <trkpt lat="50.78229" lon="2.66756">
        <ele>152.80000305176</ele>
        <time>2019-07-16T22:04:08.000Z</time>
      </trkpt>
      <trkpt lat="50.78224" lon="2.66764">
        <ele>152.39999389648</ele>
        <time>2019-07-16T22:04:09.000Z</time>
      </trkpt>
      <trkpt lat="50.7822" lon="2.66773">
        <ele>152</ele>
        <time>2019-07-16T22:04:10.000Z</time>
      </trkpt>
      <trkpt lat="50.78217" lon="2.66783">
        <ele>151.60000610352</ele>
        <time>2019-07-16T22:04:11.000Z</time>
      </trkpt>
      <trkpt lat="50.78215" lon="2.66793">
        <ele>151.39999389648</ele>
        <time>2019-07-16T22:04:12.000Z</time>
      </trkpt>
      <trkpt lat="50.78212" lon="2.66803">
        <ele>151</ele>
        <time>2019-07-16T22:04:13.000Z</time>
      </trkpt>
      <trkpt lat="50.78207" lon="2.6682">
        <ele>150.39999389648</ele>
        <time>2019-07-16T22:04:15.000Z</time>
      </trkpt>
      <trkpt lat="50.78191" lon="2.66855">
        <ele>147.60000610352</ele>
        <time>2019-07-16T22:04:20.000Z</time>
      </trkpt>
      <trkpt lat="50.78185" lon="2.66865">
        <ele>146.39999389648</ele>
        <time>2019-07-16T22:04:22.000Z</time>
      </trkpt>
      <trkpt lat="50.78181" lon="2.66869">
        <ele>145.80000305176</ele>
        <time>2019-07-16T22:04:23.000Z</time>
      </trkpt>
      <trkpt lat="50.78178" lon="2.66872">
        <ele>145.19999694824</ele>
        <time>2019-07-16T22:04:24.000Z</time>
      </trkpt>
      <trkpt lat="50.78174" lon="2.66872">
        <ele>144.60000610352</ele>
        <time>2019-07-16T22:04:25.000Z</time>
      </trkpt>
      <trkpt lat="50.7817" lon="2.6687">
        <ele>144</ele>
        <time>2019-07-16T22:04:26.000Z</time>
      </trkpt>
      <trkpt lat="50.78167" lon="2.66864">
        <ele>143.60000610352</ele>
        <time>2019-07-16T22:04:27.000Z</time>
      </trkpt>
      <trkpt lat="50.78166" lon="2.66859">
        <ele>143.39999389648</ele>
        <time>2019-07-16T22:04:28.000Z</time>
      </trkpt>
      <trkpt lat="50.78165" lon="2.66853">
        <ele>143.19999694824</ele>
        <time>2019-07-16T22:04:29.000Z</time>
      </trkpt>
      <trkpt lat="50.78154" lon="2.66743">
        <ele>140.60000610352</ele>
        <time>2019-07-16T22:04:42.000Z</time>
      </trkpt>
      <trkpt lat="50.78152" lon="2.66682">
        <ele>139.60000610352</ele>
        <time>2019-07-16T22:04:48.000Z</time>
      </trkpt>
      <trkpt lat="50.78153" lon="2.66671">
        <ele>139.39999389648</ele>
        <time>2019-07-16T22:04:49.000Z</time>
      </trkpt>
      <trkpt lat="50.78154" lon="2.66661">
        <ele>139.19999694824</ele>
        <time>2019-07-16T22:04:50.000Z</time>
      </trkpt>
      <trkpt lat="50.78155" lon="2.66652">
        <ele>139</ele>
        <time>2019-07-16T22:04:51.000Z</time>
      </trkpt>
      <trkpt lat="50.78157" lon="2.66643">
        <ele>139</ele>
        <time>2019-07-16T22:04:52.000Z</time>
      </trkpt>
      <trkpt lat="50.7816" lon="2.66634">
        <ele>139</ele>
        <time>2019-07-16T22:04:53.000Z</time>
      </trkpt>
      <trkpt lat="50.78162" lon="2.66626">
        <ele>139</ele>
        <time>2019-07-16T22:04:54.000Z</time>
      </trkpt>
      <trkpt lat="50.78187" lon="2.66564">
        <ele>138.39999389648</ele>
        <time>2019-07-16T22:05:01.000Z</time>
      </trkpt>
      <trkpt lat="50.782" lon="2.66528">
        <ele>137</ele>
        <time>2019-07-16T22:05:05.000Z</time>
      </trkpt>
      <trkpt lat="50.78212" lon="2.66471">
        <ele>132.80000305176</ele>
        <time>2019-07-16T22:05:11.000Z</time>
      </trkpt>
      <trkpt lat="50.78216" lon="2.66448">
        <ele>131.19999694824</ele>
        <time>2019-07-16T22:05:14.000Z</time>
      </trkpt>
      <trkpt lat="50.78216" lon="2.66441">
        <ele>130.39999389648</ele>
        <time>2019-07-16T22:05:15.000Z</time>
      </trkpt>
      <trkpt lat="50.78214" lon="2.66434">
        <ele>129.60000610352</ele>
        <time>2019-07-16T22:05:16.000Z</time>
      </trkpt>
      <trkpt lat="50.78212" lon="2.66429">
        <ele>128.80000305176</ele>
        <time>2019-07-16T22:05:17.000Z</time>
      </trkpt>
      <trkpt lat="50.78208" lon="2.66423">
        <ele>127.59999847412</ele>
        <time>2019-07-16T22:05:18.000Z</time>
      </trkpt>
      <trkpt lat="50.78203" lon="2.66417">
        <ele>126.59999847412</ele>
        <time>2019-07-16T22:05:19.000Z</time>
      </trkpt>
      <trkpt lat="50.78198" lon="2.66412">
        <ele>125.40000152588</ele>
        <time>2019-07-16T22:05:20.000Z</time>
      </trkpt>
      <trkpt lat="50.78172" lon="2.66386">
        <ele>119.40000152588</ele>
        <time>2019-07-16T22:05:26.000Z</time>
      </trkpt>
      <trkpt lat="50.78156" lon="2.66368">
        <ele>115.59999847412</ele>
        <time>2019-07-16T22:05:30.000Z</time>
      </trkpt>
      <trkpt lat="50.78152" lon="2.66364">
        <ele>114.59999847412</ele>
        <time>2019-07-16T22:05:31.000Z</time>
      </trkpt>
      <trkpt lat="50.78127" lon="2.66357">
        <ele>111.80000305176</ele>
        <time>2019-07-16T22:05:38.000Z</time>
      </trkpt>
      <trkpt lat="50.78124" lon="2.66361">
        <ele>112.19999694824</ele>
        <time>2019-07-16T22:05:39.000Z</time>
      </trkpt>
      <trkpt lat="50.78123" lon="2.66367">
        <ele>112.80000305176</ele>
        <time>2019-07-16T22:05:40.000Z</time>
      </trkpt>
      <trkpt lat="50.78121" lon="2.66374">
        <ele>113.40000152588</ele>
        <time>2019-07-16T22:05:41.000Z</time>
      </trkpt>
      <trkpt lat="50.78118" lon="2.6638">
        <ele>114</ele>
        <time>2019-07-16T22:05:42.000Z</time>
      </trkpt>
      <trkpt lat="50.78087" lon="2.66483">
        <ele>118.40000152588</ele>
        <time>2019-07-16T22:05:55.000Z</time>
      </trkpt>
      <trkpt lat="50.78083" lon="2.6649">
        <ele>118</ele>
        <time>2019-07-16T22:05:56.000Z</time>
      </trkpt>
      <trkpt lat="50.7804" lon="2.66546">
        <ele>113</ele>
        <time>2019-07-16T22:06:04.000Z</time>
      </trkpt>
      <trkpt lat="50.78024" lon="2.66566">
        <ele>111.40000152588</ele>
        <time>2019-07-16T22:06:07.000Z</time>
      </trkpt>
      <trkpt lat="50.78018" lon="2.66572">
        <ele>110.80000305176</ele>
        <time>2019-07-16T22:06:08.000Z</time>
      </trkpt>
      <trkpt lat="50.78012" lon="2.66579">
        <ele>110.19999694824</ele>
        <time>2019-07-16T22:06:09.000Z</time>
      </trkpt>
      <trkpt lat="50.78007" lon="2.66586">
        <ele>109.59999847412</ele>
        <time>2019-07-16T22:06:10.000Z</time>
      </trkpt>
      <trkpt lat="50.78003" lon="2.66595">
        <ele>109.40000152588</ele>
        <time>2019-07-16T22:06:11.000Z</time>
      </trkpt>
      <trkpt lat="50.77999" lon="2.66605">
        <ele>109.40000152588</ele>
        <time>2019-07-16T22:06:12.000Z</time>
      </trkpt>
      <trkpt lat="50.77996" lon="2.66614">
        <ele>109.40000152588</ele>
        <time>2019-07-16T22:06:13.000Z</time>
      </trkpt>
      <trkpt lat="50.77994" lon="2.66622">
        <ele>109.40000152588</ele>
        <time>2019-07-16T22:06:14.000Z</time>
      </trkpt>
      <trkpt lat="50.77993" lon="2.6663">
        <ele>109.40000152588</ele>
        <time>2019-07-16T22:06:15.000Z</time>
      </trkpt>
      <trkpt lat="50.77992" lon="2.66636">
        <ele>109.59999847412</ele>
        <time>2019-07-16T22:06:16.000Z</time>
      </trkpt>
      <trkpt lat="50.77992" lon="2.66653">
        <ele>110.19999694824</ele>
        <time>2019-07-16T22:06:22.000Z</time>
      </trkpt>
      <trkpt lat="50.77994" lon="2.66651">
        <ele>110.40000152588</ele>
        <time>2019-07-16T22:06:24.000Z</time>
      </trkpt>
      <trkpt lat="50.77994" lon="2.66642">
        <ele>110</ele>
        <time>2019-07-16T22:06:30.000Z</time>
      </trkpt>
      <trkpt lat="50.77993" lon="2.66639">
        <ele>109.80000305176</ele>
        <time>2019-07-16T22:06:31.000Z</time>
      </trkpt>
      <trkpt lat="50.77993" lon="2.66636">
        <ele>109.80000305176</ele>
        <time>2019-07-16T22:06:32.000Z</time>
      </trkpt>
      <trkpt lat="50.77993" lon="2.66633">
        <ele>109.59999847412</ele>
        <time>2019-07-16T22:06:33.000Z</time>
      </trkpt>
      <trkpt lat="50.77994" lon="2.66629">
        <ele>109.59999847412</ele>
        <time>2019-07-16T22:06:34.000Z</time>
      </trkpt>
      <trkpt lat="50.77995" lon="2.66624">
        <ele>109.59999847412</ele>
        <time>2019-07-16T22:06:35.000Z</time>
      </trkpt>
      <trkpt lat="50.77995" lon="2.6662">
        <ele>109.59999847412</ele>
        <time>2019-07-16T22:06:36.000Z</time>
      </trkpt>
      <trkpt lat="50.77996" lon="2.66615">
        <ele>109.59999847412</ele>
        <time>2019-07-16T22:06:37.000Z</time>
      </trkpt>
      <trkpt lat="50.77997" lon="2.6661">
        <ele>109.59999847412</ele>
        <time>2019-07-16T22:06:38.000Z</time>
      </trkpt>
      <trkpt lat="50.77999" lon="2.66605">
        <ele>109.40000152588</ele>
        <time>2019-07-16T22:06:39.000Z</time>
      </trkpt>
      <trkpt lat="50.78003" lon="2.66594">
        <ele>109.40000152588</ele>
        <time>2019-07-16T22:06:41.000Z</time>
      </trkpt>
      <trkpt lat="50.78006" lon="2.66588">
        <ele>109.59999847412</ele>
        <time>2019-07-16T22:06:42.000Z</time>
      </trkpt>
      <trkpt lat="50.78013" lon="2.66577">
        <ele>110.19999694824</ele>
        <time>2019-07-16T22:06:44.000Z</time>
      </trkpt>
      <trkpt lat="50.78016" lon="2.66572">
        <ele>110.59999847412</ele>
        <time>2019-07-16T22:06:45.000Z</time>
      </trkpt>
      <trkpt lat="50.78026" lon="2.66564">
        <ele>111.80000305176</ele>
        <time>2019-07-16T22:06:48.000Z</time>
      </trkpt>
      <trkpt lat="50.7803" lon="2.66565">
        <ele>112.40000152588</ele>
        <time>2019-07-16T22:06:49.000Z</time>
      </trkpt>
      <trkpt lat="50.78032" lon="2.66568">
        <ele>112.80000305176</ele>
        <time>2019-07-16T22:06:50.000Z</time>
      </trkpt>
      <trkpt lat="50.78034" lon="2.66572">
        <ele>113.19999694824</ele>
        <time>2019-07-16T22:06:51.000Z</time>
      </trkpt>
      <trkpt lat="50.78035" lon="2.66577">
        <ele>113.59999847412</ele>
        <time>2019-07-16T22:06:52.000Z</time>
      </trkpt>
      <trkpt lat="50.78036" lon="2.66583">
        <ele>114</ele>
        <time>2019-07-16T22:06:53.000Z</time>
      </trkpt>
      <trkpt lat="50.78048" lon="2.66661">
        <ele>120.40000152588</ele>
        <time>2019-07-16T22:07:07.000Z</time>
      </trkpt>
      <trkpt lat="50.78054" lon="2.6672">
        <ele>122.40000152588</ele>
        <time>2019-07-16T22:07:18.000Z</time>
      </trkpt>
      <trkpt lat="50.78069" lon="2.66789">
        <ele>126</ele>
        <time>2019-07-16T22:07:32.000Z</time>
      </trkpt>
      <trkpt lat="50.78087" lon="2.66844">
        <ele>129.80000305176</ele>
        <time>2019-07-16T22:07:44.000Z</time>
      </trkpt>
      <trkpt lat="50.78095" lon="2.66902">
        <ele>130.60000610352</ele>
        <time>2019-07-16T22:07:55.000Z</time>
      </trkpt>
      <trkpt lat="50.78097" lon="2.66952">
        <ele>130.39999389648</ele>
        <time>2019-07-16T22:08:05.000Z</time>
      </trkpt>
      <trkpt lat="50.78101" lon="2.67035">
        <ele>130.60000610352</ele>
        <time>2019-07-16T22:08:19.000Z</time>
      </trkpt>
      <trkpt lat="50.78101" lon="2.67043">
        <ele>130.60000610352</ele>
        <time>2019-07-16T22:08:20.000Z</time>
      </trkpt>
      <trkpt lat="50.78101" lon="2.6705">
        <ele>130.80000305176</ele>
        <time>2019-07-16T22:08:21.000Z</time>
      </trkpt>
      <trkpt lat="50.78104" lon="2.67121">
        <ele>131</ele>
        <time>2019-07-16T22:08:31.000Z</time>
      </trkpt>
      <trkpt lat="50.78105" lon="2.67135">
        <ele>131.39999389648</ele>
        <time>2019-07-16T22:08:33.000Z</time>
      </trkpt>
      <trkpt lat="50.78106" lon="2.67149">
        <ele>131.60000610352</ele>
        <time>2019-07-16T22:08:35.000Z</time>
      </trkpt>
      <trkpt lat="50.78113" lon="2.67267">
        <ele>130.39999389648</ele>
        <time>2019-07-16T22:08:49.000Z</time>
      </trkpt>
      <trkpt lat="50.78106" lon="2.67352">
        <ele>126</ele>
        <time>2019-07-16T22:08:57.000Z</time>
      </trkpt>
      <trkpt lat="50.78105" lon="2.67372">
        <ele>123.59999847412</ele>
        <time>2019-07-16T22:08:59.000Z</time>
      </trkpt>
      <trkpt lat="50.78109" lon="2.67414">
        <ele>120.40000152588</ele>
        <time>2019-07-16T22:09:03.000Z</time>
      </trkpt>
      <trkpt lat="50.78111" lon="2.67424">
        <ele>119.80000305176</ele>
        <time>2019-07-16T22:09:04.000Z</time>
      </trkpt>
      <trkpt lat="50.78114" lon="2.67434">
        <ele>118.80000305176</ele>
        <time>2019-07-16T22:09:05.000Z</time>
      </trkpt>
      <trkpt lat="50.78129" lon="2.67473">
        <ele>115.80000305176</ele>
        <time>2019-07-16T22:09:09.000Z</time>
      </trkpt>
      <trkpt lat="50.78134" lon="2.67482">
        <ele>115</ele>
        <time>2019-07-16T22:09:10.000Z</time>
      </trkpt>
      <trkpt lat="50.78154" lon="2.67513">
        <ele>112.19999694824</ele>
        <time>2019-07-16T22:09:14.000Z</time>
      </trkpt>
      <trkpt lat="50.78169" lon="2.67537">
        <ele>110.59999847412</ele>
        <time>2019-07-16T22:09:17.000Z</time>
      </trkpt>
      <trkpt lat="50.78177" lon="2.67556">
        <ele>109.19999694824</ele>
        <time>2019-07-16T22:09:19.000Z</time>
      </trkpt>
      <trkpt lat="50.78181" lon="2.67567">
        <ele>108.40000152588</ele>
        <time>2019-07-16T22:09:20.000Z</time>
      </trkpt>
      <trkpt lat="50.78183" lon="2.67579">
        <ele>107.59999847412</ele>
        <time>2019-07-16T22:09:21.000Z</time>
      </trkpt>
      <trkpt lat="50.78185" lon="2.67592">
        <ele>106.59999847412</ele>
        <time>2019-07-16T22:09:22.000Z</time>
      </trkpt>
      <trkpt lat="50.78187" lon="2.67605">
        <ele>105.59999847412</ele>
        <time>2019-07-16T22:09:23.000Z</time>
      </trkpt>
      <trkpt lat="50.78191" lon="2.67688">
        <ele>99.599998474121</ele>
        <time>2019-07-16T22:09:29.000Z</time>
      </trkpt>
      <trkpt lat="50.78191" lon="2.67702">
        <ele>98.599998474121</ele>
        <time>2019-07-16T22:09:30.000Z</time>
      </trkpt>
      <trkpt lat="50.78189" lon="2.67715">
        <ele>97.800003051758</ele>
        <time>2019-07-16T22:09:31.000Z</time>
      </trkpt>
      <trkpt lat="50.78186" lon="2.67727">
        <ele>97.400001525879</ele>
        <time>2019-07-16T22:09:32.000Z</time>
      </trkpt>
      <trkpt lat="50.78181" lon="2.67738">
        <ele>97</ele>
        <time>2019-07-16T22:09:33.000Z</time>
      </trkpt>
      <trkpt lat="50.78175" lon="2.67748">
        <ele>96.800003051758</ele>
        <time>2019-07-16T22:09:34.000Z</time>
      </trkpt>
      <trkpt lat="50.78109" lon="2.67838">
        <ele>92.199996948242</ele>
        <time>2019-07-16T22:09:44.000Z</time>
      </trkpt>
      <trkpt lat="50.78044" lon="2.67904">
        <ele>88</ele>
        <time>2019-07-16T22:09:54.000Z</time>
      </trkpt>
      <trkpt lat="50.78023" lon="2.67916">
        <ele>88</ele>
        <time>2019-07-16T22:09:57.000Z</time>
      </trkpt>
      <trkpt lat="50.78016" lon="2.67917">
        <ele>88</ele>
        <time>2019-07-16T22:09:58.000Z</time>
      </trkpt>
      <trkpt lat="50.77933" lon="2.67939">
        <ele>86.599998474121</ele>
        <time>2019-07-16T22:10:09.000Z</time>
      </trkpt>
      <trkpt lat="50.77837" lon="2.68012">
        <ele>82.400001525879</ele>
        <time>2019-07-16T22:10:22.000Z</time>
      </trkpt>
      <trkpt lat="50.77767" lon="2.68104">
        <ele>78</ele>
        <time>2019-07-16T22:10:33.000Z</time>
      </trkpt>
      <trkpt lat="50.7771" lon="2.68208">
        <ele>77.400001525879</ele>
        <time>2019-07-16T22:10:43.000Z</time>
      </trkpt>
      <trkpt lat="50.77606" lon="2.68375">
        <ele>73.400001525879</ele>
        <time>2019-07-16T22:11:00.000Z</time>
      </trkpt>
      <trkpt lat="50.77511" lon="2.68517">
        <ele>71</ele>
        <time>2019-07-16T22:11:15.000Z</time>
      </trkpt>
      <trkpt lat="50.77487" lon="2.6855">
        <ele>70.199996948242</ele>
        <time>2019-07-16T22:11:19.000Z</time>
      </trkpt>
      <trkpt lat="50.7748" lon="2.68555">
        <ele>70.199996948242</ele>
        <time>2019-07-16T22:11:20.000Z</time>
      </trkpt>
      <trkpt lat="50.77474" lon="2.68557">
        <ele>70.400001525879</ele>
        <time>2019-07-16T22:11:21.000Z</time>
      </trkpt>
      <trkpt lat="50.77467" lon="2.68555">
        <ele>70.400001525879</ele>
        <time>2019-07-16T22:11:22.000Z</time>
      </trkpt>
      <trkpt lat="50.77461" lon="2.68552">
        <ele>70.599998474121</ele>
        <time>2019-07-16T22:11:23.000Z</time>
      </trkpt>
      <trkpt lat="50.77455" lon="2.68548">
        <ele>70.599998474121</ele>
        <time>2019-07-16T22:11:24.000Z</time>
      </trkpt>
      <trkpt lat="50.77411" lon="2.68523">
        <ele>71.400001525879</ele>
        <time>2019-07-16T22:11:30.000Z</time>
      </trkpt>
      <trkpt lat="50.77348" lon="2.68479">
        <ele>70</ele>
        <time>2019-07-16T22:11:39.000Z</time>
      </trkpt>
      <trkpt lat="50.77341" lon="2.68473">
        <ele>69.599998474121</ele>
        <time>2019-07-16T22:11:40.000Z</time>
      </trkpt>
      <trkpt lat="50.77325" lon="2.68465">
        <ele>69</ele>
        <time>2019-07-16T22:11:42.000Z</time>
      </trkpt>
      <trkpt lat="50.77316" lon="2.68462">
        <ele>68.800003051758</ele>
        <time>2019-07-16T22:11:43.000Z</time>
      </trkpt>
      <trkpt lat="50.77307" lon="2.68462">
        <ele>68.599998474121</ele>
        <time>2019-07-16T22:11:44.000Z</time>
      </trkpt>
      <trkpt lat="50.77299" lon="2.68465">
        <ele>68.199996948242</ele>
        <time>2019-07-16T22:11:45.000Z</time>
      </trkpt>
      <trkpt lat="50.7729" lon="2.68471">
        <ele>68</ele>
        <time>2019-07-16T22:11:46.000Z</time>
      </trkpt>
      <trkpt lat="50.77283" lon="2.68479">
        <ele>67.800003051758</ele>
        <time>2019-07-16T22:11:47.000Z</time>
      </trkpt>
      <trkpt lat="50.77276" lon="2.68486">
        <ele>67.599998474121</ele>
        <time>2019-07-16T22:11:48.000Z</time>
      </trkpt>
      <trkpt lat="50.77184" lon="2.6859">
        <ele>63.799999237061</ele>
        <time>2019-07-16T22:12:03.000Z</time>
      </trkpt>
      <trkpt lat="50.77084" lon="2.68678">
        <ele>64</ele>
        <time>2019-07-16T22:12:19.000Z</time>
      </trkpt>
      <trkpt lat="50.76975" lon="2.68752">
        <ele>62</ele>
        <time>2019-07-16T22:12:36.000Z</time>
      </trkpt>
      <trkpt lat="50.76912" lon="2.68848">
        <ele>62.599998474121</ele>
        <time>2019-07-16T22:12:48.000Z</time>
      </trkpt>
      <trkpt lat="50.76831" lon="2.68963">
        <ele>59.599998474121</ele>
        <time>2019-07-16T22:13:03.000Z</time>
      </trkpt>
      <trkpt lat="50.76748" lon="2.6907">
        <ele>59</ele>
        <time>2019-07-16T22:13:18.000Z</time>
      </trkpt>
      <trkpt lat="50.76715" lon="2.69139">
        <ele>58.200000762939</ele>
        <time>2019-07-16T22:13:26.000Z</time>
      </trkpt>
      <trkpt lat="50.76699" lon="2.69161">
        <ele>58</ele>
        <time>2019-07-16T22:13:29.000Z</time>
      </trkpt>
      <trkpt lat="50.76693" lon="2.69166">
        <ele>58.200000762939</ele>
        <time>2019-07-16T22:13:30.000Z</time>
      </trkpt>
      <trkpt lat="50.76671" lon="2.69182">
        <ele>58.200000762939</ele>
        <time>2019-07-16T22:13:34.000Z</time>
      </trkpt>
      <trkpt lat="50.76612" lon="2.69209">
        <ele>58.799999237061</ele>
        <time>2019-07-16T22:13:46.000Z</time>
      </trkpt>
      <trkpt lat="50.76528" lon="2.69254">
        <ele>59.599998474121</ele>
        <time>2019-07-16T22:14:01.000Z</time>
      </trkpt>
      <trkpt lat="50.76455" lon="2.69328">
        <ele>60</ele>
        <time>2019-07-16T22:14:15.000Z</time>
      </trkpt>
      <trkpt lat="50.76383" lon="2.69402">
        <ele>61</ele>
        <time>2019-07-16T22:14:29.000Z</time>
      </trkpt>
      <trkpt lat="50.76378" lon="2.69408">
        <ele>61</ele>
        <time>2019-07-16T22:14:30.000Z</time>
      </trkpt>
      <trkpt lat="50.76374" lon="2.69415">
        <ele>61</ele>
        <time>2019-07-16T22:14:31.000Z</time>
      </trkpt>
      <trkpt lat="50.76348" lon="2.69459">
        <ele>61</ele>
        <time>2019-07-16T22:14:37.000Z</time>
      </trkpt>
      <trkpt lat="50.76343" lon="2.69465">
        <ele>61</ele>
        <time>2019-07-16T22:14:38.000Z</time>
      </trkpt>
      <trkpt lat="50.76337" lon="2.69471">
        <ele>61</ele>
        <time>2019-07-16T22:14:39.000Z</time>
      </trkpt>
      <trkpt lat="50.76332" lon="2.69476">
        <ele>61</ele>
        <time>2019-07-16T22:14:40.000Z</time>
      </trkpt>
      <trkpt lat="50.76326" lon="2.6948">
        <ele>61</ele>
        <time>2019-07-16T22:14:41.000Z</time>
      </trkpt>
      <trkpt lat="50.76213" lon="2.69543">
        <ele>60.599998474121</ele>
        <time>2019-07-16T22:14:59.000Z</time>
      </trkpt>
      <trkpt lat="50.7612" lon="2.69599">
        <ele>59.799999237061</ele>
        <time>2019-07-16T22:15:14.000Z</time>
      </trkpt>
      <trkpt lat="50.76109" lon="2.69613">
        <ele>59.400001525879</ele>
        <time>2019-07-16T22:15:16.000Z</time>
      </trkpt>
      <trkpt lat="50.76072" lon="2.6967">
        <ele>58.799999237061</ele>
        <time>2019-07-16T22:15:26.000Z</time>
      </trkpt>
      <trkpt lat="50.76069" lon="2.69669">
        <ele>58.799999237061</ele>
        <time>2019-07-16T22:15:27.000Z</time>
      </trkpt>
      <trkpt lat="50.76062" lon="2.69664">
        <ele>59</ele>
        <time>2019-07-16T22:15:29.000Z</time>
      </trkpt>
      <trkpt lat="50.75995" lon="2.69614">
        <ele>59.599998474121</ele>
        <time>2019-07-16T22:15:41.000Z</time>
      </trkpt>
      <trkpt lat="50.7589" lon="2.6956">
        <ele>60.400001525879</ele>
        <time>2019-07-16T22:15:57.000Z</time>
      </trkpt>
      <trkpt lat="50.75781" lon="2.69536">
        <ele>60.599998474121</ele>
        <time>2019-07-16T22:16:14.000Z</time>
      </trkpt>
      <trkpt lat="50.75669" lon="2.6951">
        <ele>61.599998474121</ele>
        <time>2019-07-16T22:16:32.000Z</time>
      </trkpt>
      <trkpt lat="50.75664" lon="2.69509">
        <ele>61.599998474121</ele>
        <time>2019-07-16T22:16:33.000Z</time>
      </trkpt>
      <trkpt lat="50.7566" lon="2.6951">
        <ele>61.599998474121</ele>
        <time>2019-07-16T22:16:34.000Z</time>
      </trkpt>
      <trkpt lat="50.75656" lon="2.69513">
        <ele>61.599998474121</ele>
        <time>2019-07-16T22:16:35.000Z</time>
      </trkpt>
      <trkpt lat="50.75653" lon="2.69518">
        <ele>61.599998474121</ele>
        <time>2019-07-16T22:16:36.000Z</time>
      </trkpt>
      <trkpt lat="50.75652" lon="2.69524">
        <ele>61.599998474121</ele>
        <time>2019-07-16T22:16:37.000Z</time>
      </trkpt>
      <trkpt lat="50.75652" lon="2.6953">
        <ele>61.599998474121</ele>
        <time>2019-07-16T22:16:38.000Z</time>
      </trkpt>
      <trkpt lat="50.75653" lon="2.69537">
        <ele>61.400001525879</ele>
        <time>2019-07-16T22:16:39.000Z</time>
      </trkpt>
      <trkpt lat="50.75655" lon="2.69551">
        <ele>61.200000762939</ele>
        <time>2019-07-16T22:16:41.000Z</time>
      </trkpt>
      <trkpt lat="50.75655" lon="2.69559">
        <ele>61.200000762939</ele>
        <time>2019-07-16T22:16:42.000Z</time>
      </trkpt>
      <trkpt lat="50.75654" lon="2.69569">
        <ele>61</ele>
        <time>2019-07-16T22:16:43.000Z</time>
      </trkpt>
      <trkpt lat="50.75653" lon="2.69578">
        <ele>61</ele>
        <time>2019-07-16T22:16:44.000Z</time>
      </trkpt>
      <trkpt lat="50.7565" lon="2.69587">
        <ele>60.799999237061</ele>
        <time>2019-07-16T22:16:45.000Z</time>
      </trkpt>
      <trkpt lat="50.75646" lon="2.69594">
        <ele>60.799999237061</ele>
        <time>2019-07-16T22:16:46.000Z</time>
      </trkpt>
      <trkpt lat="50.75642" lon="2.69601">
        <ele>60.799999237061</ele>
        <time>2019-07-16T22:16:47.000Z</time>
      </trkpt>
      <trkpt lat="50.75637" lon="2.69609">
        <ele>60.799999237061</ele>
        <time>2019-07-16T22:16:48.000Z</time>
      </trkpt>
      <trkpt lat="50.75594" lon="2.69674">
        <ele>59.799999237061</ele>
        <time>2019-07-16T22:16:57.000Z</time>
      </trkpt>
      <trkpt lat="50.75591" lon="2.69682">
        <ele>59.799999237061</ele>
        <time>2019-07-16T22:16:58.000Z</time>
      </trkpt>
      <trkpt lat="50.75588" lon="2.69691">
        <ele>59.599998474121</ele>
        <time>2019-07-16T22:16:59.000Z</time>
      </trkpt>
      <trkpt lat="50.75585" lon="2.697">
        <ele>59.200000762939</ele>
        <time>2019-07-16T22:17:00.000Z</time>
      </trkpt>
      <trkpt lat="50.75583" lon="2.6971">
        <ele>59</ele>
        <time>2019-07-16T22:17:01.000Z</time>
      </trkpt>
      <trkpt lat="50.75545" lon="2.6985">
        <ele>56</ele>
        <time>2019-07-16T22:17:15.000Z</time>
      </trkpt>
      <trkpt lat="50.75511" lon="2.69947">
        <ele>54.400001525879</ele>
        <time>2019-07-16T22:17:24.000Z</time>
      </trkpt>
      <trkpt lat="50.75474" lon="2.70004">
        <ele>53</ele>
        <time>2019-07-16T22:17:31.000Z</time>
      </trkpt>
      <trkpt lat="50.75459" lon="2.70035">
        <ele>52.200000762939</ele>
        <time>2019-07-16T22:17:39.000Z</time>
      </trkpt>
      <trkpt lat="50.7546" lon="2.70034">
        <ele>52.200000762939</ele>
        <time>2019-07-16T22:17:58.000Z</time>
      </trkpt>
      <trkpt lat="50.75461" lon="2.70034">
        <ele>52.200000762939</ele>
        <time>2019-07-16T22:18:25.000Z</time>
      </trkpt>
      <trkpt lat="50.7546" lon="2.70035">
        <ele>52.200000762939</ele>
        <time>2019-07-16T22:18:52.000Z</time>
      </trkpt>
      <trkpt lat="50.7546" lon="2.70034">
        <ele>52.200000762939</ele>
        <time>2019-07-16T22:19:16.000Z</time>
      </trkpt>
      <trkpt lat="50.75459" lon="2.70035">
        <ele>52</ele>
        <time>2019-07-16T22:19:40.000Z</time>
      </trkpt>
      <trkpt lat="50.75458" lon="2.70039">
        <ele>52</ele>
        <time>2019-07-16T22:19:41.000Z</time>
      </trkpt>
      <trkpt lat="50.75457" lon="2.70042">
        <ele>51.799999237061</ele>
        <time>2019-07-16T22:19:42.000Z</time>
      </trkpt>
      <trkpt lat="50.75421" lon="2.70115">
        <ele>50.400001525879</ele>
        <time>2019-07-16T22:19:56.000Z</time>
      </trkpt>
      <trkpt lat="50.75378" lon="2.7021">
        <ele>48.400001525879</ele>
        <time>2019-07-16T22:20:08.000Z</time>
      </trkpt>
      <trkpt lat="50.75333" lon="2.70323">
        <ele>45</ele>
        <time>2019-07-16T22:20:20.000Z</time>
      </trkpt>
      <trkpt lat="50.75272" lon="2.70439">
        <ele>42.400001525879</ele>
        <time>2019-07-16T22:20:33.000Z</time>
      </trkpt>
      <trkpt lat="50.75212" lon="2.7054">
        <ele>39.400001525879</ele>
        <time>2019-07-16T22:20:44.000Z</time>
      </trkpt>
      <trkpt lat="50.75114" lon="2.70679">
        <ele>35.200000762939</ele>
        <time>2019-07-16T22:21:00.000Z</time>
      </trkpt>
      <trkpt lat="50.75091" lon="2.7071">
        <ele>35.599998474121</ele>
        <time>2019-07-16T22:21:04.000Z</time>
      </trkpt>
      <trkpt lat="50.75035" lon="2.70837">
        <ele>34.599998474121</ele>
        <time>2019-07-16T22:21:18.000Z</time>
      </trkpt>
      <trkpt lat="50.75025" lon="2.70863">
        <ele>35</ele>
        <time>2019-07-16T22:21:21.000Z</time>
      </trkpt>
      <trkpt lat="50.75008" lon="2.709">
        <ele>35.599998474121</ele>
        <time>2019-07-16T22:21:26.000Z</time>
      </trkpt>
      <trkpt lat="50.74966" lon="2.71032">
        <ele>35.599998474121</ele>
        <time>2019-07-16T22:21:40.000Z</time>
      </trkpt>
      <trkpt lat="50.74905" lon="2.71164">
        <ele>33.200000762939</ele>
        <time>2019-07-16T22:21:54.000Z</time>
      </trkpt>
      <trkpt lat="50.74895" lon="2.71193">
        <ele>32.799999237061</ele>
        <time>2019-07-16T22:21:57.000Z</time>
      </trkpt>
      <trkpt lat="50.74893" lon="2.71203">
        <ele>32.599998474121</ele>
        <time>2019-07-16T22:21:58.000Z</time>
      </trkpt>
      <trkpt lat="50.74892" lon="2.71213">
        <ele>32.599998474121</ele>
        <time>2019-07-16T22:21:59.000Z</time>
      </trkpt>
      <trkpt lat="50.74893" lon="2.71223">
        <ele>32.400001525879</ele>
        <time>2019-07-16T22:22:00.000Z</time>
      </trkpt>
      <trkpt lat="50.74896" lon="2.71232">
        <ele>32.400001525879</ele>
        <time>2019-07-16T22:22:01.000Z</time>
      </trkpt>
      <trkpt lat="50.74899" lon="2.71241">
        <ele>32.200000762939</ele>
        <time>2019-07-16T22:22:02.000Z</time>
      </trkpt>
      <trkpt lat="50.74903" lon="2.7125">
        <ele>32.200000762939</ele>
        <time>2019-07-16T22:22:03.000Z</time>
      </trkpt>
      <trkpt lat="50.74918" lon="2.71281">
        <ele>32.400001525879</ele>
        <time>2019-07-16T22:22:07.000Z</time>
      </trkpt>
      <trkpt lat="50.7492" lon="2.7129">
        <ele>32.400001525879</ele>
        <time>2019-07-16T22:22:08.000Z</time>
      </trkpt>
      <trkpt lat="50.7492" lon="2.713">
        <ele>32.200000762939</ele>
        <time>2019-07-16T22:22:09.000Z</time>
      </trkpt>
      <trkpt lat="50.74919" lon="2.71309">
        <ele>32</ele>
        <time>2019-07-16T22:22:10.000Z</time>
      </trkpt>
      <trkpt lat="50.74916" lon="2.71318">
        <ele>32</ele>
        <time>2019-07-16T22:22:11.000Z</time>
      </trkpt>
      <trkpt lat="50.74912" lon="2.71325">
        <ele>31.799999237061</ele>
        <time>2019-07-16T22:22:12.000Z</time>
      </trkpt>
      <trkpt lat="50.74907" lon="2.71333">
        <ele>31.60000038147</ele>
        <time>2019-07-16T22:22:13.000Z</time>
      </trkpt>
      <trkpt lat="50.74824" lon="2.71466">
        <ele>32.799999237061</ele>
        <time>2019-07-16T22:22:29.000Z</time>
      </trkpt>
      <trkpt lat="50.74794" lon="2.71512">
        <ele>32.799999237061</ele>
        <time>2019-07-16T22:22:35.000Z</time>
      </trkpt>
      <trkpt lat="50.74788" lon="2.71518">
        <ele>32.599998474121</ele>
        <time>2019-07-16T22:22:36.000Z</time>
      </trkpt>
      <trkpt lat="50.74781" lon="2.71523">
        <ele>32.400001525879</ele>
        <time>2019-07-16T22:22:37.000Z</time>
      </trkpt>
      <trkpt lat="50.74775" lon="2.71527">
        <ele>32.400001525879</ele>
        <time>2019-07-16T22:22:38.000Z</time>
      </trkpt>
      <trkpt lat="50.74768" lon="2.71531">
        <ele>32.200000762939</ele>
        <time>2019-07-16T22:22:39.000Z</time>
      </trkpt>
      <trkpt lat="50.74658" lon="2.71586">
        <ele>30.200000762939</ele>
        <time>2019-07-16T22:22:55.000Z</time>
      </trkpt>
      <trkpt lat="50.7455" lon="2.7163">
        <ele>29.39999961853</ele>
        <time>2019-07-16T22:23:10.000Z</time>
      </trkpt>
      <trkpt lat="50.74415" lon="2.71661">
        <ele>27.799999237061</ele>
        <time>2019-07-16T22:23:29.000Z</time>
      </trkpt>
      <trkpt lat="50.74375" lon="2.71676">
        <ele>27.799999237061</ele>
        <time>2019-07-16T22:23:35.000Z</time>
      </trkpt>
      <trkpt lat="50.7436" lon="2.71691">
        <ele>27.60000038147</ele>
        <time>2019-07-16T22:23:38.000Z</time>
      </trkpt>
      <trkpt lat="50.74357" lon="2.71698">
        <ele>27.60000038147</ele>
        <time>2019-07-16T22:23:39.000Z</time>
      </trkpt>
      <trkpt lat="50.74356" lon="2.71705">
        <ele>27.60000038147</ele>
        <time>2019-07-16T22:23:40.000Z</time>
      </trkpt>
      <trkpt lat="50.74352" lon="2.71747">
        <ele>28</ele>
        <time>2019-07-16T22:23:45.000Z</time>
      </trkpt>
      <trkpt lat="50.74349" lon="2.71755">
        <ele>28</ele>
        <time>2019-07-16T22:23:46.000Z</time>
      </trkpt>
      <trkpt lat="50.74347" lon="2.71763">
        <ele>28.200000762939</ele>
        <time>2019-07-16T22:23:47.000Z</time>
      </trkpt>
      <trkpt lat="50.74346" lon="2.71771">
        <ele>28.200000762939</ele>
        <time>2019-07-16T22:23:48.000Z</time>
      </trkpt>
      <trkpt lat="50.74346" lon="2.71781">
        <ele>28.39999961853</ele>
        <time>2019-07-16T22:23:49.000Z</time>
      </trkpt>
      <trkpt lat="50.74347" lon="2.71788">
        <ele>28.39999961853</ele>
        <time>2019-07-16T22:23:50.000Z</time>
      </trkpt>
      <trkpt lat="50.74349" lon="2.71797">
        <ele>28.60000038147</ele>
        <time>2019-07-16T22:23:51.000Z</time>
      </trkpt>
      <trkpt lat="50.74351" lon="2.71805">
        <ele>28.60000038147</ele>
        <time>2019-07-16T22:23:52.000Z</time>
      </trkpt>
      <trkpt lat="50.74353" lon="2.71814">
        <ele>28.799999237061</ele>
        <time>2019-07-16T22:23:53.000Z</time>
      </trkpt>
      <trkpt lat="50.74375" lon="2.71897">
        <ele>28.200000762939</ele>
        <time>2019-07-16T22:24:02.000Z</time>
      </trkpt>
      <trkpt lat="50.74378" lon="2.71917">
        <ele>28</ele>
        <time>2019-07-16T22:24:04.000Z</time>
      </trkpt>
      <trkpt lat="50.74383" lon="2.72076">
        <ele>26</ele>
        <time>2019-07-16T22:24:19.000Z</time>
      </trkpt>
      <trkpt lat="50.74387" lon="2.72227">
        <ele>25</ele>
        <time>2019-07-16T22:24:33.000Z</time>
      </trkpt>
      <trkpt lat="50.74389" lon="2.72237">
        <ele>25</ele>
        <time>2019-07-16T22:24:34.000Z</time>
      </trkpt>
      <trkpt lat="50.74391" lon="2.72247">
        <ele>25</ele>
        <time>2019-07-16T22:24:35.000Z</time>
      </trkpt>
      <trkpt lat="50.74438" lon="2.72396">
        <ele>24.60000038147</ele>
        <time>2019-07-16T22:24:51.000Z</time>
      </trkpt>
      <trkpt lat="50.74443" lon="2.72414">
        <ele>24.60000038147</ele>
        <time>2019-07-16T22:24:53.000Z</time>
      </trkpt>
      <trkpt lat="50.74444" lon="2.72423">
        <ele>24.60000038147</ele>
        <time>2019-07-16T22:24:54.000Z</time>
      </trkpt>
      <trkpt lat="50.74446" lon="2.72433">
        <ele>24.799999237061</ele>
        <time>2019-07-16T22:24:55.000Z</time>
      </trkpt>
      <trkpt lat="50.74447" lon="2.72442">
        <ele>24.799999237061</ele>
        <time>2019-07-16T22:24:56.000Z</time>
      </trkpt>
      <trkpt lat="50.74447" lon="2.72452">
        <ele>24.799999237061</ele>
        <time>2019-07-16T22:24:57.000Z</time>
      </trkpt>
      <trkpt lat="50.74449" lon="2.7249">
        <ele>24.799999237061</ele>
        <time>2019-07-16T22:25:01.000Z</time>
      </trkpt>
      <trkpt lat="50.74448" lon="2.725">
        <ele>25</ele>
        <time>2019-07-16T22:25:02.000Z</time>
      </trkpt>
      <trkpt lat="50.74429" lon="2.72627">
        <ele>24</ele>
        <time>2019-07-16T22:25:16.000Z</time>
      </trkpt>
      <trkpt lat="50.74422" lon="2.72662">
        <ele>23.60000038147</ele>
        <time>2019-07-16T22:25:20.000Z</time>
      </trkpt>
      <trkpt lat="50.74419" lon="2.72671">
        <ele>23.60000038147</ele>
        <time>2019-07-16T22:25:21.000Z</time>
      </trkpt>
      <trkpt lat="50.74416" lon="2.72679">
        <ele>23.60000038147</ele>
        <time>2019-07-16T22:25:22.000Z</time>
      </trkpt>
      <trkpt lat="50.74351" lon="2.72799">
        <ele>23</ele>
        <time>2019-07-16T22:25:37.000Z</time>
      </trkpt>
      <trkpt lat="50.74292" lon="2.72898">
        <ele>24</ele>
        <time>2019-07-16T22:25:51.000Z</time>
      </trkpt>
      <trkpt lat="50.74232" lon="2.72975">
        <ele>25.200000762939</ele>
        <time>2019-07-16T22:26:04.000Z</time>
      </trkpt>
      <trkpt lat="50.7422" lon="2.72992">
        <ele>25.799999237061</ele>
        <time>2019-07-16T22:26:07.000Z</time>
      </trkpt>
      <trkpt lat="50.74211" lon="2.73013">
        <ele>26.60000038147</ele>
        <time>2019-07-16T22:26:11.000Z</time>
      </trkpt>
      <trkpt lat="50.7421" lon="2.73017">
        <ele>26.799999237061</ele>
        <time>2019-07-16T22:26:12.000Z</time>
      </trkpt>
      <trkpt lat="50.7421" lon="2.7302">
        <ele>27</ele>
        <time>2019-07-16T22:26:13.000Z</time>
      </trkpt>
      <trkpt lat="50.74212" lon="2.73022">
        <ele>26.799999237061</ele>
        <time>2019-07-16T22:26:14.000Z</time>
      </trkpt>
      <trkpt lat="50.74215" lon="2.73023">
        <ele>26.799999237061</ele>
        <time>2019-07-16T22:26:15.000Z</time>
      </trkpt>
      <trkpt lat="50.74219" lon="2.73026">
        <ele>26.60000038147</ele>
        <time>2019-07-16T22:26:16.000Z</time>
      </trkpt>
      <trkpt lat="50.74223" lon="2.7303">
        <ele>26.60000038147</ele>
        <time>2019-07-16T22:26:17.000Z</time>
      </trkpt>
      <trkpt lat="50.74234" lon="2.73043">
        <ele>26.60000038147</ele>
        <time>2019-07-16T22:26:20.000Z</time>
      </trkpt>
      <trkpt lat="50.7428" lon="2.73121">
        <ele>27.799999237061</ele>
        <time>2019-07-16T22:26:32.000Z</time>
      </trkpt>
      <trkpt lat="50.74284" lon="2.73127">
        <ele>27.799999237061</ele>
        <time>2019-07-16T22:26:33.000Z</time>
      </trkpt>
      <trkpt lat="50.74289" lon="2.73132">
        <ele>28</ele>
        <time>2019-07-16T22:26:34.000Z</time>
      </trkpt>
      <trkpt lat="50.7435" lon="2.73183">
        <ele>27.60000038147</ele>
        <time>2019-07-16T22:26:46.000Z</time>
      </trkpt>
      <trkpt lat="50.74354" lon="2.73189">
        <ele>27.39999961853</ele>
        <time>2019-07-16T22:26:47.000Z</time>
      </trkpt>
      <trkpt lat="50.74357" lon="2.73196">
        <ele>27.39999961853</ele>
        <time>2019-07-16T22:26:48.000Z</time>
      </trkpt>
      <trkpt lat="50.74361" lon="2.73204">
        <ele>27.39999961853</ele>
        <time>2019-07-16T22:26:49.000Z</time>
      </trkpt>
      <trkpt lat="50.74363" lon="2.73211">
        <ele>27.39999961853</ele>
        <time>2019-07-16T22:26:50.000Z</time>
      </trkpt>
      <trkpt lat="50.74365" lon="2.73219">
        <ele>27.39999961853</ele>
        <time>2019-07-16T22:26:51.000Z</time>
      </trkpt>
      <trkpt lat="50.74367" lon="2.73227">
        <ele>27.39999961853</ele>
        <time>2019-07-16T22:26:52.000Z</time>
      </trkpt>
      <trkpt lat="50.74369" lon="2.73236">
        <ele>27.39999961853</ele>
        <time>2019-07-16T22:26:53.000Z</time>
      </trkpt>
      <trkpt lat="50.74369" lon="2.73244">
        <ele>27.60000038147</ele>
        <time>2019-07-16T22:26:54.000Z</time>
      </trkpt>
      <trkpt lat="50.74369" lon="2.73343">
        <ele>29.39999961853</ele>
        <time>2019-07-16T22:27:09.000Z</time>
      </trkpt>
      <trkpt lat="50.74367" lon="2.73368">
        <ele>29.39999961853</ele>
        <time>2019-07-16T22:27:21.000Z</time>
      </trkpt>
      <trkpt lat="50.74367" lon="2.7337">
        <ele>29.39999961853</ele>
        <time>2019-07-16T22:27:23.000Z</time>
      </trkpt>
      <trkpt lat="50.74367" lon="2.73373">
        <ele>29.60000038147</ele>
        <time>2019-07-16T22:27:24.000Z</time>
      </trkpt>
      <trkpt lat="50.74366" lon="2.73376">
        <ele>29.60000038147</ele>
        <time>2019-07-16T22:27:25.000Z</time>
      </trkpt>
      <trkpt lat="50.74364" lon="2.73412">
        <ele>29.60000038147</ele>
        <time>2019-07-16T22:27:34.000Z</time>
      </trkpt>
      <trkpt lat="50.74364" lon="2.73496">
        <ele>29.60000038147</ele>
        <time>2019-07-16T22:27:46.000Z</time>
      </trkpt>
      <trkpt lat="50.74365" lon="2.73512">
        <ele>29.60000038147</ele>
        <time>2019-07-16T22:27:51.000Z</time>
      </trkpt>
      <trkpt lat="50.74364" lon="2.73514">
        <ele>29.60000038147</ele>
        <time>2019-07-16T22:27:52.000Z</time>
      </trkpt>
      <trkpt lat="50.74364" lon="2.73516">
        <ele>29.799999237061</ele>
        <time>2019-07-16T22:27:53.000Z</time>
      </trkpt>
      <trkpt lat="50.74364" lon="2.73518">
        <ele>29.799999237061</ele>
        <time>2019-07-16T22:28:02.000Z</time>
      </trkpt>
      <trkpt lat="50.74364" lon="2.73517">
        <ele>29.799999237061</ele>
        <time>2019-07-16T22:28:23.000Z</time>
      </trkpt>
      <trkpt lat="50.74367" lon="2.73515">
        <ele>29.39999961853</ele>
        <time>2019-07-16T22:28:58.000Z</time>
      </trkpt>
      <trkpt lat="50.74365" lon="2.73515">
        <ele>29.60000038147</ele>
        <time>2019-07-16T22:29:28.000Z</time>
      </trkpt>
      <trkpt lat="50.7436" lon="2.73516">
        <ele>30</ele>
        <time>2019-07-16T22:29:57.000Z</time>
      </trkpt>
      <trkpt lat="50.74361" lon="2.73518">
        <ele>29.799999237061</ele>
        <time>2019-07-16T22:30:27.000Z</time>
      </trkpt>
      <trkpt lat="50.74363" lon="2.73522">
        <ele>29.799999237061</ele>
        <time>2019-07-16T22:30:55.000Z</time>
      </trkpt>
      <trkpt lat="50.74363" lon="2.73521">
        <ele>29.799999237061</ele>
        <time>2019-07-16T22:31:07.000Z</time>
      </trkpt>
      <trkpt lat="50.74363" lon="2.73522">
        <ele>29.799999237061</ele>
        <time>2019-07-16T22:31:08.000Z</time>
      </trkpt>
      <trkpt lat="50.74364" lon="2.73523">
        <ele>29.60000038147</ele>
        <time>2019-07-16T22:31:09.000Z</time>
      </trkpt>
      <trkpt lat="50.74365" lon="2.73526">
        <ele>29.60000038147</ele>
        <time>2019-07-16T22:31:10.000Z</time>
      </trkpt>
      <trkpt lat="50.74367" lon="2.73529">
        <ele>29.60000038147</ele>
        <time>2019-07-16T22:31:11.000Z</time>
      </trkpt>
      <trkpt lat="50.74367" lon="2.73532">
        <ele>29.39999961853</ele>
        <time>2019-07-16T22:31:12.000Z</time>
      </trkpt>
      <trkpt lat="50.74368" lon="2.73536">
        <ele>29.39999961853</ele>
        <time>2019-07-16T22:31:13.000Z</time>
      </trkpt>
      <trkpt lat="50.74368" lon="2.73542">
        <ele>29.39999961853</ele>
        <time>2019-07-16T22:31:14.000Z</time>
      </trkpt>
      <trkpt lat="50.74368" lon="2.73548">
        <ele>29.39999961853</ele>
        <time>2019-07-16T22:31:15.000Z</time>
      </trkpt>
      <trkpt lat="50.74369" lon="2.73653">
        <ele>29.39999961853</ele>
        <time>2019-07-16T22:31:28.000Z</time>
      </trkpt>
      <trkpt lat="50.74372" lon="2.73787">
        <ele>33</ele>
        <time>2019-07-16T22:31:43.000Z</time>
      </trkpt>
      <trkpt lat="50.74374" lon="2.73881">
        <ele>34.599998474121</ele>
        <time>2019-07-16T22:31:54.000Z</time>
      </trkpt>
      <trkpt lat="50.74374" lon="2.73889">
        <ele>34.799999237061</ele>
        <time>2019-07-16T22:31:55.000Z</time>
      </trkpt>
      <trkpt lat="50.74377" lon="2.73982">
        <ele>36.599998474121</ele>
        <time>2019-07-16T22:32:07.000Z</time>
      </trkpt>
      <trkpt lat="50.74377" lon="2.73988">
        <ele>36.799999237061</ele>
        <time>2019-07-16T22:32:08.000Z</time>
      </trkpt>
      <trkpt lat="50.74376" lon="2.73994">
        <ele>37</ele>
        <time>2019-07-16T22:32:09.000Z</time>
      </trkpt>
      <trkpt lat="50.74373" lon="2.73999">
        <ele>37</ele>
        <time>2019-07-16T22:32:10.000Z</time>
      </trkpt>
      <trkpt lat="50.7437" lon="2.74002">
        <ele>37.200000762939</ele>
        <time>2019-07-16T22:32:11.000Z</time>
      </trkpt>
      <trkpt lat="50.74365" lon="2.74003">
        <ele>37.200000762939</ele>
        <time>2019-07-16T22:32:12.000Z</time>
      </trkpt>
      <trkpt lat="50.74361" lon="2.74004">
        <ele>37.400001525879</ele>
        <time>2019-07-16T22:32:13.000Z</time>
      </trkpt>
      <trkpt lat="50.74356" lon="2.74004">
        <ele>37.400001525879</ele>
        <time>2019-07-16T22:32:14.000Z</time>
      </trkpt>
      <trkpt lat="50.74337" lon="2.74007">
        <ele>37.599998474121</ele>
        <time>2019-07-16T22:32:18.000Z</time>
      </trkpt>
      <trkpt lat="50.74259" lon="2.74031">
        <ele>38.400001525879</ele>
        <time>2019-07-16T22:32:33.000Z</time>
      </trkpt>
      <trkpt lat="50.74229" lon="2.74041">
        <ele>38</ele>
        <time>2019-07-16T22:32:40.000Z</time>
      </trkpt>
      <trkpt lat="50.74225" lon="2.74044">
        <ele>38</ele>
        <time>2019-07-16T22:32:41.000Z</time>
      </trkpt>
      <trkpt lat="50.74223" lon="2.74049">
        <ele>38</ele>
        <time>2019-07-16T22:32:42.000Z</time>
      </trkpt>
      <trkpt lat="50.74223" lon="2.74056">
        <ele>38</ele>
        <time>2019-07-16T22:32:43.000Z</time>
      </trkpt>
      <trkpt lat="50.74223" lon="2.74063">
        <ele>38</ele>
        <time>2019-07-16T22:32:44.000Z</time>
      </trkpt>
      <trkpt lat="50.74224" lon="2.74071">
        <ele>38</ele>
        <time>2019-07-16T22:32:45.000Z</time>
      </trkpt>
      <trkpt lat="50.74226" lon="2.74095">
        <ele>38.200000762939</ele>
        <time>2019-07-16T22:32:48.000Z</time>
      </trkpt>
      <trkpt lat="50.74233" lon="2.74207">
        <ele>37.200000762939</ele>
        <time>2019-07-16T22:32:59.000Z</time>
      </trkpt>
      <trkpt lat="50.74247" lon="2.74392">
        <ele>36.599998474121</ele>
        <time>2019-07-16T22:33:16.000Z</time>
      </trkpt>
      <trkpt lat="50.74248" lon="2.74402">
        <ele>36.599998474121</ele>
        <time>2019-07-16T22:33:17.000Z</time>
      </trkpt>
      <trkpt lat="50.74255" lon="2.74555">
        <ele>34.400001525879</ele>
        <time>2019-07-16T22:33:31.000Z</time>
      </trkpt>
      <trkpt lat="50.74243" lon="2.74722">
        <ele>31.799999237061</ele>
        <time>2019-07-16T22:33:46.000Z</time>
      </trkpt>
      <trkpt lat="50.74234" lon="2.74893">
        <ele>29.60000038147</ele>
        <time>2019-07-16T22:34:01.000Z</time>
      </trkpt>
      <trkpt lat="50.74226" lon="2.7505">
        <ele>27</ele>
        <time>2019-07-16T22:34:15.000Z</time>
      </trkpt>
      <trkpt lat="50.74224" lon="2.75084">
        <ele>27</ele>
        <time>2019-07-16T22:34:18.000Z</time>
      </trkpt>
      <trkpt lat="50.74223" lon="2.75095">
        <ele>27</ele>
        <time>2019-07-16T22:34:19.000Z</time>
      </trkpt>
      <trkpt lat="50.74216" lon="2.75174">
        <ele>26.799999237061</ele>
        <time>2019-07-16T22:34:26.000Z</time>
      </trkpt>
      <trkpt lat="50.74208" lon="2.75237">
        <ele>25.799999237061</ele>
        <time>2019-07-16T22:34:32.000Z</time>
      </trkpt>
      <trkpt lat="50.74206" lon="2.75245">
        <ele>25.60000038147</ele>
        <time>2019-07-16T22:34:33.000Z</time>
      </trkpt>
      <trkpt lat="50.74201" lon="2.75253">
        <ele>25.60000038147</ele>
        <time>2019-07-16T22:34:34.000Z</time>
      </trkpt>
      <trkpt lat="50.74195" lon="2.75257">
        <ele>25.39999961853</ele>
        <time>2019-07-16T22:34:35.000Z</time>
      </trkpt>
      <trkpt lat="50.74189" lon="2.75258">
        <ele>25.200000762939</ele>
        <time>2019-07-16T22:34:36.000Z</time>
      </trkpt>
      <trkpt lat="50.74182" lon="2.75256">
        <ele>25</ele>
        <time>2019-07-16T22:34:37.000Z</time>
      </trkpt>
      <trkpt lat="50.74176" lon="2.75252">
        <ele>25</ele>
        <time>2019-07-16T22:34:38.000Z</time>
      </trkpt>
      <trkpt lat="50.74078" lon="2.75178">
        <ele>23.200000762939</ele>
        <time>2019-07-16T22:34:53.000Z</time>
      </trkpt>
      <trkpt lat="50.73999" lon="2.75118">
        <ele>24.200000762939</ele>
        <time>2019-07-16T22:35:05.000Z</time>
      </trkpt>
      <trkpt lat="50.73991" lon="2.75117">
        <ele>24.39999961853</ele>
        <time>2019-07-16T22:35:06.000Z</time>
      </trkpt>
      <trkpt lat="50.73984" lon="2.75116">
        <ele>24.39999961853</ele>
        <time>2019-07-16T22:35:07.000Z</time>
      </trkpt>
      <trkpt lat="50.73976" lon="2.75117">
        <ele>24.60000038147</ele>
        <time>2019-07-16T22:35:08.000Z</time>
      </trkpt>
      <trkpt lat="50.73969" lon="2.75118">
        <ele>24.60000038147</ele>
        <time>2019-07-16T22:35:09.000Z</time>
      </trkpt>
      <trkpt lat="50.73886" lon="2.7517">
        <ele>25</ele>
        <time>2019-07-16T22:35:21.000Z</time>
      </trkpt>
      <trkpt lat="50.73822" lon="2.75218">
        <ele>24.200000762939</ele>
        <time>2019-07-16T22:35:31.000Z</time>
      </trkpt>
      <trkpt lat="50.73815" lon="2.7522">
        <ele>24.200000762939</ele>
        <time>2019-07-16T22:35:32.000Z</time>
      </trkpt>
      <trkpt lat="50.73801" lon="2.7522">
        <ele>24</ele>
        <time>2019-07-16T22:35:34.000Z</time>
      </trkpt>
      <trkpt lat="50.73722" lon="2.75189">
        <ele>24</ele>
        <time>2019-07-16T22:35:46.000Z</time>
      </trkpt>
      <trkpt lat="50.73703" lon="2.75187">
        <ele>24.200000762939</ele>
        <time>2019-07-16T22:35:49.000Z</time>
      </trkpt>
      <trkpt lat="50.73696" lon="2.75189">
        <ele>24.200000762939</ele>
        <time>2019-07-16T22:35:50.000Z</time>
      </trkpt>
      <trkpt lat="50.73655" lon="2.75205">
        <ele>24.799999237061</ele>
        <time>2019-07-16T22:35:57.000Z</time>
      </trkpt>
      <trkpt lat="50.7365" lon="2.75209">
        <ele>24.799999237061</ele>
        <time>2019-07-16T22:35:58.000Z</time>
      </trkpt>
      <trkpt lat="50.73645" lon="2.75214">
        <ele>25</ele>
        <time>2019-07-16T22:35:59.000Z</time>
      </trkpt>
      <trkpt lat="50.73642" lon="2.75221">
        <ele>25</ele>
        <time>2019-07-16T22:36:00.000Z</time>
      </trkpt>
      <trkpt lat="50.73639" lon="2.75229">
        <ele>25</ele>
        <time>2019-07-16T22:36:01.000Z</time>
      </trkpt>
      <trkpt lat="50.73637" lon="2.75237">
        <ele>25</ele>
        <time>2019-07-16T22:36:02.000Z</time>
      </trkpt>
      <trkpt lat="50.73636" lon="2.75245">
        <ele>25</ele>
        <time>2019-07-16T22:36:03.000Z</time>
      </trkpt>
      <trkpt lat="50.73635" lon="2.75255">
        <ele>25</ele>
        <time>2019-07-16T22:36:04.000Z</time>
      </trkpt>
      <trkpt lat="50.73634" lon="2.75265">
        <ele>25.200000762939</ele>
        <time>2019-07-16T22:36:05.000Z</time>
      </trkpt>
      <trkpt lat="50.73633" lon="2.75273">
        <ele>25.200000762939</ele>
        <time>2019-07-16T22:36:06.000Z</time>
      </trkpt>
      <trkpt lat="50.73633" lon="2.75283">
        <ele>25.39999961853</ele>
        <time>2019-07-16T22:36:07.000Z</time>
      </trkpt>
      <trkpt lat="50.73629" lon="2.75336">
        <ele>26</ele>
        <time>2019-07-16T22:36:13.000Z</time>
      </trkpt>
      <trkpt lat="50.73627" lon="2.75346">
        <ele>26.200000762939</ele>
        <time>2019-07-16T22:36:14.000Z</time>
      </trkpt>
      <trkpt lat="50.73625" lon="2.75354">
        <ele>26.39999961853</ele>
        <time>2019-07-16T22:36:15.000Z</time>
      </trkpt>
      <trkpt lat="50.73622" lon="2.75362">
        <ele>26.39999961853</ele>
        <time>2019-07-16T22:36:16.000Z</time>
      </trkpt>
      <trkpt lat="50.73619" lon="2.7537">
        <ele>26.60000038147</ele>
        <time>2019-07-16T22:36:17.000Z</time>
      </trkpt>
      <trkpt lat="50.73615" lon="2.75376">
        <ele>26.799999237061</ele>
        <time>2019-07-16T22:36:18.000Z</time>
      </trkpt>
      <trkpt lat="50.73612" lon="2.75383">
        <ele>26.799999237061</ele>
        <time>2019-07-16T22:36:19.000Z</time>
      </trkpt>
      <trkpt lat="50.7358" lon="2.75437">
        <ele>28</ele>
        <time>2019-07-16T22:36:27.000Z</time>
      </trkpt>
      <trkpt lat="50.73577" lon="2.75446">
        <ele>28.39999961853</ele>
        <time>2019-07-16T22:36:28.000Z</time>
      </trkpt>
      <trkpt lat="50.73576" lon="2.75453">
        <ele>28.60000038147</ele>
        <time>2019-07-16T22:36:29.000Z</time>
      </trkpt>
      <trkpt lat="50.73574" lon="2.75463">
        <ele>28.799999237061</ele>
        <time>2019-07-16T22:36:30.000Z</time>
      </trkpt>
      <trkpt lat="50.73574" lon="2.75472">
        <ele>29</ele>
        <time>2019-07-16T22:36:31.000Z</time>
      </trkpt>
      <trkpt lat="50.73574" lon="2.7548">
        <ele>29.200000762939</ele>
        <time>2019-07-16T22:36:32.000Z</time>
      </trkpt>
      <trkpt lat="50.73571" lon="2.75515">
        <ele>29.799999237061</ele>
        <time>2019-07-16T22:36:36.000Z</time>
      </trkpt>
      <trkpt lat="50.73569" lon="2.75523">
        <ele>29.799999237061</ele>
        <time>2019-07-16T22:36:37.000Z</time>
      </trkpt>
      <trkpt lat="50.73565" lon="2.75531">
        <ele>29.799999237061</ele>
        <time>2019-07-16T22:36:38.000Z</time>
      </trkpt>
      <trkpt lat="50.73562" lon="2.75536">
        <ele>30</ele>
        <time>2019-07-16T22:36:39.000Z</time>
      </trkpt>
      <trkpt lat="50.73557" lon="2.75543">
        <ele>30</ele>
        <time>2019-07-16T22:36:40.000Z</time>
      </trkpt>
      <trkpt lat="50.73553" lon="2.75548">
        <ele>30</ele>
        <time>2019-07-16T22:36:41.000Z</time>
      </trkpt>
      <trkpt lat="50.73549" lon="2.75553">
        <ele>30.200000762939</ele>
        <time>2019-07-16T22:36:42.000Z</time>
      </trkpt>
      <trkpt lat="50.73508" lon="2.75582">
        <ele>31</ele>
        <time>2019-07-16T22:36:50.000Z</time>
      </trkpt>
      <trkpt lat="50.73504" lon="2.75586">
        <ele>31.200000762939</ele>
        <time>2019-07-16T22:36:51.000Z</time>
      </trkpt>
      <trkpt lat="50.735" lon="2.75591">
        <ele>31.39999961853</ele>
        <time>2019-07-16T22:36:52.000Z</time>
      </trkpt>
      <trkpt lat="50.73498" lon="2.75598">
        <ele>31.39999961853</ele>
        <time>2019-07-16T22:36:53.000Z</time>
      </trkpt>
      <trkpt lat="50.73496" lon="2.75606">
        <ele>31.60000038147</ele>
        <time>2019-07-16T22:36:54.000Z</time>
      </trkpt>
      <trkpt lat="50.73495" lon="2.75613">
        <ele>31.799999237061</ele>
        <time>2019-07-16T22:36:55.000Z</time>
      </trkpt>
      <trkpt lat="50.73495" lon="2.75622">
        <ele>31.799999237061</ele>
        <time>2019-07-16T22:36:56.000Z</time>
      </trkpt>
      <trkpt lat="50.73495" lon="2.7563">
        <ele>31.799999237061</ele>
        <time>2019-07-16T22:36:57.000Z</time>
      </trkpt>
      <trkpt lat="50.73496" lon="2.75639">
        <ele>31.60000038147</ele>
        <time>2019-07-16T22:36:58.000Z</time>
      </trkpt>
      <trkpt lat="50.73515" lon="2.7579">
        <ele>32</ele>
        <time>2019-07-16T22:37:14.000Z</time>
      </trkpt>
      <trkpt lat="50.73516" lon="2.75799">
        <ele>32</ele>
        <time>2019-07-16T22:37:15.000Z</time>
      </trkpt>
      <trkpt lat="50.73516" lon="2.7581">
        <ele>32</ele>
        <time>2019-07-16T22:37:16.000Z</time>
      </trkpt>
      <trkpt lat="50.73516" lon="2.75819">
        <ele>32.200000762939</ele>
        <time>2019-07-16T22:37:17.000Z</time>
      </trkpt>
      <trkpt lat="50.73515" lon="2.75829">
        <ele>32.400001525879</ele>
        <time>2019-07-16T22:37:18.000Z</time>
      </trkpt>
      <trkpt lat="50.73527" lon="2.75952">
        <ele>31.60000038147</ele>
        <time>2019-07-16T22:37:30.000Z</time>
      </trkpt>
      <trkpt lat="50.73566" lon="2.76113">
        <ele>29.799999237061</ele>
        <time>2019-07-16T22:37:46.000Z</time>
      </trkpt>
      <trkpt lat="50.73573" lon="2.76277">
        <ele>30</ele>
        <time>2019-07-16T22:38:01.000Z</time>
      </trkpt>
      <trkpt lat="50.73603" lon="2.76432">
        <ele>29.799999237061</ele>
        <time>2019-07-16T22:38:16.000Z</time>
      </trkpt>
      <trkpt lat="50.73645" lon="2.76549">
        <ele>31.200000762939</ele>
        <time>2019-07-16T22:38:29.000Z</time>
      </trkpt>
      <trkpt lat="50.73664" lon="2.76676">
        <ele>31.39999961853</ele>
        <time>2019-07-16T22:38:42.000Z</time>
      </trkpt>
      <trkpt lat="50.73677" lon="2.76768">
        <ele>33.799999237061</ele>
        <time>2019-07-16T22:38:52.000Z</time>
      </trkpt>
      <trkpt lat="50.73677" lon="2.76777">
        <ele>34</ele>
        <time>2019-07-16T22:38:53.000Z</time>
      </trkpt>
      <trkpt lat="50.73683" lon="2.76884">
        <ele>36.200000762939</ele>
        <time>2019-07-16T22:39:05.000Z</time>
      </trkpt>
      <trkpt lat="50.73683" lon="2.76892">
        <ele>36.200000762939</ele>
        <time>2019-07-16T22:39:06.000Z</time>
      </trkpt>
      <trkpt lat="50.73687" lon="2.7702">
        <ele>39</ele>
        <time>2019-07-16T22:39:22.000Z</time>
      </trkpt>
      <trkpt lat="50.73685" lon="2.77092">
        <ele>41.599998474121</ele>
        <time>2019-07-16T22:39:31.000Z</time>
      </trkpt>
      <trkpt lat="50.7368" lon="2.77133">
        <ele>43.599998474121</ele>
        <time>2019-07-16T22:39:36.000Z</time>
      </trkpt>
      <trkpt lat="50.73679" lon="2.77142">
        <ele>44</ele>
        <time>2019-07-16T22:39:37.000Z</time>
      </trkpt>
      <trkpt lat="50.73674" lon="2.77224">
        <ele>45.400001525879</ele>
        <time>2019-07-16T22:39:47.000Z</time>
      </trkpt>
      <trkpt lat="50.73674" lon="2.77232">
        <ele>45.400001525879</ele>
        <time>2019-07-16T22:39:48.000Z</time>
      </trkpt>
      <trkpt lat="50.73677" lon="2.77254">
        <ele>45.400001525879</ele>
        <time>2019-07-16T22:39:51.000Z</time>
      </trkpt>
      <trkpt lat="50.73678" lon="2.77261">
        <ele>45.599998474121</ele>
        <time>2019-07-16T22:39:52.000Z</time>
      </trkpt>
      <trkpt lat="50.73715" lon="2.77389">
        <ele>47.200000762939</ele>
        <time>2019-07-16T22:40:10.000Z</time>
      </trkpt>
      <trkpt lat="50.73752" lon="2.77528">
        <ele>45.200000762939</ele>
        <time>2019-07-16T22:40:25.000Z</time>
      </trkpt>
      <trkpt lat="50.73786" lon="2.77657">
        <ele>43.200000762939</ele>
        <time>2019-07-16T22:40:38.000Z</time>
      </trkpt>
      <trkpt lat="50.73799" lon="2.77747">
        <ele>41.200000762939</ele>
        <time>2019-07-16T22:40:46.000Z</time>
      </trkpt>
      <trkpt lat="50.73805" lon="2.77868">
        <ele>37.799999237061</ele>
        <time>2019-07-16T22:40:56.000Z</time>
      </trkpt>
      <trkpt lat="50.73809" lon="2.77917">
        <ele>36</ele>
        <time>2019-07-16T22:41:00.000Z</time>
      </trkpt>
      <trkpt lat="50.73811" lon="2.77928">
        <ele>35.799999237061</ele>
        <time>2019-07-16T22:41:01.000Z</time>
      </trkpt>
      <trkpt lat="50.73815" lon="2.7794">
        <ele>35.400001525879</ele>
        <time>2019-07-16T22:41:02.000Z</time>
      </trkpt>
      <trkpt lat="50.73819" lon="2.77951">
        <ele>35</ele>
        <time>2019-07-16T22:41:03.000Z</time>
      </trkpt>
      <trkpt lat="50.73825" lon="2.77961">
        <ele>34.599998474121</ele>
        <time>2019-07-16T22:41:04.000Z</time>
      </trkpt>
      <trkpt lat="50.7383" lon="2.77969">
        <ele>34.200000762939</ele>
        <time>2019-07-16T22:41:05.000Z</time>
      </trkpt>
      <trkpt lat="50.73837" lon="2.77978">
        <ele>34</ele>
        <time>2019-07-16T22:41:06.000Z</time>
      </trkpt>
      <trkpt lat="50.73885" lon="2.78037">
        <ele>33</ele>
        <time>2019-07-16T22:41:13.000Z</time>
      </trkpt>
      <trkpt lat="50.73956" lon="2.78119">
        <ele>35.200000762939</ele>
        <time>2019-07-16T22:41:25.000Z</time>
      </trkpt>
      <trkpt lat="50.74007" lon="2.7822">
        <ele>35.799999237061</ele>
        <time>2019-07-16T22:41:38.000Z</time>
      </trkpt>
      <trkpt lat="50.74024" lon="2.7826">
        <ele>35.799999237061</ele>
        <time>2019-07-16T22:41:42.000Z</time>
      </trkpt>
      <trkpt lat="50.74041" lon="2.78314">
        <ele>35.200000762939</ele>
        <time>2019-07-16T22:41:47.000Z</time>
      </trkpt>
      <trkpt lat="50.74043" lon="2.78325">
        <ele>35</ele>
        <time>2019-07-16T22:41:48.000Z</time>
      </trkpt>
      <trkpt lat="50.74066" lon="2.78415">
        <ele>39</ele>
        <time>2019-07-16T22:41:57.000Z</time>
      </trkpt>
      <trkpt lat="50.74081" lon="2.78465">
        <ele>42.400001525879</ele>
        <time>2019-07-16T22:42:03.000Z</time>
      </trkpt>
      <trkpt lat="50.74088" lon="2.78495">
        <ele>44.400001525879</ele>
        <time>2019-07-16T22:42:07.000Z</time>
      </trkpt>
      <trkpt lat="50.74093" lon="2.78536">
        <ele>46.400001525879</ele>
        <time>2019-07-16T22:42:12.000Z</time>
      </trkpt>
      <trkpt lat="50.74093" lon="2.78544">
        <ele>46.599998474121</ele>
        <time>2019-07-16T22:42:13.000Z</time>
      </trkpt>
      <trkpt lat="50.74093" lon="2.78551">
        <ele>47</ele>
        <time>2019-07-16T22:42:14.000Z</time>
      </trkpt>
      <trkpt lat="50.74093" lon="2.78558">
        <ele>47</ele>
        <time>2019-07-16T22:42:15.000Z</time>
      </trkpt>
      <trkpt lat="50.74091" lon="2.78564">
        <ele>47.200000762939</ele>
        <time>2019-07-16T22:42:16.000Z</time>
      </trkpt>
      <trkpt lat="50.74089" lon="2.7857">
        <ele>47</ele>
        <time>2019-07-16T22:42:17.000Z</time>
      </trkpt>
      <trkpt lat="50.74086" lon="2.78576">
        <ele>47</ele>
        <time>2019-07-16T22:42:18.000Z</time>
      </trkpt>
      <trkpt lat="50.74083" lon="2.78582">
        <ele>47</ele>
        <time>2019-07-16T22:42:19.000Z</time>
      </trkpt>
      <trkpt lat="50.7405" lon="2.78642">
        <ele>45.599998474121</ele>
        <time>2019-07-16T22:42:29.000Z</time>
      </trkpt>
      <trkpt lat="50.73997" lon="2.78752">
        <ele>43.400001525879</ele>
        <time>2019-07-16T22:42:44.000Z</time>
      </trkpt>
      <trkpt lat="50.73973" lon="2.78852">
        <ele>43.400001525879</ele>
        <time>2019-07-16T22:42:55.000Z</time>
      </trkpt>
      <trkpt lat="50.73962" lon="2.79015">
        <ele>44.799999237061</ele>
        <time>2019-07-16T22:43:10.000Z</time>
      </trkpt>
      <trkpt lat="50.73958" lon="2.7905">
        <ele>44.200000762939</ele>
        <time>2019-07-16T22:43:13.000Z</time>
      </trkpt>
      <trkpt lat="50.73956" lon="2.79061">
        <ele>43.799999237061</ele>
        <time>2019-07-16T22:43:14.000Z</time>
      </trkpt>
      <trkpt lat="50.73953" lon="2.79072">
        <ele>43.400001525879</ele>
        <time>2019-07-16T22:43:15.000Z</time>
      </trkpt>
      <trkpt lat="50.73941" lon="2.79116">
        <ele>41.799999237061</ele>
        <time>2019-07-16T22:43:19.000Z</time>
      </trkpt>
      <trkpt lat="50.73913" lon="2.79266">
        <ele>37.799999237061</ele>
        <time>2019-07-16T22:43:32.000Z</time>
      </trkpt>
      <trkpt lat="50.73894" lon="2.79456">
        <ele>36.799999237061</ele>
        <time>2019-07-16T22:43:48.000Z</time>
      </trkpt>
      <trkpt lat="50.7389" lon="2.79656">
        <ele>37.200000762939</ele>
        <time>2019-07-16T22:44:05.000Z</time>
      </trkpt>
      <trkpt lat="50.73888" lon="2.79679">
        <ele>37</ele>
        <time>2019-07-16T22:44:07.000Z</time>
      </trkpt>
      <trkpt lat="50.73874" lon="2.79849">
        <ele>36</ele>
        <time>2019-07-16T22:44:22.000Z</time>
      </trkpt>
      <trkpt lat="50.73848" lon="2.80035">
        <ele>32.799999237061</ele>
        <time>2019-07-16T22:44:38.000Z</time>
      </trkpt>
      <trkpt lat="50.73818" lon="2.80171">
        <ele>29.60000038147</ele>
        <time>2019-07-16T22:44:51.000Z</time>
      </trkpt>
      <trkpt lat="50.73783" lon="2.80325">
        <ele>28.39999961853</ele>
        <time>2019-07-16T22:45:05.000Z</time>
      </trkpt>
      <trkpt lat="50.73765" lon="2.80432">
        <ele>29.60000038147</ele>
        <time>2019-07-16T22:45:15.000Z</time>
      </trkpt>
      <trkpt lat="50.7375" lon="2.80497">
        <ele>31.39999961853</ele>
        <time>2019-07-16T22:45:23.000Z</time>
      </trkpt>
      <trkpt lat="50.73742" lon="2.80533">
        <ele>33.200000762939</ele>
        <time>2019-07-16T22:45:28.000Z</time>
      </trkpt>
      <trkpt lat="50.73736" lon="2.80554">
        <ele>34.599998474121</ele>
        <time>2019-07-16T22:45:31.000Z</time>
      </trkpt>
      <trkpt lat="50.73735" lon="2.80562">
        <ele>35</ele>
        <time>2019-07-16T22:45:32.000Z</time>
      </trkpt>
      <trkpt lat="50.73733" lon="2.80569">
        <ele>35.599998474121</ele>
        <time>2019-07-16T22:45:33.000Z</time>
      </trkpt>
      <trkpt lat="50.73731" lon="2.80576">
        <ele>36</ele>
        <time>2019-07-16T22:45:34.000Z</time>
      </trkpt>
      <trkpt lat="50.73729" lon="2.80584">
        <ele>36.599998474121</ele>
        <time>2019-07-16T22:45:35.000Z</time>
      </trkpt>
      <trkpt lat="50.73727" lon="2.80591">
        <ele>37</ele>
        <time>2019-07-16T22:45:36.000Z</time>
      </trkpt>
      <trkpt lat="50.73718" lon="2.8062">
        <ele>38.799999237061</ele>
        <time>2019-07-16T22:45:40.000Z</time>
      </trkpt>
      <trkpt lat="50.73673" lon="2.80708">
        <ele>41.799999237061</ele>
        <time>2019-07-16T22:45:54.000Z</time>
      </trkpt>
      <trkpt lat="50.73608" lon="2.80773">
        <ele>40.400001525879</ele>
        <time>2019-07-16T22:46:07.000Z</time>
      </trkpt>
      <trkpt lat="50.73578" lon="2.808">
        <ele>40</ele>
        <time>2019-07-16T22:46:13.000Z</time>
      </trkpt>
      <trkpt lat="50.73574" lon="2.80807">
        <ele>40</ele>
        <time>2019-07-16T22:46:14.000Z</time>
      </trkpt>
      <trkpt lat="50.7357" lon="2.80814">
        <ele>40</ele>
        <time>2019-07-16T22:46:15.000Z</time>
      </trkpt>
      <trkpt lat="50.73567" lon="2.80822">
        <ele>40</ele>
        <time>2019-07-16T22:46:16.000Z</time>
      </trkpt>
      <trkpt lat="50.73565" lon="2.8083">
        <ele>40.200000762939</ele>
        <time>2019-07-16T22:46:17.000Z</time>
      </trkpt>
      <trkpt lat="50.73563" lon="2.80839">
        <ele>40.400001525879</ele>
        <time>2019-07-16T22:46:18.000Z</time>
      </trkpt>
      <trkpt lat="50.73562" lon="2.80848">
        <ele>40.200000762939</ele>
        <time>2019-07-16T22:46:19.000Z</time>
      </trkpt>
      <trkpt lat="50.73561" lon="2.80857">
        <ele>40.200000762939</ele>
        <time>2019-07-16T22:46:20.000Z</time>
      </trkpt>
      <trkpt lat="50.73554" lon="2.80998">
        <ele>40</ele>
        <time>2019-07-16T22:46:36.000Z</time>
      </trkpt>
      <trkpt lat="50.73552" lon="2.81064">
        <ele>40.599998474121</ele>
        <time>2019-07-16T22:46:44.000Z</time>
      </trkpt>
      <trkpt lat="50.73553" lon="2.81071">
        <ele>40.799999237061</ele>
        <time>2019-07-16T22:46:45.000Z</time>
      </trkpt>
      <trkpt lat="50.73555" lon="2.81095">
        <ele>41.200000762939</ele>
        <time>2019-07-16T22:46:51.000Z</time>
      </trkpt>
      <trkpt lat="50.73555" lon="2.81098">
        <ele>41.200000762939</ele>
        <time>2019-07-16T22:46:52.000Z</time>
      </trkpt>
      <trkpt lat="50.73556" lon="2.81103">
        <ele>41.200000762939</ele>
        <time>2019-07-16T22:47:03.000Z</time>
      </trkpt>
      <trkpt lat="50.73556" lon="2.81103">
        <ele>41.200000762939</ele>
        <time>2019-07-16T22:47:25.000Z</time>
      </trkpt>
      <trkpt lat="50.73556" lon="2.81103">
        <ele>41.200000762939</ele>
        <time>2019-07-16T22:47:54.000Z</time>
      </trkpt>
      <trkpt lat="50.73557" lon="2.81108">
        <ele>41.400001525879</ele>
        <time>2019-07-16T22:48:13.000Z</time>
      </trkpt>
      <trkpt lat="50.73558" lon="2.8111">
        <ele>41.400001525879</ele>
        <time>2019-07-16T22:48:14.000Z</time>
      </trkpt>
      <trkpt lat="50.73558" lon="2.81113">
        <ele>41.400001525879</ele>
        <time>2019-07-16T22:48:15.000Z</time>
      </trkpt>
      <trkpt lat="50.73562" lon="2.81137">
        <ele>41.799999237061</ele>
        <time>2019-07-16T22:48:20.000Z</time>
      </trkpt>
      <trkpt lat="50.73576" lon="2.81241">
        <ele>42.599998474121</ele>
        <time>2019-07-16T22:48:32.000Z</time>
      </trkpt>
      <trkpt lat="50.73602" lon="2.8142">
        <ele>43.799999237061</ele>
        <time>2019-07-16T22:48:51.000Z</time>
      </trkpt>
      <trkpt lat="50.73608" lon="2.81472">
        <ele>43.400001525879</ele>
        <time>2019-07-16T22:48:56.000Z</time>
      </trkpt>
      <trkpt lat="50.73613" lon="2.8153">
        <ele>43.200000762939</ele>
        <time>2019-07-16T22:49:02.000Z</time>
      </trkpt>
      <trkpt lat="50.73611" lon="2.81539">
        <ele>43</ele>
        <time>2019-07-16T22:49:03.000Z</time>
      </trkpt>
      <trkpt lat="50.73607" lon="2.81545">
        <ele>43</ele>
        <time>2019-07-16T22:49:04.000Z</time>
      </trkpt>
      <trkpt lat="50.73602" lon="2.81549">
        <ele>42.799999237061</ele>
        <time>2019-07-16T22:49:05.000Z</time>
      </trkpt>
      <trkpt lat="50.73596" lon="2.81552">
        <ele>42.599998474121</ele>
        <time>2019-07-16T22:49:06.000Z</time>
      </trkpt>
      <trkpt lat="50.73535" lon="2.8158">
        <ele>40</ele>
        <time>2019-07-16T22:49:17.000Z</time>
      </trkpt>
      <trkpt lat="50.73531" lon="2.8158">
        <ele>40</ele>
        <time>2019-07-16T22:49:18.000Z</time>
      </trkpt>
      <trkpt lat="50.73527" lon="2.8158">
        <ele>39.799999237061</ele>
        <time>2019-07-16T22:49:19.000Z</time>
      </trkpt>
      <trkpt lat="50.73524" lon="2.81578">
        <ele>39.599998474121</ele>
        <time>2019-07-16T22:49:20.000Z</time>
      </trkpt>
      <trkpt lat="50.7352" lon="2.81576">
        <ele>39.400001525879</ele>
        <time>2019-07-16T22:49:21.000Z</time>
      </trkpt>
      <trkpt lat="50.73517" lon="2.81575">
        <ele>39.200000762939</ele>
        <time>2019-07-16T22:49:22.000Z</time>
      </trkpt>
      <trkpt lat="50.73514" lon="2.81572">
        <ele>39</ele>
        <time>2019-07-16T22:49:23.000Z</time>
      </trkpt>
      <trkpt lat="50.73511" lon="2.81569">
        <ele>39</ele>
        <time>2019-07-16T22:49:24.000Z</time>
      </trkpt>
      <trkpt lat="50.73507" lon="2.81566">
        <ele>38.799999237061</ele>
        <time>2019-07-16T22:49:25.000Z</time>
      </trkpt>
      <trkpt lat="50.73503" lon="2.81562">
        <ele>38.599998474121</ele>
        <time>2019-07-16T22:49:26.000Z</time>
      </trkpt>
      <trkpt lat="50.73499" lon="2.81559">
        <ele>38.400001525879</ele>
        <time>2019-07-16T22:49:27.000Z</time>
      </trkpt>
      <trkpt lat="50.73495" lon="2.81558">
        <ele>38.200000762939</ele>
        <time>2019-07-16T22:49:28.000Z</time>
      </trkpt>
      <trkpt lat="50.73492" lon="2.8156">
        <ele>38</ele>
        <time>2019-07-16T22:49:29.000Z</time>
      </trkpt>
      <trkpt lat="50.73489" lon="2.81565">
        <ele>37.799999237061</ele>
        <time>2019-07-16T22:49:30.000Z</time>
      </trkpt>
      <trkpt lat="50.73487" lon="2.81572">
        <ele>37.799999237061</ele>
        <time>2019-07-16T22:49:31.000Z</time>
      </trkpt>
      <trkpt lat="50.73485" lon="2.81583">
        <ele>37.799999237061</ele>
        <time>2019-07-16T22:49:32.000Z</time>
      </trkpt>
      <trkpt lat="50.73484" lon="2.81592">
        <ele>37.599998474121</ele>
        <time>2019-07-16T22:49:33.000Z</time>
      </trkpt>
      <trkpt lat="50.73482" lon="2.81603">
        <ele>37.400001525879</ele>
        <time>2019-07-16T22:49:34.000Z</time>
      </trkpt>
      <trkpt lat="50.73448" lon="2.81816">
        <ele>34</ele>
        <time>2019-07-16T22:49:52.000Z</time>
      </trkpt>
      <trkpt lat="50.73418" lon="2.82005">
        <ele>32.400001525879</ele>
        <time>2019-07-16T22:50:09.000Z</time>
      </trkpt>
      <trkpt lat="50.73414" lon="2.82034">
        <ele>32.400001525879</ele>
        <time>2019-07-16T22:50:12.000Z</time>
      </trkpt>
      <trkpt lat="50.73412" lon="2.82042">
        <ele>32.200000762939</ele>
        <time>2019-07-16T22:50:13.000Z</time>
      </trkpt>
      <trkpt lat="50.73409" lon="2.82049">
        <ele>32</ele>
        <time>2019-07-16T22:50:14.000Z</time>
      </trkpt>
      <trkpt lat="50.73404" lon="2.82053">
        <ele>31.799999237061</ele>
        <time>2019-07-16T22:50:15.000Z</time>
      </trkpt>
      <trkpt lat="50.73399" lon="2.82054">
        <ele>31.799999237061</ele>
        <time>2019-07-16T22:50:16.000Z</time>
      </trkpt>
      <trkpt lat="50.73394" lon="2.82051">
        <ele>31.60000038147</ele>
        <time>2019-07-16T22:50:17.000Z</time>
      </trkpt>
      <trkpt lat="50.73387" lon="2.82047">
        <ele>31.39999961853</ele>
        <time>2019-07-16T22:50:18.000Z</time>
      </trkpt>
      <trkpt lat="50.73381" lon="2.82044">
        <ele>31.39999961853</ele>
        <time>2019-07-16T22:50:19.000Z</time>
      </trkpt>
      <trkpt lat="50.73358" lon="2.82037">
        <ele>31.200000762939</ele>
        <time>2019-07-16T22:50:22.000Z</time>
      </trkpt>
      <trkpt lat="50.73336" lon="2.82036">
        <ele>31</ele>
        <time>2019-07-16T22:50:25.000Z</time>
      </trkpt>
      <trkpt lat="50.73236" lon="2.82032">
        <ele>30.60000038147</ele>
        <time>2019-07-16T22:50:38.000Z</time>
      </trkpt>
      <trkpt lat="50.73107" lon="2.82017">
        <ele>29.39999961853</ele>
        <time>2019-07-16T22:50:55.000Z</time>
      </trkpt>
      <trkpt lat="50.73011" lon="2.82007">
        <ele>29.60000038147</ele>
        <time>2019-07-16T22:51:09.000Z</time>
      </trkpt>
      <trkpt lat="50.73004" lon="2.82008">
        <ele>29.60000038147</ele>
        <time>2019-07-16T22:51:10.000Z</time>
      </trkpt>
      <trkpt lat="50.72998" lon="2.8201">
        <ele>29.60000038147</ele>
        <time>2019-07-16T22:51:11.000Z</time>
      </trkpt>
      <trkpt lat="50.72991" lon="2.82014">
        <ele>29.60000038147</ele>
        <time>2019-07-16T22:51:12.000Z</time>
      </trkpt>
      <trkpt lat="50.72985" lon="2.82018">
        <ele>29.60000038147</ele>
        <time>2019-07-16T22:51:13.000Z</time>
      </trkpt>
      <trkpt lat="50.72979" lon="2.82023">
        <ele>29.60000038147</ele>
        <time>2019-07-16T22:51:14.000Z</time>
      </trkpt>
      <trkpt lat="50.72916" lon="2.82074">
        <ele>28.200000762939</ele>
        <time>2019-07-16T22:51:25.000Z</time>
      </trkpt>
      <trkpt lat="50.72912" lon="2.82081">
        <ele>28.200000762939</ele>
        <time>2019-07-16T22:51:26.000Z</time>
      </trkpt>
      <trkpt lat="50.72909" lon="2.82089">
        <ele>28.200000762939</ele>
        <time>2019-07-16T22:51:27.000Z</time>
      </trkpt>
      <trkpt lat="50.72907" lon="2.82099">
        <ele>28.200000762939</ele>
        <time>2019-07-16T22:51:28.000Z</time>
      </trkpt>
      <trkpt lat="50.72905" lon="2.82109">
        <ele>28</ele>
        <time>2019-07-16T22:51:29.000Z</time>
      </trkpt>
      <trkpt lat="50.72895" lon="2.82161">
        <ele>28.799999237061</ele>
        <time>2019-07-16T22:51:34.000Z</time>
      </trkpt>
      <trkpt lat="50.72891" lon="2.8229">
        <ele>29</ele>
        <time>2019-07-16T22:51:46.000Z</time>
      </trkpt>
      <trkpt lat="50.72898" lon="2.82449">
        <ele>28</ele>
        <time>2019-07-16T22:52:01.000Z</time>
      </trkpt>
      <trkpt lat="50.72926" lon="2.82633">
        <ele>26.39999961853</ele>
        <time>2019-07-16T22:52:19.000Z</time>
      </trkpt>
      <trkpt lat="50.72935" lon="2.82659">
        <ele>26.200000762939</ele>
        <time>2019-07-16T22:52:22.000Z</time>
      </trkpt>
      <trkpt lat="50.72951" lon="2.82712">
        <ele>26.39999961853</ele>
        <time>2019-07-16T22:52:28.000Z</time>
      </trkpt>
      <trkpt lat="50.72953" lon="2.82722">
        <ele>26.60000038147</ele>
        <time>2019-07-16T22:52:29.000Z</time>
      </trkpt>
      <trkpt lat="50.72969" lon="2.82878">
        <ele>27</ele>
        <time>2019-07-16T22:52:44.000Z</time>
      </trkpt>
      <trkpt lat="50.72996" lon="2.83016">
        <ele>23.39999961853</ele>
        <time>2019-07-16T22:52:58.000Z</time>
      </trkpt>
      <trkpt lat="50.73021" lon="2.83149">
        <ele>21.799999237061</ele>
        <time>2019-07-16T22:53:10.000Z</time>
      </trkpt>
      <trkpt lat="50.73035" lon="2.83232">
        <ele>20.799999237061</ele>
        <time>2019-07-16T22:53:18.000Z</time>
      </trkpt>
      <trkpt lat="50.7304" lon="2.83266">
        <ele>20.799999237061</ele>
        <time>2019-07-16T22:53:25.000Z</time>
      </trkpt>
      <trkpt lat="50.73038" lon="2.83268">
        <ele>20.60000038147</ele>
        <time>2019-07-16T22:53:26.000Z</time>
      </trkpt>
      <trkpt lat="50.73036" lon="2.83271">
        <ele>20.60000038147</ele>
        <time>2019-07-16T22:53:27.000Z</time>
      </trkpt>
      <trkpt lat="50.72984" lon="2.83307">
        <ele>19.60000038147</ele>
        <time>2019-07-16T22:53:37.000Z</time>
      </trkpt>
      <trkpt lat="50.72877" lon="2.83382">
        <ele>18</ele>
        <time>2019-07-16T22:53:54.000Z</time>
      </trkpt>
      <trkpt lat="50.72786" lon="2.83479">
        <ele>17.799999237061</ele>
        <time>2019-07-16T22:54:10.000Z</time>
      </trkpt>
      <trkpt lat="50.72693" lon="2.83593">
        <ele>17.60000038147</ele>
        <time>2019-07-16T22:54:27.000Z</time>
      </trkpt>
      <trkpt lat="50.72604" lon="2.83698">
        <ele>16.799999237061</ele>
        <time>2019-07-16T22:54:43.000Z</time>
      </trkpt>
      <trkpt lat="50.725" lon="2.83825">
        <ele>17.39999961853</ele>
        <time>2019-07-16T22:55:02.000Z</time>
      </trkpt>
      <trkpt lat="50.72392" lon="2.83955">
        <ele>17</ele>
        <time>2019-07-16T22:55:22.000Z</time>
      </trkpt>
      <trkpt lat="50.72301" lon="2.84036">
        <ele>17</ele>
        <time>2019-07-16T22:55:38.000Z</time>
      </trkpt>
      <trkpt lat="50.72213" lon="2.84056">
        <ele>18</ele>
        <time>2019-07-16T22:55:52.000Z</time>
      </trkpt>
      <trkpt lat="50.72141" lon="2.84049">
        <ele>17</ele>
        <time>2019-07-16T22:56:04.000Z</time>
      </trkpt>
      <trkpt lat="50.72136" lon="2.84046">
        <ele>17</ele>
        <time>2019-07-16T22:56:05.000Z</time>
      </trkpt>
      <trkpt lat="50.72132" lon="2.84043">
        <ele>17</ele>
        <time>2019-07-16T22:56:06.000Z</time>
      </trkpt>
      <trkpt lat="50.72062" lon="2.83996">
        <ele>17</ele>
        <time>2019-07-16T22:56:19.000Z</time>
      </trkpt>
      <trkpt lat="50.7198" lon="2.83947">
        <ele>16.799999237061</ele>
        <time>2019-07-16T22:56:33.000Z</time>
      </trkpt>
      <trkpt lat="50.71955" lon="2.83941">
        <ele>17</ele>
        <time>2019-07-16T22:56:37.000Z</time>
      </trkpt>
      <trkpt lat="50.71948" lon="2.83941">
        <ele>17</ele>
        <time>2019-07-16T22:56:38.000Z</time>
      </trkpt>
      <trkpt lat="50.71849" lon="2.83978">
        <ele>17.39999961853</ele>
        <time>2019-07-16T22:56:54.000Z</time>
      </trkpt>
      <trkpt lat="50.71748" lon="2.84047">
        <ele>17</ele>
        <time>2019-07-16T22:57:11.000Z</time>
      </trkpt>
      <trkpt lat="50.71683" lon="2.84093">
        <ele>17</ele>
        <time>2019-07-16T22:57:22.000Z</time>
      </trkpt>
      <trkpt lat="50.71616" lon="2.84191">
        <ele>16</ele>
        <time>2019-07-16T22:57:36.000Z</time>
      </trkpt>
      <trkpt lat="50.71516" lon="2.84339">
        <ele>16</ele>
        <time>2019-07-16T22:57:57.000Z</time>
      </trkpt>
      <trkpt lat="50.7144" lon="2.84486">
        <ele>15.800000190735</ele>
        <time>2019-07-16T22:58:15.000Z</time>
      </trkpt>
      <trkpt lat="50.71368" lon="2.84645">
        <ele>17.39999961853</ele>
        <time>2019-07-16T22:58:34.000Z</time>
      </trkpt>
      <trkpt lat="50.71296" lon="2.8472">
        <ele>18</ele>
        <time>2019-07-16T22:58:47.000Z</time>
      </trkpt>
      <trkpt lat="50.71215" lon="2.84792">
        <ele>17.60000038147</ele>
        <time>2019-07-16T22:59:01.000Z</time>
      </trkpt>
      <trkpt lat="50.71122" lon="2.84874">
        <ele>17</ele>
        <time>2019-07-16T22:59:17.000Z</time>
      </trkpt>
      <trkpt lat="50.71095" lon="2.84898">
        <ele>17</ele>
        <time>2019-07-16T22:59:22.000Z</time>
      </trkpt>
      <trkpt lat="50.7109" lon="2.84904">
        <ele>17</ele>
        <time>2019-07-16T22:59:23.000Z</time>
      </trkpt>
      <trkpt lat="50.71014" lon="2.84994">
        <ele>18.39999961853</ele>
        <time>2019-07-16T22:59:37.000Z</time>
      </trkpt>
      <trkpt lat="50.70915" lon="2.85117">
        <ele>17.60000038147</ele>
        <time>2019-07-16T22:59:55.000Z</time>
      </trkpt>
      <trkpt lat="50.70814" lon="2.85212">
        <ele>16.200000762939</ele>
        <time>2019-07-16T23:00:12.000Z</time>
      </trkpt>
      <trkpt lat="50.70716" lon="2.85321">
        <ele>16.799999237061</ele>
        <time>2019-07-16T23:00:29.000Z</time>
      </trkpt>
      <trkpt lat="50.70633" lon="2.85417">
        <ele>17</ele>
        <time>2019-07-16T23:00:44.000Z</time>
      </trkpt>
      <trkpt lat="50.70543" lon="2.85524">
        <ele>17.200000762939</ele>
        <time>2019-07-16T23:01:01.000Z</time>
      </trkpt>
      <trkpt lat="50.70452" lon="2.85641">
        <ele>17.200000762939</ele>
        <time>2019-07-16T23:01:18.000Z</time>
      </trkpt>
      <trkpt lat="50.70434" lon="2.85659">
        <ele>16.39999961853</ele>
        <time>2019-07-16T23:01:21.000Z</time>
      </trkpt>
      <trkpt lat="50.70428" lon="2.85664">
        <ele>16.200000762939</ele>
        <time>2019-07-16T23:01:22.000Z</time>
      </trkpt>
      <trkpt lat="50.70422" lon="2.85668">
        <ele>16</ele>
        <time>2019-07-16T23:01:23.000Z</time>
      </trkpt>
      <trkpt lat="50.70397" lon="2.85683">
        <ele>15.199999809265</ele>
        <time>2019-07-16T23:01:27.000Z</time>
      </trkpt>
      <trkpt lat="50.70392" lon="2.85688">
        <ele>15.39999961853</ele>
        <time>2019-07-16T23:01:28.000Z</time>
      </trkpt>
      <trkpt lat="50.70326" lon="2.8579">
        <ele>16.799999237061</ele>
        <time>2019-07-16T23:01:41.000Z</time>
      </trkpt>
      <trkpt lat="50.70252" lon="2.85926">
        <ele>16.200000762939</ele>
        <time>2019-07-16T23:01:58.000Z</time>
      </trkpt>
      <trkpt lat="50.70203" lon="2.86016">
        <ele>17</ele>
        <time>2019-07-16T23:02:11.000Z</time>
      </trkpt>
      <trkpt lat="50.70196" lon="2.86025">
        <ele>17</ele>
        <time>2019-07-16T23:02:13.000Z</time>
      </trkpt>
      <trkpt lat="50.70185" lon="2.86041">
        <ele>17</ele>
        <time>2019-07-16T23:02:17.000Z</time>
      </trkpt>
      <trkpt lat="50.70185" lon="2.86046">
        <ele>17</ele>
        <time>2019-07-16T23:02:18.000Z</time>
      </trkpt>
      <trkpt lat="50.70187" lon="2.86051">
        <ele>16.799999237061</ele>
        <time>2019-07-16T23:02:19.000Z</time>
      </trkpt>
      <trkpt lat="50.70191" lon="2.86056">
        <ele>16.799999237061</ele>
        <time>2019-07-16T23:02:20.000Z</time>
      </trkpt>
      <trkpt lat="50.70194" lon="2.8606">
        <ele>16.60000038147</ele>
        <time>2019-07-16T23:02:21.000Z</time>
      </trkpt>
      <trkpt lat="50.70223" lon="2.8609">
        <ele>16</ele>
        <time>2019-07-16T23:02:27.000Z</time>
      </trkpt>
      <trkpt lat="50.70276" lon="2.86144">
        <ele>15.39999961853</ele>
        <time>2019-07-16T23:02:37.000Z</time>
      </trkpt>
      <trkpt lat="50.70281" lon="2.86151">
        <ele>15.199999809265</ele>
        <time>2019-07-16T23:02:38.000Z</time>
      </trkpt>
      <trkpt lat="50.70368" lon="2.86267">
        <ele>16</ele>
        <time>2019-07-16T23:02:55.000Z</time>
      </trkpt>
      <trkpt lat="50.70459" lon="2.86409">
        <ele>16.200000762939</ele>
        <time>2019-07-16T23:03:13.000Z</time>
      </trkpt>
      <trkpt lat="50.70477" lon="2.86442">
        <ele>16.200000762939</ele>
        <time>2019-07-16T23:03:17.000Z</time>
      </trkpt>
      <trkpt lat="50.70555" lon="2.86578">
        <ele>17</ele>
        <time>2019-07-16T23:03:33.000Z</time>
      </trkpt>
      <trkpt lat="50.7057" lon="2.86605">
        <ele>16.799999237061</ele>
        <time>2019-07-16T23:03:36.000Z</time>
      </trkpt>
      <trkpt lat="50.7063" lon="2.86718">
        <ele>16.60000038147</ele>
        <time>2019-07-16T23:03:50.000Z</time>
      </trkpt>
      <trkpt lat="50.70694" lon="2.86832">
        <ele>17.200000762939</ele>
        <time>2019-07-16T23:04:04.000Z</time>
      </trkpt>
      <trkpt lat="50.70704" lon="2.86859">
        <ele>17.200000762939</ele>
        <time>2019-07-16T23:04:07.000Z</time>
      </trkpt>
      <trkpt lat="50.70707" lon="2.86869">
        <ele>17.200000762939</ele>
        <time>2019-07-16T23:04:08.000Z</time>
      </trkpt>
      <trkpt lat="50.7073" lon="2.87033">
        <ele>17</ele>
        <time>2019-07-16T23:04:23.000Z</time>
      </trkpt>
      <trkpt lat="50.70752" lon="2.8719">
        <ele>16.60000038147</ele>
        <time>2019-07-16T23:04:38.000Z</time>
      </trkpt>
      <trkpt lat="50.70772" lon="2.87339">
        <ele>16.39999961853</ele>
        <time>2019-07-16T23:04:52.000Z</time>
      </trkpt>
      <trkpt lat="50.70781" lon="2.87508">
        <ele>16.200000762939</ele>
        <time>2019-07-16T23:05:07.000Z</time>
      </trkpt>
      <trkpt lat="50.7082" lon="2.87639">
        <ele>16.39999961853</ele>
        <time>2019-07-16T23:05:20.000Z</time>
      </trkpt>
      <trkpt lat="50.70872" lon="2.87755">
        <ele>17.200000762939</ele>
        <time>2019-07-16T23:05:33.000Z</time>
      </trkpt>
      <trkpt lat="50.70934" lon="2.87899">
        <ele>17.799999237061</ele>
        <time>2019-07-16T23:05:49.000Z</time>
      </trkpt>
      <trkpt lat="50.70975" lon="2.88014">
        <ele>17</ele>
        <time>2019-07-16T23:06:01.000Z</time>
      </trkpt>
      <trkpt lat="50.70977" lon="2.88025">
        <ele>17</ele>
        <time>2019-07-16T23:06:02.000Z</time>
      </trkpt>
      <trkpt lat="50.70978" lon="2.88035">
        <ele>17</ele>
        <time>2019-07-16T23:06:03.000Z</time>
      </trkpt>
      <trkpt lat="50.70978" lon="2.88092">
        <ele>17</ele>
        <time>2019-07-16T23:06:09.000Z</time>
      </trkpt>
      <trkpt lat="50.70976" lon="2.88102">
        <ele>17.200000762939</ele>
        <time>2019-07-16T23:06:10.000Z</time>
      </trkpt>
      <trkpt lat="50.70973" lon="2.88117">
        <ele>17.39999961853</ele>
        <time>2019-07-16T23:06:12.000Z</time>
      </trkpt>
      <trkpt lat="50.7097" lon="2.88124">
        <ele>17.39999961853</ele>
        <time>2019-07-16T23:06:13.000Z</time>
      </trkpt>
      <trkpt lat="50.70967" lon="2.88131">
        <ele>17.60000038147</ele>
        <time>2019-07-16T23:06:14.000Z</time>
      </trkpt>
      <trkpt lat="50.70965" lon="2.88139">
        <ele>17.799999237061</ele>
        <time>2019-07-16T23:06:15.000Z</time>
      </trkpt>
      <trkpt lat="50.70963" lon="2.88146">
        <ele>17.799999237061</ele>
        <time>2019-07-16T23:06:16.000Z</time>
      </trkpt>
      <trkpt lat="50.70958" lon="2.88151">
        <ele>18</ele>
        <time>2019-07-16T23:06:17.000Z</time>
      </trkpt>
      <trkpt lat="50.70954" lon="2.88154">
        <ele>18.200000762939</ele>
        <time>2019-07-16T23:06:18.000Z</time>
      </trkpt>
      <trkpt lat="50.70948" lon="2.88156">
        <ele>18.200000762939</ele>
        <time>2019-07-16T23:06:19.000Z</time>
      </trkpt>
      <trkpt lat="50.70942" lon="2.88158">
        <ele>18.200000762939</ele>
        <time>2019-07-16T23:06:20.000Z</time>
      </trkpt>
      <trkpt lat="50.70936" lon="2.88161">
        <ele>18.200000762939</ele>
        <time>2019-07-16T23:06:21.000Z</time>
      </trkpt>
      <trkpt lat="50.70861" lon="2.88217">
        <ele>18</ele>
        <time>2019-07-16T23:06:34.000Z</time>
      </trkpt>
      <trkpt lat="50.70799" lon="2.88265">
        <ele>18</ele>
        <time>2019-07-16T23:06:46.000Z</time>
      </trkpt>
      <trkpt lat="50.70737" lon="2.88317">
        <ele>18.39999961853</ele>
        <time>2019-07-16T23:06:58.000Z</time>
      </trkpt>
      <trkpt lat="50.70716" lon="2.88331">
        <ele>18.799999237061</ele>
        <time>2019-07-16T23:07:02.000Z</time>
      </trkpt>
      <trkpt lat="50.70661" lon="2.88375">
        <ele>18.200000762939</ele>
        <time>2019-07-16T23:07:13.000Z</time>
      </trkpt>
      <trkpt lat="50.70657" lon="2.88381">
        <ele>18.200000762939</ele>
        <time>2019-07-16T23:07:14.000Z</time>
      </trkpt>
      <trkpt lat="50.70655" lon="2.8839">
        <ele>18.200000762939</ele>
        <time>2019-07-16T23:07:15.000Z</time>
      </trkpt>
      <trkpt lat="50.70654" lon="2.884">
        <ele>18.200000762939</ele>
        <time>2019-07-16T23:07:16.000Z</time>
      </trkpt>
      <trkpt lat="50.70655" lon="2.88409">
        <ele>18.200000762939</ele>
        <time>2019-07-16T23:07:17.000Z</time>
      </trkpt>
      <trkpt lat="50.70656" lon="2.8842">
        <ele>18.200000762939</ele>
        <time>2019-07-16T23:07:18.000Z</time>
      </trkpt>
      <trkpt lat="50.70657" lon="2.88431">
        <ele>18.200000762939</ele>
        <time>2019-07-16T23:07:19.000Z</time>
      </trkpt>
      <trkpt lat="50.70663" lon="2.88618">
        <ele>16.39999961853</ele>
        <time>2019-07-16T23:07:36.000Z</time>
      </trkpt>
      <trkpt lat="50.70668" lon="2.88779">
        <ele>16.60000038147</ele>
        <time>2019-07-16T23:07:51.000Z</time>
      </trkpt>
      <trkpt lat="50.70671" lon="2.88893">
        <ele>17.200000762939</ele>
        <time>2019-07-16T23:08:02.000Z</time>
      </trkpt>
      <trkpt lat="50.70674" lon="2.88904">
        <ele>17.200000762939</ele>
        <time>2019-07-16T23:08:03.000Z</time>
      </trkpt>
      <trkpt lat="50.70677" lon="2.88912">
        <ele>17</ele>
        <time>2019-07-16T23:08:04.000Z</time>
      </trkpt>
      <trkpt lat="50.70681" lon="2.88921">
        <ele>17</ele>
        <time>2019-07-16T23:08:05.000Z</time>
      </trkpt>
      <trkpt lat="50.70686" lon="2.8893">
        <ele>16.799999237061</ele>
        <time>2019-07-16T23:08:06.000Z</time>
      </trkpt>
      <trkpt lat="50.70716" lon="2.88989">
        <ele>16</ele>
        <time>2019-07-16T23:08:14.000Z</time>
      </trkpt>
      <trkpt lat="50.7072" lon="2.88995">
        <ele>16</ele>
        <time>2019-07-16T23:08:15.000Z</time>
      </trkpt>
      <trkpt lat="50.70723" lon="2.89001">
        <ele>16</ele>
        <time>2019-07-16T23:08:16.000Z</time>
      </trkpt>
      <trkpt lat="50.70726" lon="2.89008">
        <ele>16</ele>
        <time>2019-07-16T23:08:17.000Z</time>
      </trkpt>
      <trkpt lat="50.70726" lon="2.89016">
        <ele>16</ele>
        <time>2019-07-16T23:08:18.000Z</time>
      </trkpt>
      <trkpt lat="50.70724" lon="2.89021">
        <ele>16.200000762939</ele>
        <time>2019-07-16T23:08:19.000Z</time>
      </trkpt>
      <trkpt lat="50.70717" lon="2.89028">
        <ele>16.39999961853</ele>
        <time>2019-07-16T23:08:20.000Z</time>
      </trkpt>
      <trkpt lat="50.7064" lon="2.89117">
        <ele>18.200000762939</ele>
        <time>2019-07-16T23:08:34.000Z</time>
      </trkpt>
      <trkpt lat="50.70555" lon="2.89213">
        <ele>17</ele>
        <time>2019-07-16T23:08:49.000Z</time>
      </trkpt>
      <trkpt lat="50.70465" lon="2.89319">
        <ele>16.200000762939</ele>
        <time>2019-07-16T23:09:05.000Z</time>
      </trkpt>
      <trkpt lat="50.70383" lon="2.89418">
        <ele>16</ele>
        <time>2019-07-16T23:09:20.000Z</time>
      </trkpt>
      <trkpt lat="50.70289" lon="2.89525">
        <ele>16.200000762939</ele>
        <time>2019-07-16T23:09:36.000Z</time>
      </trkpt>
      <trkpt lat="50.70188" lon="2.89621">
        <ele>16.200000762939</ele>
        <time>2019-07-16T23:09:52.000Z</time>
      </trkpt>
      <trkpt lat="50.70076" lon="2.8971">
        <ele>16.799999237061</ele>
        <time>2019-07-16T23:10:09.000Z</time>
      </trkpt>
      <trkpt lat="50.69968" lon="2.89799">
        <ele>16.39999961853</ele>
        <time>2019-07-16T23:10:26.000Z</time>
      </trkpt>
      <trkpt lat="50.6988" lon="2.89892">
        <ele>15</ele>
        <time>2019-07-16T23:10:41.000Z</time>
      </trkpt>
      <trkpt lat="50.69789" lon="2.90027">
        <ele>14.800000190735</ele>
        <time>2019-07-16T23:10:59.000Z</time>
      </trkpt>
      <trkpt lat="50.69731" lon="2.90151">
        <ele>14</ele>
        <time>2019-07-16T23:11:13.000Z</time>
      </trkpt>
      <trkpt lat="50.69725" lon="2.90158">
        <ele>14</ele>
        <time>2019-07-16T23:11:14.000Z</time>
      </trkpt>
      <trkpt lat="50.69689" lon="2.90204">
        <ele>13.60000038147</ele>
        <time>2019-07-16T23:11:23.000Z</time>
      </trkpt>
      <trkpt lat="50.69689" lon="2.9021">
        <ele>13.60000038147</ele>
        <time>2019-07-16T23:11:24.000Z</time>
      </trkpt>
      <trkpt lat="50.6969" lon="2.90216">
        <ele>13.60000038147</ele>
        <time>2019-07-16T23:11:25.000Z</time>
      </trkpt>
      <trkpt lat="50.69691" lon="2.90224">
        <ele>13.60000038147</ele>
        <time>2019-07-16T23:11:26.000Z</time>
      </trkpt>
      <trkpt lat="50.69693" lon="2.90232">
        <ele>13.60000038147</ele>
        <time>2019-07-16T23:11:27.000Z</time>
      </trkpt>
      <trkpt lat="50.69698" lon="2.90248">
        <ele>13.800000190735</ele>
        <time>2019-07-16T23:11:29.000Z</time>
      </trkpt>
      <trkpt lat="50.69732" lon="2.90319">
        <ele>13.800000190735</ele>
        <time>2019-07-16T23:11:37.000Z</time>
      </trkpt>
      <trkpt lat="50.698" lon="2.90448">
        <ele>13</ele>
        <time>2019-07-16T23:11:53.000Z</time>
      </trkpt>
      <trkpt lat="50.69823" lon="2.90488">
        <ele>12.800000190735</ele>
        <time>2019-07-16T23:11:59.000Z</time>
      </trkpt>
      <trkpt lat="50.69826" lon="2.90495">
        <ele>12.800000190735</ele>
        <time>2019-07-16T23:12:00.000Z</time>
      </trkpt>
      <trkpt lat="50.69828" lon="2.90501">
        <ele>12.800000190735</ele>
        <time>2019-07-16T23:12:01.000Z</time>
      </trkpt>
      <trkpt lat="50.69829" lon="2.90508">
        <ele>12.60000038147</ele>
        <time>2019-07-16T23:12:02.000Z</time>
      </trkpt>
      <trkpt lat="50.69829" lon="2.90517">
        <ele>12.60000038147</ele>
        <time>2019-07-16T23:12:03.000Z</time>
      </trkpt>
      <trkpt lat="50.69828" lon="2.90524">
        <ele>12.800000190735</ele>
        <time>2019-07-16T23:12:04.000Z</time>
      </trkpt>
      <trkpt lat="50.69826" lon="2.90529">
        <ele>12.800000190735</ele>
        <time>2019-07-16T23:12:05.000Z</time>
      </trkpt>
      <trkpt lat="50.69823" lon="2.90535">
        <ele>12.60000038147</ele>
        <time>2019-07-16T23:12:06.000Z</time>
      </trkpt>
      <trkpt lat="50.69819" lon="2.90541">
        <ele>12.60000038147</ele>
        <time>2019-07-16T23:12:07.000Z</time>
      </trkpt>
      <trkpt lat="50.69814" lon="2.90545">
        <ele>12.60000038147</ele>
        <time>2019-07-16T23:12:08.000Z</time>
      </trkpt>
      <trkpt lat="50.6981" lon="2.90551">
        <ele>12.39999961853</ele>
        <time>2019-07-16T23:12:09.000Z</time>
      </trkpt>
      <trkpt lat="50.69806" lon="2.90556">
        <ele>12.39999961853</ele>
        <time>2019-07-16T23:12:10.000Z</time>
      </trkpt>
      <trkpt lat="50.69776" lon="2.90601">
        <ele>12.199999809265</ele>
        <time>2019-07-16T23:12:17.000Z</time>
      </trkpt>
      <trkpt lat="50.69767" lon="2.90618">
        <ele>12.199999809265</ele>
        <time>2019-07-16T23:12:19.000Z</time>
      </trkpt>
      <trkpt lat="50.69761" lon="2.90626">
        <ele>12</ele>
        <time>2019-07-16T23:12:20.000Z</time>
      </trkpt>
      <trkpt lat="50.69755" lon="2.90633">
        <ele>12</ele>
        <time>2019-07-16T23:12:21.000Z</time>
      </trkpt>
      <trkpt lat="50.6969" lon="2.90729">
        <ele>13</ele>
        <time>2019-07-16T23:12:34.000Z</time>
      </trkpt>
      <trkpt lat="50.69643" lon="2.90797">
        <ele>11.60000038147</ele>
        <time>2019-07-16T23:12:43.000Z</time>
      </trkpt>
      <trkpt lat="50.6961" lon="2.90847">
        <ele>11</ele>
        <time>2019-07-16T23:12:50.000Z</time>
      </trkpt>
      <trkpt lat="50.69587" lon="2.90881">
        <ele>12.199999809265</ele>
        <time>2019-07-16T23:12:55.000Z</time>
      </trkpt>
      <trkpt lat="50.69583" lon="2.90888">
        <ele>12.199999809265</ele>
        <time>2019-07-16T23:12:56.000Z</time>
      </trkpt>
      <trkpt lat="50.6955" lon="2.90937">
        <ele>13</ele>
        <time>2019-07-16T23:13:03.000Z</time>
      </trkpt>
      <trkpt lat="50.69523" lon="2.90977">
        <ele>12.60000038147</ele>
        <time>2019-07-16T23:13:08.000Z</time>
      </trkpt>
      <trkpt lat="50.69493" lon="2.91021">
        <ele>13.800000190735</ele>
        <time>2019-07-16T23:13:14.000Z</time>
      </trkpt>
      <trkpt lat="50.69486" lon="2.91037">
        <ele>14.199999809265</ele>
        <time>2019-07-16T23:13:16.000Z</time>
      </trkpt>
      <trkpt lat="50.69483" lon="2.91045">
        <ele>14.199999809265</ele>
        <time>2019-07-16T23:13:17.000Z</time>
      </trkpt>
      <trkpt lat="50.69481" lon="2.91053">
        <ele>14.39999961853</ele>
        <time>2019-07-16T23:13:18.000Z</time>
      </trkpt>
      <trkpt lat="50.6948" lon="2.91061">
        <ele>14.60000038147</ele>
        <time>2019-07-16T23:13:19.000Z</time>
      </trkpt>
      <trkpt lat="50.69478" lon="2.91069">
        <ele>14.60000038147</ele>
        <time>2019-07-16T23:13:20.000Z</time>
      </trkpt>
      <trkpt lat="50.69478" lon="2.91078">
        <ele>14.800000190735</ele>
        <time>2019-07-16T23:13:21.000Z</time>
      </trkpt>
      <trkpt lat="50.69477" lon="2.91086">
        <ele>14.800000190735</ele>
        <time>2019-07-16T23:13:22.000Z</time>
      </trkpt>
      <trkpt lat="50.69467" lon="2.91153">
        <ele>15.800000190735</ele>
        <time>2019-07-16T23:13:30.000Z</time>
      </trkpt>
      <trkpt lat="50.69465" lon="2.91161">
        <ele>16</ele>
        <time>2019-07-16T23:13:31.000Z</time>
      </trkpt>
      <trkpt lat="50.69461" lon="2.91168">
        <ele>16</ele>
        <time>2019-07-16T23:13:32.000Z</time>
      </trkpt>
      <trkpt lat="50.69423" lon="2.91241">
        <ele>17.200000762939</ele>
        <time>2019-07-16T23:13:45.000Z</time>
      </trkpt>
      <trkpt lat="50.69392" lon="2.91297">
        <ele>17.39999961853</ele>
        <time>2019-07-16T23:13:55.000Z</time>
      </trkpt>
      <trkpt lat="50.69361" lon="2.91332">
        <ele>17.60000038147</ele>
        <time>2019-07-16T23:14:04.000Z</time>
      </trkpt>
      <trkpt lat="50.69361" lon="2.91339">
        <ele>17.60000038147</ele>
        <time>2019-07-16T23:14:05.000Z</time>
      </trkpt>
      <trkpt lat="50.69363" lon="2.91344">
        <ele>17.60000038147</ele>
        <time>2019-07-16T23:14:06.000Z</time>
      </trkpt>
      <trkpt lat="50.69366" lon="2.91349">
        <ele>17.60000038147</ele>
        <time>2019-07-16T23:14:07.000Z</time>
      </trkpt>
      <trkpt lat="50.69369" lon="2.91354">
        <ele>17.60000038147</ele>
        <time>2019-07-16T23:14:08.000Z</time>
      </trkpt>
      <trkpt lat="50.69412" lon="2.91432">
        <ele>17.39999961853</ele>
        <time>2019-07-16T23:14:19.000Z</time>
      </trkpt>
      <trkpt lat="50.69484" lon="2.91546">
        <ele>16.60000038147</ele>
        <time>2019-07-16T23:14:36.000Z</time>
      </trkpt>
      <trkpt lat="50.69488" lon="2.91552">
        <ele>16.60000038147</ele>
        <time>2019-07-16T23:14:37.000Z</time>
      </trkpt>
      <trkpt lat="50.69521" lon="2.9161">
        <ele>16</ele>
        <time>2019-07-16T23:14:46.000Z</time>
      </trkpt>
      <trkpt lat="50.69523" lon="2.91618">
        <ele>16</ele>
        <time>2019-07-16T23:14:47.000Z</time>
      </trkpt>
      <trkpt lat="50.69523" lon="2.91627">
        <ele>16.200000762939</ele>
        <time>2019-07-16T23:14:48.000Z</time>
      </trkpt>
      <trkpt lat="50.6952" lon="2.91634">
        <ele>16.39999961853</ele>
        <time>2019-07-16T23:14:49.000Z</time>
      </trkpt>
      <trkpt lat="50.69517" lon="2.91639">
        <ele>16.39999961853</ele>
        <time>2019-07-16T23:14:50.000Z</time>
      </trkpt>
      <trkpt lat="50.69457" lon="2.91738">
        <ele>18</ele>
        <time>2019-07-16T23:15:03.000Z</time>
      </trkpt>
      <trkpt lat="50.6943" lon="2.91786">
        <ele>18.39999961853</ele>
        <time>2019-07-16T23:15:09.000Z</time>
      </trkpt>
      <trkpt lat="50.69426" lon="2.91796">
        <ele>18.39999961853</ele>
        <time>2019-07-16T23:15:10.000Z</time>
      </trkpt>
      <trkpt lat="50.69423" lon="2.91805">
        <ele>18.39999961853</ele>
        <time>2019-07-16T23:15:11.000Z</time>
      </trkpt>
      <trkpt lat="50.69419" lon="2.91813">
        <ele>18.200000762939</ele>
        <time>2019-07-16T23:15:12.000Z</time>
      </trkpt>
      <trkpt lat="50.69414" lon="2.91818">
        <ele>18</ele>
        <time>2019-07-16T23:15:13.000Z</time>
      </trkpt>
      <trkpt lat="50.69407" lon="2.91823">
        <ele>17.799999237061</ele>
        <time>2019-07-16T23:15:14.000Z</time>
      </trkpt>
      <trkpt lat="50.69402" lon="2.91829">
        <ele>17.60000038147</ele>
        <time>2019-07-16T23:15:15.000Z</time>
      </trkpt>
      <trkpt lat="50.69398" lon="2.91836">
        <ele>17.39999961853</ele>
        <time>2019-07-16T23:15:16.000Z</time>
      </trkpt>
      <trkpt lat="50.69394" lon="2.91845">
        <ele>17.200000762939</ele>
        <time>2019-07-16T23:15:17.000Z</time>
      </trkpt>
      <trkpt lat="50.69322" lon="2.91981">
        <ele>16.60000038147</ele>
        <time>2019-07-16T23:15:34.000Z</time>
      </trkpt>
      <trkpt lat="50.69287" lon="2.92052">
        <ele>17.200000762939</ele>
        <time>2019-07-16T23:15:43.000Z</time>
      </trkpt>
      <trkpt lat="50.69285" lon="2.92057">
        <ele>17.200000762939</ele>
        <time>2019-07-16T23:15:44.000Z</time>
      </trkpt>
      <trkpt lat="50.6924" lon="2.92136">
        <ele>17.39999961853</ele>
        <time>2019-07-16T23:15:55.000Z</time>
      </trkpt>
      <trkpt lat="50.69193" lon="2.92218">
        <ele>17.60000038147</ele>
        <time>2019-07-16T23:16:09.000Z</time>
      </trkpt>
      <trkpt lat="50.69187" lon="2.92236">
        <ele>17.60000038147</ele>
        <time>2019-07-16T23:16:12.000Z</time>
      </trkpt>
      <trkpt lat="50.69184" lon="2.92242">
        <ele>17.60000038147</ele>
        <time>2019-07-16T23:16:13.000Z</time>
      </trkpt>
      <trkpt lat="50.69174" lon="2.92264">
        <ele>17.39999961853</ele>
        <time>2019-07-16T23:16:16.000Z</time>
      </trkpt>
      <trkpt lat="50.69113" lon="2.92383">
        <ele>17</ele>
        <time>2019-07-16T23:16:31.000Z</time>
      </trkpt>
      <trkpt lat="50.69053" lon="2.92534">
        <ele>17</ele>
        <time>2019-07-16T23:16:48.000Z</time>
      </trkpt>
      <trkpt lat="50.69041" lon="2.92584">
        <ele>17</ele>
        <time>2019-07-16T23:16:53.000Z</time>
      </trkpt>
      <trkpt lat="50.69037" lon="2.92593">
        <ele>17</ele>
        <time>2019-07-16T23:16:54.000Z</time>
      </trkpt>
      <trkpt lat="50.68973" lon="2.92703">
        <ele>16</ele>
        <time>2019-07-16T23:17:08.000Z</time>
      </trkpt>
      <trkpt lat="50.68912" lon="2.92824">
        <ele>16.200000762939</ele>
        <time>2019-07-16T23:17:23.000Z</time>
      </trkpt>
      <trkpt lat="50.6891" lon="2.92834">
        <ele>16</ele>
        <time>2019-07-16T23:17:24.000Z</time>
      </trkpt>
      <trkpt lat="50.6891" lon="2.92845">
        <ele>16</ele>
        <time>2019-07-16T23:17:25.000Z</time>
      </trkpt>
      <trkpt lat="50.68911" lon="2.92854">
        <ele>16.200000762939</ele>
        <time>2019-07-16T23:17:26.000Z</time>
      </trkpt>
      <trkpt lat="50.68914" lon="2.92864">
        <ele>16.200000762939</ele>
        <time>2019-07-16T23:17:27.000Z</time>
      </trkpt>
      <trkpt lat="50.68917" lon="2.92872">
        <ele>16.39999961853</ele>
        <time>2019-07-16T23:17:28.000Z</time>
      </trkpt>
      <trkpt lat="50.6892" lon="2.9288">
        <ele>16.39999961853</ele>
        <time>2019-07-16T23:17:29.000Z</time>
      </trkpt>
      <trkpt lat="50.6893" lon="2.92906">
        <ele>16.799999237061</ele>
        <time>2019-07-16T23:17:32.000Z</time>
      </trkpt>
      <trkpt lat="50.68932" lon="2.92915">
        <ele>16.799999237061</ele>
        <time>2019-07-16T23:17:33.000Z</time>
      </trkpt>
      <trkpt lat="50.68933" lon="2.92926">
        <ele>17</ele>
        <time>2019-07-16T23:17:34.000Z</time>
      </trkpt>
      <trkpt lat="50.68934" lon="2.92935">
        <ele>17.200000762939</ele>
        <time>2019-07-16T23:17:35.000Z</time>
      </trkpt>
      <trkpt lat="50.68933" lon="2.92946">
        <ele>17.200000762939</ele>
        <time>2019-07-16T23:17:36.000Z</time>
      </trkpt>
      <trkpt lat="50.6893" lon="2.92955">
        <ele>17.39999961853</ele>
        <time>2019-07-16T23:17:37.000Z</time>
      </trkpt>
      <trkpt lat="50.68927" lon="2.92964">
        <ele>17.39999961853</ele>
        <time>2019-07-16T23:17:38.000Z</time>
      </trkpt>
      <trkpt lat="50.68924" lon="2.92973">
        <ele>17.60000038147</ele>
        <time>2019-07-16T23:17:39.000Z</time>
      </trkpt>
      <trkpt lat="50.68861" lon="2.93105">
        <ele>17.60000038147</ele>
        <time>2019-07-16T23:17:55.000Z</time>
      </trkpt>
      <trkpt lat="50.68795" lon="2.93247">
        <ele>17.200000762939</ele>
        <time>2019-07-16T23:18:12.000Z</time>
      </trkpt>
      <trkpt lat="50.6872" lon="2.93411">
        <ele>18</ele>
        <time>2019-07-16T23:18:31.000Z</time>
      </trkpt>
      <trkpt lat="50.68633" lon="2.93508">
        <ele>17</ele>
        <time>2019-07-16T23:18:47.000Z</time>
      </trkpt>
      <trkpt lat="50.68548" lon="2.93596">
        <ele>17</ele>
        <time>2019-07-16T23:19:02.000Z</time>
      </trkpt>
      <trkpt lat="50.68464" lon="2.93736">
        <ele>16.799999237061</ele>
        <time>2019-07-16T23:19:20.000Z</time>
      </trkpt>
      <trkpt lat="50.68407" lon="2.93849">
        <ele>19.39999961853</ele>
        <time>2019-07-16T23:19:34.000Z</time>
      </trkpt>
      <trkpt lat="50.68406" lon="2.93859">
        <ele>19.60000038147</ele>
        <time>2019-07-16T23:19:35.000Z</time>
      </trkpt>
      <trkpt lat="50.68405" lon="2.93869">
        <ele>19.39999961853</ele>
        <time>2019-07-16T23:19:36.000Z</time>
      </trkpt>
      <trkpt lat="50.68405" lon="2.93879">
        <ele>19.39999961853</ele>
        <time>2019-07-16T23:19:37.000Z</time>
      </trkpt>
      <trkpt lat="50.68406" lon="2.9389">
        <ele>19.200000762939</ele>
        <time>2019-07-16T23:19:38.000Z</time>
      </trkpt>
      <trkpt lat="50.68407" lon="2.93899">
        <ele>19</ele>
        <time>2019-07-16T23:19:39.000Z</time>
      </trkpt>
      <trkpt lat="50.68407" lon="2.9391">
        <ele>19</ele>
        <time>2019-07-16T23:19:40.000Z</time>
      </trkpt>
      <trkpt lat="50.68407" lon="2.9392">
        <ele>18.799999237061</ele>
        <time>2019-07-16T23:19:41.000Z</time>
      </trkpt>
      <trkpt lat="50.68405" lon="2.93931">
        <ele>18.799999237061</ele>
        <time>2019-07-16T23:19:42.000Z</time>
      </trkpt>
      <trkpt lat="50.68402" lon="2.93939">
        <ele>19</ele>
        <time>2019-07-16T23:19:43.000Z</time>
      </trkpt>
      <trkpt lat="50.68399" lon="2.93947">
        <ele>18.799999237061</ele>
        <time>2019-07-16T23:19:44.000Z</time>
      </trkpt>
      <trkpt lat="50.68395" lon="2.93956">
        <ele>18.799999237061</ele>
        <time>2019-07-16T23:19:45.000Z</time>
      </trkpt>
      <trkpt lat="50.68334" lon="2.94075">
        <ele>18</ele>
        <time>2019-07-16T23:20:00.000Z</time>
      </trkpt>
      <trkpt lat="50.68273" lon="2.94207">
        <ele>18</ele>
        <time>2019-07-16T23:20:16.000Z</time>
      </trkpt>
      <trkpt lat="50.6822" lon="2.94296">
        <ele>18</ele>
        <time>2019-07-16T23:20:28.000Z</time>
      </trkpt>
      <trkpt lat="50.68215" lon="2.94303">
        <ele>18</ele>
        <time>2019-07-16T23:20:29.000Z</time>
      </trkpt>
      <trkpt lat="50.68151" lon="2.94405">
        <ele>18</ele>
        <time>2019-07-16T23:20:43.000Z</time>
      </trkpt>
      <trkpt lat="50.68078" lon="2.94533">
        <ele>19.60000038147</ele>
        <time>2019-07-16T23:20:59.000Z</time>
      </trkpt>
      <trkpt lat="50.68001" lon="2.94681">
        <ele>17.60000038147</ele>
        <time>2019-07-16T23:21:17.000Z</time>
      </trkpt>
      <trkpt lat="50.67982" lon="2.94738">
        <ele>17.799999237061</ele>
        <time>2019-07-16T23:21:23.000Z</time>
      </trkpt>
      <trkpt lat="50.6798" lon="2.94749">
        <ele>17.799999237061</ele>
        <time>2019-07-16T23:21:24.000Z</time>
      </trkpt>
      <trkpt lat="50.67981" lon="2.94759">
        <ele>17.799999237061</ele>
        <time>2019-07-16T23:21:25.000Z</time>
      </trkpt>
      <trkpt lat="50.67983" lon="2.94768">
        <ele>18</ele>
        <time>2019-07-16T23:21:26.000Z</time>
      </trkpt>
      <trkpt lat="50.67987" lon="2.94775">
        <ele>18</ele>
        <time>2019-07-16T23:21:27.000Z</time>
      </trkpt>
      <trkpt lat="50.67992" lon="2.94781">
        <ele>18</ele>
        <time>2019-07-16T23:21:28.000Z</time>
      </trkpt>
      <trkpt lat="50.68" lon="2.94793">
        <ele>18</ele>
        <time>2019-07-16T23:21:30.000Z</time>
      </trkpt>
      <trkpt lat="50.68002" lon="2.948">
        <ele>17.799999237061</ele>
        <time>2019-07-16T23:21:31.000Z</time>
      </trkpt>
      <trkpt lat="50.68004" lon="2.94808">
        <ele>17.799999237061</ele>
        <time>2019-07-16T23:21:32.000Z</time>
      </trkpt>
      <trkpt lat="50.68003" lon="2.94817">
        <ele>17.60000038147</ele>
        <time>2019-07-16T23:21:33.000Z</time>
      </trkpt>
      <trkpt lat="50.68001" lon="2.94825">
        <ele>17.60000038147</ele>
        <time>2019-07-16T23:21:34.000Z</time>
      </trkpt>
      <trkpt lat="50.67998" lon="2.94833">
        <ele>17.39999961853</ele>
        <time>2019-07-16T23:21:35.000Z</time>
      </trkpt>
      <trkpt lat="50.67994" lon="2.94841">
        <ele>17.200000762939</ele>
        <time>2019-07-16T23:21:36.000Z</time>
      </trkpt>
      <trkpt lat="50.67989" lon="2.94849">
        <ele>17.200000762939</ele>
        <time>2019-07-16T23:21:37.000Z</time>
      </trkpt>
      <trkpt lat="50.67926" lon="2.94955">
        <ele>16.799999237061</ele>
        <time>2019-07-16T23:21:51.000Z</time>
      </trkpt>
      <trkpt lat="50.67853" lon="2.95085">
        <ele>18</ele>
        <time>2019-07-16T23:22:08.000Z</time>
      </trkpt>
      <trkpt lat="50.67776" lon="2.95196">
        <ele>19.39999961853</ele>
        <time>2019-07-16T23:22:24.000Z</time>
      </trkpt>
      <trkpt lat="50.67699" lon="2.95305">
        <ele>18.60000038147</ele>
        <time>2019-07-16T23:22:40.000Z</time>
      </trkpt>
      <trkpt lat="50.67625" lon="2.95394">
        <ele>20</ele>
        <time>2019-07-16T23:22:56.000Z</time>
      </trkpt>
      <trkpt lat="50.67615" lon="2.95416">
        <ele>20</ele>
        <time>2019-07-16T23:23:03.000Z</time>
      </trkpt>
      <trkpt lat="50.67616" lon="2.95422">
        <ele>20</ele>
        <time>2019-07-16T23:23:04.000Z</time>
      </trkpt>
      <trkpt lat="50.67619" lon="2.95427">
        <ele>20</ele>
        <time>2019-07-16T23:23:05.000Z</time>
      </trkpt>
      <trkpt lat="50.67637" lon="2.95455">
        <ele>19.60000038147</ele>
        <time>2019-07-16T23:23:10.000Z</time>
      </trkpt>
      <trkpt lat="50.67697" lon="2.95545">
        <ele>19</ele>
        <time>2019-07-16T23:23:23.000Z</time>
      </trkpt>
      <trkpt lat="50.67766" lon="2.95615">
        <ele>18.799999237061</ele>
        <time>2019-07-16T23:23:36.000Z</time>
      </trkpt>
      <trkpt lat="50.67857" lon="2.95671">
        <ele>17.39999961853</ele>
        <time>2019-07-16T23:23:51.000Z</time>
      </trkpt>
      <trkpt lat="50.67905" lon="2.95725">
        <ele>17</ele>
        <time>2019-07-16T23:24:00.000Z</time>
      </trkpt>
      <trkpt lat="50.67977" lon="2.95865">
        <ele>18.39999961853</ele>
        <time>2019-07-16T23:24:17.000Z</time>
      </trkpt>
      <trkpt lat="50.68005" lon="2.95924">
        <ele>19.39999961853</ele>
        <time>2019-07-16T23:24:25.000Z</time>
      </trkpt>
      <trkpt lat="50.68009" lon="2.9593">
        <ele>19.60000038147</ele>
        <time>2019-07-16T23:24:26.000Z</time>
      </trkpt>
      <trkpt lat="50.68013" lon="2.95935">
        <ele>19.60000038147</ele>
        <time>2019-07-16T23:24:27.000Z</time>
      </trkpt>
      <trkpt lat="50.68026" lon="2.95951">
        <ele>20</ele>
        <time>2019-07-16T23:24:30.000Z</time>
      </trkpt>
      <trkpt lat="50.68029" lon="2.95957">
        <ele>20.200000762939</ele>
        <time>2019-07-16T23:24:31.000Z</time>
      </trkpt>
      <trkpt lat="50.68031" lon="2.95966">
        <ele>20.200000762939</ele>
        <time>2019-07-16T23:24:32.000Z</time>
      </trkpt>
      <trkpt lat="50.68032" lon="2.95976">
        <ele>20.39999961853</ele>
        <time>2019-07-16T23:24:33.000Z</time>
      </trkpt>
      <trkpt lat="50.68031" lon="2.95985">
        <ele>20.39999961853</ele>
        <time>2019-07-16T23:24:34.000Z</time>
      </trkpt>
      <trkpt lat="50.68029" lon="2.9599">
        <ele>20.39999961853</ele>
        <time>2019-07-16T23:24:35.000Z</time>
      </trkpt>
      <trkpt lat="50.68026" lon="2.95998">
        <ele>20.60000038147</ele>
        <time>2019-07-16T23:24:36.000Z</time>
      </trkpt>
      <trkpt lat="50.68022" lon="2.96005">
        <ele>20.60000038147</ele>
        <time>2019-07-16T23:24:37.000Z</time>
      </trkpt>
      <trkpt lat="50.68018" lon="2.96013">
        <ele>20.60000038147</ele>
        <time>2019-07-16T23:24:38.000Z</time>
      </trkpt>
      <trkpt lat="50.67949" lon="2.96146">
        <ele>18.39999961853</ele>
        <time>2019-07-16T23:24:55.000Z</time>
      </trkpt>
      <trkpt lat="50.67876" lon="2.9629">
        <ele>20</ele>
        <time>2019-07-16T23:25:13.000Z</time>
      </trkpt>
      <trkpt lat="50.67859" lon="2.96319">
        <ele>20</ele>
        <time>2019-07-16T23:25:17.000Z</time>
      </trkpt>
      <trkpt lat="50.67854" lon="2.96325">
        <ele>20.200000762939</ele>
        <time>2019-07-16T23:25:18.000Z</time>
      </trkpt>
      <trkpt lat="50.67757" lon="2.96422">
        <ele>21</ele>
        <time>2019-07-16T23:25:36.000Z</time>
      </trkpt>
      <trkpt lat="50.67658" lon="2.96515">
        <ele>19.200000762939</ele>
        <time>2019-07-16T23:25:54.000Z</time>
      </trkpt>
      <trkpt lat="50.67602" lon="2.96566">
        <ele>18.60000038147</ele>
        <time>2019-07-16T23:26:06.000Z</time>
      </trkpt>
      <trkpt lat="50.67599" lon="2.96573">
        <ele>18.799999237061</ele>
        <time>2019-07-16T23:26:07.000Z</time>
      </trkpt>
      <trkpt lat="50.67599" lon="2.96581">
        <ele>18.799999237061</ele>
        <time>2019-07-16T23:26:08.000Z</time>
      </trkpt>
      <trkpt lat="50.676" lon="2.96588">
        <ele>19</ele>
        <time>2019-07-16T23:26:09.000Z</time>
      </trkpt>
      <trkpt lat="50.67601" lon="2.96596">
        <ele>19</ele>
        <time>2019-07-16T23:26:10.000Z</time>
      </trkpt>
      <trkpt lat="50.67603" lon="2.96605">
        <ele>19</ele>
        <time>2019-07-16T23:26:11.000Z</time>
      </trkpt>
      <trkpt lat="50.67643" lon="2.96763">
        <ele>18</ele>
        <time>2019-07-16T23:26:28.000Z</time>
      </trkpt>
      <trkpt lat="50.67685" lon="2.9692">
        <ele>17.200000762939</ele>
        <time>2019-07-16T23:26:45.000Z</time>
      </trkpt>
      <trkpt lat="50.67735" lon="2.97077">
        <ele>19.200000762939</ele>
        <time>2019-07-16T23:27:02.000Z</time>
      </trkpt>
      <trkpt lat="50.67763" lon="2.97212">
        <ele>18.60000038147</ele>
        <time>2019-07-16T23:27:16.000Z</time>
      </trkpt>
      <trkpt lat="50.67782" lon="2.97339">
        <ele>17.799999237061</ele>
        <time>2019-07-16T23:27:29.000Z</time>
      </trkpt>
      <trkpt lat="50.6781" lon="2.97471">
        <ele>20.799999237061</ele>
        <time>2019-07-16T23:27:43.000Z</time>
      </trkpt>
      <trkpt lat="50.67844" lon="2.97605">
        <ele>20.60000038147</ele>
        <time>2019-07-16T23:27:57.000Z</time>
      </trkpt>
      <trkpt lat="50.67859" lon="2.97659">
        <ele>20</ele>
        <time>2019-07-16T23:28:03.000Z</time>
      </trkpt>
      <trkpt lat="50.67863" lon="2.97666">
        <ele>19.799999237061</ele>
        <time>2019-07-16T23:28:04.000Z</time>
      </trkpt>
      <trkpt lat="50.67867" lon="2.97671">
        <ele>19.799999237061</ele>
        <time>2019-07-16T23:28:05.000Z</time>
      </trkpt>
      <trkpt lat="50.67872" lon="2.97675">
        <ele>19.60000038147</ele>
        <time>2019-07-16T23:28:06.000Z</time>
      </trkpt>
      <trkpt lat="50.67878" lon="2.97676">
        <ele>19.39999961853</ele>
        <time>2019-07-16T23:28:07.000Z</time>
      </trkpt>
      <trkpt lat="50.67883" lon="2.97679">
        <ele>19.200000762939</ele>
        <time>2019-07-16T23:28:08.000Z</time>
      </trkpt>
      <trkpt lat="50.67887" lon="2.97686">
        <ele>19</ele>
        <time>2019-07-16T23:28:09.000Z</time>
      </trkpt>
      <trkpt lat="50.6789" lon="2.97697">
        <ele>19</ele>
        <time>2019-07-16T23:28:10.000Z</time>
      </trkpt>
      <trkpt lat="50.67891" lon="2.97706">
        <ele>19</ele>
        <time>2019-07-16T23:28:11.000Z</time>
      </trkpt>
      <trkpt lat="50.67892" lon="2.97717">
        <ele>19</ele>
        <time>2019-07-16T23:28:12.000Z</time>
      </trkpt>
      <trkpt lat="50.67905" lon="2.97821">
        <ele>19.200000762939</ele>
        <time>2019-07-16T23:28:22.000Z</time>
      </trkpt>
      <trkpt lat="50.67904" lon="2.97831">
        <ele>19.200000762939</ele>
        <time>2019-07-16T23:28:23.000Z</time>
      </trkpt>
      <trkpt lat="50.67903" lon="2.97842">
        <ele>19.200000762939</ele>
        <time>2019-07-16T23:28:24.000Z</time>
      </trkpt>
      <trkpt lat="50.679" lon="2.97852">
        <ele>19.200000762939</ele>
        <time>2019-07-16T23:28:25.000Z</time>
      </trkpt>
      <trkpt lat="50.67898" lon="2.97862">
        <ele>19.200000762939</ele>
        <time>2019-07-16T23:28:26.000Z</time>
      </trkpt>
      <trkpt lat="50.67881" lon="2.97909">
        <ele>19</ele>
        <time>2019-07-16T23:28:31.000Z</time>
      </trkpt>
      <trkpt lat="50.67869" lon="2.97934">
        <ele>19</ele>
        <time>2019-07-16T23:28:34.000Z</time>
      </trkpt>
      <trkpt lat="50.67864" lon="2.97941">
        <ele>19</ele>
        <time>2019-07-16T23:28:35.000Z</time>
      </trkpt>
      <trkpt lat="50.67858" lon="2.97948">
        <ele>19</ele>
        <time>2019-07-16T23:28:36.000Z</time>
      </trkpt>
      <trkpt lat="50.67781" lon="2.9804">
        <ele>20.60000038147</ele>
        <time>2019-07-16T23:28:50.000Z</time>
      </trkpt>
      <trkpt lat="50.67775" lon="2.98045">
        <ele>20.799999237061</ele>
        <time>2019-07-16T23:28:51.000Z</time>
      </trkpt>
      <trkpt lat="50.67769" lon="2.9805">
        <ele>21</ele>
        <time>2019-07-16T23:28:52.000Z</time>
      </trkpt>
      <trkpt lat="50.67665" lon="2.98141">
        <ele>19.799999237061</ele>
        <time>2019-07-16T23:29:09.000Z</time>
      </trkpt>
      <trkpt lat="50.6759" lon="2.98203">
        <ele>24</ele>
        <time>2019-07-16T23:29:21.000Z</time>
      </trkpt>
      <trkpt lat="50.67539" lon="2.98251">
        <ele>26.60000038147</ele>
        <time>2019-07-16T23:29:30.000Z</time>
      </trkpt>
      <trkpt lat="50.67534" lon="2.98254">
        <ele>27</ele>
        <time>2019-07-16T23:29:31.000Z</time>
      </trkpt>
      <trkpt lat="50.67527" lon="2.98258">
        <ele>27.200000762939</ele>
        <time>2019-07-16T23:29:32.000Z</time>
      </trkpt>
      <trkpt lat="50.67521" lon="2.9826">
        <ele>27.60000038147</ele>
        <time>2019-07-16T23:29:33.000Z</time>
      </trkpt>
      <trkpt lat="50.67514" lon="2.9826">
        <ele>27.799999237061</ele>
        <time>2019-07-16T23:29:34.000Z</time>
      </trkpt>
      <trkpt lat="50.67508" lon="2.98261">
        <ele>28.200000762939</ele>
        <time>2019-07-16T23:29:35.000Z</time>
      </trkpt>
      <trkpt lat="50.67495" lon="2.98264">
        <ele>28.799999237061</ele>
        <time>2019-07-16T23:29:37.000Z</time>
      </trkpt>
      <trkpt lat="50.67489" lon="2.98267">
        <ele>29.200000762939</ele>
        <time>2019-07-16T23:29:38.000Z</time>
      </trkpt>
      <trkpt lat="50.67483" lon="2.98271">
        <ele>29.60000038147</ele>
        <time>2019-07-16T23:29:39.000Z</time>
      </trkpt>
      <trkpt lat="50.67478" lon="2.98276">
        <ele>29.60000038147</ele>
        <time>2019-07-16T23:29:40.000Z</time>
      </trkpt>
      <trkpt lat="50.67473" lon="2.98282">
        <ele>29.60000038147</ele>
        <time>2019-07-16T23:29:41.000Z</time>
      </trkpt>
      <trkpt lat="50.67469" lon="2.98287">
        <ele>29.60000038147</ele>
        <time>2019-07-16T23:29:42.000Z</time>
      </trkpt>
      <trkpt lat="50.67465" lon="2.98293">
        <ele>29.60000038147</ele>
        <time>2019-07-16T23:29:43.000Z</time>
      </trkpt>
      <trkpt lat="50.67461" lon="2.98299">
        <ele>29.799999237061</ele>
        <time>2019-07-16T23:29:44.000Z</time>
      </trkpt>
      <trkpt lat="50.67416" lon="2.98365">
        <ele>29.60000038147</ele>
        <time>2019-07-16T23:29:57.000Z</time>
      </trkpt>
      <trkpt lat="50.67384" lon="2.98406">
        <ele>30</ele>
        <time>2019-07-16T23:30:09.000Z</time>
      </trkpt>
      <trkpt lat="50.67364" lon="2.9844">
        <ele>30.799999237061</ele>
        <time>2019-07-16T23:30:20.000Z</time>
      </trkpt>
      <trkpt lat="50.67366" lon="2.98447">
        <ele>30.799999237061</ele>
        <time>2019-07-16T23:30:21.000Z</time>
      </trkpt>
      <trkpt lat="50.67367" lon="2.98451">
        <ele>30.799999237061</ele>
        <time>2019-07-16T23:30:22.000Z</time>
      </trkpt>
      <trkpt lat="50.6737" lon="2.98458">
        <ele>30.799999237061</ele>
        <time>2019-07-16T23:30:23.000Z</time>
      </trkpt>
      <trkpt lat="50.67372" lon="2.98464">
        <ele>30.799999237061</ele>
        <time>2019-07-16T23:30:24.000Z</time>
      </trkpt>
      <trkpt lat="50.67396" lon="2.98537">
        <ele>30.60000038147</ele>
        <time>2019-07-16T23:30:34.000Z</time>
      </trkpt>
      <trkpt lat="50.67397" lon="2.98544">
        <ele>30.60000038147</ele>
        <time>2019-07-16T23:30:35.000Z</time>
      </trkpt>
      <trkpt lat="50.67396" lon="2.98552">
        <ele>30.60000038147</ele>
        <time>2019-07-16T23:30:36.000Z</time>
      </trkpt>
      <trkpt lat="50.67393" lon="2.98559">
        <ele>30.799999237061</ele>
        <time>2019-07-16T23:30:37.000Z</time>
      </trkpt>
      <trkpt lat="50.6739" lon="2.98565">
        <ele>30.799999237061</ele>
        <time>2019-07-16T23:30:38.000Z</time>
      </trkpt>
      <trkpt lat="50.67386" lon="2.9857">
        <ele>31</ele>
        <time>2019-07-16T23:30:39.000Z</time>
      </trkpt>
      <trkpt lat="50.67382" lon="2.98576">
        <ele>31</ele>
        <time>2019-07-16T23:30:40.000Z</time>
      </trkpt>
      <trkpt lat="50.67324" lon="2.98649">
        <ele>31.60000038147</ele>
        <time>2019-07-16T23:30:52.000Z</time>
      </trkpt>
      <trkpt lat="50.67314" lon="2.9866">
        <ele>31.39999961853</ele>
        <time>2019-07-16T23:30:54.000Z</time>
      </trkpt>
      <trkpt lat="50.67238" lon="2.9875">
        <ele>31</ele>
        <time>2019-07-16T23:31:09.000Z</time>
      </trkpt>
      <trkpt lat="50.67159" lon="2.98846">
        <ele>30</ele>
        <time>2019-07-16T23:31:24.000Z</time>
      </trkpt>
      <trkpt lat="50.67072" lon="2.9895">
        <ele>28.39999961853</ele>
        <time>2019-07-16T23:31:41.000Z</time>
      </trkpt>
      <trkpt lat="50.66996" lon="2.99031">
        <ele>27.39999961853</ele>
        <time>2019-07-16T23:31:56.000Z</time>
      </trkpt>
      <trkpt lat="50.6691" lon="2.99087">
        <ele>25.60000038147</ele>
        <time>2019-07-16T23:32:11.000Z</time>
      </trkpt>
      <trkpt lat="50.66885" lon="2.99103">
        <ele>25.200000762939</ele>
        <time>2019-07-16T23:32:15.000Z</time>
      </trkpt>
      <trkpt lat="50.66879" lon="2.99108">
        <ele>25.200000762939</ele>
        <time>2019-07-16T23:32:16.000Z</time>
      </trkpt>
      <trkpt lat="50.66875" lon="2.99113">
        <ele>25.200000762939</ele>
        <time>2019-07-16T23:32:17.000Z</time>
      </trkpt>
      <trkpt lat="50.66804" lon="2.99203">
        <ele>25.60000038147</ele>
        <time>2019-07-16T23:32:32.000Z</time>
      </trkpt>
      <trkpt lat="50.6674" lon="2.99293">
        <ele>24.60000038147</ele>
        <time>2019-07-16T23:32:45.000Z</time>
      </trkpt>
      <trkpt lat="50.66719" lon="2.99311">
        <ele>24.39999961853</ele>
        <time>2019-07-16T23:32:49.000Z</time>
      </trkpt>
      <trkpt lat="50.66714" lon="2.99314">
        <ele>24.39999961853</ele>
        <time>2019-07-16T23:32:50.000Z</time>
      </trkpt>
      <trkpt lat="50.66636" lon="2.99371">
        <ele>25</ele>
        <time>2019-07-16T23:33:04.000Z</time>
      </trkpt>
      <trkpt lat="50.66571" lon="2.9944">
        <ele>25.799999237061</ele>
        <time>2019-07-16T23:33:17.000Z</time>
      </trkpt>
      <trkpt lat="50.66493" lon="2.99527">
        <ele>26.39999961853</ele>
        <time>2019-07-16T23:33:34.000Z</time>
      </trkpt>
      <trkpt lat="50.6649" lon="2.99534">
        <ele>26.60000038147</ele>
        <time>2019-07-16T23:33:35.000Z</time>
      </trkpt>
      <trkpt lat="50.66487" lon="2.99541">
        <ele>26.60000038147</ele>
        <time>2019-07-16T23:33:36.000Z</time>
      </trkpt>
      <trkpt lat="50.66485" lon="2.9955">
        <ele>26.60000038147</ele>
        <time>2019-07-16T23:33:37.000Z</time>
      </trkpt>
      <trkpt lat="50.66483" lon="2.99558">
        <ele>26.60000038147</ele>
        <time>2019-07-16T23:33:38.000Z</time>
      </trkpt>
      <trkpt lat="50.66482" lon="2.99566">
        <ele>26.60000038147</ele>
        <time>2019-07-16T23:33:39.000Z</time>
      </trkpt>
      <trkpt lat="50.66481" lon="2.99575">
        <ele>26.799999237061</ele>
        <time>2019-07-16T23:33:40.000Z</time>
      </trkpt>
      <trkpt lat="50.6646" lon="2.99734">
        <ele>26.200000762939</ele>
        <time>2019-07-16T23:33:58.000Z</time>
      </trkpt>
      <trkpt lat="50.66453" lon="2.99778">
        <ele>26.60000038147</ele>
        <time>2019-07-16T23:34:03.000Z</time>
      </trkpt>
      <trkpt lat="50.6645" lon="2.99786">
        <ele>26.799999237061</ele>
        <time>2019-07-16T23:34:04.000Z</time>
      </trkpt>
      <trkpt lat="50.66448" lon="2.99791">
        <ele>27</ele>
        <time>2019-07-16T23:34:05.000Z</time>
      </trkpt>
      <trkpt lat="50.66442" lon="2.99796">
        <ele>27.200000762939</ele>
        <time>2019-07-16T23:34:06.000Z</time>
      </trkpt>
      <trkpt lat="50.66439" lon="2.99798">
        <ele>27.200000762939</ele>
        <time>2019-07-16T23:34:07.000Z</time>
      </trkpt>
      <trkpt lat="50.66435" lon="2.998">
        <ele>27.39999961853</ele>
        <time>2019-07-16T23:34:08.000Z</time>
      </trkpt>
      <trkpt lat="50.6643" lon="2.99802">
        <ele>27.39999961853</ele>
        <time>2019-07-16T23:34:09.000Z</time>
      </trkpt>
      <trkpt lat="50.6642" lon="2.99807">
        <ele>27.39999961853</ele>
        <time>2019-07-16T23:34:11.000Z</time>
      </trkpt>
      <trkpt lat="50.66415" lon="2.99812">
        <ele>27.39999961853</ele>
        <time>2019-07-16T23:34:12.000Z</time>
      </trkpt>
      <trkpt lat="50.66411" lon="2.9982">
        <ele>27.200000762939</ele>
        <time>2019-07-16T23:34:13.000Z</time>
      </trkpt>
      <trkpt lat="50.66409" lon="2.99829">
        <ele>27.200000762939</ele>
        <time>2019-07-16T23:34:14.000Z</time>
      </trkpt>
      <trkpt lat="50.66408" lon="2.99838">
        <ele>27</ele>
        <time>2019-07-16T23:34:15.000Z</time>
      </trkpt>
      <trkpt lat="50.66409" lon="2.99849">
        <ele>27</ele>
        <time>2019-07-16T23:34:16.000Z</time>
      </trkpt>
      <trkpt lat="50.66398" lon="2.99988">
        <ele>26.39999961853</ele>
        <time>2019-07-16T23:34:31.000Z</time>
      </trkpt>
      <trkpt lat="50.66381" lon="3.00147">
        <ele>26.799999237061</ele>
        <time>2019-07-16T23:34:48.000Z</time>
      </trkpt>
      <trkpt lat="50.66361" lon="3.0029">
        <ele>27.60000038147</ele>
        <time>2019-07-16T23:35:03.000Z</time>
      </trkpt>
      <trkpt lat="50.66359" lon="3.003">
        <ele>27.799999237061</ele>
        <time>2019-07-16T23:35:04.000Z</time>
      </trkpt>
      <trkpt lat="50.66311" lon="3.00406">
        <ele>29.200000762939</ele>
        <time>2019-07-16T23:35:17.000Z</time>
      </trkpt>
      <trkpt lat="50.66238" lon="3.0054">
        <ele>27.799999237061</ele>
        <time>2019-07-16T23:35:35.000Z</time>
      </trkpt>
      <trkpt lat="50.66233" lon="3.00544">
        <ele>27.799999237061</ele>
        <time>2019-07-16T23:35:36.000Z</time>
      </trkpt>
      <trkpt lat="50.66136" lon="3.00621">
        <ele>28.39999961853</ele>
        <time>2019-07-16T23:35:53.000Z</time>
      </trkpt>
      <trkpt lat="50.66045" lon="3.00687">
        <ele>28</ele>
        <time>2019-07-16T23:36:08.000Z</time>
      </trkpt>
      <trkpt lat="50.65953" lon="3.00753">
        <ele>27.799999237061</ele>
        <time>2019-07-16T23:36:23.000Z</time>
      </trkpt>
      <trkpt lat="50.6586" lon="3.00819">
        <ele>26.799999237061</ele>
        <time>2019-07-16T23:36:38.000Z</time>
      </trkpt>
      <trkpt lat="50.65761" lon="3.00878">
        <ele>28</ele>
        <time>2019-07-16T23:36:55.000Z</time>
      </trkpt>
      <trkpt lat="50.6575" lon="3.00884">
        <ele>28</ele>
        <time>2019-07-16T23:36:57.000Z</time>
      </trkpt>
      <trkpt lat="50.65663" lon="3.0093">
        <ele>28</ele>
        <time>2019-07-16T23:37:12.000Z</time>
      </trkpt>
      <trkpt lat="50.65578" lon="3.00974">
        <ele>30.799999237061</ele>
        <time>2019-07-16T23:37:26.000Z</time>
      </trkpt>
      <trkpt lat="50.6549" lon="3.0102">
        <ele>30.200000762939</ele>
        <time>2019-07-16T23:37:41.000Z</time>
      </trkpt>
      <trkpt lat="50.6541" lon="3.0106">
        <ele>28.60000038147</ele>
        <time>2019-07-16T23:37:55.000Z</time>
      </trkpt>
      <trkpt lat="50.65371" lon="3.01072">
        <ele>28.200000762939</ele>
        <time>2019-07-16T23:38:04.000Z</time>
      </trkpt>
      <trkpt lat="50.65293" lon="3.01098">
        <ele>29</ele>
        <time>2019-07-16T23:38:16.000Z</time>
      </trkpt>
      <trkpt lat="50.65194" lon="3.01131">
        <ele>28.799999237061</ele>
        <time>2019-07-16T23:38:33.000Z</time>
      </trkpt>
      <trkpt lat="50.65188" lon="3.01131">
        <ele>28.60000038147</ele>
        <time>2019-07-16T23:38:34.000Z</time>
      </trkpt>
      <trkpt lat="50.65183" lon="3.01133">
        <ele>28.60000038147</ele>
        <time>2019-07-16T23:38:35.000Z</time>
      </trkpt>
      <trkpt lat="50.65099" lon="3.01166">
        <ele>26.799999237061</ele>
        <time>2019-07-16T23:38:48.000Z</time>
      </trkpt>
      <trkpt lat="50.65026" lon="3.01175">
        <ele>28.39999961853</ele>
        <time>2019-07-16T23:38:59.000Z</time>
      </trkpt>
      <trkpt lat="50.64922" lon="3.01135">
        <ele>28.200000762939</ele>
        <time>2019-07-16T23:39:16.000Z</time>
      </trkpt>
      <trkpt lat="50.64894" lon="3.01114">
        <ele>27.799999237061</ele>
        <time>2019-07-16T23:39:21.000Z</time>
      </trkpt>
      <trkpt lat="50.64889" lon="3.01107">
        <ele>27.799999237061</ele>
        <time>2019-07-16T23:39:22.000Z</time>
      </trkpt>
      <trkpt lat="50.64866" lon="3.01073">
        <ele>28.39999961853</ele>
        <time>2019-07-16T23:39:27.000Z</time>
      </trkpt>
      <trkpt lat="50.64861" lon="3.01069">
        <ele>28.60000038147</ele>
        <time>2019-07-16T23:39:28.000Z</time>
      </trkpt>
      <trkpt lat="50.64855" lon="3.01067">
        <ele>28.60000038147</ele>
        <time>2019-07-16T23:39:29.000Z</time>
      </trkpt>
      <trkpt lat="50.64849" lon="3.01069">
        <ele>28.799999237061</ele>
        <time>2019-07-16T23:39:30.000Z</time>
      </trkpt>
      <trkpt lat="50.64843" lon="3.01072">
        <ele>28.799999237061</ele>
        <time>2019-07-16T23:39:31.000Z</time>
      </trkpt>
      <trkpt lat="50.64837" lon="3.01076">
        <ele>28.799999237061</ele>
        <time>2019-07-16T23:39:32.000Z</time>
      </trkpt>
      <trkpt lat="50.64751" lon="3.01146">
        <ele>27.60000038147</ele>
        <time>2019-07-16T23:39:47.000Z</time>
      </trkpt>
      <trkpt lat="50.6471" lon="3.01189">
        <ele>27.200000762939</ele>
        <time>2019-07-16T23:39:55.000Z</time>
      </trkpt>
      <trkpt lat="50.64705" lon="3.0119">
        <ele>27.39999961853</ele>
        <time>2019-07-16T23:39:56.000Z</time>
      </trkpt>
      <trkpt lat="50.64699" lon="3.0119">
        <ele>27.39999961853</ele>
        <time>2019-07-16T23:39:57.000Z</time>
      </trkpt>
      <trkpt lat="50.64694" lon="3.01187">
        <ele>27.60000038147</ele>
        <time>2019-07-16T23:39:58.000Z</time>
      </trkpt>
      <trkpt lat="50.6469" lon="3.01181">
        <ele>27.60000038147</ele>
        <time>2019-07-16T23:39:59.000Z</time>
      </trkpt>
      <trkpt lat="50.64686" lon="3.01173">
        <ele>27.799999237061</ele>
        <time>2019-07-16T23:40:00.000Z</time>
      </trkpt>
      <trkpt lat="50.64682" lon="3.01165">
        <ele>27.799999237061</ele>
        <time>2019-07-16T23:40:01.000Z</time>
      </trkpt>
      <trkpt lat="50.64637" lon="3.0108">
        <ele>29</ele>
        <time>2019-07-16T23:40:12.000Z</time>
      </trkpt>
      <trkpt lat="50.64628" lon="3.01059">
        <ele>28.799999237061</ele>
        <time>2019-07-16T23:40:15.000Z</time>
      </trkpt>
      <trkpt lat="50.64603" lon="3.00999">
        <ele>28.39999961853</ele>
        <time>2019-07-16T23:40:26.000Z</time>
      </trkpt>
      <trkpt lat="50.64599" lon="3.00994">
        <ele>28.200000762939</ele>
        <time>2019-07-16T23:40:27.000Z</time>
      </trkpt>
      <trkpt lat="50.64595" lon="3.0099">
        <ele>28.200000762939</ele>
        <time>2019-07-16T23:40:28.000Z</time>
      </trkpt>
      <trkpt lat="50.64582" lon="3.00982">
        <ele>28</ele>
        <time>2019-07-16T23:40:30.000Z</time>
      </trkpt>
      <trkpt lat="50.64528" lon="3.00956">
        <ele>27.60000038147</ele>
        <time>2019-07-16T23:40:38.000Z</time>
      </trkpt>
      <trkpt lat="50.64521" lon="3.00956">
        <ele>27.60000038147</ele>
        <time>2019-07-16T23:40:39.000Z</time>
      </trkpt>
      <trkpt lat="50.64514" lon="3.00957">
        <ele>27.60000038147</ele>
        <time>2019-07-16T23:40:40.000Z</time>
      </trkpt>
      <trkpt lat="50.64508" lon="3.00958">
        <ele>27.60000038147</ele>
        <time>2019-07-16T23:40:41.000Z</time>
      </trkpt>
      <trkpt lat="50.645" lon="3.00958">
        <ele>27.60000038147</ele>
        <time>2019-07-16T23:40:42.000Z</time>
      </trkpt>
      <trkpt lat="50.64494" lon="3.00956">
        <ele>27.60000038147</ele>
        <time>2019-07-16T23:40:43.000Z</time>
      </trkpt>
      <trkpt lat="50.64487" lon="3.00953">
        <ele>27.60000038147</ele>
        <time>2019-07-16T23:40:44.000Z</time>
      </trkpt>
      <trkpt lat="50.6448" lon="3.00949">
        <ele>27.799999237061</ele>
        <time>2019-07-16T23:40:45.000Z</time>
      </trkpt>
      <trkpt lat="50.64474" lon="3.00944">
        <ele>27.799999237061</ele>
        <time>2019-07-16T23:40:46.000Z</time>
      </trkpt>
      <trkpt lat="50.64468" lon="3.00939">
        <ele>27.799999237061</ele>
        <time>2019-07-16T23:40:47.000Z</time>
      </trkpt>
      <trkpt lat="50.64462" lon="3.00932">
        <ele>28</ele>
        <time>2019-07-16T23:40:48.000Z</time>
      </trkpt>
      <trkpt lat="50.64457" lon="3.00925">
        <ele>28.200000762939</ele>
        <time>2019-07-16T23:40:49.000Z</time>
      </trkpt>
      <trkpt lat="50.64431" lon="3.00893">
        <ele>28.39999961853</ele>
        <time>2019-07-16T23:40:54.000Z</time>
      </trkpt>
      <trkpt lat="50.64427" lon="3.00886">
        <ele>28.60000038147</ele>
        <time>2019-07-16T23:40:55.000Z</time>
      </trkpt>
      <trkpt lat="50.64423" lon="3.00877">
        <ele>28.60000038147</ele>
        <time>2019-07-16T23:40:56.000Z</time>
      </trkpt>
      <trkpt lat="50.6442" lon="3.00868">
        <ele>28.60000038147</ele>
        <time>2019-07-16T23:40:57.000Z</time>
      </trkpt>
      <trkpt lat="50.64418" lon="3.00858">
        <ele>28.799999237061</ele>
        <time>2019-07-16T23:40:58.000Z</time>
      </trkpt>
      <trkpt lat="50.64416" lon="3.00848">
        <ele>29</ele>
        <time>2019-07-16T23:40:59.000Z</time>
      </trkpt>
      <trkpt lat="50.64415" lon="3.00838">
        <ele>29</ele>
        <time>2019-07-16T23:41:00.000Z</time>
      </trkpt>
      <trkpt lat="50.64415" lon="3.00828">
        <ele>29</ele>
        <time>2019-07-16T23:41:01.000Z</time>
      </trkpt>
      <trkpt lat="50.64415" lon="3.00817">
        <ele>29</ele>
        <time>2019-07-16T23:41:02.000Z</time>
      </trkpt>
      <trkpt lat="50.64416" lon="3.00807">
        <ele>29</ele>
        <time>2019-07-16T23:41:03.000Z</time>
      </trkpt>
      <trkpt lat="50.64418" lon="3.00797">
        <ele>29</ele>
        <time>2019-07-16T23:41:04.000Z</time>
      </trkpt>
      <trkpt lat="50.64421" lon="3.00788">
        <ele>29</ele>
        <time>2019-07-16T23:41:05.000Z</time>
      </trkpt>
      <trkpt lat="50.64424" lon="3.00779">
        <ele>29</ele>
        <time>2019-07-16T23:41:06.000Z</time>
      </trkpt>
      <trkpt lat="50.64465" lon="3.00658">
        <ele>29.200000762939</ele>
        <time>2019-07-16T23:41:19.000Z</time>
      </trkpt>
      <trkpt lat="50.64498" lon="3.00538">
        <ele>30.39999961853</ele>
        <time>2019-07-16T23:41:33.000Z</time>
      </trkpt>
      <trkpt lat="50.64498" lon="3.00462">
        <ele>31</ele>
        <time>2019-07-16T23:41:42.000Z</time>
      </trkpt>
      <trkpt lat="50.64499" lon="3.00444">
        <ele>31.200000762939</ele>
        <time>2019-07-16T23:41:44.000Z</time>
      </trkpt>
      <trkpt lat="50.64498" lon="3.00435">
        <ele>31.200000762939</ele>
        <time>2019-07-16T23:41:45.000Z</time>
      </trkpt>
      <trkpt lat="50.64496" lon="3.00426">
        <ele>31.39999961853</ele>
        <time>2019-07-16T23:41:46.000Z</time>
      </trkpt>
      <trkpt lat="50.64493" lon="3.00417">
        <ele>31.200000762939</ele>
        <time>2019-07-16T23:41:47.000Z</time>
      </trkpt>
      <trkpt lat="50.64491" lon="3.00408">
        <ele>31.200000762939</ele>
        <time>2019-07-16T23:41:48.000Z</time>
      </trkpt>
      <trkpt lat="50.6449" lon="3.004">
        <ele>31.200000762939</ele>
        <time>2019-07-16T23:41:49.000Z</time>
      </trkpt>
      <trkpt lat="50.64491" lon="3.0039">
        <ele>31.200000762939</ele>
        <time>2019-07-16T23:41:50.000Z</time>
      </trkpt>
      <trkpt lat="50.64492" lon="3.00381">
        <ele>31.200000762939</ele>
        <time>2019-07-16T23:41:51.000Z</time>
      </trkpt>
      <trkpt lat="50.64494" lon="3.00372">
        <ele>31.200000762939</ele>
        <time>2019-07-16T23:41:52.000Z</time>
      </trkpt>
      <trkpt lat="50.64518" lon="3.00259">
        <ele>32.599998474121</ele>
        <time>2019-07-16T23:42:07.000Z</time>
      </trkpt>
      <trkpt lat="50.64521" lon="3.00207">
        <ele>32.599998474121</ele>
        <time>2019-07-16T23:42:19.000Z</time>
      </trkpt>
      <trkpt lat="50.64519" lon="3.00182">
        <ele>32.599998474121</ele>
        <time>2019-07-16T23:42:23.000Z</time>
      </trkpt>
      <trkpt lat="50.64519" lon="3.00175">
        <ele>32.599998474121</ele>
        <time>2019-07-16T23:42:24.000Z</time>
      </trkpt>
      <trkpt lat="50.64519" lon="3.00167">
        <ele>32.599998474121</ele>
        <time>2019-07-16T23:42:25.000Z</time>
      </trkpt>
      <trkpt lat="50.6452" lon="3.00159">
        <ele>32.400001525879</ele>
        <time>2019-07-16T23:42:26.000Z</time>
      </trkpt>
      <trkpt lat="50.64522" lon="3.00151">
        <ele>32.400001525879</ele>
        <time>2019-07-16T23:42:27.000Z</time>
      </trkpt>
      <trkpt lat="50.64525" lon="3.00143">
        <ele>32.200000762939</ele>
        <time>2019-07-16T23:42:28.000Z</time>
      </trkpt>
      <trkpt lat="50.64528" lon="3.00135">
        <ele>32.200000762939</ele>
        <time>2019-07-16T23:42:29.000Z</time>
      </trkpt>
      <trkpt lat="50.6453" lon="3.00125">
        <ele>32.200000762939</ele>
        <time>2019-07-16T23:42:30.000Z</time>
      </trkpt>
      <trkpt lat="50.64529" lon="3.00116">
        <ele>32</ele>
        <time>2019-07-16T23:42:31.000Z</time>
      </trkpt>
      <trkpt lat="50.64526" lon="3.00108">
        <ele>31.799999237061</ele>
        <time>2019-07-16T23:42:32.000Z</time>
      </trkpt>
      <trkpt lat="50.64521" lon="3.00101">
        <ele>31.799999237061</ele>
        <time>2019-07-16T23:42:33.000Z</time>
      </trkpt>
      <trkpt lat="50.64515" lon="3.00095">
        <ele>31.60000038147</ele>
        <time>2019-07-16T23:42:34.000Z</time>
      </trkpt>
      <trkpt lat="50.64508" lon="3.00087">
        <ele>31.39999961853</ele>
        <time>2019-07-16T23:42:35.000Z</time>
      </trkpt>
      <trkpt lat="50.64502" lon="3.00079">
        <ele>31.200000762939</ele>
        <time>2019-07-16T23:42:36.000Z</time>
      </trkpt>
      <trkpt lat="50.64497" lon="3.00069">
        <ele>31</ele>
        <time>2019-07-16T23:42:37.000Z</time>
      </trkpt>
      <trkpt lat="50.64493" lon="3.00058">
        <ele>30.799999237061</ele>
        <time>2019-07-16T23:42:38.000Z</time>
      </trkpt>
      <trkpt lat="50.6449" lon="3.00046">
        <ele>30.799999237061</ele>
        <time>2019-07-16T23:42:39.000Z</time>
      </trkpt>
      <trkpt lat="50.64455" lon="2.9993">
        <ele>30.60000038147</ele>
        <time>2019-07-16T23:42:50.000Z</time>
      </trkpt>
      <trkpt lat="50.64412" lon="2.99839">
        <ele>30.799999237061</ele>
        <time>2019-07-16T23:43:01.000Z</time>
      </trkpt>
      <trkpt lat="50.64402" lon="2.99823">
        <ele>31</ele>
        <time>2019-07-16T23:43:04.000Z</time>
      </trkpt>
      <trkpt lat="50.64338" lon="2.99757">
        <ele>33</ele>
        <time>2019-07-16T23:43:17.000Z</time>
      </trkpt>
      <trkpt lat="50.6426" lon="2.99702">
        <ele>32.200000762939</ele>
        <time>2019-07-16T23:43:31.000Z</time>
      </trkpt>
      <trkpt lat="50.64241" lon="2.99688">
        <ele>31.60000038147</ele>
        <time>2019-07-16T23:43:35.000Z</time>
      </trkpt>
      <trkpt lat="50.64238" lon="2.99685">
        <ele>31.60000038147</ele>
        <time>2019-07-16T23:43:36.000Z</time>
      </trkpt>
      <trkpt lat="50.6421" lon="2.99663">
        <ele>30.799999237061</ele>
        <time>2019-07-16T23:43:47.000Z</time>
      </trkpt>
      <trkpt lat="50.64158" lon="2.99631">
        <ele>29.799999237061</ele>
        <time>2019-07-16T23:43:57.000Z</time>
      </trkpt>
      <trkpt lat="50.64126" lon="2.99603">
        <ele>29.39999961853</ele>
        <time>2019-07-16T23:44:04.000Z</time>
      </trkpt>
      <trkpt lat="50.64126" lon="2.99597">
        <ele>29.200000762939</ele>
        <time>2019-07-16T23:44:05.000Z</time>
      </trkpt>
      <trkpt lat="50.64128" lon="2.99592">
        <ele>29.200000762939</ele>
        <time>2019-07-16T23:44:06.000Z</time>
      </trkpt>
      <trkpt lat="50.64131" lon="2.99585">
        <ele>29.200000762939</ele>
        <time>2019-07-16T23:44:07.000Z</time>
      </trkpt>
      <trkpt lat="50.64135" lon="2.99578">
        <ele>29</ele>
        <time>2019-07-16T23:44:08.000Z</time>
      </trkpt>
      <trkpt lat="50.64139" lon="2.99572">
        <ele>29</ele>
        <time>2019-07-16T23:44:09.000Z</time>
      </trkpt>
      <trkpt lat="50.64145" lon="2.99566">
        <ele>29.200000762939</ele>
        <time>2019-07-16T23:44:10.000Z</time>
      </trkpt>
      <trkpt lat="50.6418" lon="2.99528">
        <ele>30</ele>
        <time>2019-07-16T23:44:16.000Z</time>
      </trkpt>
      <trkpt lat="50.64185" lon="2.99521">
        <ele>30.200000762939</ele>
        <time>2019-07-16T23:44:17.000Z</time>
      </trkpt>
      <trkpt lat="50.64188" lon="2.99512">
        <ele>30.200000762939</ele>
        <time>2019-07-16T23:44:18.000Z</time>
      </trkpt>
      <trkpt lat="50.64189" lon="2.99502">
        <ele>30.39999961853</ele>
        <time>2019-07-16T23:44:19.000Z</time>
      </trkpt>
      <trkpt lat="50.64187" lon="2.99492">
        <ele>30.60000038147</ele>
        <time>2019-07-16T23:44:20.000Z</time>
      </trkpt>
      <trkpt lat="50.64184" lon="2.99482">
        <ele>30.799999237061</ele>
        <time>2019-07-16T23:44:21.000Z</time>
      </trkpt>
      <trkpt lat="50.6418" lon="2.99471">
        <ele>31</ele>
        <time>2019-07-16T23:44:22.000Z</time>
      </trkpt>
      <trkpt lat="50.64178" lon="2.99459">
        <ele>31.200000762939</ele>
        <time>2019-07-16T23:44:23.000Z</time>
      </trkpt>
      <trkpt lat="50.6418" lon="2.99447">
        <ele>31.200000762939</ele>
        <time>2019-07-16T23:44:24.000Z</time>
      </trkpt>
      <trkpt lat="50.64183" lon="2.99436">
        <ele>31.39999961853</ele>
        <time>2019-07-16T23:44:25.000Z</time>
      </trkpt>
      <trkpt lat="50.64185" lon="2.99423">
        <ele>31.60000038147</ele>
        <time>2019-07-16T23:44:26.000Z</time>
      </trkpt>
      <trkpt lat="50.64187" lon="2.99409">
        <ele>31.799999237061</ele>
        <time>2019-07-16T23:44:27.000Z</time>
      </trkpt>
      <trkpt lat="50.6419" lon="2.99357">
        <ele>32</ele>
        <time>2019-07-16T23:44:31.000Z</time>
      </trkpt>
      <trkpt lat="50.64201" lon="2.99175">
        <ele>33.400001525879</ele>
        <time>2019-07-16T23:44:44.000Z</time>
      </trkpt>
      <trkpt lat="50.64196" lon="2.99083">
        <ele>34</ele>
        <time>2019-07-16T23:44:51.000Z</time>
      </trkpt>
      <trkpt lat="50.64196" lon="2.99071">
        <ele>34</ele>
        <time>2019-07-16T23:44:52.000Z</time>
      </trkpt>
      <trkpt lat="50.64198" lon="2.99061">
        <ele>34</ele>
        <time>2019-07-16T23:44:53.000Z</time>
      </trkpt>
      <trkpt lat="50.64202" lon="2.99051">
        <ele>34</ele>
        <time>2019-07-16T23:44:54.000Z</time>
      </trkpt>
      <trkpt lat="50.64206" lon="2.99043">
        <ele>34</ele>
        <time>2019-07-16T23:44:55.000Z</time>
      </trkpt>
      <trkpt lat="50.64211" lon="2.99034">
        <ele>34</ele>
        <time>2019-07-16T23:44:56.000Z</time>
      </trkpt>
      <trkpt lat="50.64215" lon="2.99024">
        <ele>34</ele>
        <time>2019-07-16T23:44:57.000Z</time>
      </trkpt>
      <trkpt lat="50.64217" lon="2.99014">
        <ele>34</ele>
        <time>2019-07-16T23:44:58.000Z</time>
      </trkpt>
      <trkpt lat="50.64217" lon="2.99003">
        <ele>34</ele>
        <time>2019-07-16T23:44:59.000Z</time>
      </trkpt>
      <trkpt lat="50.64216" lon="2.98992">
        <ele>34.200000762939</ele>
        <time>2019-07-16T23:45:00.000Z</time>
      </trkpt>
      <trkpt lat="50.64214" lon="2.98981">
        <ele>34.400001525879</ele>
        <time>2019-07-16T23:45:01.000Z</time>
      </trkpt>
      <trkpt lat="50.6421" lon="2.98971">
        <ele>34.400001525879</ele>
        <time>2019-07-16T23:45:02.000Z</time>
      </trkpt>
      <trkpt lat="50.64205" lon="2.98963">
        <ele>34.599998474121</ele>
        <time>2019-07-16T23:45:03.000Z</time>
      </trkpt>
      <trkpt lat="50.64199" lon="2.98957">
        <ele>34.599998474121</ele>
        <time>2019-07-16T23:45:04.000Z</time>
      </trkpt>
      <trkpt lat="50.64193" lon="2.98953">
        <ele>34.599998474121</ele>
        <time>2019-07-16T23:45:05.000Z</time>
      </trkpt>
      <trkpt lat="50.64186" lon="2.9895">
        <ele>34.599998474121</ele>
        <time>2019-07-16T23:45:06.000Z</time>
      </trkpt>
      <trkpt lat="50.6418" lon="2.98945">
        <ele>34.799999237061</ele>
        <time>2019-07-16T23:45:07.000Z</time>
      </trkpt>
      <trkpt lat="50.64175" lon="2.98936">
        <ele>34.799999237061</ele>
        <time>2019-07-16T23:45:08.000Z</time>
      </trkpt>
      <trkpt lat="50.64172" lon="2.98929">
        <ele>35</ele>
        <time>2019-07-16T23:45:09.000Z</time>
      </trkpt>
      <trkpt lat="50.6417" lon="2.98918">
        <ele>35</ele>
        <time>2019-07-16T23:45:10.000Z</time>
      </trkpt>
      <trkpt lat="50.64169" lon="2.98906">
        <ele>35</ele>
        <time>2019-07-16T23:45:11.000Z</time>
      </trkpt>
      <trkpt lat="50.64141" lon="2.98754">
        <ele>35</ele>
        <time>2019-07-16T23:45:25.000Z</time>
      </trkpt>
      <trkpt lat="50.64138" lon="2.98745">
        <ele>35</ele>
        <time>2019-07-16T23:45:26.000Z</time>
      </trkpt>
      <trkpt lat="50.6413" lon="2.98719">
        <ele>34.799999237061</ele>
        <time>2019-07-16T23:45:29.000Z</time>
      </trkpt>
      <trkpt lat="50.64129" lon="2.98711">
        <ele>34.799999237061</ele>
        <time>2019-07-16T23:45:30.000Z</time>
      </trkpt>
      <trkpt lat="50.64131" lon="2.98704">
        <ele>34.799999237061</ele>
        <time>2019-07-16T23:45:31.000Z</time>
      </trkpt>
      <trkpt lat="50.64134" lon="2.98698">
        <ele>35</ele>
        <time>2019-07-16T23:45:32.000Z</time>
      </trkpt>
      <trkpt lat="50.64138" lon="2.98694">
        <ele>35</ele>
        <time>2019-07-16T23:45:33.000Z</time>
      </trkpt>
      <trkpt lat="50.64142" lon="2.98691">
        <ele>35</ele>
        <time>2019-07-16T23:45:34.000Z</time>
      </trkpt>
      <trkpt lat="50.64147" lon="2.98689">
        <ele>35.200000762939</ele>
        <time>2019-07-16T23:45:35.000Z</time>
      </trkpt>
      <trkpt lat="50.64182" lon="2.98664">
        <ele>36.200000762939</ele>
        <time>2019-07-16T23:45:43.000Z</time>
      </trkpt>
      <trkpt lat="50.64213" lon="2.98649">
        <ele>37</ele>
        <time>2019-07-16T23:45:54.000Z</time>
      </trkpt>
      <trkpt lat="50.64218" lon="2.98655">
        <ele>37</ele>
        <time>2019-07-16T23:46:03.000Z</time>
      </trkpt>
      <trkpt lat="50.64217" lon="2.98656">
        <ele>37</ele>
        <time>2019-07-16T23:46:20.000Z</time>
      </trkpt>
      <trkpt lat="50.64221" lon="2.98662">
        <ele>37</ele>
        <time>2019-07-16T23:46:32.000Z</time>
      </trkpt>
      <trkpt lat="50.64221" lon="2.9866">
        <ele>37</ele>
        <time>2019-07-16T23:46:44.000Z</time>
      </trkpt>
    </trkseg>
  </trk>
</gpx>